<?xml version='1.0' encoding='UTF-8'?><gpx version="1.1" creator="JPX - https://github.com/jenetics/jpx" xmlns="http://www.topografix.com/GPX/1/1"><trk><trkseg><trkpt lat="39.1821493" lon="8.5161278"><ele>167.0</ele><time>2026-03-28T14:28:28.884Z</time></trkpt><trkpt lat="39.1822312" lon="8.5161687"><ele>167.0</ele><time>2026-03-28T14:29:00.863Z</time></trkpt><trkpt lat="39.1823275" lon="8.5162246"><ele>167.0</ele><time>2026-03-28T14:29:02.847Z</time></trkpt><trkpt lat="39.1824107" lon="8.5162415"><ele>167.0</ele><time>2026-03-28T14:29:04.912Z</time></trkpt><trkpt lat="39.1824871" lon="8.5162688"><ele>167.0</ele><time>2026-03-28T14:29:06.901Z</time></trkpt><trkpt lat="39.1824534" lon="8.5163634"><ele>167.0</ele><time>2026-03-28T14:29:09.89Z</time></trkpt><trkpt lat="39.1824131" lon="8.5164495"><ele>171.66666666666666</ele><time>2026-03-28T14:29:11.871Z</time></trkpt><trkpt lat="39.1824273" lon="8.5165653"><ele>176.33333333333331</ele><time>2026-03-28T14:29:13.893Z</time></trkpt><trkpt lat="39.1824502" lon="8.5166686"><ele>181.0</ele><time>2026-03-28T14:29:15.882Z</time></trkpt><trkpt lat="39.1825332" lon="8.5167689"><ele>185.66666666666666</ele><time>2026-03-28T14:29:17.894Z</time></trkpt><trkpt lat="39.1825875" lon="8.5168128"><ele>190.33333333333334</ele><time>2026-03-28T14:29:18.882Z</time></trkpt><trkpt lat="39.1826747" lon="8.5168392"><ele>195.0</ele><time>2026-03-28T14:29:20.879Z</time></trkpt><trkpt lat="39.1827658" lon="8.5169225"><ele>195.0</ele><time>2026-03-28T14:29:22.859Z</time></trkpt><trkpt lat="39.1828659" lon="8.5169951"><ele>195.0</ele><time>2026-03-28T14:29:24.876Z</time></trkpt><trkpt lat="39.1829444" lon="8.5170811"><ele>195.0</ele><time>2026-03-28T14:29:26.893Z</time></trkpt><trkpt lat="39.1829901" lon="8.5171435"><ele>195.0</ele><time>2026-03-28T14:29:28.903Z</time></trkpt><trkpt lat="39.1830581" lon="8.5172104"><ele>195.0</ele><time>2026-03-28T14:29:31.894Z</time></trkpt><trkpt lat="39.1831453" lon="8.5172792"><ele>200.6</ele><time>2026-03-28T14:30:45.863Z</time></trkpt><trkpt lat="39.183232" lon="8.5173313"><ele>206.2</ele><time>2026-03-28T14:30:46.88Z</time></trkpt><trkpt lat="39.1833194" lon="8.5173669"><ele>211.8</ele><time>2026-03-28T14:30:47.881Z</time></trkpt><trkpt lat="39.1834024" lon="8.5173764"><ele>217.4</ele><time>2026-03-28T14:30:48.879Z</time></trkpt><trkpt lat="39.1834925" lon="8.5173769"><ele>223.0</ele><time>2026-03-28T14:30:49.887Z</time></trkpt><trkpt lat="39.1835854" lon="8.5174151"><ele>222.99999999999997</ele><time>2026-03-28T14:30:50.897Z</time></trkpt><trkpt lat="39.1836632" lon="8.5174629"><ele>223.0</ele><time>2026-03-28T14:30:51.894Z</time></trkpt><trkpt lat="39.1837419" lon="8.5175143"><ele>223.0</ele><time>2026-03-28T14:30:52.883Z</time></trkpt><trkpt lat="39.1838232" lon="8.5175631"><ele>223.0</ele><time>2026-03-28T14:30:53.892Z</time></trkpt><trkpt lat="39.183908" lon="8.51761"><ele>222.99999999999997</ele><time>2026-03-28T14:30:54.867Z</time></trkpt><trkpt lat="39.1839886" lon="8.5176524"><ele>223.0</ele><time>2026-03-28T14:30:55.882Z</time></trkpt><trkpt lat="39.1840758" lon="8.5176894"><ele>223.66666666666666</ele><time>2026-03-28T14:30:56.877Z</time></trkpt><trkpt lat="39.1841591" lon="8.5177349"><ele>224.33333333333331</ele><time>2026-03-28T14:30:57.855Z</time></trkpt><trkpt lat="39.1842252" lon="8.5177934"><ele>225.0</ele><time>2026-03-28T14:30:58.887Z</time></trkpt><trkpt lat="39.1842799" lon="8.5178764"><ele>225.66666666666669</ele><time>2026-03-28T14:30:59.864Z</time></trkpt><trkpt lat="39.1843298" lon="8.5179633"><ele>226.33333333333334</ele><time>2026-03-28T14:31:00.911Z</time></trkpt><trkpt lat="39.1843753" lon="8.5180636"><ele>227.0</ele><time>2026-03-28T14:31:01.854Z</time></trkpt><trkpt lat="39.1844092" lon="8.5181824"><ele>229.00000000000003</ele><time>2026-03-28T14:31:02.887Z</time></trkpt><trkpt lat="39.1844336" lon="8.5183174"><ele>231.0</ele><time>2026-03-28T14:31:03.858Z</time></trkpt><trkpt lat="39.1844397" lon="8.518426"><ele>233.0</ele><time>2026-03-28T14:31:04.88Z</time></trkpt><trkpt lat="39.1844217" lon="8.5185234"><ele>235.0</ele><time>2026-03-28T14:31:05.889Z</time></trkpt><trkpt lat="39.1843875" lon="8.5186181"><ele>237.00000000000003</ele><time>2026-03-28T14:31:06.883Z</time></trkpt><trkpt lat="39.1843475" lon="8.5187185"><ele>239.0</ele><time>2026-03-28T14:31:07.877Z</time></trkpt><trkpt lat="39.1843084" lon="8.5188231"><ele>240.2</ele><time>2026-03-28T14:31:08.869Z</time></trkpt><trkpt lat="39.1842777" lon="8.5189391"><ele>241.39999999999998</ele><time>2026-03-28T14:31:09.894Z</time></trkpt><trkpt lat="39.1842501" lon="8.519052"><ele>242.6</ele><time>2026-03-28T14:31:10.883Z</time></trkpt><trkpt lat="39.1842355" lon="8.5191454"><ele>243.8</ele><time>2026-03-28T14:31:11.887Z</time></trkpt><trkpt lat="39.1842384" lon="8.5193079"><ele>245.0</ele><time>2026-03-28T14:31:13.87Z</time></trkpt><trkpt lat="39.1842607" lon="8.5194168"><ele>245.00000000000003</ele><time>2026-03-28T14:31:14.887Z</time></trkpt><trkpt lat="39.1842872" lon="8.5195349"><ele>245.0</ele><time>2026-03-28T14:31:15.898Z</time></trkpt><trkpt lat="39.1843138" lon="8.5196504"><ele>245.0</ele><time>2026-03-28T14:31:16.88Z</time></trkpt><trkpt lat="39.1843415" lon="8.5197622"><ele>245.0</ele><time>2026-03-28T14:31:17.86Z</time></trkpt><trkpt lat="39.1843724" lon="8.5198644"><ele>245.00000000000003</ele><time>2026-03-28T14:31:18.889Z</time></trkpt><trkpt lat="39.1844117" lon="8.5199553"><ele>245.0</ele><time>2026-03-28T14:31:19.883Z</time></trkpt><trkpt lat="39.1844589" lon="8.5200182"><ele>244.50000000000003</ele><time>2026-03-28T14:31:20.884Z</time></trkpt><trkpt lat="39.1845084" lon="8.5200744"><ele>244.0</ele><time>2026-03-28T14:31:21.88Z</time></trkpt><trkpt lat="39.1845549" lon="8.5201374"><ele>243.5</ele><time>2026-03-28T14:31:22.877Z</time></trkpt><trkpt lat="39.1845938" lon="8.5202162"><ele>243.0</ele><time>2026-03-28T14:31:23.885Z</time></trkpt><trkpt lat="39.1846189" lon="8.5203175"><ele>242.50000000000003</ele><time>2026-03-28T14:31:24.864Z</time></trkpt><trkpt lat="39.1846414" lon="8.520426"><ele>242.0</ele><time>2026-03-28T14:31:25.86Z</time></trkpt><trkpt lat="39.1846645" lon="8.5205202"><ele>242.00000000000003</ele><time>2026-03-28T14:31:27.906Z</time></trkpt><trkpt lat="39.1847394" lon="8.5206145"><ele>242.0</ele><time>2026-03-28T14:31:29.894Z</time></trkpt><trkpt lat="39.1847924" lon="8.5206669"><ele>242.0</ele><time>2026-03-28T14:31:30.912Z</time></trkpt><trkpt lat="39.1848512" lon="8.5207419"><ele>242.0</ele><time>2026-03-28T14:31:31.892Z</time></trkpt><trkpt lat="39.1849031" lon="8.5208305"><ele>242.00000000000003</ele><time>2026-03-28T14:31:32.882Z</time></trkpt><trkpt lat="39.1849524" lon="8.520917"><ele>242.0</ele><time>2026-03-28T14:31:33.9Z</time></trkpt><trkpt lat="39.1850062" lon="8.5209934"><ele>244.33333333333334</ele><time>2026-03-28T14:31:34.901Z</time></trkpt><trkpt lat="39.1850673" lon="8.5210574"><ele>246.66666666666669</ele><time>2026-03-28T14:31:35.866Z</time></trkpt><trkpt lat="39.1851285" lon="8.5211164"><ele>249.0</ele><time>2026-03-28T14:31:36.894Z</time></trkpt><trkpt lat="39.1851851" lon="8.5211798"><ele>251.33333333333331</ele><time>2026-03-28T14:31:37.908Z</time></trkpt><trkpt lat="39.1852377" lon="8.52125"><ele>253.66666666666666</ele><time>2026-03-28T14:31:38.895Z</time></trkpt><trkpt lat="39.1852769" lon="8.5213375"><ele>256.0</ele><time>2026-03-28T14:31:39.891Z</time></trkpt><trkpt lat="39.1853062" lon="8.5214236"><ele>256.5</ele><time>2026-03-28T14:31:40.873Z</time></trkpt><trkpt lat="39.1853902" lon="8.5215206"><ele>257.0</ele><time>2026-03-28T14:31:42.896Z</time></trkpt><trkpt lat="39.1854535" lon="8.5215649"><ele>257.5</ele><time>2026-03-28T14:31:43.888Z</time></trkpt><trkpt lat="39.1855135" lon="8.5216166"><ele>258.0</ele><time>2026-03-28T14:31:44.865Z</time></trkpt><trkpt lat="39.1856018" lon="8.5216514"><ele>258.5</ele><time>2026-03-28T14:31:46.886Z</time></trkpt><trkpt lat="39.1856466" lon="8.5215894"><ele>259.0</ele><time>2026-03-28T14:31:47.876Z</time></trkpt><trkpt lat="39.1857072" lon="8.5215239"><ele>261.42857142857144</ele><time>2026-03-28T14:31:48.881Z</time></trkpt><trkpt lat="39.1857719" lon="8.5214956"><ele>263.8571428571429</ele><time>2026-03-28T14:31:49.887Z</time></trkpt><trkpt lat="39.1858368" lon="8.5215189"><ele>266.2857142857143</ele><time>2026-03-28T14:31:50.886Z</time></trkpt><trkpt lat="39.1858924" lon="8.521578"><ele>268.7142857142857</ele><time>2026-03-28T14:31:51.874Z</time></trkpt><trkpt lat="39.185944" lon="8.5216496"><ele>271.14285714285717</ele><time>2026-03-28T14:31:52.85Z</time></trkpt><trkpt lat="39.1860009" lon="8.5217179"><ele>273.57142857142856</ele><time>2026-03-28T14:31:53.898Z</time></trkpt><trkpt lat="39.1860584" lon="8.5217777"><ele>276.0</ele><time>2026-03-28T14:31:54.894Z</time></trkpt><trkpt lat="39.1861311" lon="8.5218021"><ele>276.0</ele><time>2026-03-28T14:31:55.88Z</time></trkpt><trkpt lat="39.1862215" lon="8.5218059"><ele>276.0</ele><time>2026-03-28T14:31:56.899Z</time></trkpt><trkpt lat="39.1863223" lon="8.5218089"><ele>276.0</ele><time>2026-03-28T14:31:57.884Z</time></trkpt><trkpt lat="39.1864009" lon="8.5218213"><ele>276.0</ele><time>2026-03-28T14:31:58.875Z</time></trkpt><trkpt lat="39.1864587" lon="8.521874"><ele>276.0</ele><time>2026-03-28T14:31:59.881Z</time></trkpt><trkpt lat="39.1865127" lon="8.5219574"><ele>276.0</ele><time>2026-03-28T14:32:00.89Z</time></trkpt><trkpt lat="39.1865572" lon="8.5220477"><ele>277.57142857142856</ele><time>2026-03-28T14:32:01.898Z</time></trkpt><trkpt lat="39.1866143" lon="8.5221046"><ele>279.14285714285717</ele><time>2026-03-28T14:32:02.903Z</time></trkpt><trkpt lat="39.1866817" lon="8.5221182"><ele>280.7142857142857</ele><time>2026-03-28T14:32:03.897Z</time></trkpt><trkpt lat="39.1867473" lon="8.5221234"><ele>282.2857142857143</ele><time>2026-03-28T14:32:04.886Z</time></trkpt><trkpt lat="39.1868117" lon="8.5221341"><ele>283.8571428571429</ele><time>2026-03-28T14:32:05.886Z</time></trkpt><trkpt lat="39.1868665" lon="8.5221794"><ele>285.42857142857144</ele><time>2026-03-28T14:32:06.895Z</time></trkpt><trkpt lat="39.1869131" lon="8.5222528"><ele>287.0</ele><time>2026-03-28T14:32:07.887Z</time></trkpt><trkpt lat="39.1869629" lon="8.52235"><ele>287.0</ele><time>2026-03-28T14:32:08.891Z</time></trkpt><trkpt lat="39.1870118" lon="8.5224632"><ele>287.0</ele><time>2026-03-28T14:32:09.879Z</time></trkpt><trkpt lat="39.1870634" lon="8.5225809"><ele>287.0</ele><time>2026-03-28T14:32:10.884Z</time></trkpt><trkpt lat="39.187102" lon="8.5227005"><ele>287.0</ele><time>2026-03-28T14:32:11.888Z</time></trkpt><trkpt lat="39.1871381" lon="8.5228018"><ele>287.0</ele><time>2026-03-28T14:32:12.9Z</time></trkpt><trkpt lat="39.1871809" lon="8.5228815"><ele>286.6666666666667</ele><time>2026-03-28T14:32:13.88Z</time></trkpt><trkpt lat="39.1872367" lon="8.5229449"><ele>286.33333333333337</ele><time>2026-03-28T14:32:14.885Z</time></trkpt><trkpt lat="39.1873018" lon="8.5230148"><ele>286.0</ele><time>2026-03-28T14:32:15.884Z</time></trkpt><trkpt lat="39.1873574" lon="8.5230959"><ele>285.6666666666667</ele><time>2026-03-28T14:32:16.89Z</time></trkpt><trkpt lat="39.1873981" lon="8.5232012"><ele>285.3333333333333</ele><time>2026-03-28T14:32:17.881Z</time></trkpt><trkpt lat="39.1874378" lon="8.5233003"><ele>285.0</ele><time>2026-03-28T14:32:18.89Z</time></trkpt><trkpt lat="39.1874684" lon="8.5233949"><ele>286.6666666666667</ele><time>2026-03-28T14:32:19.888Z</time></trkpt><trkpt lat="39.1874956" lon="8.5234847"><ele>288.3333333333333</ele><time>2026-03-28T14:32:20.895Z</time></trkpt><trkpt lat="39.1875173" lon="8.5235742"><ele>290.0</ele><time>2026-03-28T14:32:21.875Z</time></trkpt><trkpt lat="39.1875385" lon="8.5236599"><ele>291.66666666666663</ele><time>2026-03-28T14:32:22.843Z</time></trkpt><trkpt lat="39.1875659" lon="8.5237919"><ele>293.3333333333333</ele><time>2026-03-28T14:32:24.882Z</time></trkpt><trkpt lat="39.187598" lon="8.5239011"><ele>295.0</ele><time>2026-03-28T14:32:26.888Z</time></trkpt><trkpt lat="39.1876211" lon="8.5239803"><ele>295.0</ele><time>2026-03-28T14:32:28.884Z</time></trkpt><trkpt lat="39.1876129" lon="8.524077"><ele>295.0</ele><time>2026-03-28T14:32:52.896Z</time></trkpt><trkpt lat="39.1876064" lon="8.5242286"><ele>295.0</ele><time>2026-03-28T14:32:54.855Z</time></trkpt><trkpt lat="39.1876016" lon="8.5243964"><ele>295.0</ele><time>2026-03-28T14:32:55.891Z</time></trkpt><trkpt lat="39.1875894" lon="8.5245528"><ele>295.0</ele><time>2026-03-28T14:32:56.9Z</time></trkpt><trkpt lat="39.1875796" lon="8.5246914"><ele>296.16666666666663</ele><time>2026-03-28T14:32:57.882Z</time></trkpt><trkpt lat="39.1875825" lon="8.5248036"><ele>297.3333333333333</ele><time>2026-03-28T14:32:58.877Z</time></trkpt><trkpt lat="39.1875767" lon="8.5249108"><ele>298.5</ele><time>2026-03-28T14:32:59.895Z</time></trkpt><trkpt lat="39.1875616" lon="8.5250178"><ele>299.6666666666667</ele><time>2026-03-28T14:33:00.897Z</time></trkpt><trkpt lat="39.1875336" lon="8.5251355"><ele>300.83333333333337</ele><time>2026-03-28T14:33:01.888Z</time></trkpt><trkpt lat="39.1874897" lon="8.5252448"><ele>302.0</ele><time>2026-03-28T14:33:02.884Z</time></trkpt><trkpt lat="39.1874278" lon="8.525348"><ele>301.0</ele><time>2026-03-28T14:33:03.87Z</time></trkpt><trkpt lat="39.1873737" lon="8.5254493"><ele>300.0</ele><time>2026-03-28T14:33:04.885Z</time></trkpt><trkpt lat="39.1873221" lon="8.5255568"><ele>299.0</ele><time>2026-03-28T14:33:05.883Z</time></trkpt><trkpt lat="39.187273" lon="8.5256531"><ele>298.0</ele><time>2026-03-28T14:33:06.881Z</time></trkpt><trkpt lat="39.1872232" lon="8.5257249"><ele>297.0</ele><time>2026-03-28T14:33:07.885Z</time></trkpt><trkpt lat="39.1871718" lon="8.5258025"><ele>296.0</ele><time>2026-03-28T14:33:08.898Z</time></trkpt><trkpt lat="39.1871241" lon="8.5258855"><ele>296.0</ele><time>2026-03-28T14:33:09.898Z</time></trkpt><trkpt lat="39.1870801" lon="8.5259903"><ele>296.0</ele><time>2026-03-28T14:33:10.887Z</time></trkpt><trkpt lat="39.1870408" lon="8.5261015"><ele>296.0</ele><time>2026-03-28T14:33:11.908Z</time></trkpt><trkpt lat="39.1870105" lon="8.5262053"><ele>296.0</ele><time>2026-03-28T14:33:12.896Z</time></trkpt><trkpt lat="39.1869847" lon="8.5263059"><ele>296.0</ele><time>2026-03-28T14:33:13.907Z</time></trkpt><trkpt lat="39.1869685" lon="8.5264058"><ele>296.0</ele><time>2026-03-28T14:33:14.893Z</time></trkpt><trkpt lat="39.1869528" lon="8.5265167"><ele>297.40000000000003</ele><time>2026-03-28T14:33:15.909Z</time></trkpt><trkpt lat="39.1869409" lon="8.5266413"><ele>298.8</ele><time>2026-03-28T14:33:16.881Z</time></trkpt><trkpt lat="39.1869332" lon="8.5267891"><ele>300.20000000000005</ele><time>2026-03-28T14:33:17.9Z</time></trkpt><trkpt lat="39.186925" lon="8.5269305"><ele>301.6</ele><time>2026-03-28T14:33:18.898Z</time></trkpt><trkpt lat="39.1869183" lon="8.5270542"><ele>303.0</ele><time>2026-03-28T14:33:19.888Z</time></trkpt><trkpt lat="39.1868964" lon="8.5271693"><ele>303.8</ele><time>2026-03-28T14:33:20.881Z</time></trkpt><trkpt lat="39.186864" lon="8.527285"><ele>304.6</ele><time>2026-03-28T14:33:21.888Z</time></trkpt><trkpt lat="39.1868043" lon="8.5273966"><ele>305.4</ele><time>2026-03-28T14:33:22.851Z</time></trkpt><trkpt lat="39.1867176" lon="8.5275191"><ele>306.2</ele><time>2026-03-28T14:33:23.872Z</time></trkpt><trkpt lat="39.1866384" lon="8.5276294"><ele>307.0</ele><time>2026-03-28T14:33:24.868Z</time></trkpt><trkpt lat="39.1865633" lon="8.5277371"><ele>305.8</ele><time>2026-03-28T14:33:25.888Z</time></trkpt><trkpt lat="39.186484" lon="8.5278369"><ele>304.6</ele><time>2026-03-28T14:33:26.898Z</time></trkpt><trkpt lat="39.1864017" lon="8.5279178"><ele>303.40000000000003</ele><time>2026-03-28T14:33:27.873Z</time></trkpt><trkpt lat="39.1863292" lon="8.5280053"><ele>302.2</ele><time>2026-03-28T14:33:28.904Z</time></trkpt><trkpt lat="39.1862656" lon="8.5281023"><ele>301.0</ele><time>2026-03-28T14:33:29.884Z</time></trkpt><trkpt lat="39.1862024" lon="8.5282039"><ele>301.0</ele><time>2026-03-28T14:33:30.896Z</time></trkpt><trkpt lat="39.1861406" lon="8.5282904"><ele>301.0</ele><time>2026-03-28T14:33:31.872Z</time></trkpt><trkpt lat="39.1860787" lon="8.5283582"><ele>301.0</ele><time>2026-03-28T14:33:32.902Z</time></trkpt><trkpt lat="39.1859978" lon="8.5284219"><ele>301.0</ele><time>2026-03-28T14:33:33.903Z</time></trkpt><trkpt lat="39.1859113" lon="8.5284833"><ele>301.0</ele><time>2026-03-28T14:33:34.893Z</time></trkpt><trkpt lat="39.1858374" lon="8.5285406"><ele>301.0</ele><time>2026-03-28T14:33:35.873Z</time></trkpt><trkpt lat="39.1857748" lon="8.528588"><ele>301.0</ele><time>2026-03-28T14:33:36.866Z</time></trkpt><trkpt lat="39.1857143" lon="8.5286214"><ele>301.0</ele><time>2026-03-28T14:33:37.897Z</time></trkpt><trkpt lat="39.1856497" lon="8.5286449"><ele>301.0</ele><time>2026-03-28T14:33:38.91Z</time></trkpt><trkpt lat="39.1855776" lon="8.5286544"><ele>301.0</ele><time>2026-03-28T14:33:39.9Z</time></trkpt><trkpt lat="39.1854946" lon="8.5286937"><ele>301.0</ele><time>2026-03-28T14:33:40.898Z</time></trkpt><trkpt lat="39.1853968" lon="8.5287383"><ele>299.66666666666663</ele><time>2026-03-28T14:33:41.901Z</time></trkpt><trkpt lat="39.1853069" lon="8.5287801"><ele>298.3333333333333</ele><time>2026-03-28T14:33:42.9Z</time></trkpt><trkpt lat="39.1852289" lon="8.5288081"><ele>297.0</ele><time>2026-03-28T14:33:43.904Z</time></trkpt><trkpt lat="39.1851624" lon="8.5288342"><ele>295.6666666666667</ele><time>2026-03-28T14:33:44.883Z</time></trkpt><trkpt lat="39.1850875" lon="8.5288543"><ele>294.33333333333337</ele><time>2026-03-28T14:33:46.863Z</time></trkpt><trkpt lat="39.1850206" lon="8.5289041"><ele>293.0</ele><time>2026-03-28T14:33:52.89Z</time></trkpt><trkpt lat="39.1849274" lon="8.5289394"><ele>291.4</ele><time>2026-03-28T14:33:54.882Z</time></trkpt><trkpt lat="39.1848308" lon="8.5289966"><ele>289.8</ele><time>2026-03-28T14:33:56.892Z</time></trkpt><trkpt lat="39.1847397" lon="8.5290315"><ele>288.2</ele><time>2026-03-28T14:33:58.901Z</time></trkpt><trkpt lat="39.1846496" lon="8.5290848"><ele>286.6</ele><time>2026-03-28T14:34:00.886Z</time></trkpt><trkpt lat="39.1845882" lon="8.529207"><ele>285.0</ele><time>2026-03-28T14:34:02.891Z</time></trkpt><trkpt lat="39.1845352" lon="8.5293216"><ele>285.0</ele><time>2026-03-28T14:34:04.883Z</time></trkpt><trkpt lat="39.184452" lon="8.5294281"><ele>285.0</ele><time>2026-03-28T14:34:06.877Z</time></trkpt><trkpt lat="39.1843864" lon="8.5295328"><ele>285.0</ele><time>2026-03-28T14:34:08.869Z</time></trkpt><trkpt lat="39.1843149" lon="8.5296211"><ele>285.0</ele><time>2026-03-28T14:34:10.898Z</time></trkpt><trkpt lat="39.1842972" lon="8.529741"><ele>285.0</ele><time>2026-03-28T14:34:12.893Z</time></trkpt><trkpt lat="39.1842414" lon="8.5298667"><ele>284.3333333333333</ele><time>2026-03-28T14:34:14.885Z</time></trkpt><trkpt lat="39.1841991" lon="8.5299271"><ele>283.6666666666667</ele><time>2026-03-28T14:34:15.891Z</time></trkpt><trkpt lat="39.1841196" lon="8.5300205"><ele>283.0</ele><time>2026-03-28T14:34:17.88Z</time></trkpt><trkpt lat="39.1840558" lon="8.5301059"><ele>282.33333333333337</ele><time>2026-03-28T14:34:19.892Z</time></trkpt><trkpt lat="39.1839639" lon="8.530194"><ele>281.6666666666667</ele><time>2026-03-28T14:34:21.895Z</time></trkpt><trkpt lat="39.1839098" lon="8.5302388"><ele>281.0</ele><time>2026-03-28T14:34:22.881Z</time></trkpt><trkpt lat="39.1838539" lon="8.5302924"><ele>279.5</ele><time>2026-03-28T14:34:23.89Z</time></trkpt><trkpt lat="39.183802" lon="8.5303422"><ele>278.0</ele><time>2026-03-28T14:34:24.886Z</time></trkpt><trkpt lat="39.1837129" lon="8.5304437"><ele>276.5</ele><time>2026-03-28T14:34:26.88Z</time></trkpt><trkpt lat="39.1836665" lon="8.530506"><ele>275.0</ele><time>2026-03-28T14:34:27.882Z</time></trkpt><trkpt lat="39.1836238" lon="8.530582"><ele>273.5</ele><time>2026-03-28T14:34:28.901Z</time></trkpt><trkpt lat="39.1835909" lon="8.5306579"><ele>272.0</ele><time>2026-03-28T14:34:29.898Z</time></trkpt><trkpt lat="39.1835947" lon="8.530755"><ele>272.0</ele><time>2026-03-28T14:34:31.901Z</time></trkpt><trkpt lat="39.1836793" lon="8.5308699"><ele>272.0</ele><time>2026-03-28T14:34:33.883Z</time></trkpt><trkpt lat="39.1837238" lon="8.5309493"><ele>272.0</ele><time>2026-03-28T14:34:34.886Z</time></trkpt><trkpt lat="39.1837738" lon="8.5310171"><ele>272.0</ele><time>2026-03-28T14:34:35.885Z</time></trkpt><trkpt lat="39.1838311" lon="8.5310714"><ele>272.0</ele><time>2026-03-28T14:34:36.892Z</time></trkpt><trkpt lat="39.1839189" lon="8.5311464"><ele>272.0</ele><time>2026-03-28T14:34:38.884Z</time></trkpt><trkpt lat="39.1840045" lon="8.5311901"><ele>270.0</ele><time>2026-03-28T14:34:40.843Z</time></trkpt><trkpt lat="39.184104" lon="8.5312818"><ele>268.0</ele><time>2026-03-28T14:34:42.892Z</time></trkpt><trkpt lat="39.1841505" lon="8.5313367"><ele>266.0</ele><time>2026-03-28T14:34:43.887Z</time></trkpt><trkpt lat="39.1842337" lon="8.5314103"><ele>264.0</ele><time>2026-03-28T14:34:45.888Z</time></trkpt><trkpt lat="39.1843313" lon="8.5314476"><ele>262.0</ele><time>2026-03-28T14:34:47.859Z</time></trkpt><trkpt lat="39.1844195" lon="8.5314328"><ele>262.0</ele><time>2026-03-28T14:34:49.864Z</time></trkpt><trkpt lat="39.1844932" lon="8.5314332"><ele>262.0</ele><time>2026-03-28T14:34:51.857Z</time></trkpt><trkpt lat="39.1845806" lon="8.531394"><ele>262.0</ele><time>2026-03-28T14:34:53.882Z</time></trkpt><trkpt lat="39.1846666" lon="8.5313249"><ele>262.0</ele><time>2026-03-28T14:34:55.879Z</time></trkpt><trkpt lat="39.1847381" lon="8.5312388"><ele>262.0</ele><time>2026-03-28T14:34:57.888Z</time></trkpt><trkpt lat="39.1848179" lon="8.5311584"><ele>262.4</ele><time>2026-03-28T14:34:59.89Z</time></trkpt><trkpt lat="39.1849034" lon="8.5310726"><ele>262.79999999999995</ele><time>2026-03-28T14:35:01.892Z</time></trkpt><trkpt lat="39.1849645" lon="8.5309605"><ele>263.2</ele><time>2026-03-28T14:35:03.899Z</time></trkpt><trkpt lat="39.1850069" lon="8.5308651"><ele>263.59999999999997</ele><time>2026-03-28T14:35:05.891Z</time></trkpt><trkpt lat="39.185062" lon="8.5307962"><ele>264.0</ele><time>2026-03-28T14:35:07.909Z</time></trkpt><trkpt lat="39.185167" lon="8.5307893"><ele>264.0</ele><time>2026-03-28T14:35:09.857Z</time></trkpt><trkpt lat="39.1852631" lon="8.5308284"><ele>264.0</ele><time>2026-03-28T14:35:11.892Z</time></trkpt><trkpt lat="39.1853662" lon="8.5308831"><ele>264.0</ele><time>2026-03-28T14:35:13.879Z</time></trkpt><trkpt lat="39.1854498" lon="8.5309372"><ele>264.0</ele><time>2026-03-28T14:35:15.86Z</time></trkpt><trkpt lat="39.185523" lon="8.5309782"><ele>264.0</ele><time>2026-03-28T14:35:17.848Z</time></trkpt><trkpt lat="39.1856167" lon="8.5309856"><ele>262.59999999999997</ele><time>2026-03-28T14:35:19.865Z</time></trkpt><trkpt lat="39.1856933" lon="8.5309832"><ele>261.2</ele><time>2026-03-28T14:35:21.877Z</time></trkpt><trkpt lat="39.1857444" lon="8.5310553"><ele>259.79999999999995</ele><time>2026-03-28T14:35:24.883Z</time></trkpt><trkpt lat="39.1856797" lon="8.5311735"><ele>258.4</ele><time>2026-03-28T14:35:26.91Z</time></trkpt><trkpt lat="39.1855985" lon="8.5312777"><ele>257.0</ele><time>2026-03-28T14:35:28.85Z</time></trkpt><trkpt lat="39.1855414" lon="8.5313324"><ele>256.1666666666667</ele><time>2026-03-28T14:35:29.878Z</time></trkpt><trkpt lat="39.1854539" lon="8.5314336"><ele>255.33333333333334</ele><time>2026-03-28T14:35:31.885Z</time></trkpt><trkpt lat="39.1854169" lon="8.5315035"><ele>254.5</ele><time>2026-03-28T14:35:32.882Z</time></trkpt><trkpt lat="39.1853692" lon="8.5315809"><ele>253.66666666666669</ele><time>2026-03-28T14:35:33.895Z</time></trkpt><trkpt lat="39.1853197" lon="8.5316729"><ele>252.83333333333334</ele><time>2026-03-28T14:35:34.876Z</time></trkpt><trkpt lat="39.1852746" lon="8.5317523"><ele>252.0</ele><time>2026-03-28T14:35:35.861Z</time></trkpt><trkpt lat="39.1852333" lon="8.5318506"><ele>252.0</ele><time>2026-03-28T14:35:37.916Z</time></trkpt><trkpt lat="39.1852143" lon="8.5319466"><ele>252.0</ele><time>2026-03-28T14:35:39.869Z</time></trkpt><trkpt lat="39.1851698" lon="8.5320696"><ele>252.0</ele><time>2026-03-28T14:35:41.875Z</time></trkpt><trkpt lat="39.1851305" lon="8.5322096"><ele>252.0</ele><time>2026-03-28T14:35:43.87Z</time></trkpt><trkpt lat="39.1851076" lon="8.5323515"><ele>252.0</ele><time>2026-03-28T14:35:45.867Z</time></trkpt><trkpt lat="39.1850347" lon="8.5324585"><ele>250.5</ele><time>2026-03-28T14:35:47.877Z</time></trkpt><trkpt lat="39.184967" lon="8.532525"><ele>249.0</ele><time>2026-03-28T14:35:49.875Z</time></trkpt><trkpt lat="39.1849095" lon="8.5325821"><ele>247.5</ele><time>2026-03-28T14:35:51.866Z</time></trkpt><trkpt lat="39.1848667" lon="8.5326651"><ele>246.0</ele><time>2026-03-28T14:35:53.888Z</time></trkpt><trkpt lat="39.1848176" lon="8.532724"><ele>244.5</ele><time>2026-03-28T14:35:55.884Z</time></trkpt><trkpt lat="39.1847464" lon="8.5327462"><ele>243.0</ele><time>2026-03-28T14:35:57.868Z</time></trkpt><trkpt lat="39.1846651" lon="8.5327609"><ele>242.83333333333334</ele><time>2026-03-28T14:35:59.872Z</time></trkpt><trkpt lat="39.184594" lon="8.5327711"><ele>242.66666666666669</ele><time>2026-03-28T14:36:01.876Z</time></trkpt><trkpt lat="39.1845262" lon="8.5327899"><ele>242.5</ele><time>2026-03-28T14:36:03.855Z</time></trkpt><trkpt lat="39.1844137" lon="8.5327738"><ele>242.33333333333334</ele><time>2026-03-28T14:36:05.872Z</time></trkpt><trkpt lat="39.1843173" lon="8.5327849"><ele>242.16666666666669</ele><time>2026-03-28T14:36:07.886Z</time></trkpt><trkpt lat="39.1842381" lon="8.5328383"><ele>242.0</ele><time>2026-03-28T14:36:09.871Z</time></trkpt><trkpt lat="39.1841436" lon="8.5328891"><ele>241.00000000000003</ele><time>2026-03-28T14:36:11.829Z</time></trkpt><trkpt lat="39.1840652" lon="8.5329251"><ele>240.0</ele><time>2026-03-28T14:36:13.851Z</time></trkpt><trkpt lat="39.1839952" lon="8.5329517"><ele>239.0</ele><time>2026-03-28T14:36:15.857Z</time></trkpt><trkpt lat="39.1839457" lon="8.5330617"><ele>238.0</ele><time>2026-03-28T14:36:17.853Z</time></trkpt><trkpt lat="39.18386" lon="8.5331425"><ele>237.00000000000003</ele><time>2026-03-28T14:36:19.89Z</time></trkpt><trkpt lat="39.1838041" lon="8.5331852"><ele>236.0</ele><time>2026-03-28T14:36:20.874Z</time></trkpt><trkpt lat="39.1837496" lon="8.5332314"><ele>235.4</ele><time>2026-03-28T14:36:21.864Z</time></trkpt><trkpt lat="39.1836611" lon="8.5333059"><ele>234.8</ele><time>2026-03-28T14:36:23.844Z</time></trkpt><trkpt lat="39.1835844" lon="8.5333643"><ele>234.20000000000002</ele><time>2026-03-28T14:36:25.88Z</time></trkpt><trkpt lat="39.1835136" lon="8.5334527"><ele>233.60000000000002</ele><time>2026-03-28T14:36:27.869Z</time></trkpt><trkpt lat="39.1834583" lon="8.5335706"><ele>233.0</ele><time>2026-03-28T14:36:29.846Z</time></trkpt><trkpt lat="39.1833951" lon="8.5337103"><ele>231.33333333333334</ele><time>2026-03-28T14:36:31.879Z</time></trkpt><trkpt lat="39.1833656" lon="8.533797"><ele>229.66666666666669</ele><time>2026-03-28T14:36:32.867Z</time></trkpt><trkpt lat="39.1833372" lon="8.5338813"><ele>228.0</ele><time>2026-03-28T14:36:33.886Z</time></trkpt><trkpt lat="39.1833132" lon="8.5339587"><ele>226.33333333333331</ele><time>2026-03-28T14:36:34.877Z</time></trkpt><trkpt lat="39.1832668" lon="8.5341026"><ele>224.66666666666666</ele><time>2026-03-28T14:36:36.874Z</time></trkpt><trkpt lat="39.1832177" lon="8.5342298"><ele>223.0</ele><time>2026-03-28T14:36:38.873Z</time></trkpt><trkpt lat="39.1831835" lon="8.5343656"><ele>224.4</ele><time>2026-03-28T14:36:40.884Z</time></trkpt><trkpt lat="39.1831417" lon="8.534517"><ele>225.8</ele><time>2026-03-28T14:36:42.871Z</time></trkpt><trkpt lat="39.1831154" lon="8.5346033"><ele>227.2</ele><time>2026-03-28T14:36:43.886Z</time></trkpt><trkpt lat="39.1830941" lon="8.534682"><ele>228.6</ele><time>2026-03-28T14:36:44.88Z</time></trkpt><trkpt lat="39.1830737" lon="8.5348188"><ele>230.0</ele><time>2026-03-28T14:36:46.875Z</time></trkpt><trkpt lat="39.1830432" lon="8.5349511"><ele>230.00000000000003</ele><time>2026-03-28T14:36:48.883Z</time></trkpt><trkpt lat="39.18302" lon="8.5350686"><ele>230.0</ele><time>2026-03-28T14:36:50.894Z</time></trkpt><trkpt lat="39.1829917" lon="8.5351952"><ele>230.0</ele><time>2026-03-28T14:36:52.876Z</time></trkpt><trkpt lat="39.1829507" lon="8.5352963"><ele>230.0</ele><time>2026-03-28T14:36:54.87Z</time></trkpt><trkpt lat="39.1829379" lon="8.535401"><ele>230.00000000000003</ele><time>2026-03-28T14:36:56.873Z</time></trkpt><trkpt lat="39.1829393" lon="8.5355007"><ele>230.0</ele><time>2026-03-28T14:36:58.891Z</time></trkpt><trkpt lat="39.1829533" lon="8.5356204"><ele>228.50000000000003</ele><time>2026-03-28T14:37:01.876Z</time></trkpt><trkpt lat="39.1829726" lon="8.5357134"><ele>227.0</ele><time>2026-03-28T14:37:03.87Z</time></trkpt><trkpt lat="39.1829899" lon="8.5357978"><ele>225.5</ele><time>2026-03-28T14:37:05.864Z</time></trkpt><trkpt lat="39.1830423" lon="8.5358761"><ele>224.0</ele><time>2026-03-28T14:37:07.88Z</time></trkpt><trkpt lat="39.1830339" lon="8.5359866"><ele>222.50000000000003</ele><time>2026-03-28T14:37:09.876Z</time></trkpt><trkpt lat="39.1829996" lon="8.5361311"><ele>221.0</ele><time>2026-03-28T14:37:11.875Z</time></trkpt><trkpt lat="39.1829901" lon="8.5362703"><ele>218.50000000000003</ele><time>2026-03-28T14:37:13.889Z</time></trkpt><trkpt lat="39.182982" lon="8.5363858"><ele>216.0</ele><time>2026-03-28T14:37:16.853Z</time></trkpt><trkpt lat="39.1829469" lon="8.5364904"><ele>213.5</ele><time>2026-03-28T14:37:18.87Z</time></trkpt><trkpt lat="39.182918" lon="8.5365702"><ele>211.0</ele><time>2026-03-28T14:37:20.882Z</time></trkpt><trkpt lat="39.1828895" lon="8.5366434"><ele>208.50000000000003</ele><time>2026-03-28T14:37:24.865Z</time></trkpt><trkpt lat="39.1828523" lon="8.5367096"><ele>206.0</ele><time>2026-03-28T14:37:29.862Z</time></trkpt><trkpt lat="39.1828063" lon="8.5368188"><ele>205.99999999999997</ele><time>2026-03-28T14:37:33.888Z</time></trkpt><trkpt lat="39.182761" lon="8.5368884"><ele>206.0</ele><time>2026-03-28T14:37:35.864Z</time></trkpt><trkpt lat="39.1827084" lon="8.5369411"><ele>206.0</ele><time>2026-03-28T14:37:38.893Z</time></trkpt><trkpt lat="39.182668" lon="8.5370069"><ele>206.0</ele><time>2026-03-28T14:37:51.889Z</time></trkpt><trkpt lat="39.1826106" lon="8.5370668"><ele>206.0</ele><time>2026-03-28T14:37:56.876Z</time></trkpt><trkpt lat="39.1825814" lon="8.5371545"><ele>205.99999999999997</ele><time>2026-03-28T14:37:59.876Z</time></trkpt><trkpt lat="39.1825559" lon="8.5372397"><ele>206.0</ele><time>2026-03-28T14:38:01.864Z</time></trkpt><trkpt lat="39.1825261" lon="8.5373208"><ele>204.14285714285714</ele><time>2026-03-28T14:38:03.873Z</time></trkpt><trkpt lat="39.1825013" lon="8.5374043"><ele>202.28571428571428</ele><time>2026-03-28T14:38:05.868Z</time></trkpt><trkpt lat="39.1824798" lon="8.5374891"><ele>200.42857142857144</ele><time>2026-03-28T14:38:09.8Z</time></trkpt><trkpt lat="39.1824588" lon="8.5375672"><ele>198.57142857142856</ele><time>2026-03-28T14:38:17.875Z</time></trkpt><trkpt lat="39.1824502" lon="8.5376572"><ele>196.71428571428572</ele><time>2026-03-28T14:38:23.873Z</time></trkpt><trkpt lat="39.1824454" lon="8.5377594"><ele>194.85714285714286</ele><time>2026-03-28T14:38:27.88Z</time></trkpt><trkpt lat="39.1824164" lon="8.5378399"><ele>193.0</ele><time>2026-03-28T14:38:31.922Z</time></trkpt><trkpt lat="39.1824019" lon="8.5379294"><ele>191.49999999999997</ele><time>2026-03-28T14:38:39.865Z</time></trkpt><trkpt lat="39.1823723" lon="8.5380144"><ele>190.0</ele><time>2026-03-28T14:38:44.799Z</time></trkpt><trkpt lat="39.1823353" lon="8.5380958"><ele>188.5</ele><time>2026-03-28T14:38:46.878Z</time></trkpt><trkpt lat="39.1822941" lon="8.5381906"><ele>187.0</ele><time>2026-03-28T14:38:48.879Z</time></trkpt><trkpt lat="39.1822635" lon="8.5383036"><ele>185.5</ele><time>2026-03-28T14:38:50.914Z</time></trkpt><trkpt lat="39.1822135" lon="8.5384042"><ele>184.0</ele><time>2026-03-28T14:38:52.879Z</time></trkpt><trkpt lat="39.182163" lon="8.5385041"><ele>183.83333333333334</ele><time>2026-03-28T14:38:54.886Z</time></trkpt><trkpt lat="39.182098" lon="8.5385718"><ele>183.66666666666669</ele><time>2026-03-28T14:38:56.886Z</time></trkpt><trkpt lat="39.182027" lon="8.5386241"><ele>183.5</ele><time>2026-03-28T14:38:59.802Z</time></trkpt><trkpt lat="39.1819855" lon="8.5387142"><ele>183.33333333333334</ele><time>2026-03-28T14:39:02.781Z</time></trkpt><trkpt lat="39.181924" lon="8.5388167"><ele>183.16666666666666</ele><time>2026-03-28T14:39:04.859Z</time></trkpt><trkpt lat="39.1818822" lon="8.5388822"><ele>183.0</ele><time>2026-03-28T14:39:05.864Z</time></trkpt><trkpt lat="39.1818015" lon="8.5389989"><ele>181.2</ele><time>2026-03-28T14:39:07.881Z</time></trkpt><trkpt lat="39.1817136" lon="8.5390955"><ele>179.4</ele><time>2026-03-28T14:39:09.867Z</time></trkpt><trkpt lat="39.1816302" lon="8.5391909"><ele>177.6</ele><time>2026-03-28T14:39:11.87Z</time></trkpt><trkpt lat="39.1815504" lon="8.5392574"><ele>175.79999999999998</ele><time>2026-03-28T14:39:13.868Z</time></trkpt><trkpt lat="39.181491" lon="8.5393288"><ele>174.0</ele><time>2026-03-28T14:39:15.881Z</time></trkpt><trkpt lat="39.1814061" lon="8.5393744"><ele>174.0</ele><time>2026-03-28T14:39:17.899Z</time></trkpt><trkpt lat="39.1813305" lon="8.5394086"><ele>174.0</ele><time>2026-03-28T14:39:19.869Z</time></trkpt><trkpt lat="39.1812644" lon="8.5394491"><ele>174.0</ele><time>2026-03-28T14:39:22.859Z</time></trkpt><trkpt lat="39.1812375" lon="8.5395295"><ele>174.0</ele><time>2026-03-28T14:39:25.893Z</time></trkpt><trkpt lat="39.1812021" lon="8.539635"><ele>174.0</ele><time>2026-03-28T14:39:27.874Z</time></trkpt><trkpt lat="39.1811552" lon="8.5397179"><ele>174.0</ele><time>2026-03-28T14:39:29.875Z</time></trkpt><trkpt lat="39.1811429" lon="8.5398411"><ele>169.83333333333334</ele><time>2026-03-28T14:39:32.859Z</time></trkpt><trkpt lat="39.1811001" lon="8.5399113"><ele>165.66666666666666</ele><time>2026-03-28T14:39:34.856Z</time></trkpt><trkpt lat="39.1810388" lon="8.5399563"><ele>161.5</ele><time>2026-03-28T14:39:36.897Z</time></trkpt><trkpt lat="39.1809614" lon="8.5400258"><ele>157.33333333333331</ele><time>2026-03-28T14:39:39.894Z</time></trkpt><trkpt lat="39.1808809" lon="8.5400835"><ele>153.16666666666666</ele><time>2026-03-28T14:39:41.879Z</time></trkpt><trkpt lat="39.1808257" lon="8.5401246"><ele>149.0</ele><time>2026-03-28T14:39:42.872Z</time></trkpt><trkpt lat="39.1807135" lon="8.5401722"><ele>148.66666666666666</ele><time>2026-03-28T14:39:44.893Z</time></trkpt><trkpt lat="39.1805954" lon="8.5401626"><ele>148.33333333333331</ele><time>2026-03-28T14:39:46.877Z</time></trkpt><trkpt lat="39.1805093" lon="8.5401703"><ele>148.0</ele><time>2026-03-28T14:39:48.89Z</time></trkpt><trkpt lat="39.1804738" lon="8.5402578"><ele>147.66666666666666</ele><time>2026-03-28T14:39:51.881Z</time></trkpt><trkpt lat="39.1804227" lon="8.5403209"><ele>147.33333333333334</ele><time>2026-03-28T14:39:55.879Z</time></trkpt><trkpt lat="39.1803537" lon="8.540389"><ele>147.0</ele><time>2026-03-28T14:40:01.875Z</time></trkpt><trkpt lat="39.180281" lon="8.5404396"><ele>147.0</ele><time>2026-03-28T14:40:04.878Z</time></trkpt><trkpt lat="39.1802172" lon="8.5404753"><ele>147.0</ele><time>2026-03-28T14:40:06.869Z</time></trkpt><trkpt lat="39.180142" lon="8.5405288"><ele>147.0</ele><time>2026-03-28T14:40:09.897Z</time></trkpt><trkpt lat="39.1800926" lon="8.5405969"><ele>147.0</ele><time>2026-03-28T14:40:11.872Z</time></trkpt><trkpt lat="39.1800323" lon="8.5406463"><ele>147.0</ele><time>2026-03-28T14:40:13.892Z</time></trkpt><trkpt lat="39.1799618" lon="8.5406785"><ele>147.0</ele><time>2026-03-28T14:40:16.888Z</time></trkpt><trkpt lat="39.1798709" lon="8.5407355"><ele>145.83333333333334</ele><time>2026-03-28T14:40:18.884Z</time></trkpt><trkpt lat="39.179801" lon="8.5407276"><ele>144.66666666666666</ele><time>2026-03-28T14:40:20.872Z</time></trkpt><trkpt lat="39.1797232" lon="8.5406862"><ele>143.5</ele><time>2026-03-28T14:40:22.867Z</time></trkpt><trkpt lat="39.1796369" lon="8.5406643"><ele>142.33333333333331</ele><time>2026-03-28T14:40:24.874Z</time></trkpt><trkpt lat="39.1795546" lon="8.5406511"><ele>141.16666666666666</ele><time>2026-03-28T14:43:50.871Z</time></trkpt><trkpt lat="39.1794471" lon="8.540668"><ele>140.0</ele><time>2026-03-28T14:43:52.876Z</time></trkpt><trkpt lat="39.1793795" lon="8.540663"><ele>140.0</ele><time>2026-03-28T14:43:53.866Z</time></trkpt><trkpt lat="39.1793119" lon="8.5406593"><ele>140.0</ele><time>2026-03-28T14:43:54.876Z</time></trkpt><trkpt lat="39.1792461" lon="8.5406531"><ele>140.0</ele><time>2026-03-28T14:43:55.887Z</time></trkpt><trkpt lat="39.179146" lon="8.5406378"><ele>140.0</ele><time>2026-03-28T14:43:57.884Z</time></trkpt><trkpt lat="39.1790327" lon="8.5405611"><ele>140.0</ele><time>2026-03-28T14:43:59.877Z</time></trkpt><trkpt lat="39.1789269" lon="8.5404924"><ele>140.2</ele><time>2026-03-28T14:44:01.873Z</time></trkpt><trkpt lat="39.1788228" lon="8.5404307"><ele>140.4</ele><time>2026-03-28T14:44:03.874Z</time></trkpt><trkpt lat="39.1787192" lon="8.540379"><ele>140.6</ele><time>2026-03-28T14:44:05.86Z</time></trkpt><trkpt lat="39.1786226" lon="8.54033"><ele>140.8</ele><time>2026-03-28T14:44:07.874Z</time></trkpt><trkpt lat="39.1785569" lon="8.5402449"><ele>141.0</ele><time>2026-03-28T14:44:09.875Z</time></trkpt><trkpt lat="39.1785022" lon="8.5401709"><ele>141.0</ele><time>2026-03-28T14:44:11.873Z</time></trkpt><trkpt lat="39.1784216" lon="8.5401202"><ele>141.0</ele><time>2026-03-28T14:44:13.883Z</time></trkpt><trkpt lat="39.1783301" lon="8.5400563"><ele>141.0</ele><time>2026-03-28T14:44:15.9Z</time></trkpt><trkpt lat="39.1782755" lon="8.5400117"><ele>141.0</ele><time>2026-03-28T14:44:16.887Z</time></trkpt><trkpt lat="39.1782206" lon="8.5399643"><ele>141.0</ele><time>2026-03-28T14:44:17.881Z</time></trkpt><trkpt lat="39.178162" lon="8.5399169"><ele>141.0</ele><time>2026-03-28T14:44:18.888Z</time></trkpt><trkpt lat="39.1781021" lon="8.5398754"><ele>141.0</ele><time>2026-03-28T14:44:19.875Z</time></trkpt><trkpt lat="39.178001" lon="8.5397841"><ele>141.0</ele><time>2026-03-28T14:44:21.881Z</time></trkpt><trkpt lat="39.1779089" lon="8.5396894"><ele>141.0</ele><time>2026-03-28T14:44:23.893Z</time></trkpt><trkpt lat="39.1778204" lon="8.5396011"><ele>141.0</ele><time>2026-03-28T14:44:25.89Z</time></trkpt><trkpt lat="39.1777721" lon="8.5395474"><ele>141.0</ele><time>2026-03-28T14:44:26.863Z</time></trkpt><trkpt lat="39.1777223" lon="8.5394861"><ele>139.83333333333334</ele><time>2026-03-28T14:44:27.872Z</time></trkpt><trkpt lat="39.1776792" lon="8.5394254"><ele>138.66666666666666</ele><time>2026-03-28T14:44:28.871Z</time></trkpt><trkpt lat="39.1775988" lon="8.5393069"><ele>137.5</ele><time>2026-03-28T14:44:30.879Z</time></trkpt><trkpt lat="39.1775185" lon="8.5391798"><ele>136.33333333333331</ele><time>2026-03-28T14:44:32.88Z</time></trkpt><trkpt lat="39.1774723" lon="8.5391195"><ele>135.16666666666666</ele><time>2026-03-28T14:44:33.879Z</time></trkpt><trkpt lat="39.1774241" lon="8.5390627"><ele>134.0</ele><time>2026-03-28T14:44:34.888Z</time></trkpt><trkpt lat="39.1773383" lon="8.5389412"><ele>133.33333333333331</ele><time>2026-03-28T14:44:36.879Z</time></trkpt><trkpt lat="39.1772932" lon="8.5388718"><ele>132.66666666666666</ele><time>2026-03-28T14:44:37.888Z</time></trkpt><trkpt lat="39.1772459" lon="8.5387946"><ele>132.0</ele><time>2026-03-28T14:44:38.877Z</time></trkpt><trkpt lat="39.1771994" lon="8.5387253"><ele>131.33333333333334</ele><time>2026-03-28T14:44:39.881Z</time></trkpt><trkpt lat="39.1771354" lon="8.5386173"><ele>130.66666666666669</ele><time>2026-03-28T14:44:41.884Z</time></trkpt><trkpt lat="39.177071" lon="8.5385694"><ele>130.0</ele><time>2026-03-28T14:45:08.882Z</time></trkpt><trkpt lat="39.1771079" lon="8.5386458"><ele>130.0</ele><time>2026-03-28T14:45:11.897Z</time></trkpt><trkpt lat="39.1771701" lon="8.5387108"><ele>130.0</ele><time>2026-03-28T14:45:12.887Z</time></trkpt><trkpt lat="39.177235" lon="8.5388123"><ele>130.0</ele><time>2026-03-28T14:45:13.887Z</time></trkpt><trkpt lat="39.1773094" lon="8.5389243"><ele>130.0</ele><time>2026-03-28T14:45:14.873Z</time></trkpt><trkpt lat="39.1773873" lon="8.5390388"><ele>130.0</ele><time>2026-03-28T14:45:15.819Z</time></trkpt><trkpt lat="39.1774678" lon="8.5391478"><ele>131.0</ele><time>2026-03-28T14:45:16.888Z</time></trkpt><trkpt lat="39.1775443" lon="8.5392618"><ele>132.0</ele><time>2026-03-28T14:45:17.826Z</time></trkpt><trkpt lat="39.1776228" lon="8.5393761"><ele>133.0</ele><time>2026-03-28T14:45:18.853Z</time></trkpt><trkpt lat="39.1777057" lon="8.5394823"><ele>134.0</ele><time>2026-03-28T14:45:19.882Z</time></trkpt><trkpt lat="39.1777875" lon="8.5395845"><ele>135.75</ele><time>2026-03-28T14:45:20.876Z</time></trkpt><trkpt lat="39.1778744" lon="8.5396821"><ele>137.5</ele><time>2026-03-28T14:45:21.846Z</time></trkpt><trkpt lat="39.1779714" lon="8.5397782"><ele>139.25</ele><time>2026-03-28T14:45:22.881Z</time></trkpt><trkpt lat="39.1780762" lon="8.5398731"><ele>141.0</ele><time>2026-03-28T14:45:23.884Z</time></trkpt><trkpt lat="39.1781801" lon="8.5399559"><ele>141.0</ele><time>2026-03-28T14:45:24.889Z</time></trkpt><trkpt lat="39.1782761" lon="8.540037"><ele>141.0</ele><time>2026-03-28T14:45:25.876Z</time></trkpt><trkpt lat="39.1783633" lon="8.5401099"><ele>141.0</ele><time>2026-03-28T14:45:26.842Z</time></trkpt><trkpt lat="39.1784402" lon="8.5401957"><ele>141.0</ele><time>2026-03-28T14:45:27.89Z</time></trkpt><trkpt lat="39.1785021" lon="8.5402983"><ele>141.0</ele><time>2026-03-28T14:45:28.897Z</time></trkpt><trkpt lat="39.1785375" lon="8.5404211"><ele>141.33333333333334</ele><time>2026-03-28T14:45:29.849Z</time></trkpt><trkpt lat="39.1785474" lon="8.5405456"><ele>141.66666666666666</ele><time>2026-03-28T14:45:30.879Z</time></trkpt><trkpt lat="39.178539" lon="8.540663"><ele>142.0</ele><time>2026-03-28T14:45:31.851Z</time></trkpt><trkpt lat="39.1785312" lon="8.5407565"><ele>142.33333333333331</ele><time>2026-03-28T14:45:32.869Z</time></trkpt><trkpt lat="39.1785699" lon="8.5408764"><ele>142.66666666666666</ele><time>2026-03-28T14:45:34.878Z</time></trkpt><trkpt lat="39.1786269" lon="8.5409242"><ele>143.0</ele><time>2026-03-28T14:45:36.868Z</time></trkpt><trkpt lat="39.1787016" lon="8.5409548"><ele>143.0</ele><time>2026-03-28T14:45:50.863Z</time></trkpt><trkpt lat="39.1787691" lon="8.5409701"><ele>143.0</ele><time>2026-03-28T14:45:52.884Z</time></trkpt><trkpt lat="39.1788361" lon="8.5409862"><ele>143.0</ele><time>2026-03-28T14:46:02.869Z</time></trkpt><trkpt lat="39.1788524" lon="8.541066"><ele>143.0</ele><time>2026-03-28T14:46:05.86Z</time></trkpt><trkpt lat="39.1788963" lon="8.5411305"><ele>143.0</ele><time>2026-03-28T14:46:07.887Z</time></trkpt><trkpt lat="39.1789534" lon="8.5412076"><ele>143.0</ele><time>2026-03-28T14:46:09.889Z</time></trkpt><trkpt lat="39.179001" lon="8.5413229"><ele>143.20000000000002</ele><time>2026-03-28T14:46:11.877Z</time></trkpt><trkpt lat="39.1790289" lon="8.5414545"><ele>143.4</ele><time>2026-03-28T14:46:13.878Z</time></trkpt><trkpt lat="39.1790675" lon="8.5415766"><ele>143.60000000000002</ele><time>2026-03-28T14:46:15.898Z</time></trkpt><trkpt lat="39.1790783" lon="8.5417"><ele>143.8</ele><time>2026-03-28T14:46:18.877Z</time></trkpt><trkpt lat="39.1791141" lon="8.5417846"><ele>144.0</ele><time>2026-03-28T14:46:21.845Z</time></trkpt><trkpt lat="39.1791343" lon="8.5418902"><ele>144.0</ele><time>2026-03-28T14:46:25.85Z</time></trkpt><trkpt lat="39.1791115" lon="8.541973"><ele>144.0</ele><time>2026-03-28T14:46:27.886Z</time></trkpt><trkpt lat="39.1791006" lon="8.5420614"><ele>144.0</ele><time>2026-03-28T14:46:29.873Z</time></trkpt><trkpt lat="39.1790956" lon="8.5421631"><ele>144.0</ele><time>2026-03-28T14:46:31.871Z</time></trkpt><trkpt lat="39.1790779" lon="8.5422574"><ele>144.0</ele><time>2026-03-28T14:46:34.869Z</time></trkpt><trkpt lat="39.1790774" lon="8.5423663"><ele>144.0</ele><time>2026-03-28T14:46:37.87Z</time></trkpt><trkpt lat="39.1790804" lon="8.5424709"><ele>144.33333333333334</ele><time>2026-03-28T14:46:39.888Z</time></trkpt><trkpt lat="39.1790792" lon="8.5425672"><ele>144.66666666666666</ele><time>2026-03-28T14:46:42.868Z</time></trkpt><trkpt lat="39.1791171" lon="8.5426468"><ele>145.0</ele><time>2026-03-28T14:46:44.867Z</time></trkpt><trkpt lat="39.1791594" lon="8.5427296"><ele>145.33333333333331</ele><time>2026-03-28T14:46:49.871Z</time></trkpt><trkpt lat="39.1792128" lon="8.5427982"><ele>145.66666666666666</ele><time>2026-03-28T14:46:52.85Z</time></trkpt><trkpt lat="39.1792704" lon="8.5428505"><ele>146.0</ele><time>2026-03-28T14:46:54.886Z</time></trkpt><trkpt lat="39.1793484" lon="8.5428816"><ele>147.83333333333331</ele><time>2026-03-28T14:46:56.902Z</time></trkpt><trkpt lat="39.1794274" lon="8.5429495"><ele>149.66666666666666</ele><time>2026-03-28T14:46:59.885Z</time></trkpt><trkpt lat="39.1794814" lon="8.5430009"><ele>151.5</ele><time>2026-03-28T14:47:01.879Z</time></trkpt><trkpt lat="39.1795529" lon="8.5430319"><ele>153.33333333333334</ele><time>2026-03-28T14:47:03.857Z</time></trkpt><trkpt lat="39.1796108" lon="8.5430698"><ele>155.16666666666669</ele><time>2026-03-28T14:47:05.878Z</time></trkpt><trkpt lat="39.1796842" lon="8.5431258"><ele>157.0</ele><time>2026-03-28T14:47:07.85Z</time></trkpt><trkpt lat="39.1797622" lon="8.5431861"><ele>157.0</ele><time>2026-03-28T14:47:09.876Z</time></trkpt><trkpt lat="39.1798233" lon="8.5432579"><ele>157.0</ele><time>2026-03-28T14:47:11.876Z</time></trkpt><trkpt lat="39.1798919" lon="8.5433287"><ele>157.0</ele><time>2026-03-28T14:47:13.878Z</time></trkpt><trkpt lat="39.1799551" lon="8.5434057"><ele>157.0</ele><time>2026-03-28T14:47:15.894Z</time></trkpt><trkpt lat="39.1799983" lon="8.5434685"><ele>157.0</ele><time>2026-03-28T14:47:16.88Z</time></trkpt><trkpt lat="39.1800499" lon="8.543539"><ele>157.0</ele><time>2026-03-28T14:47:18.885Z</time></trkpt><trkpt lat="39.1801073" lon="8.5436175"><ele>156.28571428571428</ele><time>2026-03-28T14:47:21.875Z</time></trkpt><trkpt lat="39.1801733" lon="8.5436885"><ele>155.57142857142856</ele><time>2026-03-28T14:47:24.871Z</time></trkpt><trkpt lat="39.1802229" lon="8.5437405"><ele>154.85714285714283</ele><time>2026-03-28T14:47:27.884Z</time></trkpt><trkpt lat="39.1802689" lon="8.5438077"><ele>154.14285714285714</ele><time>2026-03-28T14:47:32.886Z</time></trkpt><trkpt lat="39.1803008" lon="8.5438802"><ele>153.42857142857144</ele><time>2026-03-28T14:47:39.866Z</time></trkpt><trkpt lat="39.1803441" lon="8.5439729"><ele>152.7142857142857</ele><time>2026-03-28T14:47:42.877Z</time></trkpt><trkpt lat="39.1803846" lon="8.5440637"><ele>152.0</ele><time>2026-03-28T14:47:45.866Z</time></trkpt><trkpt lat="39.1804211" lon="8.5441711"><ele>152.0</ele><time>2026-03-28T14:47:48.891Z</time></trkpt><trkpt lat="39.1804344" lon="8.5442529"><ele>152.0</ele><time>2026-03-28T14:47:50.848Z</time></trkpt><trkpt lat="39.1804605" lon="8.544372"><ele>152.0</ele><time>2026-03-28T14:47:52.87Z</time></trkpt><trkpt lat="39.1804758" lon="8.5444763"><ele>152.0</ele><time>2026-03-28T14:47:54.871Z</time></trkpt><trkpt lat="39.1804981" lon="8.5445536"><ele>152.0</ele><time>2026-03-28T14:47:56.867Z</time></trkpt><trkpt lat="39.1805121" lon="8.5446594"><ele>152.0</ele><time>2026-03-28T14:47:59.874Z</time></trkpt><trkpt lat="39.1805385" lon="8.5447377"><ele>153.57142857142856</ele><time>2026-03-28T14:48:02.861Z</time></trkpt><trkpt lat="39.1805469" lon="8.5448427"><ele>155.14285714285717</ele><time>2026-03-28T14:48:06.842Z</time></trkpt><trkpt lat="39.1805572" lon="8.5449232"><ele>156.71428571428572</ele><time>2026-03-28T14:48:08.875Z</time></trkpt><trkpt lat="39.1805732" lon="8.5450106"><ele>158.28571428571428</ele><time>2026-03-28T14:48:10.883Z</time></trkpt><trkpt lat="39.1805778" lon="8.545103"><ele>159.85714285714283</ele><time>2026-03-28T14:48:19.882Z</time></trkpt><trkpt lat="39.1806098" lon="8.5451747"><ele>161.42857142857144</ele><time>2026-03-28T14:48:25.874Z</time></trkpt><trkpt lat="39.1806228" lon="8.5452696"><ele>163.0</ele><time>2026-03-28T14:48:28.876Z</time></trkpt><trkpt lat="39.1806256" lon="8.5453542"><ele>161.57142857142858</ele><time>2026-03-28T14:48:32.878Z</time></trkpt><trkpt lat="39.1806185" lon="8.545442"><ele>160.14285714285714</ele><time>2026-03-28T14:48:36.878Z</time></trkpt><trkpt lat="39.1806639" lon="8.5455061"><ele>158.71428571428572</ele><time>2026-03-28T14:48:39.875Z</time></trkpt><trkpt lat="39.1807061" lon="8.5455719"><ele>157.28571428571428</ele><time>2026-03-28T14:48:42.878Z</time></trkpt><trkpt lat="39.1807424" lon="8.5456468"><ele>155.85714285714286</ele><time>2026-03-28T14:48:49.866Z</time></trkpt><trkpt lat="39.1807794" lon="8.5457161"><ele>154.42857142857142</ele><time>2026-03-28T14:48:52.869Z</time></trkpt><trkpt lat="39.1808259" lon="8.5457732"><ele>153.0</ele><time>2026-03-28T14:48:54.884Z</time></trkpt><trkpt lat="39.1808893" lon="8.5458498"><ele>153.0</ele><time>2026-03-28T14:48:57.901Z</time></trkpt><trkpt lat="39.1809541" lon="8.5459365"><ele>153.0</ele><time>2026-03-28T14:49:00.88Z</time></trkpt><trkpt lat="39.1809843" lon="8.5460182"><ele>153.0</ele><time>2026-03-28T14:49:02.871Z</time></trkpt><trkpt lat="39.1810123" lon="8.5460998"><ele>153.0</ele><time>2026-03-28T14:49:06.869Z</time></trkpt><trkpt lat="39.1810744" lon="8.5461702"><ele>153.0</ele><time>2026-03-28T14:49:10.852Z</time></trkpt><trkpt lat="39.1811174" lon="8.5462461"><ele>153.0</ele><time>2026-03-28T14:49:13.889Z</time></trkpt><trkpt lat="39.1811618" lon="8.5463299"><ele>154.85714285714286</ele><time>2026-03-28T14:49:36.886Z</time></trkpt><trkpt lat="39.1812047" lon="8.5463964"><ele>156.71428571428572</ele><time>2026-03-28T14:49:39.872Z</time></trkpt><trkpt lat="39.1812492" lon="8.5464673"><ele>158.57142857142856</ele><time>2026-03-28T14:49:47.876Z</time></trkpt><trkpt lat="39.1812828" lon="8.5465381"><ele>160.42857142857144</ele><time>2026-03-28T14:49:54.87Z</time></trkpt><trkpt lat="39.181336" lon="8.5465884"><ele>162.2857142857143</ele><time>2026-03-28T14:49:58.872Z</time></trkpt><trkpt lat="39.1813859" lon="8.546645"><ele>164.14285714285714</ele><time>2026-03-28T14:50:00.881Z</time></trkpt><trkpt lat="39.1814334" lon="8.5467074"><ele>166.0</ele><time>2026-03-28T14:53:31.87Z</time></trkpt><trkpt lat="39.1814952" lon="8.5467767"><ele>165.57142857142856</ele><time>2026-03-28T14:53:34.879Z</time></trkpt><trkpt lat="39.1815645" lon="8.5468351"><ele>165.14285714285717</ele><time>2026-03-28T14:53:37.881Z</time></trkpt><trkpt lat="39.1816127" lon="8.5469119"><ele>164.71428571428572</ele><time>2026-03-28T14:53:40.878Z</time></trkpt><trkpt lat="39.1816581" lon="8.5469775"><ele>164.28571428571428</ele><time>2026-03-28T14:53:44.884Z</time></trkpt><trkpt lat="39.1816885" lon="8.5470555"><ele>163.85714285714283</ele><time>2026-03-28T14:54:00.863Z</time></trkpt><trkpt lat="39.1816886" lon="8.5471456"><ele>163.42857142857144</ele><time>2026-03-28T14:54:17.852Z</time></trkpt><trkpt lat="39.1816993" lon="8.5472373"><ele>163.0</ele><time>2026-03-28T14:54:19.867Z</time></trkpt><trkpt lat="39.181693" lon="8.5473221"><ele>162.71428571428572</ele><time>2026-03-28T14:54:37.866Z</time></trkpt><trkpt lat="39.1817334" lon="8.5474273"><ele>162.42857142857142</ele><time>2026-03-28T14:55:35.884Z</time></trkpt><trkpt lat="39.181773" lon="8.5475005"><ele>162.14285714285714</ele><time>2026-03-28T14:56:05.856Z</time></trkpt><trkpt lat="39.1818101" lon="8.5475758"><ele>161.85714285714286</ele><time>2026-03-28T14:56:11.869Z</time></trkpt><trkpt lat="39.1818465" lon="8.547643"><ele>161.57142857142856</ele><time>2026-03-28T14:56:15.863Z</time></trkpt><trkpt lat="39.1818859" lon="8.5477407"><ele>161.28571428571428</ele><time>2026-03-28T15:00:57.862Z</time></trkpt><trkpt lat="39.1819018" lon="8.5478229"><ele>161.0</ele><time>2026-03-28T15:00:59.86Z</time></trkpt><trkpt lat="39.1818895" lon="8.5479413"><ele>160.71428571428572</ele><time>2026-03-28T15:01:01.875Z</time></trkpt><trkpt lat="39.1818543" lon="8.5480229"><ele>160.42857142857144</ele><time>2026-03-28T15:01:04.882Z</time></trkpt><trkpt lat="39.181827" lon="8.5480989"><ele>160.14285714285714</ele><time>2026-03-28T15:01:06.843Z</time></trkpt><trkpt lat="39.181785" lon="8.5481822"><ele>159.85714285714286</ele><time>2026-03-28T15:01:08.871Z</time></trkpt><trkpt lat="39.1817337" lon="8.5482546"><ele>159.57142857142858</ele><time>2026-03-28T15:01:11.86Z</time></trkpt><trkpt lat="39.1816687" lon="8.5483295"><ele>159.28571428571428</ele><time>2026-03-28T15:01:14.86Z</time></trkpt><trkpt lat="39.1816198" lon="8.5483876"><ele>159.0</ele><time>2026-03-28T15:01:16.861Z</time></trkpt><trkpt lat="39.181543" lon="8.5485048"><ele>163.5</ele><time>2026-03-28T15:01:18.873Z</time></trkpt><trkpt lat="39.1815145" lon="8.5486013"><ele>168.0</ele><time>2026-03-28T15:01:20.876Z</time></trkpt><trkpt lat="39.1815033" lon="8.5487078"><ele>172.5</ele><time>2026-03-28T15:01:23.866Z</time></trkpt><trkpt lat="39.1814932" lon="8.548808"><ele>177.0</ele><time>2026-03-28T15:01:26.86Z</time></trkpt><trkpt lat="39.1814704" lon="8.5488968"><ele>181.5</ele><time>2026-03-28T15:01:29.868Z</time></trkpt><trkpt lat="39.1814537" lon="8.5489873"><ele>186.0</ele><time>2026-03-28T15:01:31.86Z</time></trkpt><trkpt lat="39.1814825" lon="8.5490771"><ele>186.0</ele><time>2026-03-28T15:01:33.875Z</time></trkpt><trkpt lat="39.1815" lon="8.5491635"><ele>186.0</ele><time>2026-03-28T15:01:35.851Z</time></trkpt><trkpt lat="39.1815401" lon="8.549244"><ele>186.0</ele><time>2026-03-28T15:01:37.869Z</time></trkpt><trkpt lat="39.1815742" lon="8.5493211"><ele>186.0</ele><time>2026-03-28T15:01:39.865Z</time></trkpt><trkpt lat="39.1815662" lon="8.5494206"><ele>186.0</ele><time>2026-03-28T15:01:46.833Z</time></trkpt><trkpt lat="39.1815829" lon="8.5495441"><ele>186.0</ele><time>2026-03-28T15:01:49.858Z</time></trkpt><trkpt lat="39.1816119" lon="8.5496703"><ele>182.66666666666666</ele><time>2026-03-28T15:01:51.847Z</time></trkpt><trkpt lat="39.181651" lon="8.5497851"><ele>179.33333333333334</ele><time>2026-03-28T15:01:53.863Z</time></trkpt><trkpt lat="39.1816654" lon="8.5498893"><ele>176.0</ele><time>2026-03-28T15:01:55.88Z</time></trkpt><trkpt lat="39.1816504" lon="8.5500139"><ele>172.66666666666669</ele><time>2026-03-28T15:01:57.872Z</time></trkpt><trkpt lat="39.1816453" lon="8.5501098"><ele>169.33333333333334</ele><time>2026-03-28T15:01:59.869Z</time></trkpt><trkpt lat="39.1816365" lon="8.5502089"><ele>166.0</ele><time>2026-03-28T15:02:01.865Z</time></trkpt><trkpt lat="39.1816195" lon="8.5503179"><ele>166.83333333333334</ele><time>2026-03-28T15:02:04.873Z</time></trkpt><trkpt lat="39.1816211" lon="8.5504094"><ele>167.66666666666669</ele><time>2026-03-28T15:02:07.868Z</time></trkpt><trkpt lat="39.1816022" lon="8.5505146"><ele>168.5</ele><time>2026-03-28T15:02:10.882Z</time></trkpt><trkpt lat="39.1815831" lon="8.5505932"><ele>169.33333333333334</ele><time>2026-03-28T15:02:12.846Z</time></trkpt><trkpt lat="39.1815386" lon="8.5506734"><ele>170.16666666666666</ele><time>2026-03-28T15:02:14.87Z</time></trkpt><trkpt lat="39.1814743" lon="8.5507429"><ele>171.0</ele><time>2026-03-28T15:02:17.869Z</time></trkpt><trkpt lat="39.1814151" lon="8.5508228"><ele>170.33333333333334</ele><time>2026-03-28T15:02:20.865Z</time></trkpt><trkpt lat="39.1813718" lon="8.5509274"><ele>169.66666666666666</ele><time>2026-03-28T15:02:23.88Z</time></trkpt><trkpt lat="39.1813645" lon="8.5510225"><ele>169.0</ele><time>2026-03-28T15:02:55.868Z</time></trkpt><trkpt lat="39.1813819" lon="8.5511153"><ele>168.33333333333331</ele><time>2026-03-28T15:02:59.889Z</time></trkpt><trkpt lat="39.181367" lon="8.5512052"><ele>167.66666666666666</ele><time>2026-03-28T15:03:10.861Z</time></trkpt><trkpt lat="39.1813451" lon="8.5513134"><ele>167.0</ele><time>2026-03-28T15:03:13.832Z</time></trkpt><trkpt lat="39.1813419" lon="8.5514321"><ele>167.0</ele><time>2026-03-28T15:03:16.871Z</time></trkpt><trkpt lat="39.1813442" lon="8.5515309"><ele>167.0</ele><time>2026-03-28T15:03:19.872Z</time></trkpt><trkpt lat="39.1813307" lon="8.5516158"><ele>167.0</ele><time>2026-03-28T15:03:21.865Z</time></trkpt><trkpt lat="39.1812965" lon="8.5517297"><ele>167.0</ele><time>2026-03-28T15:03:23.875Z</time></trkpt><trkpt lat="39.18129" lon="8.5518345"><ele>167.0</ele><time>2026-03-28T15:03:27.884Z</time></trkpt><trkpt lat="39.181305" lon="8.5519274"><ele>167.0</ele><time>2026-03-28T15:03:30.871Z</time></trkpt><trkpt lat="39.181361" lon="8.5520105"><ele>168.5</ele><time>2026-03-28T15:03:34.882Z</time></trkpt><trkpt lat="39.1814288" lon="8.5520792"><ele>170.0</ele><time>2026-03-28T15:03:36.897Z</time></trkpt><trkpt lat="39.181486" lon="8.552126"><ele>171.5</ele><time>2026-03-28T15:03:39.875Z</time></trkpt><trkpt lat="39.1815538" lon="8.5521609"><ele>173.0</ele><time>2026-03-28T15:03:42.881Z</time></trkpt><trkpt lat="39.1816682" lon="8.552164"><ele>174.5</ele><time>2026-03-28T15:03:44.888Z</time></trkpt><trkpt lat="39.1817372" lon="8.5521695"><ele>176.0</ele><time>2026-03-28T15:03:45.872Z</time></trkpt><trkpt lat="39.1818006" lon="8.552169"><ele>176.0</ele><time>2026-03-28T15:03:46.879Z</time></trkpt><trkpt lat="39.1818919" lon="8.5521371"><ele>176.0</ele><time>2026-03-28T15:03:48.875Z</time></trkpt><trkpt lat="39.181958" lon="8.5521216"><ele>176.0</ele><time>2026-03-28T15:03:50.863Z</time></trkpt><trkpt lat="39.182054" lon="8.552112"><ele>176.0</ele><time>2026-03-28T15:03:52.853Z</time></trkpt><trkpt lat="39.182161" lon="8.5520978"><ele>176.0</ele><time>2026-03-28T15:03:54.864Z</time></trkpt><trkpt lat="39.1822392" lon="8.5520918"><ele>176.0</ele><time>2026-03-28T15:03:56.871Z</time></trkpt><trkpt lat="39.1823148" lon="8.5520904"><ele>176.5</ele><time>2026-03-28T15:03:58.866Z</time></trkpt><trkpt lat="39.182388" lon="8.5520553"><ele>177.0</ele><time>2026-03-28T15:04:00.844Z</time></trkpt><trkpt lat="39.1824653" lon="8.5520355"><ele>177.5</ele><time>2026-03-28T15:04:02.879Z</time></trkpt><trkpt lat="39.1825557" lon="8.5520314"><ele>178.0</ele><time>2026-03-28T15:04:04.855Z</time></trkpt><trkpt lat="39.1826151" lon="8.5520613"><ele>178.5</ele><time>2026-03-28T15:04:07.86Z</time></trkpt><trkpt lat="39.1826767" lon="8.5520947"><ele>179.0</ele><time>2026-03-28T15:04:09.894Z</time></trkpt><trkpt lat="39.1827537" lon="8.5521255"><ele>179.0</ele><time>2026-03-28T15:04:11.863Z</time></trkpt><trkpt lat="39.182812" lon="8.5521574"><ele>179.0</ele><time>2026-03-28T15:04:14.855Z</time></trkpt><trkpt lat="39.1828733" lon="8.5521851"><ele>179.0</ele><time>2026-03-28T15:04:22.844Z</time></trkpt><trkpt lat="39.1829374" lon="8.5522049"><ele>179.0</ele><time>2026-03-28T15:04:26.842Z</time></trkpt><trkpt lat="39.1830403" lon="8.5522494"><ele>179.0</ele><time>2026-03-28T15:04:28.871Z</time></trkpt><trkpt lat="39.1831426" lon="8.5522375"><ele>179.0</ele><time>2026-03-28T15:04:30.862Z</time></trkpt><trkpt lat="39.1832317" lon="8.5522014"><ele>178.66666666666666</ele><time>2026-03-28T15:04:32.867Z</time></trkpt><trkpt lat="39.1833128" lon="8.5521893"><ele>178.33333333333331</ele><time>2026-03-28T15:04:34.858Z</time></trkpt><trkpt lat="39.1833878" lon="8.5522201"><ele>178.0</ele><time>2026-03-28T15:04:36.861Z</time></trkpt><trkpt lat="39.1834873" lon="8.5522043"><ele>177.66666666666666</ele><time>2026-03-28T15:04:38.863Z</time></trkpt><trkpt lat="39.1835506" lon="8.5522053"><ele>177.33333333333334</ele><time>2026-03-28T15:04:39.852Z</time></trkpt><trkpt lat="39.1836141" lon="8.5522079"><ele>177.0</ele><time>2026-03-28T15:04:40.837Z</time></trkpt><trkpt lat="39.1836949" lon="8.5522042"><ele>177.0</ele><time>2026-03-28T15:04:42.879Z</time></trkpt><trkpt lat="39.1837782" lon="8.5521665"><ele>177.0</ele><time>2026-03-28T15:04:45.867Z</time></trkpt><trkpt lat="39.1838456" lon="8.5521486"><ele>177.0</ele><time>2026-03-28T15:04:47.883Z</time></trkpt><trkpt lat="39.1839493" lon="8.5521257"><ele>177.0</ele><time>2026-03-28T15:04:49.87Z</time></trkpt><trkpt lat="39.184003" lon="8.5520737"><ele>177.0</ele><time>2026-03-28T15:04:51.826Z</time></trkpt><trkpt lat="39.1840768" lon="8.5520359"><ele>177.0</ele><time>2026-03-28T15:04:54.86Z</time></trkpt><trkpt lat="39.1841425" lon="8.5519965"><ele>182.5</ele><time>2026-03-28T15:04:58.865Z</time></trkpt><trkpt lat="39.1842298" lon="8.5519851"><ele>188.0</ele><time>2026-03-28T15:05:01.83Z</time></trkpt><trkpt lat="39.1843088" lon="8.5519781"><ele>193.5</ele><time>2026-03-28T15:05:03.856Z</time></trkpt><trkpt lat="39.1843849" lon="8.5519719"><ele>199.0</ele><time>2026-03-28T15:05:05.866Z</time></trkpt><trkpt lat="39.1844775" lon="8.5519725"><ele>204.5</ele><time>2026-03-28T15:05:07.866Z</time></trkpt><trkpt lat="39.1845753" lon="8.551961"><ele>210.0</ele><time>2026-03-28T15:05:09.86Z</time></trkpt><trkpt lat="39.1846625" lon="8.5519489"><ele>210.0</ele><time>2026-03-28T15:05:11.872Z</time></trkpt><trkpt lat="39.1847417" lon="8.5519305"><ele>210.0</ele><time>2026-03-28T15:05:13.857Z</time></trkpt><trkpt lat="39.1848645" lon="8.5519188"><ele>210.0</ele><time>2026-03-28T15:05:15.872Z</time></trkpt><trkpt lat="39.1849395" lon="8.5519211"><ele>210.0</ele><time>2026-03-28T15:05:16.857Z</time></trkpt><trkpt lat="39.1850216" lon="8.5519152"><ele>210.0</ele><time>2026-03-28T15:05:17.853Z</time></trkpt><trkpt lat="39.1850936" lon="8.5519079"><ele>210.0</ele><time>2026-03-28T15:05:18.867Z</time></trkpt><trkpt lat="39.1851657" lon="8.5519055"><ele>212.5</ele><time>2026-03-28T15:05:19.877Z</time></trkpt><trkpt lat="39.1852313" lon="8.5519053"><ele>215.0</ele><time>2026-03-28T15:05:20.864Z</time></trkpt><trkpt lat="39.1852963" lon="8.5519099"><ele>217.5</ele><time>2026-03-28T15:05:21.855Z</time></trkpt><trkpt lat="39.1853994" lon="8.5518898"><ele>220.0</ele><time>2026-03-28T15:05:23.853Z</time></trkpt><trkpt lat="39.1854664" lon="8.5518499"><ele>222.5</ele><time>2026-03-28T15:05:25.832Z</time></trkpt><trkpt lat="39.1855586" lon="8.5518232"><ele>225.0</ele><time>2026-03-28T15:05:27.859Z</time></trkpt><trkpt lat="39.1856277" lon="8.5518056"><ele>227.8</ele><time>2026-03-28T15:05:29.869Z</time></trkpt><trkpt lat="39.1857293" lon="8.5518126"><ele>230.6</ele><time>2026-03-28T15:05:31.862Z</time></trkpt><trkpt lat="39.1858348" lon="8.5518691"><ele>233.39999999999998</ele><time>2026-03-28T15:05:33.864Z</time></trkpt><trkpt lat="39.1859392" lon="8.551895"><ele>236.2</ele><time>2026-03-28T15:05:35.869Z</time></trkpt><trkpt lat="39.1860445" lon="8.5519233"><ele>239.0</ele><time>2026-03-28T15:05:37.866Z</time></trkpt><trkpt lat="39.1861566" lon="8.5519816"><ele>239.00000000000003</ele><time>2026-03-28T15:05:39.871Z</time></trkpt><trkpt lat="39.1862289" lon="8.5520166"><ele>239.0</ele><time>2026-03-28T15:05:40.872Z</time></trkpt><trkpt lat="39.1863025" lon="8.5520473"><ele>239.0</ele><time>2026-03-28T15:05:41.879Z</time></trkpt><trkpt lat="39.1864173" lon="8.5521022"><ele>239.0</ele><time>2026-03-28T15:05:43.876Z</time></trkpt><trkpt lat="39.186489" lon="8.5521374"><ele>239.00000000000003</ele><time>2026-03-28T15:05:44.861Z</time></trkpt><trkpt lat="39.1865498" lon="8.5521675"><ele>239.0</ele><time>2026-03-28T15:05:45.874Z</time></trkpt><trkpt lat="39.1866332" lon="8.5521967"><ele>238.66666666666669</ele><time>2026-03-28T15:05:47.882Z</time></trkpt><trkpt lat="39.1867163" lon="8.5521958"><ele>238.33333333333334</ele><time>2026-03-28T15:05:51.871Z</time></trkpt><trkpt lat="39.1867803" lon="8.552246"><ele>238.0</ele><time>2026-03-28T15:05:53.868Z</time></trkpt><trkpt lat="39.1868388" lon="8.5523156"><ele>237.66666666666669</ele><time>2026-03-28T15:07:20.868Z</time></trkpt><trkpt lat="39.1869639" lon="8.5523644"><ele>237.33333333333334</ele><time>2026-03-28T15:07:22.875Z</time></trkpt><trkpt lat="39.1870336" lon="8.552393"><ele>237.0</ele><time>2026-03-28T15:07:23.88Z</time></trkpt><trkpt lat="39.1871085" lon="8.5524086"><ele>236.99999999999997</ele><time>2026-03-28T15:07:24.878Z</time></trkpt><trkpt lat="39.1871807" lon="8.5524223"><ele>237.0</ele><time>2026-03-28T15:07:25.879Z</time></trkpt><trkpt lat="39.1872535" lon="8.5524249"><ele>236.99999999999997</ele><time>2026-03-28T15:07:26.875Z</time></trkpt><trkpt lat="39.1873226" lon="8.5524195"><ele>236.99999999999997</ele><time>2026-03-28T15:07:27.873Z</time></trkpt><trkpt lat="39.1873887" lon="8.5524105"><ele>237.0</ele><time>2026-03-28T15:07:28.871Z</time></trkpt><trkpt lat="39.1874501" lon="8.5523897"><ele>236.99999999999997</ele><time>2026-03-28T15:07:29.878Z</time></trkpt><trkpt lat="39.1875424" lon="8.5523304"><ele>236.99999999999997</ele><time>2026-03-28T15:07:31.867Z</time></trkpt><trkpt lat="39.1876509" lon="8.5522496"><ele>236.57142857142856</ele><time>2026-03-28T15:07:33.894Z</time></trkpt><trkpt lat="39.1877161" lon="8.5521905"><ele>236.14285714285714</ele><time>2026-03-28T15:07:34.889Z</time></trkpt><trkpt lat="39.1877853" lon="8.5521505"><ele>235.71428571428572</ele><time>2026-03-28T15:07:35.853Z</time></trkpt><trkpt lat="39.1878557" lon="8.5521222"><ele>235.28571428571428</ele><time>2026-03-28T15:07:36.869Z</time></trkpt><trkpt lat="39.1879272" lon="8.5521032"><ele>234.8571428571429</ele><time>2026-03-28T15:07:37.865Z</time></trkpt><trkpt lat="39.1879935" lon="8.5520747"><ele>234.42857142857144</ele><time>2026-03-28T15:07:38.862Z</time></trkpt><trkpt lat="39.1880545" lon="8.5520484"><ele>234.0</ele><time>2026-03-28T15:07:39.865Z</time></trkpt><trkpt lat="39.188126" lon="8.5520193"><ele>237.5</ele><time>2026-03-28T15:07:40.863Z</time></trkpt><trkpt lat="39.188209" lon="8.5519863"><ele>241.0</ele><time>2026-03-28T15:07:41.867Z</time></trkpt><trkpt lat="39.1882895" lon="8.5519499"><ele>244.5</ele><time>2026-03-28T15:07:42.864Z</time></trkpt><trkpt lat="39.1883612" lon="8.5519118"><ele>248.0</ele><time>2026-03-28T15:07:43.866Z</time></trkpt><trkpt lat="39.1884239" lon="8.5518774"><ele>251.5</ele><time>2026-03-28T15:07:44.872Z</time></trkpt><trkpt lat="39.1885047" lon="8.551854"><ele>255.0</ele><time>2026-03-28T15:07:45.873Z</time></trkpt><trkpt lat="39.1885834" lon="8.5518364"><ele>255.0</ele><time>2026-03-28T15:07:46.879Z</time></trkpt><trkpt lat="39.1886467" lon="8.5518182"><ele>255.0</ele><time>2026-03-28T15:07:47.865Z</time></trkpt><trkpt lat="39.1887646" lon="8.5517689"><ele>255.0</ele><time>2026-03-28T15:07:49.883Z</time></trkpt><trkpt lat="39.1888702" lon="8.5517348"><ele>255.0</ele><time>2026-03-28T15:07:51.851Z</time></trkpt><trkpt lat="39.1889348" lon="8.551722"><ele>255.0</ele><time>2026-03-28T15:07:52.875Z</time></trkpt><trkpt lat="39.1889976" lon="8.551707"><ele>255.0</ele><time>2026-03-28T15:07:53.861Z</time></trkpt><trkpt lat="39.189114" lon="8.5516709"><ele>254.83333333333334</ele><time>2026-03-28T15:07:55.875Z</time></trkpt><trkpt lat="39.1892278" lon="8.5516571"><ele>254.66666666666669</ele><time>2026-03-28T15:07:57.87Z</time></trkpt><trkpt lat="39.1892958" lon="8.5516444"><ele>254.5</ele><time>2026-03-28T15:07:58.875Z</time></trkpt><trkpt lat="39.1893774" lon="8.5516203"><ele>254.33333333333334</ele><time>2026-03-28T15:07:59.869Z</time></trkpt><trkpt lat="39.1894509" lon="8.5516003"><ele>254.16666666666669</ele><time>2026-03-28T15:08:00.861Z</time></trkpt><trkpt lat="39.1895169" lon="8.5515895"><ele>254.0</ele><time>2026-03-28T15:08:01.86Z</time></trkpt><trkpt lat="39.1895841" lon="8.55158"><ele>254.00000000000003</ele><time>2026-03-28T15:08:02.855Z</time></trkpt><trkpt lat="39.1897016" lon="8.5515735"><ele>254.0</ele><time>2026-03-28T15:08:04.862Z</time></trkpt><trkpt lat="39.1897651" lon="8.5515694"><ele>254.0</ele><time>2026-03-28T15:08:05.861Z</time></trkpt><trkpt lat="39.189829" lon="8.5515697"><ele>254.0</ele><time>2026-03-28T15:08:06.854Z</time></trkpt><trkpt lat="39.1899291" lon="8.5515721"><ele>254.00000000000003</ele><time>2026-03-28T15:08:08.879Z</time></trkpt><trkpt lat="39.1900212" lon="8.5515661"><ele>254.0</ele><time>2026-03-28T15:08:10.873Z</time></trkpt><trkpt lat="39.1901235" lon="8.5515733"><ele>255.00000000000003</ele><time>2026-03-28T15:08:12.868Z</time></trkpt><trkpt lat="39.1902064" lon="8.5515934"><ele>256.0</ele><time>2026-03-28T15:08:14.869Z</time></trkpt><trkpt lat="39.190308" lon="8.5515899"><ele>257.0</ele><time>2026-03-28T15:08:17.854Z</time></trkpt><trkpt lat="39.1903777" lon="8.5515852"><ele>258.0</ele><time>2026-03-28T15:08:19.855Z</time></trkpt><trkpt lat="39.1904637" lon="8.5515871"><ele>259.0</ele><time>2026-03-28T15:08:24.855Z</time></trkpt><trkpt lat="39.1905477" lon="8.5515649"><ele>260.0</ele><time>2026-03-28T15:08:27.862Z</time></trkpt><trkpt lat="39.1906305" lon="8.5515443"><ele>261.0</ele><time>2026-03-28T15:08:30.852Z</time></trkpt><trkpt lat="39.1907027" lon="8.5515465"><ele>262.0</ele><time>2026-03-28T15:08:33.858Z</time></trkpt><trkpt lat="39.1907713" lon="8.5515545"><ele>263.0</ele><time>2026-03-28T15:08:35.865Z</time></trkpt><trkpt lat="39.1908619" lon="8.5516016"><ele>264.0</ele><time>2026-03-28T15:08:37.857Z</time></trkpt><trkpt lat="39.1909243" lon="8.5516361"><ele>265.0</ele><time>2026-03-28T15:08:38.861Z</time></trkpt><trkpt lat="39.1909931" lon="8.5516612"><ele>266.0</ele><time>2026-03-28T15:08:39.87Z</time></trkpt><trkpt lat="39.1910787" lon="8.5517277"><ele>266.0</ele><time>2026-03-28T15:08:41.871Z</time></trkpt><trkpt lat="39.1911327" lon="8.5518519"><ele>266.0</ele><time>2026-03-28T15:08:43.869Z</time></trkpt><trkpt lat="39.1912005" lon="8.5519265"><ele>266.0</ele><time>2026-03-28T15:08:46.875Z</time></trkpt><trkpt lat="39.1912842" lon="8.5520005"><ele>266.0</ele><time>2026-03-28T15:08:48.889Z</time></trkpt><trkpt lat="39.191397" lon="8.5520214"><ele>266.0</ele><time>2026-03-28T15:08:50.873Z</time></trkpt><trkpt lat="39.1915088" lon="8.55201"><ele>268.40000000000003</ele><time>2026-03-28T15:08:52.878Z</time></trkpt><trkpt lat="39.1916163" lon="8.551997"><ele>270.8</ele><time>2026-03-28T15:08:54.849Z</time></trkpt><trkpt lat="39.1917047" lon="8.551992"><ele>273.20000000000005</ele><time>2026-03-28T15:08:56.854Z</time></trkpt><trkpt lat="39.1917712" lon="8.5520896"><ele>275.6</ele><time>2026-03-28T15:08:58.886Z</time></trkpt><trkpt lat="39.1918304" lon="8.5522015"><ele>278.0</ele><time>2026-03-28T15:09:00.878Z</time></trkpt><trkpt lat="39.1919049" lon="8.5522785"><ele>280.0</ele><time>2026-03-28T15:09:02.871Z</time></trkpt><trkpt lat="39.191984" lon="8.5523281"><ele>282.0</ele><time>2026-03-28T15:09:04.863Z</time></trkpt><trkpt lat="39.1920878" lon="8.5523421"><ele>284.0</ele><time>2026-03-28T15:09:06.863Z</time></trkpt><trkpt lat="39.1921555" lon="8.552311"><ele>286.0</ele><time>2026-03-28T15:09:08.869Z</time></trkpt><trkpt lat="39.1922312" lon="8.5523096"><ele>288.0</ele><time>2026-03-28T15:09:11.886Z</time></trkpt><trkpt lat="39.1922975" lon="8.5523166"><ele>290.0</ele><time>2026-03-28T15:09:33.889Z</time></trkpt><trkpt lat="39.1923703" lon="8.552353"><ele>291.8</ele><time>2026-03-28T15:10:40.883Z</time></trkpt><trkpt lat="39.1924275" lon="8.5523949"><ele>293.6</ele><time>2026-03-28T15:11:03.852Z</time></trkpt><trkpt lat="39.1925627" lon="8.552416"><ele>295.4</ele><time>2026-03-28T15:11:33.857Z</time></trkpt><trkpt lat="39.1926531" lon="8.5524457"><ele>297.2</ele><time>2026-03-28T15:11:34.878Z</time></trkpt><trkpt lat="39.1927234" lon="8.5524723"><ele>299.0</ele><time>2026-03-28T15:11:35.867Z</time></trkpt><trkpt lat="39.1928046" lon="8.5525169"><ele>299.0</ele><time>2026-03-28T15:11:37.874Z</time></trkpt><trkpt lat="39.1928692" lon="8.5525524"><ele>299.0</ele><time>2026-03-28T15:11:39.861Z</time></trkpt><trkpt lat="39.1929411" lon="8.5525871"><ele>299.0</ele><time>2026-03-28T15:11:41.875Z</time></trkpt><trkpt lat="39.1930258" lon="8.5526243"><ele>299.0</ele><time>2026-03-28T15:11:43.865Z</time></trkpt><trkpt lat="39.1930885" lon="8.5526451"><ele>299.0</ele><time>2026-03-28T15:11:45.881Z</time></trkpt><trkpt lat="39.1931753" lon="8.5526423"><ele>299.0</ele><time>2026-03-28T15:11:47.886Z</time></trkpt><trkpt lat="39.193297" lon="8.5526644"><ele>301.83333333333337</ele><time>2026-03-28T15:11:49.871Z</time></trkpt><trkpt lat="39.1933567" lon="8.5526917"><ele>304.6666666666667</ele><time>2026-03-28T15:11:50.871Z</time></trkpt><trkpt lat="39.1934727" lon="8.5527201"><ele>307.5</ele><time>2026-03-28T15:11:52.88Z</time></trkpt><trkpt lat="39.1935374" lon="8.5527372"><ele>310.3333333333333</ele><time>2026-03-28T15:11:53.856Z</time></trkpt><trkpt lat="39.1936062" lon="8.5527662"><ele>313.16666666666663</ele><time>2026-03-28T15:11:54.889Z</time></trkpt><trkpt lat="39.1936697" lon="8.5528033"><ele>316.0</ele><time>2026-03-28T15:11:55.87Z</time></trkpt><trkpt lat="39.1937786" lon="8.5528758"><ele>317.0</ele><time>2026-03-28T15:11:57.884Z</time></trkpt><trkpt lat="39.1938856" lon="8.5529319"><ele>318.0</ele><time>2026-03-28T15:11:59.887Z</time></trkpt><trkpt lat="39.1939955" lon="8.5529483"><ele>319.0</ele><time>2026-03-28T15:12:01.891Z</time></trkpt><trkpt lat="39.1940794" lon="8.5529417"><ele>320.0</ele><time>2026-03-28T15:12:03.886Z</time></trkpt><trkpt lat="39.1941446" lon="8.5529303"><ele>321.0</ele><time>2026-03-28T15:12:05.861Z</time></trkpt><trkpt lat="39.1941921" lon="8.5528507"><ele>323.0</ele><time>2026-03-28T15:12:08.879Z</time></trkpt><trkpt lat="39.1942157" lon="8.5527128"><ele>325.0</ele><time>2026-03-28T15:12:10.889Z</time></trkpt><trkpt lat="39.1942617" lon="8.5525925"><ele>327.0</ele><time>2026-03-28T15:12:12.887Z</time></trkpt><trkpt lat="39.1942243" lon="8.5526676"><ele>329.0</ele><time>2026-03-28T15:12:49.875Z</time></trkpt><trkpt lat="39.1941874" lon="8.5527354"><ele>331.0</ele><time>2026-03-28T15:12:53.889Z</time></trkpt><trkpt lat="39.1941609" lon="8.5528269"><ele>333.0</ele><time>2026-03-28T15:12:59.83Z</time></trkpt><trkpt lat="39.1941371" lon="8.5529088"><ele>333.5714285714286</ele><time>2026-03-28T15:13:07.865Z</time></trkpt><trkpt lat="39.1941834" lon="8.552835"><ele>334.1428571428571</ele><time>2026-03-28T15:13:22.896Z</time></trkpt><trkpt lat="39.1942039" lon="8.5527573"><ele>334.7142857142857</ele><time>2026-03-28T15:13:27.893Z</time></trkpt><trkpt lat="39.1942268" lon="8.5526736"><ele>335.28571428571433</ele><time>2026-03-28T15:13:34.865Z</time></trkpt><trkpt lat="39.1942675" lon="8.5525884"><ele>335.8571428571429</ele><time>2026-03-28T15:14:02.887Z</time></trkpt><trkpt lat="39.194289" lon="8.5525008"><ele>336.42857142857144</ele><time>2026-03-28T15:17:07.858Z</time></trkpt><trkpt lat="39.1943397" lon="8.5524171"><ele>337.0</ele><time>2026-03-28T15:17:09.875Z</time></trkpt><trkpt lat="39.1943661" lon="8.5522784"><ele>337.0</ele><time>2026-03-28T15:17:11.889Z</time></trkpt><trkpt lat="39.1943967" lon="8.5521236"><ele>337.0</ele><time>2026-03-28T15:17:13.889Z</time></trkpt><trkpt lat="39.1944528" lon="8.5519709"><ele>337.0</ele><time>2026-03-28T15:17:15.886Z</time></trkpt><trkpt lat="39.1944868" lon="8.5518836"><ele>337.0</ele><time>2026-03-28T15:17:16.859Z</time></trkpt><trkpt lat="39.1945258" lon="8.5517831"><ele>337.0</ele><time>2026-03-28T15:17:17.894Z</time></trkpt><trkpt lat="39.1945609" lon="8.551687"><ele>338.20000000000005</ele><time>2026-03-28T15:17:18.879Z</time></trkpt><trkpt lat="39.1945849" lon="8.5515988"><ele>339.4</ele><time>2026-03-28T15:17:19.878Z</time></trkpt><trkpt lat="39.1946144" lon="8.5515158"><ele>340.6</ele><time>2026-03-28T15:17:20.89Z</time></trkpt><trkpt lat="39.1946524" lon="8.5513631"><ele>341.79999999999995</ele><time>2026-03-28T15:17:22.885Z</time></trkpt><trkpt lat="39.1946903" lon="8.5512262"><ele>343.0</ele><time>2026-03-28T15:17:24.895Z</time></trkpt><trkpt lat="39.1947608" lon="8.5511216"><ele>343.8333333333333</ele><time>2026-03-28T15:17:26.898Z</time></trkpt><trkpt lat="39.1948253" lon="8.5510632"><ele>344.66666666666663</ele><time>2026-03-28T15:17:27.896Z</time></trkpt><trkpt lat="39.1949023" lon="8.5510004"><ele>345.5</ele><time>2026-03-28T15:17:28.895Z</time></trkpt><trkpt lat="39.1949697" lon="8.5509257"><ele>346.3333333333333</ele><time>2026-03-28T15:17:29.882Z</time></trkpt><trkpt lat="39.1950304" lon="8.5508534"><ele>347.1666666666667</ele><time>2026-03-28T15:17:30.868Z</time></trkpt><trkpt lat="39.1950785" lon="8.550788"><ele>348.0</ele><time>2026-03-28T15:17:31.873Z</time></trkpt><trkpt lat="39.1951252" lon="8.550727"><ele>348.0</ele><time>2026-03-28T15:17:32.893Z</time></trkpt><trkpt lat="39.1951783" lon="8.5506593"><ele>348.0</ele><time>2026-03-28T15:17:33.864Z</time></trkpt><trkpt lat="39.195227" lon="8.55058"><ele>348.0</ele><time>2026-03-28T15:17:34.911Z</time></trkpt><trkpt lat="39.195272" lon="8.5504812"><ele>348.0</ele><time>2026-03-28T15:17:35.878Z</time></trkpt><trkpt lat="39.1953212" lon="8.5503642"><ele>348.0</ele><time>2026-03-28T15:17:36.888Z</time></trkpt><trkpt lat="39.1953741" lon="8.5502385"><ele>347.5</ele><time>2026-03-28T15:17:37.885Z</time></trkpt><trkpt lat="39.1954189" lon="8.5501441"><ele>347.0</ele><time>2026-03-28T15:17:38.886Z</time></trkpt><trkpt lat="39.1954559" lon="8.5500738"><ele>346.5</ele><time>2026-03-28T15:17:39.886Z</time></trkpt><trkpt lat="39.1955053" lon="8.5499929"><ele>346.0</ele><time>2026-03-28T15:17:40.89Z</time></trkpt><trkpt lat="39.1955531" lon="8.5499233"><ele>345.5</ele><time>2026-03-28T15:17:41.886Z</time></trkpt><trkpt lat="39.1956196" lon="8.5497852"><ele>345.0</ele><time>2026-03-28T15:17:43.893Z</time></trkpt><trkpt lat="39.1956903" lon="8.5496677"><ele>346.3333333333333</ele><time>2026-03-28T15:17:45.907Z</time></trkpt><trkpt lat="39.1957575" lon="8.5495943"><ele>347.6666666666667</ele><time>2026-03-28T15:17:47.876Z</time></trkpt><trkpt lat="39.1958366" lon="8.5495265"><ele>349.0</ele><time>2026-03-28T15:17:50.907Z</time></trkpt><trkpt lat="39.1959096" lon="8.5494826"><ele>350.33333333333337</ele><time>2026-03-28T15:17:52.882Z</time></trkpt><trkpt lat="39.1960076" lon="8.5494743"><ele>351.6666666666667</ele><time>2026-03-28T15:17:54.877Z</time></trkpt><trkpt lat="39.1960882" lon="8.549494"><ele>353.0</ele><time>2026-03-28T15:17:56.882Z</time></trkpt><trkpt lat="39.1961962" lon="8.5494964"><ele>352.83333333333337</ele><time>2026-03-28T15:18:08.901Z</time></trkpt><trkpt lat="39.196272" lon="8.5494912"><ele>352.6666666666667</ele><time>2026-03-28T15:18:09.899Z</time></trkpt><trkpt lat="39.1963488" lon="8.5494785"><ele>352.5</ele><time>2026-03-28T15:18:10.899Z</time></trkpt><trkpt lat="39.1964278" lon="8.5494717"><ele>352.3333333333333</ele><time>2026-03-28T15:18:11.872Z</time></trkpt><trkpt lat="39.1965057" lon="8.549465"><ele>352.16666666666663</ele><time>2026-03-28T15:18:12.884Z</time></trkpt><trkpt lat="39.1965785" lon="8.5494598"><ele>352.0</ele><time>2026-03-28T15:18:13.883Z</time></trkpt><trkpt lat="39.1966509" lon="8.5494578"><ele>352.0</ele><time>2026-03-28T15:18:14.903Z</time></trkpt><trkpt lat="39.1967257" lon="8.5494805"><ele>352.0</ele><time>2026-03-28T15:18:15.892Z</time></trkpt><trkpt lat="39.196799" lon="8.5495238"><ele>352.0</ele><time>2026-03-28T15:18:16.884Z</time></trkpt><trkpt lat="39.196863" lon="8.5495889"><ele>352.0</ele><time>2026-03-28T15:18:17.895Z</time></trkpt><trkpt lat="39.1969133" lon="8.5496674"><ele>352.0</ele><time>2026-03-28T15:18:18.888Z</time></trkpt><trkpt lat="39.19695" lon="8.5497416"><ele>352.0</ele><time>2026-03-28T15:18:19.881Z</time></trkpt><trkpt lat="39.1969841" lon="8.5498162"><ele>351.0</ele><time>2026-03-28T15:18:20.882Z</time></trkpt><trkpt lat="39.1970382" lon="8.5499503"><ele>350.0</ele><time>2026-03-28T15:18:22.897Z</time></trkpt><trkpt lat="39.1970938" lon="8.5500978"><ele>349.0</ele><time>2026-03-28T15:18:24.891Z</time></trkpt><trkpt lat="39.1971159" lon="8.5501755"><ele>348.0</ele><time>2026-03-28T15:18:25.871Z</time></trkpt><trkpt lat="39.1971372" lon="8.5502522"><ele>347.0</ele><time>2026-03-28T15:18:26.881Z</time></trkpt><trkpt lat="39.197159" lon="8.5503324"><ele>346.0</ele><time>2026-03-28T15:18:27.89Z</time></trkpt><trkpt lat="39.1971923" lon="8.550464"><ele>345.66666666666663</ele><time>2026-03-28T15:18:29.888Z</time></trkpt><trkpt lat="39.1972636" lon="8.550551"><ele>345.3333333333333</ele><time>2026-03-28T15:18:31.879Z</time></trkpt><trkpt lat="39.1973744" lon="8.5505693"><ele>345.0</ele><time>2026-03-28T15:18:33.864Z</time></trkpt><trkpt lat="39.197439" lon="8.5505739"><ele>344.6666666666667</ele><time>2026-03-28T15:18:34.894Z</time></trkpt><trkpt lat="39.1975033" lon="8.550579"><ele>344.33333333333337</ele><time>2026-03-28T15:18:35.89Z</time></trkpt><trkpt lat="39.1975693" lon="8.5505749"><ele>344.0</ele><time>2026-03-28T15:18:36.897Z</time></trkpt><trkpt lat="39.1976409" lon="8.5505726"><ele>344.0</ele><time>2026-03-28T15:18:37.891Z</time></trkpt><trkpt lat="39.1977187" lon="8.5505765"><ele>344.0</ele><time>2026-03-28T15:18:38.886Z</time></trkpt><trkpt lat="39.197794" lon="8.5505744"><ele>344.0</ele><time>2026-03-28T15:18:39.892Z</time></trkpt><trkpt lat="39.1978712" lon="8.5505787"><ele>344.0</ele><time>2026-03-28T15:18:40.89Z</time></trkpt><trkpt lat="39.197952" lon="8.5505837"><ele>344.0</ele><time>2026-03-28T15:18:41.883Z</time></trkpt><trkpt lat="39.198038" lon="8.5505802"><ele>344.0</ele><time>2026-03-28T15:18:42.866Z</time></trkpt><trkpt lat="39.1981317" lon="8.5505821"><ele>342.0</ele><time>2026-03-28T15:18:43.889Z</time></trkpt><trkpt lat="39.1982304" lon="8.5505947"><ele>340.0</ele><time>2026-03-28T15:18:44.899Z</time></trkpt><trkpt lat="39.1983267" lon="8.5506103"><ele>338.0</ele><time>2026-03-28T15:18:45.891Z</time></trkpt><trkpt lat="39.1984209" lon="8.5506271"><ele>336.0</ele><time>2026-03-28T15:18:46.877Z</time></trkpt><trkpt lat="39.1985107" lon="8.5506518"><ele>334.0</ele><time>2026-03-28T15:18:47.886Z</time></trkpt><trkpt lat="39.1985974" lon="8.5506599"><ele>334.0</ele><time>2026-03-28T15:18:48.895Z</time></trkpt><trkpt lat="39.198693" lon="8.5506566"><ele>334.0</ele><time>2026-03-28T15:18:49.885Z</time></trkpt><trkpt lat="39.1987777" lon="8.5506336"><ele>334.0</ele><time>2026-03-28T15:18:50.889Z</time></trkpt><trkpt lat="39.1988518" lon="8.5506013"><ele>334.0</ele><time>2026-03-28T15:18:51.862Z</time></trkpt><trkpt lat="39.1989208" lon="8.5505724"><ele>334.0</ele><time>2026-03-28T15:18:52.897Z</time></trkpt><trkpt lat="39.1989814" lon="8.5505279"><ele>334.0</ele><time>2026-03-28T15:18:53.892Z</time></trkpt><trkpt lat="39.1990363" lon="8.5504746"><ele>332.3333333333333</ele><time>2026-03-28T15:18:54.866Z</time></trkpt><trkpt lat="39.1990951" lon="8.5504216"><ele>330.66666666666663</ele><time>2026-03-28T15:18:55.867Z</time></trkpt><trkpt lat="39.1991695" lon="8.5503964"><ele>329.0</ele><time>2026-03-28T15:18:56.899Z</time></trkpt><trkpt lat="39.1992402" lon="8.5504041"><ele>327.3333333333333</ele><time>2026-03-28T15:18:57.893Z</time></trkpt><trkpt lat="39.1993154" lon="8.5504438"><ele>325.6666666666667</ele><time>2026-03-28T15:18:58.884Z</time></trkpt><trkpt lat="39.1994039" lon="8.5505014"><ele>324.0</ele><time>2026-03-28T15:18:59.885Z</time></trkpt><trkpt lat="39.1994758" lon="8.5505503"><ele>324.0</ele><time>2026-03-28T15:19:00.879Z</time></trkpt><trkpt lat="39.1995792" lon="8.5505869"><ele>324.0</ele><time>2026-03-28T15:19:02.913Z</time></trkpt><trkpt lat="39.1996355" lon="8.5506268"><ele>324.0</ele><time>2026-03-28T15:19:05.878Z</time></trkpt><trkpt lat="39.1996235" lon="8.5507246"><ele>324.0</ele><time>2026-03-28T15:19:09.889Z</time></trkpt><trkpt lat="39.1995491" lon="8.5507856"><ele>324.0</ele><time>2026-03-28T15:19:12.881Z</time></trkpt><trkpt lat="39.199493" lon="8.5508229"><ele>324.0</ele><time>2026-03-28T15:19:17.883Z</time></trkpt><trkpt lat="39.1994367" lon="8.5508807"><ele>324.0</ele><time>2026-03-28T15:19:33.89Z</time></trkpt><trkpt lat="39.1993793" lon="8.5509381"><ele>324.0</ele><time>2026-03-28T15:19:34.89Z</time></trkpt><trkpt lat="39.1993157" lon="8.5510139"><ele>324.0</ele><time>2026-03-28T15:19:35.874Z</time></trkpt><trkpt lat="39.1992592" lon="8.5510841"><ele>324.0</ele><time>2026-03-28T15:19:36.885Z</time></trkpt><trkpt lat="39.1992017" lon="8.5511496"><ele>324.0</ele><time>2026-03-28T15:19:37.87Z</time></trkpt><trkpt lat="39.1991506" lon="8.5512032"><ele>324.0</ele><time>2026-03-28T15:19:38.886Z</time></trkpt><trkpt lat="39.1990706" lon="8.5512977"><ele>323.8333333333333</ele><time>2026-03-28T15:19:40.889Z</time></trkpt><trkpt lat="39.1990209" lon="8.5513667"><ele>323.6666666666667</ele><time>2026-03-28T15:19:41.882Z</time></trkpt><trkpt lat="39.1989853" lon="8.5514492"><ele>323.5</ele><time>2026-03-28T15:19:42.884Z</time></trkpt><trkpt lat="39.1989632" lon="8.5515453"><ele>323.33333333333337</ele><time>2026-03-28T15:19:43.865Z</time></trkpt><trkpt lat="39.1989383" lon="8.5516357"><ele>323.1666666666667</ele><time>2026-03-28T15:19:44.896Z</time></trkpt><trkpt lat="39.1989181" lon="8.5517274"><ele>323.0</ele><time>2026-03-28T15:19:45.884Z</time></trkpt><trkpt lat="39.1988813" lon="8.55182"><ele>323.28571428571433</ele><time>2026-03-28T15:19:46.862Z</time></trkpt><trkpt lat="39.1988527" lon="8.5519151"><ele>323.57142857142856</ele><time>2026-03-28T15:19:47.896Z</time></trkpt><trkpt lat="39.1988253" lon="8.5520095"><ele>323.8571428571429</ele><time>2026-03-28T15:19:48.884Z</time></trkpt><trkpt lat="39.1988072" lon="8.5521026"><ele>324.14285714285717</ele><time>2026-03-28T15:19:49.873Z</time></trkpt><trkpt lat="39.1987821" lon="8.5521903"><ele>324.42857142857144</ele><time>2026-03-28T15:19:50.878Z</time></trkpt><trkpt lat="39.1987528" lon="8.5522778"><ele>324.7142857142857</ele><time>2026-03-28T15:19:51.871Z</time></trkpt><trkpt lat="39.1987233" lon="8.5523572"><ele>325.0</ele><time>2026-03-28T15:19:52.884Z</time></trkpt><trkpt lat="39.1986972" lon="8.5524362"><ele>324.0</ele><time>2026-03-28T15:19:53.872Z</time></trkpt><trkpt lat="39.1986689" lon="8.5525334"><ele>323.0</ele><time>2026-03-28T15:19:54.883Z</time></trkpt><trkpt lat="39.1986451" lon="8.5526434"><ele>322.0</ele><time>2026-03-28T15:19:55.886Z</time></trkpt><trkpt lat="39.1986267" lon="8.5527498"><ele>321.0</ele><time>2026-03-28T15:19:56.882Z</time></trkpt><trkpt lat="39.1986071" lon="8.5528704"><ele>320.0</ele><time>2026-03-28T15:19:57.879Z</time></trkpt><trkpt lat="39.1985865" lon="8.5529937"><ele>319.0</ele><time>2026-03-28T15:19:58.892Z</time></trkpt><trkpt lat="39.1985609" lon="8.5531093"><ele>317.66666666666663</ele><time>2026-03-28T15:19:59.875Z</time></trkpt><trkpt lat="39.1985218" lon="8.5532095"><ele>316.3333333333333</ele><time>2026-03-28T15:20:00.829Z</time></trkpt><trkpt lat="39.1984819" lon="8.5533147"><ele>315.0</ele><time>2026-03-28T15:20:01.868Z</time></trkpt><trkpt lat="39.1984402" lon="8.5534159"><ele>313.6666666666667</ele><time>2026-03-28T15:20:02.871Z</time></trkpt><trkpt lat="39.1983975" lon="8.5535152"><ele>312.33333333333337</ele><time>2026-03-28T15:20:03.873Z</time></trkpt><trkpt lat="39.1983538" lon="8.5536183"><ele>311.0</ele><time>2026-03-28T15:20:04.874Z</time></trkpt><trkpt lat="39.1983044" lon="8.5537153"><ele>311.8</ele><time>2026-03-28T15:20:05.886Z</time></trkpt><trkpt lat="39.198249" lon="8.5538147"><ele>312.6</ele><time>2026-03-28T15:20:06.884Z</time></trkpt><trkpt lat="39.1981927" lon="8.553918"><ele>313.4</ele><time>2026-03-28T15:20:07.881Z</time></trkpt><trkpt lat="39.1981378" lon="8.5540126"><ele>314.2</ele><time>2026-03-28T15:20:08.897Z</time></trkpt><trkpt lat="39.1981001" lon="8.5541128"><ele>315.0</ele><time>2026-03-28T15:20:09.891Z</time></trkpt><trkpt lat="39.1980701" lon="8.5542131"><ele>315.0</ele><time>2026-03-28T15:20:10.893Z</time></trkpt><trkpt lat="39.1980487" lon="8.5543051"><ele>315.0</ele><time>2026-03-28T15:20:11.877Z</time></trkpt><trkpt lat="39.1980291" lon="8.5543908"><ele>315.0</ele><time>2026-03-28T15:20:12.886Z</time></trkpt><trkpt lat="39.198007" lon="8.5544695"><ele>315.0</ele><time>2026-03-28T15:20:13.89Z</time></trkpt><trkpt lat="39.197975" lon="8.5545502"><ele>315.0</ele><time>2026-03-28T15:20:14.884Z</time></trkpt><trkpt lat="39.1979391" lon="8.5546264"><ele>315.0</ele><time>2026-03-28T15:20:15.885Z</time></trkpt><trkpt lat="39.1978934" lon="8.5546989"><ele>315.0</ele><time>2026-03-28T15:20:16.885Z</time></trkpt><trkpt lat="39.1978452" lon="8.5547819"><ele>313.0</ele><time>2026-03-28T15:20:17.891Z</time></trkpt><trkpt lat="39.1977989" lon="8.5548761"><ele>311.0</ele><time>2026-03-28T15:20:18.886Z</time></trkpt><trkpt lat="39.1977546" lon="8.554964"><ele>309.0</ele><time>2026-03-28T15:20:19.882Z</time></trkpt><trkpt lat="39.1977108" lon="8.5550496"><ele>307.0</ele><time>2026-03-28T15:20:20.879Z</time></trkpt><trkpt lat="39.1976755" lon="8.5551377"><ele>305.0</ele><time>2026-03-28T15:20:21.886Z</time></trkpt><trkpt lat="39.1976347" lon="8.5552277"><ele>303.0</ele><time>2026-03-28T15:20:22.888Z</time></trkpt><trkpt lat="39.1975948" lon="8.5553255"><ele>302.2</ele><time>2026-03-28T15:20:23.889Z</time></trkpt><trkpt lat="39.1975419" lon="8.555423"><ele>301.4</ele><time>2026-03-28T15:20:24.905Z</time></trkpt><trkpt lat="39.1974772" lon="8.5555226"><ele>300.59999999999997</ele><time>2026-03-28T15:20:25.894Z</time></trkpt><trkpt lat="39.197428" lon="8.5556143"><ele>299.8</ele><time>2026-03-28T15:20:26.888Z</time></trkpt><trkpt lat="39.1974014" lon="8.5557256"><ele>299.0</ele><time>2026-03-28T15:20:27.879Z</time></trkpt><trkpt lat="39.1973889" lon="8.5558536"><ele>299.0</ele><time>2026-03-28T15:20:28.898Z</time></trkpt><trkpt lat="39.197374" lon="8.5560133"><ele>299.0</ele><time>2026-03-28T15:20:29.883Z</time></trkpt><trkpt lat="39.1973489" lon="8.556166"><ele>299.0</ele><time>2026-03-28T15:20:30.883Z</time></trkpt><trkpt lat="39.1973234" lon="8.5563169"><ele>299.0</ele><time>2026-03-28T15:20:31.885Z</time></trkpt><trkpt lat="39.1972973" lon="8.5564623"><ele>299.8</ele><time>2026-03-28T15:20:32.864Z</time></trkpt><trkpt lat="39.1972725" lon="8.5566026"><ele>300.59999999999997</ele><time>2026-03-28T15:20:33.884Z</time></trkpt><trkpt lat="39.1972646" lon="8.5567338"><ele>301.4</ele><time>2026-03-28T15:20:34.894Z</time></trkpt><trkpt lat="39.1972718" lon="8.5568533"><ele>302.2</ele><time>2026-03-28T15:20:35.877Z</time></trkpt><trkpt lat="39.1972876" lon="8.5569789"><ele>303.0</ele><time>2026-03-28T15:20:36.884Z</time></trkpt><trkpt lat="39.1972966" lon="8.5571046"><ele>302.1666666666667</ele><time>2026-03-28T15:20:37.907Z</time></trkpt><trkpt lat="39.1972977" lon="8.5572093"><ele>301.3333333333333</ele><time>2026-03-28T15:20:38.886Z</time></trkpt><trkpt lat="39.1973008" lon="8.5572925"><ele>300.5</ele><time>2026-03-28T15:20:39.881Z</time></trkpt><trkpt lat="39.1973396" lon="8.557426"><ele>299.66666666666663</ele><time>2026-03-28T15:20:41.882Z</time></trkpt><trkpt lat="39.1974143" lon="8.5575235"><ele>298.8333333333333</ele><time>2026-03-28T15:20:43.883Z</time></trkpt><trkpt lat="39.1974673" lon="8.5575692"><ele>298.0</ele><time>2026-03-28T15:20:44.875Z</time></trkpt><trkpt lat="39.1975272" lon="8.5576403"><ele>298.0</ele><time>2026-03-28T15:20:45.887Z</time></trkpt><trkpt lat="39.1975724" lon="8.5577179"><ele>298.0</ele><time>2026-03-28T15:20:46.877Z</time></trkpt><trkpt lat="39.1975891" lon="8.5578044"><ele>298.0</ele><time>2026-03-28T15:20:47.892Z</time></trkpt><trkpt lat="39.1975629" lon="8.5578961"><ele>298.0</ele><time>2026-03-28T15:20:48.885Z</time></trkpt><trkpt lat="39.1975035" lon="8.5579823"><ele>298.0</ele><time>2026-03-28T15:20:49.862Z</time></trkpt><trkpt lat="39.1974289" lon="8.558042"><ele>298.0</ele><time>2026-03-28T15:20:50.878Z</time></trkpt><trkpt lat="39.1973458" lon="8.558064"><ele>297.0</ele><time>2026-03-28T15:20:51.884Z</time></trkpt><trkpt lat="39.197247" lon="8.5580692"><ele>296.0</ele><time>2026-03-28T15:20:52.876Z</time></trkpt><trkpt lat="39.1971544" lon="8.5580986"><ele>295.0</ele><time>2026-03-28T15:20:53.875Z</time></trkpt><trkpt lat="39.1970746" lon="8.558142"><ele>294.0</ele><time>2026-03-28T15:20:54.871Z</time></trkpt><trkpt lat="39.1970092" lon="8.5581924"><ele>293.0</ele><time>2026-03-28T15:20:55.884Z</time></trkpt><trkpt lat="39.196954" lon="8.5582523"><ele>292.0</ele><time>2026-03-28T15:20:56.882Z</time></trkpt><trkpt lat="39.1969037" lon="8.5583144"><ele>292.0</ele><time>2026-03-28T15:20:57.885Z</time></trkpt><trkpt lat="39.1968581" lon="8.5583857"><ele>292.0</ele><time>2026-03-28T15:20:58.882Z</time></trkpt><trkpt lat="39.1968098" lon="8.5584644"><ele>292.0</ele><time>2026-03-28T15:20:59.878Z</time></trkpt><trkpt lat="39.1967461" lon="8.558574"><ele>292.0</ele><time>2026-03-28T15:21:00.887Z</time></trkpt><trkpt lat="39.196682" lon="8.558697"><ele>292.0</ele><time>2026-03-28T15:21:01.9Z</time></trkpt><trkpt lat="39.1966186" lon="8.5588002"><ele>291.8</ele><time>2026-03-28T15:21:02.875Z</time></trkpt><trkpt lat="39.196553" lon="8.5588964"><ele>291.6</ele><time>2026-03-28T15:21:03.864Z</time></trkpt><trkpt lat="39.1964894" lon="8.558998"><ele>291.40000000000003</ele><time>2026-03-28T15:21:04.878Z</time></trkpt><trkpt lat="39.1964313" lon="8.55909"><ele>291.2</ele><time>2026-03-28T15:21:05.888Z</time></trkpt><trkpt lat="39.1963737" lon="8.5591807"><ele>291.0</ele><time>2026-03-28T15:21:06.881Z</time></trkpt><trkpt lat="39.1963189" lon="8.5592694"><ele>290.5</ele><time>2026-03-28T15:21:07.878Z</time></trkpt><trkpt lat="39.1962559" lon="8.5593358"><ele>290.0</ele><time>2026-03-28T15:21:08.879Z</time></trkpt><trkpt lat="39.1961837" lon="8.5593629"><ele>289.5</ele><time>2026-03-28T15:21:09.898Z</time></trkpt><trkpt lat="39.1961035" lon="8.559368"><ele>289.0</ele><time>2026-03-28T15:21:10.881Z</time></trkpt><trkpt lat="39.1960309" lon="8.5593566"><ele>288.5</ele><time>2026-03-28T15:21:11.893Z</time></trkpt><trkpt lat="39.1959247" lon="8.559306"><ele>288.0</ele><time>2026-03-28T15:21:13.873Z</time></trkpt><trkpt lat="39.1958323" lon="8.5592627"><ele>288.0</ele><time>2026-03-28T15:21:15.88Z</time></trkpt><trkpt lat="39.1957373" lon="8.5592404"><ele>288.0</ele><time>2026-03-28T15:21:17.893Z</time></trkpt><trkpt lat="39.1956195" lon="8.5593006"><ele>288.0</ele><time>2026-03-28T15:21:19.884Z</time></trkpt><trkpt lat="39.1955415" lon="8.5593484"><ele>288.0</ele><time>2026-03-28T15:21:20.887Z</time></trkpt><trkpt lat="39.1954528" lon="8.5594139"><ele>288.0</ele><time>2026-03-28T15:21:21.875Z</time></trkpt><trkpt lat="39.1953893" lon="8.5594649"><ele>287.5</ele><time>2026-03-28T15:21:22.883Z</time></trkpt><trkpt lat="39.1953181" lon="8.5595325"><ele>287.0</ele><time>2026-03-28T15:21:24.891Z</time></trkpt><trkpt lat="39.1952654" lon="8.5595995"><ele>286.5</ele><time>2026-03-28T15:21:26.873Z</time></trkpt><trkpt lat="39.1952031" lon="8.5597548"><ele>286.0</ele><time>2026-03-28T15:21:28.872Z</time></trkpt><trkpt lat="39.1951673" lon="8.5598441"><ele>285.5</ele><time>2026-03-28T15:21:29.905Z</time></trkpt><trkpt lat="39.1951355" lon="8.5599297"><ele>285.0</ele><time>2026-03-28T15:21:30.867Z</time></trkpt><trkpt lat="39.1950995" lon="8.5600141"><ele>285.0</ele><time>2026-03-28T15:21:31.89Z</time></trkpt><trkpt lat="39.1950716" lon="8.5601017"><ele>285.0</ele><time>2026-03-28T15:21:32.897Z</time></trkpt><trkpt lat="39.1950387" lon="8.5601853"><ele>285.0</ele><time>2026-03-28T15:21:33.863Z</time></trkpt><trkpt lat="39.1949937" lon="8.5602804"><ele>285.0</ele><time>2026-03-28T15:21:34.88Z</time></trkpt><trkpt lat="39.1949385" lon="8.5603765"><ele>285.0</ele><time>2026-03-28T15:21:35.852Z</time></trkpt><trkpt lat="39.194884" lon="8.560481"><ele>285.0</ele><time>2026-03-28T15:21:36.877Z</time></trkpt><trkpt lat="39.1948277" lon="8.5605739"><ele>285.8</ele><time>2026-03-28T15:21:37.888Z</time></trkpt><trkpt lat="39.194786" lon="8.5606641"><ele>286.6</ele><time>2026-03-28T15:21:38.88Z</time></trkpt><trkpt lat="39.1947245" lon="8.5607519"><ele>287.4</ele><time>2026-03-28T15:21:39.885Z</time></trkpt><trkpt lat="39.19465" lon="8.5608374"><ele>288.2</ele><time>2026-03-28T15:21:40.888Z</time></trkpt><trkpt lat="39.1945754" lon="8.5609238"><ele>289.0</ele><time>2026-03-28T15:21:41.857Z</time></trkpt><trkpt lat="39.1945028" lon="8.5610095"><ele>289.0</ele><time>2026-03-28T15:21:42.916Z</time></trkpt><trkpt lat="39.1944353" lon="8.5610874"><ele>289.0</ele><time>2026-03-28T15:21:43.903Z</time></trkpt><trkpt lat="39.1943759" lon="8.5611526"><ele>289.0</ele><time>2026-03-28T15:21:44.895Z</time></trkpt><trkpt lat="39.1943155" lon="8.5612145"><ele>289.0</ele><time>2026-03-28T15:21:45.873Z</time></trkpt><trkpt lat="39.1942636" lon="8.5612667"><ele>289.0</ele><time>2026-03-28T15:21:46.901Z</time></trkpt><trkpt lat="39.1941597" lon="8.561365"><ele>289.0</ele><time>2026-03-28T15:21:48.925Z</time></trkpt><trkpt lat="39.1940958" lon="8.5614269"><ele>288.16666666666663</ele><time>2026-03-28T15:21:49.898Z</time></trkpt><trkpt lat="39.1940262" lon="8.5614828"><ele>287.3333333333333</ele><time>2026-03-28T15:21:50.878Z</time></trkpt><trkpt lat="39.1939636" lon="8.561539"><ele>286.5</ele><time>2026-03-28T15:21:51.895Z</time></trkpt><trkpt lat="39.1939052" lon="8.561605"><ele>285.6666666666667</ele><time>2026-03-28T15:21:52.893Z</time></trkpt><trkpt lat="39.1938624" lon="8.5616769"><ele>284.83333333333337</ele><time>2026-03-28T15:21:53.878Z</time></trkpt><trkpt lat="39.1938194" lon="8.5617377"><ele>284.0</ele><time>2026-03-28T15:21:54.874Z</time></trkpt><trkpt lat="39.1937279" lon="8.5618277"><ele>284.0</ele><time>2026-03-28T15:21:56.877Z</time></trkpt><trkpt lat="39.1936182" lon="8.5618856"><ele>284.0</ele><time>2026-03-28T15:21:58.874Z</time></trkpt><trkpt lat="39.1935502" lon="8.5619071"><ele>284.0</ele><time>2026-03-28T15:21:59.881Z</time></trkpt><trkpt lat="39.1934642" lon="8.5619602"><ele>284.0</ele><time>2026-03-28T15:22:01.884Z</time></trkpt><trkpt lat="39.193365" lon="8.5620334"><ele>284.0</ele><time>2026-03-28T15:22:03.865Z</time></trkpt><trkpt lat="39.1933118" lon="8.5620925"><ele>283.59999999999997</ele><time>2026-03-28T15:22:04.882Z</time></trkpt><trkpt lat="39.1932572" lon="8.5621541"><ele>283.2</ele><time>2026-03-28T15:22:05.878Z</time></trkpt><trkpt lat="39.193159" lon="8.562242"><ele>282.79999999999995</ele><time>2026-03-28T15:22:07.893Z</time></trkpt><trkpt lat="39.193091" lon="8.5622862"><ele>282.4</ele><time>2026-03-28T15:22:08.883Z</time></trkpt><trkpt lat="39.192997" lon="8.5623262"><ele>282.0</ele><time>2026-03-28T15:22:09.87Z</time></trkpt><trkpt lat="39.1929056" lon="8.562347"><ele>282.0</ele><time>2026-03-28T15:22:10.876Z</time></trkpt><trkpt lat="39.192819" lon="8.5623541"><ele>282.0</ele><time>2026-03-28T15:22:11.903Z</time></trkpt><trkpt lat="39.1927387" lon="8.5623491"><ele>282.0</ele><time>2026-03-28T15:22:12.893Z</time></trkpt><trkpt lat="39.1926618" lon="8.5623362"><ele>282.0</ele><time>2026-03-28T15:22:13.879Z</time></trkpt><trkpt lat="39.1925841" lon="8.5623118"><ele>282.0</ele><time>2026-03-28T15:22:14.868Z</time></trkpt><trkpt lat="39.1924942" lon="8.5622696"><ele>282.0</ele><time>2026-03-28T15:22:15.889Z</time></trkpt><trkpt lat="39.1924185" lon="8.5622089"><ele>282.0</ele><time>2026-03-28T15:22:16.882Z</time></trkpt><trkpt lat="39.1923627" lon="8.5621573"><ele>282.0</ele><time>2026-03-28T15:22:17.88Z</time></trkpt><trkpt lat="39.1923094" lon="8.5621079"><ele>282.0</ele><time>2026-03-28T15:22:18.893Z</time></trkpt><trkpt lat="39.1921993" lon="8.5620305"><ele>282.0</ele><time>2026-03-28T15:22:20.89Z</time></trkpt><trkpt lat="39.1921332" lon="8.5619761"><ele>282.0</ele><time>2026-03-28T15:22:21.889Z</time></trkpt><trkpt lat="39.1920635" lon="8.5619176"><ele>282.0</ele><time>2026-03-28T15:22:22.88Z</time></trkpt><trkpt lat="39.1919996" lon="8.5618786"><ele>281.0</ele><time>2026-03-28T15:22:23.878Z</time></trkpt><trkpt lat="39.1919263" lon="8.5618363"><ele>280.0</ele><time>2026-03-28T15:22:24.865Z</time></trkpt><trkpt lat="39.1918408" lon="8.5617952"><ele>279.0</ele><time>2026-03-28T15:22:25.875Z</time></trkpt><trkpt lat="39.1917544" lon="8.5617481"><ele>278.0</ele><time>2026-03-28T15:22:26.909Z</time></trkpt><trkpt lat="39.1916685" lon="8.5617006"><ele>277.0</ele><time>2026-03-28T15:22:27.866Z</time></trkpt><trkpt lat="39.1915847" lon="8.5616618"><ele>276.0</ele><time>2026-03-28T15:22:28.869Z</time></trkpt><trkpt lat="39.1915067" lon="8.5616382"><ele>275.0</ele><time>2026-03-28T15:22:29.872Z</time></trkpt><trkpt lat="39.1914327" lon="8.5616103"><ele>274.0</ele><time>2026-03-28T15:22:30.878Z</time></trkpt><trkpt lat="39.1913651" lon="8.5615814"><ele>273.0</ele><time>2026-03-28T15:22:31.887Z</time></trkpt><trkpt lat="39.191301" lon="8.5615601"><ele>272.0</ele><time>2026-03-28T15:22:32.845Z</time></trkpt><trkpt lat="39.1912354" lon="8.5615341"><ele>271.0</ele><time>2026-03-28T15:22:33.877Z</time></trkpt><trkpt lat="39.1911634" lon="8.5615299"><ele>270.0</ele><time>2026-03-28T15:22:34.88Z</time></trkpt><trkpt lat="39.1910806" lon="8.5615309"><ele>269.0</ele><time>2026-03-28T15:22:35.878Z</time></trkpt><trkpt lat="39.1909902" lon="8.5615289"><ele>269.0</ele><time>2026-03-28T15:22:36.894Z</time></trkpt><trkpt lat="39.1909111" lon="8.5615279"><ele>269.0</ele><time>2026-03-28T15:22:37.875Z</time></trkpt><trkpt lat="39.1908059" lon="8.5615412"><ele>269.0</ele><time>2026-03-28T15:22:39.885Z</time></trkpt><trkpt lat="39.1907262" lon="8.5616148"><ele>269.0</ele><time>2026-03-28T15:22:41.862Z</time></trkpt><trkpt lat="39.190645" lon="8.5616735"><ele>269.0</ele><time>2026-03-28T15:22:42.883Z</time></trkpt><trkpt lat="39.1905543" lon="8.5617315"><ele>269.59999999999997</ele><time>2026-03-28T15:22:43.882Z</time></trkpt><trkpt lat="39.1904705" lon="8.5617652"><ele>270.2</ele><time>2026-03-28T15:22:44.874Z</time></trkpt><trkpt lat="39.1904061" lon="8.5618172"><ele>270.79999999999995</ele><time>2026-03-28T15:22:45.891Z</time></trkpt><trkpt lat="39.1903471" lon="8.5618875"><ele>271.4</ele><time>2026-03-28T15:22:46.884Z</time></trkpt><trkpt lat="39.1903071" lon="8.5620012"><ele>272.0</ele><time>2026-03-28T15:22:47.862Z</time></trkpt><trkpt lat="39.1902587" lon="8.562129"><ele>272.6</ele><time>2026-03-28T15:22:48.887Z</time></trkpt><trkpt lat="39.1902003" lon="8.5622601"><ele>273.2</ele><time>2026-03-28T15:22:49.876Z</time></trkpt><trkpt lat="39.1901492" lon="8.562385"><ele>273.8</ele><time>2026-03-28T15:22:50.899Z</time></trkpt><trkpt lat="39.1901031" lon="8.5624934"><ele>274.4</ele><time>2026-03-28T15:22:51.878Z</time></trkpt><trkpt lat="39.1900559" lon="8.5625968"><ele>275.0</ele><time>2026-03-28T15:22:52.874Z</time></trkpt><trkpt lat="39.1900156" lon="8.5627048"><ele>275.0</ele><time>2026-03-28T15:22:53.885Z</time></trkpt><trkpt lat="39.1899732" lon="8.5627928"><ele>275.0</ele><time>2026-03-28T15:22:54.885Z</time></trkpt><trkpt lat="39.1899403" lon="8.562875"><ele>275.0</ele><time>2026-03-28T15:22:55.887Z</time></trkpt><trkpt lat="39.1899168" lon="8.5629616"><ele>275.0</ele><time>2026-03-28T15:22:56.866Z</time></trkpt><trkpt lat="39.1898873" lon="8.5630502"><ele>275.0</ele><time>2026-03-28T15:22:57.894Z</time></trkpt><trkpt lat="39.1898609" lon="8.5631425"><ele>275.0</ele><time>2026-03-28T15:22:58.851Z</time></trkpt><trkpt lat="39.1898372" lon="8.5632311"><ele>275.0</ele><time>2026-03-28T15:22:59.879Z</time></trkpt><trkpt lat="39.1898195" lon="8.5633153"><ele>277.6666666666667</ele><time>2026-03-28T15:23:00.882Z</time></trkpt><trkpt lat="39.1897963" lon="8.5634002"><ele>280.33333333333337</ele><time>2026-03-28T15:23:01.868Z</time></trkpt><trkpt lat="39.1897668" lon="8.5634941"><ele>283.0</ele><time>2026-03-28T15:23:02.895Z</time></trkpt><trkpt lat="39.1897416" lon="8.5636056"><ele>285.6666666666667</ele><time>2026-03-28T15:23:03.892Z</time></trkpt><trkpt lat="39.1897212" lon="8.563723"><ele>288.3333333333333</ele><time>2026-03-28T15:23:04.883Z</time></trkpt><trkpt lat="39.1897019" lon="8.5638325"><ele>291.0</ele><time>2026-03-28T15:23:05.885Z</time></trkpt><trkpt lat="39.1896822" lon="8.5639553"><ele>291.0</ele><time>2026-03-28T15:23:06.902Z</time></trkpt><trkpt lat="39.18966" lon="8.564094"><ele>291.0</ele><time>2026-03-28T15:23:07.897Z</time></trkpt><trkpt lat="39.1896243" lon="8.5642525"><ele>291.0</ele><time>2026-03-28T15:23:08.894Z</time></trkpt><trkpt lat="39.1895996" lon="8.5644084"><ele>291.0</ele><time>2026-03-28T15:23:09.869Z</time></trkpt><trkpt lat="39.1895807" lon="8.5645456"><ele>290.40000000000003</ele><time>2026-03-28T15:23:10.879Z</time></trkpt><trkpt lat="39.1895639" lon="8.5646753"><ele>289.8</ele><time>2026-03-28T15:23:11.897Z</time></trkpt><trkpt lat="39.1895477" lon="8.5647994"><ele>289.20000000000005</ele><time>2026-03-28T15:23:12.903Z</time></trkpt><trkpt lat="39.1895333" lon="8.564927"><ele>288.6</ele><time>2026-03-28T15:23:13.891Z</time></trkpt><trkpt lat="39.1895213" lon="8.5650559"><ele>288.0</ele><time>2026-03-28T15:23:14.858Z</time></trkpt><trkpt lat="39.1895056" lon="8.5651807"><ele>288.0</ele><time>2026-03-28T15:23:15.897Z</time></trkpt><trkpt lat="39.1894905" lon="8.5652974"><ele>288.0</ele><time>2026-03-28T15:23:16.908Z</time></trkpt><trkpt lat="39.1894775" lon="8.5654067"><ele>288.0</ele><time>2026-03-28T15:23:17.9Z</time></trkpt><trkpt lat="39.1894652" lon="8.5655083"><ele>288.0</ele><time>2026-03-28T15:23:18.893Z</time></trkpt><trkpt lat="39.1894488" lon="8.5656186"><ele>288.0</ele><time>2026-03-28T15:23:19.902Z</time></trkpt><trkpt lat="39.189434" lon="8.5657337"><ele>288.0</ele><time>2026-03-28T15:23:20.897Z</time></trkpt><trkpt lat="39.189412" lon="8.5658537"><ele>288.4</ele><time>2026-03-28T15:23:21.891Z</time></trkpt><trkpt lat="39.1893898" lon="8.5659765"><ele>288.8</ele><time>2026-03-28T15:23:22.885Z</time></trkpt><trkpt lat="39.1893674" lon="8.5661003"><ele>289.2</ele><time>2026-03-28T15:23:23.885Z</time></trkpt><trkpt lat="39.1893405" lon="8.5662242"><ele>289.6</ele><time>2026-03-28T15:23:24.897Z</time></trkpt><trkpt lat="39.1893133" lon="8.5663425"><ele>290.0</ele><time>2026-03-28T15:23:25.883Z</time></trkpt><trkpt lat="39.1892958" lon="8.5664548"><ele>290.0</ele><time>2026-03-28T15:23:26.894Z</time></trkpt><trkpt lat="39.1892791" lon="8.5665763"><ele>290.0</ele><time>2026-03-28T15:23:27.882Z</time></trkpt><trkpt lat="39.1892608" lon="8.5666921"><ele>290.0</ele><time>2026-03-28T15:23:28.905Z</time></trkpt><trkpt lat="39.1892534" lon="8.5668117"><ele>290.0</ele><time>2026-03-28T15:23:29.87Z</time></trkpt><trkpt lat="39.1892526" lon="8.5669225"><ele>290.0</ele><time>2026-03-28T15:23:30.885Z</time></trkpt><trkpt lat="39.1892592" lon="8.5670361"><ele>290.33333333333337</ele><time>2026-03-28T15:23:31.871Z</time></trkpt><trkpt lat="39.1892631" lon="8.5671469"><ele>290.6666666666667</ele><time>2026-03-28T15:23:32.89Z</time></trkpt><trkpt lat="39.1892674" lon="8.5672556"><ele>291.0</ele><time>2026-03-28T15:23:33.9Z</time></trkpt><trkpt lat="39.1892738" lon="8.5673613"><ele>291.3333333333333</ele><time>2026-03-28T15:23:34.869Z</time></trkpt><trkpt lat="39.1892882" lon="8.5674691"><ele>291.66666666666663</ele><time>2026-03-28T15:23:35.902Z</time></trkpt><trkpt lat="39.1893052" lon="8.5675845"><ele>292.0</ele><time>2026-03-28T15:23:36.877Z</time></trkpt><trkpt lat="39.1893077" lon="8.5676898"><ele>292.0</ele><time>2026-03-28T15:23:37.884Z</time></trkpt><trkpt lat="39.189321" lon="8.5677888"><ele>292.0</ele><time>2026-03-28T15:23:38.871Z</time></trkpt><trkpt lat="39.1893387" lon="8.5678839"><ele>292.0</ele><time>2026-03-28T15:23:39.889Z</time></trkpt><trkpt lat="39.1893406" lon="8.5680315"><ele>292.0</ele><time>2026-03-28T15:23:41.889Z</time></trkpt><trkpt lat="39.189338" lon="8.5681538"><ele>292.0</ele><time>2026-03-28T15:23:42.889Z</time></trkpt><trkpt lat="39.1893496" lon="8.5682952"><ele>292.4</ele><time>2026-03-28T15:23:43.878Z</time></trkpt><trkpt lat="39.1893665" lon="8.5684229"><ele>292.79999999999995</ele><time>2026-03-28T15:23:44.894Z</time></trkpt><trkpt lat="39.1893918" lon="8.5685051"><ele>293.2</ele><time>2026-03-28T15:23:45.867Z</time></trkpt><trkpt lat="39.1894383" lon="8.5685868"><ele>293.59999999999997</ele><time>2026-03-28T15:23:47.898Z</time></trkpt><trkpt lat="39.1894747" lon="8.568752"><ele>294.0</ele><time>2026-03-28T15:23:49.891Z</time></trkpt><trkpt lat="39.1894801" lon="8.5688626"><ele>294.3333333333333</ele><time>2026-03-28T15:23:50.869Z</time></trkpt><trkpt lat="39.1894853" lon="8.5689741"><ele>294.6666666666667</ele><time>2026-03-28T15:23:51.851Z</time></trkpt><trkpt lat="39.1894863" lon="8.5690861"><ele>295.0</ele><time>2026-03-28T15:23:52.885Z</time></trkpt><trkpt lat="39.1894804" lon="8.5691818"><ele>295.33333333333337</ele><time>2026-03-28T15:23:53.907Z</time></trkpt><trkpt lat="39.1894629" lon="8.5692785"><ele>295.6666666666667</ele><time>2026-03-28T15:23:54.89Z</time></trkpt><trkpt lat="39.1894541" lon="8.5693755"><ele>296.0</ele><time>2026-03-28T15:23:55.882Z</time></trkpt><trkpt lat="39.1894439" lon="8.5694694"><ele>296.33333333333337</ele><time>2026-03-28T15:23:56.857Z</time></trkpt><trkpt lat="39.1894435" lon="8.5695657"><ele>296.6666666666667</ele><time>2026-03-28T15:23:57.888Z</time></trkpt><trkpt lat="39.1894385" lon="8.5696845"><ele>297.0</ele><time>2026-03-28T15:23:58.883Z</time></trkpt><trkpt lat="39.189433" lon="8.569799"><ele>297.3333333333333</ele><time>2026-03-28T15:23:59.88Z</time></trkpt><trkpt lat="39.1894261" lon="8.5699026"><ele>297.66666666666663</ele><time>2026-03-28T15:24:00.885Z</time></trkpt><trkpt lat="39.1894248" lon="8.5699872"><ele>298.0</ele><time>2026-03-28T15:24:01.887Z</time></trkpt><trkpt lat="39.1894256" lon="8.5700823"><ele>298.0</ele><time>2026-03-28T15:24:02.877Z</time></trkpt><trkpt lat="39.1894326" lon="8.5701785"><ele>298.0</ele><time>2026-03-28T15:24:03.888Z</time></trkpt><trkpt lat="39.1894496" lon="8.5702956"><ele>298.0</ele><time>2026-03-28T15:24:04.892Z</time></trkpt><trkpt lat="39.189473" lon="8.5704227"><ele>298.0</ele><time>2026-03-28T15:24:05.877Z</time></trkpt><trkpt lat="39.1894788" lon="8.570561"><ele>298.0</ele><time>2026-03-28T15:24:06.899Z</time></trkpt><trkpt lat="39.1894756" lon="8.5707014"><ele>299.0</ele><time>2026-03-28T15:24:07.874Z</time></trkpt><trkpt lat="39.1894832" lon="8.5708371"><ele>300.0</ele><time>2026-03-28T15:24:08.854Z</time></trkpt><trkpt lat="39.1894905" lon="8.5709637"><ele>301.0</ele><time>2026-03-28T15:24:09.883Z</time></trkpt><trkpt lat="39.1894894" lon="8.5710733"><ele>302.0</ele><time>2026-03-28T15:24:10.88Z</time></trkpt><trkpt lat="39.1894781" lon="8.5711619"><ele>303.0</ele><time>2026-03-28T15:24:11.884Z</time></trkpt><trkpt lat="39.1894557" lon="8.5712681"><ele>304.0</ele><time>2026-03-28T15:24:12.881Z</time></trkpt><trkpt lat="39.1894333" lon="8.5713689"><ele>305.4</ele><time>2026-03-28T15:24:13.877Z</time></trkpt><trkpt lat="39.1894162" lon="8.5714682"><ele>306.79999999999995</ele><time>2026-03-28T15:24:14.89Z</time></trkpt><trkpt lat="39.1894006" lon="8.5715639"><ele>308.20000000000005</ele><time>2026-03-28T15:24:15.873Z</time></trkpt><trkpt lat="39.1894077" lon="8.5716899"><ele>309.6</ele><time>2026-03-28T15:24:16.883Z</time></trkpt><trkpt lat="39.1894175" lon="8.5718302"><ele>311.0</ele><time>2026-03-28T15:24:17.862Z</time></trkpt><trkpt lat="39.1894243" lon="8.5719689"><ele>311.2</ele><time>2026-03-28T15:24:18.877Z</time></trkpt><trkpt lat="39.1894114" lon="8.5721122"><ele>311.40000000000003</ele><time>2026-03-28T15:24:19.876Z</time></trkpt><trkpt lat="39.1893963" lon="8.5722405"><ele>311.6</ele><time>2026-03-28T15:24:20.877Z</time></trkpt><trkpt lat="39.1893955" lon="8.5723642"><ele>311.8</ele><time>2026-03-28T15:24:21.869Z</time></trkpt><trkpt lat="39.1894032" lon="8.5724711"><ele>312.0</ele><time>2026-03-28T15:24:22.888Z</time></trkpt><trkpt lat="39.1894145" lon="8.5725623"><ele>312.0</ele><time>2026-03-28T15:24:23.871Z</time></trkpt><trkpt lat="39.1894197" lon="8.5726465"><ele>312.0</ele><time>2026-03-28T15:24:24.87Z</time></trkpt><trkpt lat="39.1894215" lon="8.5727374"><ele>312.0</ele><time>2026-03-28T15:24:25.893Z</time></trkpt><trkpt lat="39.1894113" lon="8.5728283"><ele>312.0</ele><time>2026-03-28T15:24:26.873Z</time></trkpt><trkpt lat="39.1893941" lon="8.5729085"><ele>312.0</ele><time>2026-03-28T15:24:27.877Z</time></trkpt><trkpt lat="39.1893685" lon="8.5730323"><ele>312.0</ele><time>2026-03-28T15:24:29.879Z</time></trkpt><trkpt lat="39.1893608" lon="8.5731711"><ele>312.6666666666667</ele><time>2026-03-28T15:24:31.876Z</time></trkpt><trkpt lat="39.189343" lon="8.5733139"><ele>313.3333333333333</ele><time>2026-03-28T15:24:33.897Z</time></trkpt><trkpt lat="39.1893289" lon="8.5734055"><ele>314.0</ele><time>2026-03-28T15:24:34.889Z</time></trkpt><trkpt lat="39.1893041" lon="8.5734978"><ele>314.66666666666663</ele><time>2026-03-28T15:24:35.894Z</time></trkpt><trkpt lat="39.1892775" lon="8.5735924"><ele>315.3333333333333</ele><time>2026-03-28T15:24:36.881Z</time></trkpt><trkpt lat="39.1892517" lon="8.5736973"><ele>316.0</ele><time>2026-03-28T15:24:37.887Z</time></trkpt><trkpt lat="39.1892153" lon="8.5738209"><ele>316.6</ele><time>2026-03-28T15:24:38.881Z</time></trkpt><trkpt lat="39.1891923" lon="8.5739392"><ele>317.20000000000005</ele><time>2026-03-28T15:24:39.883Z</time></trkpt><trkpt lat="39.1891644" lon="8.5740606"><ele>317.79999999999995</ele><time>2026-03-28T15:24:40.896Z</time></trkpt><trkpt lat="39.1891344" lon="8.5741794"><ele>318.4</ele><time>2026-03-28T15:24:41.892Z</time></trkpt><trkpt lat="39.1890914" lon="8.5742844"><ele>319.0</ele><time>2026-03-28T15:24:42.896Z</time></trkpt><trkpt lat="39.1890391" lon="8.5743891"><ele>320.0</ele><time>2026-03-28T15:24:43.905Z</time></trkpt><trkpt lat="39.1889843" lon="8.5744732"><ele>321.0</ele><time>2026-03-28T15:24:44.894Z</time></trkpt><trkpt lat="39.1889429" lon="8.5745499"><ele>322.0</ele><time>2026-03-28T15:24:45.886Z</time></trkpt><trkpt lat="39.1889091" lon="8.574631"><ele>323.0</ele><time>2026-03-28T15:24:46.884Z</time></trkpt><trkpt lat="39.1888657" lon="8.5747175"><ele>324.0</ele><time>2026-03-28T15:24:47.91Z</time></trkpt><trkpt lat="39.1888206" lon="8.5748061"><ele>325.0</ele><time>2026-03-28T15:24:48.894Z</time></trkpt><trkpt lat="39.1887733" lon="8.5748969"><ele>325.0</ele><time>2026-03-28T15:24:49.892Z</time></trkpt><trkpt lat="39.1887267" lon="8.5749806"><ele>325.0</ele><time>2026-03-28T15:24:50.907Z</time></trkpt><trkpt lat="39.188676" lon="8.5750767"><ele>325.0</ele><time>2026-03-28T15:24:51.897Z</time></trkpt><trkpt lat="39.188621" lon="8.5751751"><ele>325.0</ele><time>2026-03-28T15:24:52.882Z</time></trkpt><trkpt lat="39.1885679" lon="8.5752628"><ele>325.0</ele><time>2026-03-28T15:24:53.872Z</time></trkpt><trkpt lat="39.1885151" lon="8.5753453"><ele>325.0</ele><time>2026-03-28T15:24:54.891Z</time></trkpt><trkpt lat="39.188468" lon="8.5754358"><ele>325.8333333333333</ele><time>2026-03-28T15:24:55.873Z</time></trkpt><trkpt lat="39.1884224" lon="8.5755238"><ele>326.66666666666663</ele><time>2026-03-28T15:24:56.895Z</time></trkpt><trkpt lat="39.188384" lon="8.5756152"><ele>327.5</ele><time>2026-03-28T15:24:57.896Z</time></trkpt><trkpt lat="39.1883535" lon="8.5757022"><ele>328.3333333333333</ele><time>2026-03-28T15:24:58.87Z</time></trkpt><trkpt lat="39.1883153" lon="8.5757825"><ele>329.1666666666667</ele><time>2026-03-28T15:24:59.876Z</time></trkpt><trkpt lat="39.1882561" lon="8.5758559"><ele>330.0</ele><time>2026-03-28T15:25:00.907Z</time></trkpt><trkpt lat="39.1881848" lon="8.5759314"><ele>330.5</ele><time>2026-03-28T15:25:01.907Z</time></trkpt><trkpt lat="39.1881152" lon="8.575999"><ele>331.0</ele><time>2026-03-28T15:25:02.897Z</time></trkpt><trkpt lat="39.1880541" lon="8.5760508"><ele>331.5</ele><time>2026-03-28T15:25:03.885Z</time></trkpt><trkpt lat="39.1879789" lon="8.5761166"><ele>332.0</ele><time>2026-03-28T15:25:05.882Z</time></trkpt><trkpt lat="39.1879249" lon="8.5761649"><ele>332.5</ele><time>2026-03-28T15:26:31.874Z</time></trkpt><trkpt lat="39.1878422" lon="8.5762447"><ele>333.0</ele><time>2026-03-28T15:26:33.888Z</time></trkpt><trkpt lat="39.1877691" lon="8.5763128"><ele>331.0</ele><time>2026-03-28T15:26:34.881Z</time></trkpt><trkpt lat="39.1876737" lon="8.5764001"><ele>329.0</ele><time>2026-03-28T15:26:35.876Z</time></trkpt><trkpt lat="39.1875605" lon="8.5764943"><ele>327.0</ele><time>2026-03-28T15:26:36.899Z</time></trkpt><trkpt lat="39.1874636" lon="8.5765771"><ele>325.0</ele><time>2026-03-28T15:26:37.887Z</time></trkpt><trkpt lat="39.1873757" lon="8.5766552"><ele>326.0</ele><time>2026-03-28T15:26:38.872Z</time></trkpt><trkpt lat="39.1872885" lon="8.5767452"><ele>327.0</ele><time>2026-03-28T15:26:39.887Z</time></trkpt><trkpt lat="39.1872053" lon="8.5768351"><ele>328.0</ele><time>2026-03-28T15:26:40.879Z</time></trkpt><trkpt lat="39.1871255" lon="8.576934"><ele>329.0</ele><time>2026-03-28T15:26:41.893Z</time></trkpt><trkpt lat="39.1870359" lon="8.5770205"><ele>330.0</ele><time>2026-03-28T15:26:42.864Z</time></trkpt><trkpt lat="39.1869447" lon="8.5771028"><ele>327.6</ele><time>2026-03-28T15:26:43.882Z</time></trkpt><trkpt lat="39.1868622" lon="8.5771686"><ele>325.2</ele><time>2026-03-28T15:26:44.883Z</time></trkpt><trkpt lat="39.1867709" lon="8.5772221"><ele>322.8</ele><time>2026-03-28T15:26:45.877Z</time></trkpt><trkpt lat="39.1866749" lon="8.5772744"><ele>320.4</ele><time>2026-03-28T15:26:46.902Z</time></trkpt><trkpt lat="39.1865778" lon="8.5773074"><ele>318.0</ele><time>2026-03-28T15:26:47.854Z</time></trkpt><trkpt lat="39.1864865" lon="8.5773308"><ele>317.6666666666667</ele><time>2026-03-28T15:26:48.877Z</time></trkpt><trkpt lat="39.1864106" lon="8.5773433"><ele>317.3333333333333</ele><time>2026-03-28T15:26:49.895Z</time></trkpt><trkpt lat="39.1863222" lon="8.577331"><ele>317.0</ele><time>2026-03-28T15:26:51.884Z</time></trkpt><trkpt lat="39.1862809" lon="8.577394"><ele>316.66666666666663</ele><time>2026-03-28T15:26:55.899Z</time></trkpt><trkpt lat="39.1863174" lon="8.5774614"><ele>316.3333333333333</ele><time>2026-03-28T15:26:57.912Z</time></trkpt><trkpt lat="39.1864031" lon="8.5775789"><ele>316.0</ele><time>2026-03-28T15:26:59.886Z</time></trkpt><trkpt lat="39.1864635" lon="8.577659"><ele>316.0</ele><time>2026-03-28T15:27:00.885Z</time></trkpt><trkpt lat="39.1865243" lon="8.5777395"><ele>316.0</ele><time>2026-03-28T15:27:01.897Z</time></trkpt><trkpt lat="39.1865817" lon="8.577814"><ele>316.0</ele><time>2026-03-28T15:27:02.885Z</time></trkpt><trkpt lat="39.1866383" lon="8.5778852"><ele>316.0</ele><time>2026-03-28T15:27:03.852Z</time></trkpt><trkpt lat="39.1866847" lon="8.5779644"><ele>316.0</ele><time>2026-03-28T15:27:04.879Z</time></trkpt><trkpt lat="39.1867059" lon="8.5781255"><ele>316.0</ele><time>2026-03-28T15:27:06.885Z</time></trkpt><trkpt lat="39.1866803" lon="8.5782292"><ele>316.0</ele><time>2026-03-28T15:27:07.884Z</time></trkpt><trkpt lat="39.1866309" lon="8.5783446"><ele>316.0</ele><time>2026-03-28T15:27:08.858Z</time></trkpt><trkpt lat="39.1865662" lon="8.5784527"><ele>316.0</ele><time>2026-03-28T15:27:09.872Z</time></trkpt><trkpt lat="39.1864814" lon="8.5785456"><ele>316.0</ele><time>2026-03-28T15:27:10.901Z</time></trkpt><trkpt lat="39.1864" lon="8.5786222"><ele>315.0</ele><time>2026-03-28T15:27:11.89Z</time></trkpt><trkpt lat="39.1863137" lon="8.5786925"><ele>314.0</ele><time>2026-03-28T15:27:12.89Z</time></trkpt><trkpt lat="39.1862352" lon="8.5787702"><ele>313.0</ele><time>2026-03-28T15:27:13.896Z</time></trkpt><trkpt lat="39.1861697" lon="8.5788525"><ele>312.0</ele><time>2026-03-28T15:27:14.881Z</time></trkpt><trkpt lat="39.1861206" lon="8.5789339"><ele>311.0</ele><time>2026-03-28T15:27:15.878Z</time></trkpt><trkpt lat="39.1860885" lon="8.5790283"><ele>311.0</ele><time>2026-03-28T15:27:16.896Z</time></trkpt><trkpt lat="39.1860719" lon="8.5791451"><ele>311.0</ele><time>2026-03-28T15:27:17.884Z</time></trkpt><trkpt lat="39.1860576" lon="8.5792874"><ele>311.0</ele><time>2026-03-28T15:27:18.894Z</time></trkpt><trkpt lat="39.1860401" lon="8.5794371"><ele>311.0</ele><time>2026-03-28T15:27:19.881Z</time></trkpt><trkpt lat="39.1860115" lon="8.5795981"><ele>311.0</ele><time>2026-03-28T15:27:20.879Z</time></trkpt><trkpt lat="39.1859799" lon="8.5797518"><ele>310.5</ele><time>2026-03-28T15:27:21.881Z</time></trkpt><trkpt lat="39.1859484" lon="8.5798789"><ele>310.0</ele><time>2026-03-28T15:27:22.889Z</time></trkpt><trkpt lat="39.1859263" lon="8.5799878"><ele>309.5</ele><time>2026-03-28T15:27:23.864Z</time></trkpt><trkpt lat="39.1859207" lon="8.5800788"><ele>309.0</ele><time>2026-03-28T15:27:24.88Z</time></trkpt><trkpt lat="39.1859331" lon="8.580166"><ele>308.5</ele><time>2026-03-28T15:27:25.888Z</time></trkpt><trkpt lat="39.1859513" lon="8.580244"><ele>308.0</ele><time>2026-03-28T15:27:26.897Z</time></trkpt><trkpt lat="39.1859983" lon="8.5803559"><ele>308.1666666666667</ele><time>2026-03-28T15:27:28.861Z</time></trkpt><trkpt lat="39.1861036" lon="8.5804011"><ele>308.33333333333337</ele><time>2026-03-28T15:27:30.88Z</time></trkpt><trkpt lat="39.1862273" lon="8.5804151"><ele>308.5</ele><time>2026-03-28T15:27:32.874Z</time></trkpt><trkpt lat="39.1862977" lon="8.5804244"><ele>308.6666666666667</ele><time>2026-03-28T15:27:33.889Z</time></trkpt><trkpt lat="39.1863655" lon="8.5804237"><ele>308.8333333333333</ele><time>2026-03-28T15:27:34.881Z</time></trkpt><trkpt lat="39.1864296" lon="8.5804193"><ele>309.0</ele><time>2026-03-28T15:27:35.885Z</time></trkpt><trkpt lat="39.1865516" lon="8.5804275"><ele>309.0</ele><time>2026-03-28T15:27:37.892Z</time></trkpt><trkpt lat="39.1866207" lon="8.5804355"><ele>309.0</ele><time>2026-03-28T15:27:38.893Z</time></trkpt><trkpt lat="39.1866961" lon="8.5804422"><ele>309.0</ele><time>2026-03-28T15:27:39.889Z</time></trkpt><trkpt lat="39.1867781" lon="8.5804129"><ele>309.0</ele><time>2026-03-28T15:27:40.897Z</time></trkpt><trkpt lat="39.186862" lon="8.5803568"><ele>309.0</ele><time>2026-03-28T15:27:41.875Z</time></trkpt><trkpt lat="39.1869655" lon="8.580303"><ele>309.0</ele><time>2026-03-28T15:27:42.883Z</time></trkpt><trkpt lat="39.1870833" lon="8.5802564"><ele>309.59999999999997</ele><time>2026-03-28T15:27:43.874Z</time></trkpt><trkpt lat="39.187206" lon="8.5802099"><ele>310.2</ele><time>2026-03-28T15:27:44.899Z</time></trkpt><trkpt lat="39.187321" lon="8.5801797"><ele>310.79999999999995</ele><time>2026-03-28T15:27:45.893Z</time></trkpt><trkpt lat="39.1874159" lon="8.5801554"><ele>311.4</ele><time>2026-03-28T15:27:46.889Z</time></trkpt><trkpt lat="39.1874997" lon="8.5801251"><ele>312.0</ele><time>2026-03-28T15:27:47.876Z</time></trkpt><trkpt lat="39.1875646" lon="8.5801006"><ele>312.4</ele><time>2026-03-28T15:27:48.888Z</time></trkpt><trkpt lat="39.1876536" lon="8.5800739"><ele>312.79999999999995</ele><time>2026-03-28T15:27:50.866Z</time></trkpt><trkpt lat="39.1877299" lon="8.5800913"><ele>313.2</ele><time>2026-03-28T15:27:52.891Z</time></trkpt><trkpt lat="39.1878223" lon="8.5800957"><ele>313.59999999999997</ele><time>2026-03-28T15:27:54.838Z</time></trkpt><trkpt lat="39.1879165" lon="8.5801017"><ele>314.0</ele><time>2026-03-28T15:27:56.878Z</time></trkpt><trkpt lat="39.1880278" lon="8.5801108"><ele>314.0</ele><time>2026-03-28T15:27:58.869Z</time></trkpt><trkpt lat="39.1881551" lon="8.5801144"><ele>314.0</ele><time>2026-03-28T15:28:00.877Z</time></trkpt><trkpt lat="39.1882212" lon="8.5801243"><ele>314.0</ele><time>2026-03-28T15:28:01.876Z</time></trkpt><trkpt lat="39.1882919" lon="8.5801379"><ele>314.0</ele><time>2026-03-28T15:28:02.895Z</time></trkpt><trkpt lat="39.1883641" lon="8.5801546"><ele>314.0</ele><time>2026-03-28T15:28:03.892Z</time></trkpt><trkpt lat="39.1884351" lon="8.5801672"><ele>314.0</ele><time>2026-03-28T15:28:04.898Z</time></trkpt><trkpt lat="39.1884978" lon="8.5801951"><ele>313.1666666666667</ele><time>2026-03-28T15:28:05.874Z</time></trkpt><trkpt lat="39.188562" lon="8.5802234"><ele>312.33333333333337</ele><time>2026-03-28T15:28:06.879Z</time></trkpt><trkpt lat="39.1886232" lon="8.580259"><ele>311.5</ele><time>2026-03-28T15:28:07.881Z</time></trkpt><trkpt lat="39.1886827" lon="8.5803097"><ele>310.6666666666667</ele><time>2026-03-28T15:28:08.885Z</time></trkpt><trkpt lat="39.1887741" lon="8.5803906"><ele>309.8333333333333</ele><time>2026-03-28T15:28:10.889Z</time></trkpt><trkpt lat="39.1888332" lon="8.5804648"><ele>309.0</ele><time>2026-03-28T15:28:12.89Z</time></trkpt><trkpt lat="39.1888758" lon="8.5805255"><ele>309.0</ele><time>2026-03-28T15:28:14.873Z</time></trkpt><trkpt lat="39.1888703" lon="8.5804213"><ele>309.0</ele><time>2026-03-28T15:28:21.87Z</time></trkpt><trkpt lat="39.1888361" lon="8.5803182"><ele>309.0</ele><time>2026-03-28T15:28:23.885Z</time></trkpt><trkpt lat="39.1887686" lon="8.5801909"><ele>309.0</ele><time>2026-03-28T15:28:25.884Z</time></trkpt><trkpt lat="39.1887043" lon="8.5800769"><ele>309.0</ele><time>2026-03-28T15:28:27.872Z</time></trkpt><trkpt lat="39.1886381" lon="8.5799838"><ele>308.4</ele><time>2026-03-28T15:28:29.865Z</time></trkpt><trkpt lat="39.1887127" lon="8.5799841"><ele>307.79999999999995</ele><time>2026-03-28T15:28:35.872Z</time></trkpt><trkpt lat="39.1887972" lon="8.5800664"><ele>307.20000000000005</ele><time>2026-03-28T15:28:37.891Z</time></trkpt><trkpt lat="39.1888844" lon="8.5801545"><ele>306.6</ele><time>2026-03-28T15:28:39.88Z</time></trkpt><trkpt lat="39.1889862" lon="8.5802389"><ele>306.0</ele><time>2026-03-28T15:28:41.871Z</time></trkpt><trkpt lat="39.1890657" lon="8.5803236"><ele>300.40000000000003</ele><time>2026-03-28T15:28:43.879Z</time></trkpt><trkpt lat="39.1891334" lon="8.5804187"><ele>294.8</ele><time>2026-03-28T15:28:45.877Z</time></trkpt><trkpt lat="39.1891977" lon="8.5805094"><ele>289.20000000000005</ele><time>2026-03-28T15:28:47.873Z</time></trkpt><trkpt lat="39.1892185" lon="8.5806259"><ele>283.6</ele><time>2026-03-28T15:28:49.875Z</time></trkpt><trkpt lat="39.189212" lon="8.5807299"><ele>278.0</ele><time>2026-03-28T15:28:51.874Z</time></trkpt><trkpt lat="39.1891735" lon="8.5808481"><ele>278.0</ele><time>2026-03-28T15:28:53.877Z</time></trkpt><trkpt lat="39.1891375" lon="8.5809698"><ele>278.0</ele><time>2026-03-28T15:28:55.88Z</time></trkpt><trkpt lat="39.189083" lon="8.5810954"><ele>278.0</ele><time>2026-03-28T15:28:57.877Z</time></trkpt><trkpt lat="39.1890375" lon="8.5812256"><ele>278.0</ele><time>2026-03-28T15:28:59.874Z</time></trkpt><trkpt lat="39.1890046" lon="8.5813597"><ele>278.0</ele><time>2026-03-28T15:29:01.86Z</time></trkpt><trkpt lat="39.1889601" lon="8.581509"><ele>281.0</ele><time>2026-03-28T15:29:03.866Z</time></trkpt><trkpt lat="39.1889099" lon="8.5816442"><ele>284.0</ele><time>2026-03-28T15:29:05.873Z</time></trkpt><trkpt lat="39.188867" lon="8.5817325"><ele>287.0</ele><time>2026-03-28T15:29:07.876Z</time></trkpt><trkpt lat="39.1887971" lon="8.5818096"><ele>290.0</ele><time>2026-03-28T15:29:09.873Z</time></trkpt><trkpt lat="39.188709" lon="8.5818901"><ele>293.0</ele><time>2026-03-28T15:29:11.836Z</time></trkpt><trkpt lat="39.1886264" lon="8.5819582"><ele>291.0</ele><time>2026-03-28T15:29:13.881Z</time></trkpt><trkpt lat="39.1885489" lon="8.5820304"><ele>289.0</ele><time>2026-03-28T15:29:15.856Z</time></trkpt><trkpt lat="39.1885323" lon="8.5821299"><ele>287.0</ele><time>2026-03-28T15:29:17.881Z</time></trkpt><trkpt lat="39.1885801" lon="8.582229"><ele>285.0</ele><time>2026-03-28T15:29:19.888Z</time></trkpt><trkpt lat="39.1886484" lon="8.5823004"><ele>283.0</ele><time>2026-03-28T15:29:21.883Z</time></trkpt><trkpt lat="39.1887156" lon="8.5823327"><ele>281.0</ele><time>2026-03-28T15:29:24.877Z</time></trkpt><trkpt lat="39.1887369" lon="8.5822441"><ele>281.0</ele><time>2026-03-28T15:29:27.889Z</time></trkpt><trkpt lat="39.188751" lon="8.5821399"><ele>281.0</ele><time>2026-03-28T15:29:30.878Z</time></trkpt><trkpt lat="39.1888578" lon="8.5821218"><ele>281.0</ele><time>2026-03-28T15:29:32.901Z</time></trkpt><trkpt lat="39.1889307" lon="8.5821045"><ele>281.0</ele><time>2026-03-28T15:29:33.868Z</time></trkpt><trkpt lat="39.1890025" lon="8.5820886"><ele>281.0</ele><time>2026-03-28T15:29:34.882Z</time></trkpt><trkpt lat="39.1890637" lon="8.5820609"><ele>281.0</ele><time>2026-03-28T15:29:35.858Z</time></trkpt><trkpt lat="39.1891249" lon="8.5820385"><ele>278.6666666666667</ele><time>2026-03-28T15:29:36.884Z</time></trkpt><trkpt lat="39.1892072" lon="8.5819893"><ele>276.33333333333337</ele><time>2026-03-28T15:29:38.895Z</time></trkpt><trkpt lat="39.1892836" lon="8.5819647"><ele>274.0</ele><time>2026-03-28T15:29:41.886Z</time></trkpt><trkpt lat="39.1892586" lon="8.5820605"><ele>271.6666666666667</ele><time>2026-03-28T15:29:48.89Z</time></trkpt><trkpt lat="39.1891687" lon="8.582137"><ele>269.3333333333333</ele><time>2026-03-28T15:29:50.89Z</time></trkpt><trkpt lat="39.1891233" lon="8.5821983"><ele>267.0</ele><time>2026-03-28T15:29:52.891Z</time></trkpt><trkpt lat="39.1891788" lon="8.5822457"><ele>264.5</ele><time>2026-03-28T15:29:56.869Z</time></trkpt><trkpt lat="39.1892674" lon="8.5822164"><ele>262.0</ele><time>2026-03-28T15:29:58.863Z</time></trkpt><trkpt lat="39.1893653" lon="8.5821646"><ele>259.5</ele><time>2026-03-28T15:30:00.879Z</time></trkpt><trkpt lat="39.1894405" lon="8.582111"><ele>257.0</ele><time>2026-03-28T15:30:04.894Z</time></trkpt><trkpt lat="39.1895063" lon="8.5820954"><ele>254.5</ele><time>2026-03-28T15:30:10.893Z</time></trkpt><trkpt lat="39.1894842" lon="8.5822166"><ele>252.0</ele><time>2026-03-28T15:30:16.893Z</time></trkpt><trkpt lat="39.1894499" lon="8.582327"><ele>252.0</ele><time>2026-03-28T15:30:18.864Z</time></trkpt><trkpt lat="39.1894485" lon="8.582445"><ele>252.0</ele><time>2026-03-28T15:30:20.884Z</time></trkpt><trkpt lat="39.1894677" lon="8.5825367"><ele>252.0</ele><time>2026-03-28T15:30:22.882Z</time></trkpt><trkpt lat="39.1894776" lon="8.5826526"><ele>252.0</ele><time>2026-03-28T15:30:25.88Z</time></trkpt><trkpt lat="39.1894851" lon="8.582768"><ele>252.0</ele><time>2026-03-28T15:30:27.89Z</time></trkpt><trkpt lat="39.1895097" lon="8.582902"><ele>250.83333333333334</ele><time>2026-03-28T15:30:29.887Z</time></trkpt><trkpt lat="39.1895347" lon="8.5829905"><ele>249.66666666666669</ele><time>2026-03-28T15:30:30.893Z</time></trkpt><trkpt lat="39.1895517" lon="8.5830694"><ele>248.5</ele><time>2026-03-28T15:30:31.889Z</time></trkpt><trkpt lat="39.1895694" lon="8.5831792"><ele>247.33333333333334</ele><time>2026-03-28T15:30:33.893Z</time></trkpt><trkpt lat="39.1895386" lon="8.583348"><ele>246.16666666666669</ele><time>2026-03-28T15:30:35.879Z</time></trkpt><trkpt lat="39.189525" lon="8.5834567"><ele>245.0</ele><time>2026-03-28T15:30:36.886Z</time></trkpt><trkpt lat="39.1895151" lon="8.5835575"><ele>245.0</ele><time>2026-03-28T15:30:37.891Z</time></trkpt><trkpt lat="39.1895169" lon="8.5836644"><ele>245.0</ele><time>2026-03-28T15:30:38.888Z</time></trkpt><trkpt lat="39.1895161" lon="8.5837523"><ele>245.0</ele><time>2026-03-28T15:30:39.876Z</time></trkpt><trkpt lat="39.1895026" lon="8.5838369"><ele>245.0</ele><time>2026-03-28T15:30:40.88Z</time></trkpt><trkpt lat="39.189487" lon="8.5839274"><ele>245.0</ele><time>2026-03-28T15:30:41.883Z</time></trkpt><trkpt lat="39.1894799" lon="8.5840196"><ele>245.0</ele><time>2026-03-28T15:30:42.885Z</time></trkpt><trkpt lat="39.1894658" lon="8.5841085"><ele>245.0</ele><time>2026-03-28T15:30:43.889Z</time></trkpt><trkpt lat="39.1894569" lon="8.5841981"><ele>243.33333333333334</ele><time>2026-03-28T15:30:44.88Z</time></trkpt><trkpt lat="39.1894528" lon="8.5842808"><ele>241.66666666666669</ele><time>2026-03-28T15:30:45.889Z</time></trkpt><trkpt lat="39.189468" lon="8.5843927"><ele>240.0</ele><time>2026-03-28T15:30:47.874Z</time></trkpt><trkpt lat="39.1895183" lon="8.5844652"><ele>238.33333333333331</ele><time>2026-03-28T15:30:51.868Z</time></trkpt><trkpt lat="39.1894965" lon="8.5845838"><ele>236.66666666666666</ele><time>2026-03-28T15:33:12.864Z</time></trkpt><trkpt lat="39.1894672" lon="8.5846806"><ele>235.0</ele><time>2026-03-28T15:33:14.874Z</time></trkpt><trkpt lat="39.1894109" lon="8.5847799"><ele>231.4</ele><time>2026-03-28T15:33:16.869Z</time></trkpt><trkpt lat="39.1893904" lon="8.5848953"><ele>227.8</ele><time>2026-03-28T15:33:19.876Z</time></trkpt><trkpt lat="39.1893146" lon="8.5850004"><ele>224.2</ele><time>2026-03-28T15:33:21.877Z</time></trkpt><trkpt lat="39.1892279" lon="8.5850922"><ele>220.6</ele><time>2026-03-28T15:33:23.876Z</time></trkpt><trkpt lat="39.1891736" lon="8.585207"><ele>217.0</ele><time>2026-03-28T15:33:25.869Z</time></trkpt><trkpt lat="39.1891318" lon="8.5852678"><ele>217.0</ele><time>2026-03-28T15:33:26.857Z</time></trkpt><trkpt lat="39.1890733" lon="8.5853299"><ele>217.0</ele><time>2026-03-28T15:33:27.869Z</time></trkpt><trkpt lat="39.1890142" lon="8.5853688"><ele>217.0</ele><time>2026-03-28T15:33:28.887Z</time></trkpt><trkpt lat="39.1889294" lon="8.585444"><ele>217.0</ele><time>2026-03-28T15:33:30.9Z</time></trkpt><trkpt lat="39.1888849" lon="8.5855863"><ele>217.0</ele><time>2026-03-28T15:33:32.882Z</time></trkpt><trkpt lat="39.1888417" lon="8.5857158"><ele>215.5</ele><time>2026-03-28T15:33:34.864Z</time></trkpt><trkpt lat="39.1887775" lon="8.5858682"><ele>214.0</ele><time>2026-03-28T15:33:36.872Z</time></trkpt><trkpt lat="39.1887099" lon="8.5859922"><ele>212.5</ele><time>2026-03-28T15:33:38.881Z</time></trkpt><trkpt lat="39.1886626" lon="8.5861121"><ele>211.0</ele><time>2026-03-28T15:33:40.883Z</time></trkpt><trkpt lat="39.1885973" lon="8.5862115"><ele>210.33333333333331</ele><time>2026-03-28T15:33:42.883Z</time></trkpt><trkpt lat="39.1885526" lon="8.5862689"><ele>209.66666666666666</ele><time>2026-03-28T15:33:43.874Z</time></trkpt><trkpt lat="39.1884944" lon="8.5863224"><ele>209.0</ele><time>2026-03-28T15:33:44.874Z</time></trkpt><trkpt lat="39.1884371" lon="8.5863807"><ele>208.33333333333331</ele><time>2026-03-28T15:33:45.87Z</time></trkpt><trkpt lat="39.1883374" lon="8.5864648"><ele>207.66666666666666</ele><time>2026-03-28T15:33:47.871Z</time></trkpt><trkpt lat="39.1882788" lon="8.5864991"><ele>207.0</ele><time>2026-03-28T15:33:48.883Z</time></trkpt><trkpt lat="39.188214" lon="8.5865239"><ele>207.0</ele><time>2026-03-28T15:33:49.884Z</time></trkpt><trkpt lat="39.1881245" lon="8.586563"><ele>207.0</ele><time>2026-03-28T15:33:51.874Z</time></trkpt><trkpt lat="39.1880183" lon="8.5865941"><ele>207.0</ele><time>2026-03-28T15:33:53.846Z</time></trkpt><trkpt lat="39.1879492" lon="8.5866304"><ele>207.0</ele><time>2026-03-28T15:33:55.871Z</time></trkpt><trkpt lat="39.187866" lon="8.5866291"><ele>207.0</ele><time>2026-03-28T15:33:58.821Z</time></trkpt><trkpt lat="39.1877805" lon="8.5866548"><ele>207.0</ele><time>2026-03-28T15:34:01.855Z</time></trkpt><trkpt lat="39.1877224" lon="8.5866951"><ele>207.00000000000003</ele><time>2026-03-28T15:34:03.859Z</time></trkpt><trkpt lat="39.187656" lon="8.5867227"><ele>207.0</ele><time>2026-03-28T15:34:05.883Z</time></trkpt><trkpt lat="39.1875903" lon="8.5867132"><ele>207.0</ele><time>2026-03-28T15:34:07.908Z</time></trkpt><trkpt lat="39.1875279" lon="8.5866585"><ele>207.0</ele><time>2026-03-28T15:34:10.876Z</time></trkpt><trkpt lat="39.1874653" lon="8.5866103"><ele>207.0</ele><time>2026-03-28T15:34:13.894Z</time></trkpt><trkpt lat="39.1873996" lon="8.5865606"><ele>207.00000000000003</ele><time>2026-03-28T15:34:16.877Z</time></trkpt><trkpt lat="39.1873241" lon="8.586511"><ele>207.0</ele><time>2026-03-28T15:34:20.881Z</time></trkpt><trkpt lat="39.1872405" lon="8.5864751"><ele>206.5</ele><time>2026-03-28T15:34:22.895Z</time></trkpt><trkpt lat="39.1871799" lon="8.5864409"><ele>206.0</ele><time>2026-03-28T15:34:25.879Z</time></trkpt><trkpt lat="39.1870993" lon="8.5864121"><ele>205.5</ele><time>2026-03-28T15:34:30.879Z</time></trkpt><trkpt lat="39.1870262" lon="8.586386"><ele>205.0</ele><time>2026-03-28T15:34:32.89Z</time></trkpt><trkpt lat="39.186937" lon="8.5863759"><ele>204.5</ele><time>2026-03-28T15:34:35.858Z</time></trkpt><trkpt lat="39.1868507" lon="8.5863608"><ele>204.0</ele><time>2026-03-28T15:34:39.884Z</time></trkpt><trkpt lat="39.1867785" lon="8.5863575"><ele>204.0</ele><time>2026-03-28T15:34:41.887Z</time></trkpt><trkpt lat="39.1867029" lon="8.5862893"><ele>204.0</ele><time>2026-03-28T15:34:43.876Z</time></trkpt><trkpt lat="39.1866366" lon="8.5862354"><ele>204.0</ele><time>2026-03-28T15:34:45.857Z</time></trkpt><trkpt lat="39.1865485" lon="8.5862246"><ele>204.0</ele><time>2026-03-28T15:34:48.885Z</time></trkpt><trkpt lat="39.18648" lon="8.5862753"><ele>204.0</ele><time>2026-03-28T15:34:50.867Z</time></trkpt><trkpt lat="39.1864213" lon="8.5863097"><ele>204.0</ele><time>2026-03-28T15:34:51.869Z</time></trkpt><trkpt lat="39.18632" lon="8.5863851"><ele>204.42857142857144</ele><time>2026-03-28T15:34:53.878Z</time></trkpt><trkpt lat="39.1862683" lon="8.5864586"><ele>204.85714285714286</ele><time>2026-03-28T15:34:54.872Z</time></trkpt><trkpt lat="39.1862123" lon="8.5865398"><ele>205.28571428571428</ele><time>2026-03-28T15:34:55.876Z</time></trkpt><trkpt lat="39.186158" lon="8.5866063"><ele>205.71428571428572</ele><time>2026-03-28T15:34:56.866Z</time></trkpt><trkpt lat="39.1861131" lon="8.5866722"><ele>206.14285714285714</ele><time>2026-03-28T15:34:57.86Z</time></trkpt><trkpt lat="39.1860697" lon="8.5867459"><ele>206.57142857142858</ele><time>2026-03-28T15:34:58.849Z</time></trkpt><trkpt lat="39.1860313" lon="8.5868143"><ele>207.0</ele><time>2026-03-28T15:34:59.861Z</time></trkpt><trkpt lat="39.1859537" lon="8.5869069"><ele>207.0</ele><time>2026-03-28T15:35:01.843Z</time></trkpt><trkpt lat="39.1858598" lon="8.587001"><ele>207.0</ele><time>2026-03-28T15:35:03.87Z</time></trkpt><trkpt lat="39.1858116" lon="8.5870611"><ele>207.0</ele><time>2026-03-28T15:35:04.871Z</time></trkpt><trkpt lat="39.185771" lon="8.5871312"><ele>207.0</ele><time>2026-03-28T15:35:05.879Z</time></trkpt><trkpt lat="39.1856853" lon="8.5872379"><ele>207.0</ele><time>2026-03-28T15:35:07.873Z</time></trkpt><trkpt lat="39.1856094" lon="8.5873476"><ele>208.6</ele><time>2026-03-28T15:35:09.889Z</time></trkpt><trkpt lat="39.185552" lon="8.5874678"><ele>210.2</ele><time>2026-03-28T15:35:11.87Z</time></trkpt><trkpt lat="39.1855114" lon="8.587556"><ele>211.8</ele><time>2026-03-28T15:35:13.876Z</time></trkpt><trkpt lat="39.1854794" lon="8.5876299"><ele>213.4</ele><time>2026-03-28T15:35:15.872Z</time></trkpt><trkpt lat="39.1854259" lon="8.5877011"><ele>215.0</ele><time>2026-03-28T15:35:17.876Z</time></trkpt><trkpt lat="39.1853761" lon="8.587842"><ele>211.4</ele><time>2026-03-28T15:35:19.882Z</time></trkpt><trkpt lat="39.1853134" lon="8.5879539"><ele>207.8</ele><time>2026-03-28T15:35:21.881Z</time></trkpt><trkpt lat="39.1852083" lon="8.5880338"><ele>204.2</ele><time>2026-03-28T15:35:23.874Z</time></trkpt><trkpt lat="39.1850838" lon="8.5880863"><ele>200.6</ele><time>2026-03-28T15:35:25.88Z</time></trkpt><trkpt lat="39.1850062" lon="8.5880988"><ele>197.0</ele><time>2026-03-28T15:35:26.879Z</time></trkpt><trkpt lat="39.1849294" lon="8.5881132"><ele>197.00000000000003</ele><time>2026-03-28T15:35:27.859Z</time></trkpt><trkpt lat="39.1848614" lon="8.588133"><ele>197.0</ele><time>2026-03-28T15:35:28.862Z</time></trkpt><trkpt lat="39.1847899" lon="8.5881609"><ele>197.0</ele><time>2026-03-28T15:35:30.871Z</time></trkpt><trkpt lat="39.184722" lon="8.5882266"><ele>197.0</ele><time>2026-03-28T15:35:32.871Z</time></trkpt><trkpt lat="39.1846493" lon="8.5882796"><ele>197.00000000000003</ele><time>2026-03-28T15:35:34.868Z</time></trkpt><trkpt lat="39.184584" lon="8.588351"><ele>197.0</ele><time>2026-03-28T15:35:36.886Z</time></trkpt><trkpt lat="39.1844974" lon="8.5884164"><ele>197.50000000000003</ele><time>2026-03-28T15:35:38.875Z</time></trkpt><trkpt lat="39.1844478" lon="8.5884722"><ele>198.0</ele><time>2026-03-28T15:35:39.852Z</time></trkpt><trkpt lat="39.1843967" lon="8.588523"><ele>198.5</ele><time>2026-03-28T15:35:40.87Z</time></trkpt><trkpt lat="39.1843465" lon="8.5885771"><ele>199.0</ele><time>2026-03-28T15:35:41.873Z</time></trkpt><trkpt lat="39.1842547" lon="8.5886778"><ele>199.50000000000003</ele><time>2026-03-28T15:35:43.878Z</time></trkpt><trkpt lat="39.1842057" lon="8.5887346"><ele>200.0</ele><time>2026-03-28T15:35:44.873Z</time></trkpt><trkpt lat="39.1840999" lon="8.5888214"><ele>200.00000000000003</ele><time>2026-03-28T15:35:46.854Z</time></trkpt><trkpt lat="39.1840473" lon="8.5888731"><ele>200.0</ele><time>2026-03-28T15:35:47.865Z</time></trkpt><trkpt lat="39.1839622" lon="8.5889728"><ele>200.0</ele><time>2026-03-28T15:35:49.877Z</time></trkpt><trkpt lat="39.1838971" lon="8.589012"><ele>200.0</ele><time>2026-03-28T15:35:50.898Z</time></trkpt><trkpt lat="39.1838274" lon="8.5890472"><ele>200.00000000000003</ele><time>2026-03-28T15:35:51.863Z</time></trkpt><trkpt lat="39.1837529" lon="8.5890882"><ele>200.0</ele><time>2026-03-28T15:35:52.9Z</time></trkpt><trkpt lat="39.1836775" lon="8.5891326"><ele>200.2857142857143</ele><time>2026-03-28T15:35:53.87Z</time></trkpt><trkpt lat="39.1836144" lon="8.5891738"><ele>200.57142857142858</ele><time>2026-03-28T15:35:54.878Z</time></trkpt><trkpt lat="39.1835614" lon="8.5892187"><ele>200.85714285714286</ele><time>2026-03-28T15:35:55.865Z</time></trkpt><trkpt lat="39.1835044" lon="8.5892659"><ele>201.14285714285717</ele><time>2026-03-28T15:35:56.882Z</time></trkpt><trkpt lat="39.1834485" lon="8.5893166"><ele>201.42857142857142</ele><time>2026-03-28T15:35:57.889Z</time></trkpt><trkpt lat="39.1833919" lon="8.5893717"><ele>201.71428571428572</ele><time>2026-03-28T15:35:58.845Z</time></trkpt><trkpt lat="39.183334" lon="8.5894181"><ele>202.0</ele><time>2026-03-28T15:35:59.871Z</time></trkpt><trkpt lat="39.18328" lon="8.5894647"><ele>201.99999999999997</ele><time>2026-03-28T15:36:00.919Z</time></trkpt><trkpt lat="39.1832261" lon="8.5895134"><ele>202.0</ele><time>2026-03-28T15:36:01.881Z</time></trkpt><trkpt lat="39.18317" lon="8.5895538"><ele>202.0</ele><time>2026-03-28T15:36:02.888Z</time></trkpt><trkpt lat="39.1830622" lon="8.5896062"><ele>202.0</ele><time>2026-03-28T15:36:04.89Z</time></trkpt><trkpt lat="39.1829429" lon="8.5896823"><ele>201.99999999999997</ele><time>2026-03-28T15:36:06.894Z</time></trkpt><trkpt lat="39.1828819" lon="8.5897129"><ele>202.0</ele><time>2026-03-28T15:36:07.884Z</time></trkpt><trkpt lat="39.182794" lon="8.5897533"><ele>199.83333333333331</ele><time>2026-03-28T15:36:09.861Z</time></trkpt><trkpt lat="39.1827364" lon="8.5898365"><ele>197.66666666666666</ele><time>2026-03-28T15:36:11.862Z</time></trkpt><trkpt lat="39.1826726" lon="8.589919"><ele>195.5</ele><time>2026-03-28T15:36:13.887Z</time></trkpt><trkpt lat="39.1826176" lon="8.590028"><ele>193.33333333333331</ele><time>2026-03-28T15:36:15.867Z</time></trkpt><trkpt lat="39.1826043" lon="8.5901198"><ele>191.16666666666666</ele><time>2026-03-28T15:36:17.868Z</time></trkpt><trkpt lat="39.1826394" lon="8.5902266"><ele>189.0</ele><time>2026-03-28T15:36:20.891Z</time></trkpt><trkpt lat="39.1826503" lon="8.5903275"><ele>188.16666666666666</ele><time>2026-03-28T15:36:22.877Z</time></trkpt><trkpt lat="39.1826494" lon="8.590497"><ele>187.33333333333334</ele><time>2026-03-28T15:36:24.875Z</time></trkpt><trkpt lat="39.1826372" lon="8.5905999"><ele>186.5</ele><time>2026-03-28T15:36:25.861Z</time></trkpt><trkpt lat="39.1826191" lon="8.5906937"><ele>185.66666666666669</ele><time>2026-03-28T15:36:26.89Z</time></trkpt><trkpt lat="39.1825943" lon="8.5907689"><ele>184.83333333333334</ele><time>2026-03-28T15:36:27.888Z</time></trkpt><trkpt lat="39.1825225" lon="8.5908525"><ele>184.0</ele><time>2026-03-28T15:36:29.872Z</time></trkpt><trkpt lat="39.1824373" lon="8.5908525"><ele>184.0</ele><time>2026-03-28T15:36:31.873Z</time></trkpt><trkpt lat="39.1823676" lon="8.5908338"><ele>184.0</ele><time>2026-03-28T15:36:34.878Z</time></trkpt><trkpt lat="39.1822672" lon="8.5908984"><ele>184.0</ele><time>2026-03-28T15:36:37.882Z</time></trkpt><trkpt lat="39.1821781" lon="8.5909877"><ele>184.0</ele><time>2026-03-28T15:36:39.901Z</time></trkpt><trkpt lat="39.1820654" lon="8.5910183"><ele>184.0</ele><time>2026-03-28T15:36:41.879Z</time></trkpt><trkpt lat="39.1819565" lon="8.5910749"><ele>184.33333333333334</ele><time>2026-03-28T15:36:43.866Z</time></trkpt><trkpt lat="39.18189" lon="8.5910909"><ele>184.66666666666669</ele><time>2026-03-28T15:36:44.889Z</time></trkpt><trkpt lat="39.1818285" lon="8.5911258"><ele>185.0</ele><time>2026-03-28T15:36:45.879Z</time></trkpt><trkpt lat="39.1817571" lon="8.5911602"><ele>185.33333333333334</ele><time>2026-03-28T15:36:46.869Z</time></trkpt><trkpt lat="39.1816788" lon="8.5911948"><ele>185.66666666666666</ele><time>2026-03-28T15:36:47.87Z</time></trkpt><trkpt lat="39.181615" lon="8.5912217"><ele>186.0</ele><time>2026-03-28T15:36:48.86Z</time></trkpt><trkpt lat="39.1815355" lon="8.5913036"><ele>186.0</ele><time>2026-03-28T15:36:50.863Z</time></trkpt><trkpt lat="39.1814726" lon="8.5914113"><ele>186.0</ele><time>2026-03-28T15:36:52.876Z</time></trkpt><trkpt lat="39.1814197" lon="8.5915052"><ele>186.0</ele><time>2026-03-28T15:36:54.871Z</time></trkpt><trkpt lat="39.1813322" lon="8.5915594"><ele>186.0</ele><time>2026-03-28T15:36:56.867Z</time></trkpt><trkpt lat="39.1812956" lon="8.591692"><ele>186.0</ele><time>2026-03-28T15:36:58.841Z</time></trkpt><trkpt lat="39.1812473" lon="8.5917665"><ele>186.0</ele><time>2026-03-28T15:36:59.866Z</time></trkpt><trkpt lat="39.1811972" lon="8.5918373"><ele>186.0</ele><time>2026-03-28T15:37:00.884Z</time></trkpt><trkpt lat="39.1811395" lon="8.591934"><ele>186.0</ele><time>2026-03-28T15:37:02.864Z</time></trkpt><trkpt lat="39.1811073" lon="8.5920625"><ele>186.0</ele><time>2026-03-28T15:37:04.888Z</time></trkpt><trkpt lat="39.1810918" lon="8.5921644"><ele>186.0</ele><time>2026-03-28T15:37:06.874Z</time></trkpt><trkpt lat="39.1810993" lon="8.5922607"><ele>186.0</ele><time>2026-03-28T15:37:10.865Z</time></trkpt><trkpt lat="39.1811311" lon="8.5923816"><ele>184.60000000000002</ele><time>2026-03-28T15:37:13.876Z</time></trkpt><trkpt lat="39.1810818" lon="8.592508"><ele>183.2</ele><time>2026-03-28T15:37:15.869Z</time></trkpt><trkpt lat="39.1809975" lon="8.5925517"><ele>181.8</ele><time>2026-03-28T15:37:17.874Z</time></trkpt><trkpt lat="39.1809256" lon="8.5925589"><ele>180.39999999999998</ele><time>2026-03-28T15:37:19.867Z</time></trkpt><trkpt lat="39.1808219" lon="8.5925549"><ele>179.0</ele><time>2026-03-28T15:37:21.864Z</time></trkpt><trkpt lat="39.1807149" lon="8.5925525"><ele>178.83333333333331</ele><time>2026-03-28T15:37:23.885Z</time></trkpt><trkpt lat="39.1806534" lon="8.5925264"><ele>178.66666666666666</ele><time>2026-03-28T15:37:24.878Z</time></trkpt><trkpt lat="39.1805528" lon="8.592454"><ele>178.5</ele><time>2026-03-28T15:37:26.891Z</time></trkpt><trkpt lat="39.1804785" lon="8.5924016"><ele>178.33333333333334</ele><time>2026-03-28T15:37:27.882Z</time></trkpt><trkpt lat="39.180407" lon="8.5923535"><ele>178.16666666666669</ele><time>2026-03-28T15:37:28.827Z</time></trkpt><trkpt lat="39.1803458" lon="8.5923205"><ele>178.0</ele><time>2026-03-28T15:37:29.888Z</time></trkpt><trkpt lat="39.1802843" lon="8.5922914"><ele>178.0</ele><time>2026-03-28T15:37:30.874Z</time></trkpt><trkpt lat="39.1802191" lon="8.5922516"><ele>178.0</ele><time>2026-03-28T15:37:31.875Z</time></trkpt><trkpt lat="39.1801461" lon="8.5922059"><ele>178.0</ele><time>2026-03-28T15:37:32.882Z</time></trkpt><trkpt lat="39.1800813" lon="8.5921717"><ele>178.0</ele><time>2026-03-28T15:37:33.837Z</time></trkpt><trkpt lat="39.1800213" lon="8.5921083"><ele>178.0</ele><time>2026-03-28T15:37:35.869Z</time></trkpt><trkpt lat="39.1799918" lon="8.5920101"><ele>178.0</ele><time>2026-03-28T15:37:37.876Z</time></trkpt><trkpt lat="39.1799416" lon="8.5919475"><ele>177.83333333333334</ele><time>2026-03-28T15:37:40.876Z</time></trkpt><trkpt lat="39.1798744" lon="8.5919098"><ele>177.66666666666669</ele><time>2026-03-28T15:37:43.862Z</time></trkpt><trkpt lat="39.1798276" lon="8.5918406"><ele>177.5</ele><time>2026-03-28T15:37:49.869Z</time></trkpt><trkpt lat="39.1797505" lon="8.5918185"><ele>177.33333333333334</ele><time>2026-03-28T15:37:54.878Z</time></trkpt><trkpt lat="39.1796874" lon="8.5917765"><ele>177.16666666666666</ele><time>2026-03-28T15:37:56.873Z</time></trkpt><trkpt lat="39.1795966" lon="8.5917131"><ele>177.0</ele><time>2026-03-28T15:37:58.841Z</time></trkpt><trkpt lat="39.179491" lon="8.5916754"><ele>177.0</ele><time>2026-03-28T15:38:00.856Z</time></trkpt><trkpt lat="39.1793942" lon="8.5916528"><ele>177.0</ele><time>2026-03-28T15:38:02.885Z</time></trkpt><trkpt lat="39.1792958" lon="8.5916302"><ele>177.0</ele><time>2026-03-28T15:38:04.879Z</time></trkpt><trkpt lat="39.1791783" lon="8.5916398"><ele>177.0</ele><time>2026-03-28T15:38:06.875Z</time></trkpt><trkpt lat="39.1790643" lon="8.5916245"><ele>177.0</ele><time>2026-03-28T15:38:08.878Z</time></trkpt><trkpt lat="39.1789819" lon="8.5916715"><ele>177.16666666666666</ele><time>2026-03-28T15:38:10.883Z</time></trkpt><trkpt lat="39.1789069" lon="8.5917336"><ele>177.33333333333334</ele><time>2026-03-28T15:38:12.879Z</time></trkpt><trkpt lat="39.1788379" lon="8.5917841"><ele>177.5</ele><time>2026-03-28T15:38:15.859Z</time></trkpt><trkpt lat="39.1788164" lon="8.5918667"><ele>177.66666666666669</ele><time>2026-03-28T15:38:17.867Z</time></trkpt><trkpt lat="39.1787893" lon="8.5919677"><ele>177.83333333333334</ele><time>2026-03-28T15:38:19.853Z</time></trkpt><trkpt lat="39.1787686" lon="8.5920629"><ele>178.0</ele><time>2026-03-28T15:38:20.878Z</time></trkpt><trkpt lat="39.1787556" lon="8.5921461"><ele>177.0</ele><time>2026-03-28T15:38:21.885Z</time></trkpt><trkpt lat="39.1787684" lon="8.5923108"><ele>176.0</ele><time>2026-03-28T15:38:23.878Z</time></trkpt><trkpt lat="39.1787799" lon="8.5923998"><ele>175.0</ele><time>2026-03-28T15:38:24.886Z</time></trkpt><trkpt lat="39.1788016" lon="8.5925034"><ele>174.0</ele><time>2026-03-28T15:38:25.86Z</time></trkpt><trkpt lat="39.1788325" lon="8.5926275"><ele>173.0</ele><time>2026-03-28T15:38:27.871Z</time></trkpt><trkpt lat="39.1788511" lon="8.5927211"><ele>173.0</ele><time>2026-03-28T15:38:29.878Z</time></trkpt><trkpt lat="39.1788281" lon="8.5928043"><ele>173.0</ele><time>2026-03-28T15:38:31.872Z</time></trkpt><trkpt lat="39.1788522" lon="8.5928882"><ele>173.0</ele><time>2026-03-28T15:38:35.868Z</time></trkpt><trkpt lat="39.1788099" lon="8.5928099"><ele>173.0</ele><time>2026-03-28T15:39:40.864Z</time></trkpt><trkpt lat="39.1787603" lon="8.592725"><ele>173.0</ele><time>2026-03-28T15:39:44.883Z</time></trkpt><trkpt lat="39.178689" lon="8.5926903"><ele>173.0</ele><time>2026-03-28T15:39:46.867Z</time></trkpt><trkpt lat="39.1786322" lon="8.5926169"><ele>173.0</ele><time>2026-03-28T15:39:48.882Z</time></trkpt><trkpt lat="39.1785658" lon="8.592563"><ele>173.0</ele><time>2026-03-28T15:39:50.871Z</time></trkpt><trkpt lat="39.1784804" lon="8.5925099"><ele>173.0</ele><time>2026-03-28T15:39:52.867Z</time></trkpt><trkpt lat="39.1784094" lon="8.5924634"><ele>173.0</ele><time>2026-03-28T15:39:54.895Z</time></trkpt><trkpt lat="39.1783424" lon="8.5924373"><ele>173.0</ele><time>2026-03-28T15:40:09.875Z</time></trkpt><trkpt lat="39.178294" lon="8.5923633"><ele>173.0</ele><time>2026-03-28T15:40:13.877Z</time></trkpt><trkpt lat="39.1782708" lon="8.5922802"><ele>173.0</ele><time>2026-03-28T15:40:16.865Z</time></trkpt><trkpt lat="39.1782256" lon="8.5921842"><ele>173.0</ele><time>2026-03-28T15:40:19.865Z</time></trkpt><trkpt lat="39.178193" lon="8.5921124"><ele>173.0</ele><time>2026-03-28T15:40:21.882Z</time></trkpt><trkpt lat="39.1781817" lon="8.5920254"><ele>173.0</ele><time>2026-03-28T15:40:28.866Z</time></trkpt><trkpt lat="39.178178" lon="8.5919328"><ele>173.0</ele><time>2026-03-28T15:40:30.883Z</time></trkpt><trkpt lat="39.1781401" lon="8.591858"><ele>173.0</ele><time>2026-03-28T15:40:32.874Z</time></trkpt><trkpt lat="39.1780733" lon="8.5917902"><ele>173.0</ele><time>2026-03-28T15:40:34.873Z</time></trkpt><trkpt lat="39.1780175" lon="8.5917483"><ele>175.16666666666666</ele><time>2026-03-28T15:40:36.858Z</time></trkpt><trkpt lat="39.1779554" lon="8.5916718"><ele>177.33333333333331</ele><time>2026-03-28T15:40:38.813Z</time></trkpt><trkpt lat="39.1778966" lon="8.591584"><ele>179.5</ele><time>2026-03-28T15:40:39.873Z</time></trkpt><trkpt lat="39.1778397" lon="8.5914756"><ele>181.66666666666666</ele><time>2026-03-28T15:40:41.867Z</time></trkpt><trkpt lat="39.1777879" lon="8.5913815"><ele>183.83333333333334</ele><time>2026-03-28T15:40:43.873Z</time></trkpt><trkpt lat="39.1777244" lon="8.5913191"><ele>186.0</ele><time>2026-03-28T15:40:45.864Z</time></trkpt><trkpt lat="39.1776402" lon="8.5912946"><ele>186.0</ele><time>2026-03-28T15:40:48.869Z</time></trkpt><trkpt lat="39.1775483" lon="8.5913192"><ele>186.0</ele><time>2026-03-28T15:40:50.865Z</time></trkpt><trkpt lat="39.1774686" lon="8.5913377"><ele>186.0</ele><time>2026-03-28T15:40:52.824Z</time></trkpt><trkpt lat="39.1773892" lon="8.59137"><ele>186.0</ele><time>2026-03-28T15:40:54.866Z</time></trkpt><trkpt lat="39.1773302" lon="8.5914132"><ele>186.0</ele><time>2026-03-28T15:40:55.878Z</time></trkpt><trkpt lat="39.1772351" lon="8.5914202"><ele>186.0</ele><time>2026-03-28T15:40:57.874Z</time></trkpt><trkpt lat="39.1771672" lon="8.5913711"><ele>186.83333333333334</ele><time>2026-03-28T15:40:59.864Z</time></trkpt><trkpt lat="39.1771233" lon="8.5912978"><ele>187.66666666666666</ele><time>2026-03-28T15:41:01.865Z</time></trkpt><trkpt lat="39.1771102" lon="8.5911684"><ele>188.5</ele><time>2026-03-28T15:41:04.885Z</time></trkpt><trkpt lat="39.1771341" lon="8.591075"><ele>189.33333333333331</ele><time>2026-03-28T15:41:06.882Z</time></trkpt><trkpt lat="39.177164" lon="8.5909985"><ele>190.16666666666666</ele><time>2026-03-28T15:41:08.873Z</time></trkpt><trkpt lat="39.1771317" lon="8.5909089"><ele>191.0</ele><time>2026-03-28T15:41:12.854Z</time></trkpt><trkpt lat="39.1770668" lon="8.5908335"><ele>191.0</ele><time>2026-03-28T15:41:16.859Z</time></trkpt><trkpt lat="39.1770076" lon="8.5907688"><ele>191.0</ele><time>2026-03-28T15:41:18.858Z</time></trkpt><trkpt lat="39.1769327" lon="8.5907034"><ele>191.0</ele><time>2026-03-28T15:41:21.86Z</time></trkpt><trkpt lat="39.1768551" lon="8.5907116"><ele>191.0</ele><time>2026-03-28T15:41:24.865Z</time></trkpt><trkpt lat="39.1767882" lon="8.5907121"><ele>191.0</ele><time>2026-03-28T15:41:26.865Z</time></trkpt><trkpt lat="39.1767117" lon="8.5906944"><ele>191.0</ele><time>2026-03-28T15:41:28.868Z</time></trkpt><trkpt lat="39.1766327" lon="8.5906482"><ele>191.0</ele><time>2026-03-28T15:41:31.868Z</time></trkpt><trkpt lat="39.1765769" lon="8.5905989"><ele>191.0</ele><time>2026-03-28T15:41:34.851Z</time></trkpt><trkpt lat="39.1765237" lon="8.590537"><ele>191.0</ele><time>2026-03-28T15:41:42.865Z</time></trkpt><trkpt lat="39.1764751" lon="8.5904349"><ele>191.0</ele><time>2026-03-28T15:41:44.865Z</time></trkpt><trkpt lat="39.1764325" lon="8.5903187"><ele>191.0</ele><time>2026-03-28T15:41:46.879Z</time></trkpt><trkpt lat="39.1764071" lon="8.5901671"><ele>191.83333333333331</ele><time>2026-03-28T15:41:48.876Z</time></trkpt><trkpt lat="39.1763938" lon="8.5900769"><ele>192.66666666666666</ele><time>2026-03-28T15:41:49.872Z</time></trkpt><trkpt lat="39.1763893" lon="8.5899928"><ele>193.5</ele><time>2026-03-28T15:41:50.821Z</time></trkpt><trkpt lat="39.1764131" lon="8.5898575"><ele>194.33333333333331</ele><time>2026-03-28T15:41:52.875Z</time></trkpt><trkpt lat="39.1764439" lon="8.5897812"><ele>195.16666666666666</ele><time>2026-03-28T15:41:53.864Z</time></trkpt><trkpt lat="39.1764886" lon="8.5896712"><ele>196.0</ele><time>2026-03-28T15:41:55.871Z</time></trkpt><trkpt lat="39.1765349" lon="8.5895844"><ele>196.83333333333331</ele><time>2026-03-28T15:41:57.873Z</time></trkpt><trkpt lat="39.1765479" lon="8.5894936"><ele>197.66666666666666</ele><time>2026-03-28T15:41:59.902Z</time></trkpt><trkpt lat="39.1765837" lon="8.5893974"><ele>198.5</ele><time>2026-03-28T15:42:02.877Z</time></trkpt><trkpt lat="39.1766052" lon="8.5893152"><ele>199.33333333333331</ele><time>2026-03-28T15:42:04.868Z</time></trkpt><trkpt lat="39.1766323" lon="8.5892003"><ele>200.16666666666666</ele><time>2026-03-28T15:42:07.885Z</time></trkpt><trkpt lat="39.1766054" lon="8.5891135"><ele>201.0</ele><time>2026-03-28T15:42:09.877Z</time></trkpt><trkpt lat="39.1765841" lon="8.5890339"><ele>203.5</ele><time>2026-03-28T15:42:11.869Z</time></trkpt><trkpt lat="39.1764876" lon="8.5889708"><ele>206.0</ele><time>2026-03-28T15:42:13.87Z</time></trkpt><trkpt lat="39.1764093" lon="8.5889207"><ele>208.5</ele><time>2026-03-28T15:42:15.869Z</time></trkpt><trkpt lat="39.1763249" lon="8.5889298"><ele>211.0</ele><time>2026-03-28T15:42:18.855Z</time></trkpt><trkpt lat="39.176242" lon="8.5889463"><ele>213.5</ele><time>2026-03-28T15:42:21.875Z</time></trkpt><trkpt lat="39.1761669" lon="8.588914"><ele>216.0</ele><time>2026-03-28T15:42:24.853Z</time></trkpt><trkpt lat="39.1761304" lon="8.5888033"><ele>216.0</ele><time>2026-03-28T15:42:26.859Z</time></trkpt><trkpt lat="39.1761061" lon="8.5887257"><ele>216.00000000000003</ele><time>2026-03-28T15:42:27.872Z</time></trkpt><trkpt lat="39.1760729" lon="8.5886439"><ele>216.00000000000003</ele><time>2026-03-28T15:42:28.88Z</time></trkpt><trkpt lat="39.1760144" lon="8.5885214"><ele>216.0</ele><time>2026-03-28T15:42:30.892Z</time></trkpt><trkpt lat="39.1759503" lon="8.5884149"><ele>216.0</ele><time>2026-03-28T15:42:32.875Z</time></trkpt><trkpt lat="39.1758777" lon="8.5882774"><ele>215.33333333333334</ele><time>2026-03-28T15:42:34.873Z</time></trkpt><trkpt lat="39.1758431" lon="8.588207"><ele>214.66666666666669</ele><time>2026-03-28T15:42:35.87Z</time></trkpt><trkpt lat="39.1758127" lon="8.5881358"><ele>214.0</ele><time>2026-03-28T15:42:36.85Z</time></trkpt><trkpt lat="39.1757837" lon="8.5880635"><ele>213.33333333333334</ele><time>2026-03-28T15:42:37.863Z</time></trkpt><trkpt lat="39.1757172" lon="8.5879334"><ele>212.66666666666669</ele><time>2026-03-28T15:42:39.853Z</time></trkpt><trkpt lat="39.175637" lon="8.587819"><ele>212.0</ele><time>2026-03-28T15:42:41.861Z</time></trkpt><trkpt lat="39.1755853" lon="8.5877639"><ele>212.00000000000003</ele><time>2026-03-28T15:42:42.881Z</time></trkpt><trkpt lat="39.1755291" lon="8.5877099"><ele>212.0</ele><time>2026-03-28T15:42:43.856Z</time></trkpt><trkpt lat="39.1754659" lon="8.5876523"><ele>212.0</ele><time>2026-03-28T15:42:44.874Z</time></trkpt><trkpt lat="39.1753983" lon="8.5875936"><ele>212.0</ele><time>2026-03-28T15:42:45.86Z</time></trkpt><trkpt lat="39.1753367" lon="8.5875475"><ele>212.00000000000003</ele><time>2026-03-28T15:42:46.856Z</time></trkpt><trkpt lat="39.1752411" lon="8.5874715"><ele>212.0</ele><time>2026-03-28T15:42:48.865Z</time></trkpt><trkpt lat="39.1751347" lon="8.5873862"><ele>212.00000000000003</ele><time>2026-03-28T15:42:50.875Z</time></trkpt><trkpt lat="39.1750708" lon="8.5873276"><ele>212.0</ele><time>2026-03-28T15:42:51.865Z</time></trkpt><trkpt lat="39.1750167" lon="8.5872709"><ele>212.0</ele><time>2026-03-28T15:42:52.868Z</time></trkpt><trkpt lat="39.1749666" lon="8.5872059"><ele>212.0</ele><time>2026-03-28T15:42:53.865Z</time></trkpt><trkpt lat="39.174887" lon="8.5871088"><ele>212.00000000000003</ele><time>2026-03-28T15:42:55.879Z</time></trkpt><trkpt lat="39.1748145" lon="8.5870217"><ele>212.0</ele><time>2026-03-28T15:42:57.872Z</time></trkpt><trkpt lat="39.174739" lon="8.586961"><ele>212.39999999999998</ele><time>2026-03-28T15:42:59.867Z</time></trkpt><trkpt lat="39.1746274" lon="8.5869488"><ele>212.79999999999998</ele><time>2026-03-28T15:43:01.867Z</time></trkpt><trkpt lat="39.1745469" lon="8.5869501"><ele>213.2</ele><time>2026-03-28T15:43:02.854Z</time></trkpt><trkpt lat="39.1744623" lon="8.5869559"><ele>213.6</ele><time>2026-03-28T15:43:03.85Z</time></trkpt><trkpt lat="39.1743518" lon="8.5869824"><ele>214.0</ele><time>2026-03-28T15:43:05.877Z</time></trkpt><trkpt lat="39.1742543" lon="8.5870117"><ele>214.0</ele><time>2026-03-28T15:43:07.871Z</time></trkpt><trkpt lat="39.1741604" lon="8.586999"><ele>213.99999999999997</ele><time>2026-03-28T15:43:09.883Z</time></trkpt><trkpt lat="39.1740662" lon="8.5869875"><ele>213.99999999999997</ele><time>2026-03-28T15:43:11.875Z</time></trkpt><trkpt lat="39.1739753" lon="8.5869889"><ele>214.0</ele><time>2026-03-28T15:43:13.869Z</time></trkpt><trkpt lat="39.1739086" lon="8.5870436"><ele>214.0</ele><time>2026-03-28T15:43:16.879Z</time></trkpt><trkpt lat="39.1739591" lon="8.5871421"><ele>214.6</ele><time>2026-03-28T15:44:08.867Z</time></trkpt><trkpt lat="39.1739962" lon="8.5872143"><ele>215.2</ele><time>2026-03-28T15:44:10.884Z</time></trkpt><trkpt lat="39.1741114" lon="8.5872649"><ele>215.79999999999998</ele><time>2026-03-28T15:44:13.862Z</time></trkpt><trkpt lat="39.1741987" lon="8.5872342"><ele>216.39999999999998</ele><time>2026-03-28T15:44:14.881Z</time></trkpt><trkpt lat="39.1742934" lon="8.587201"><ele>217.0</ele><time>2026-03-28T15:44:15.86Z</time></trkpt><trkpt lat="39.1743705" lon="8.5871951"><ele>216.99999999999997</ele><time>2026-03-28T15:44:16.871Z</time></trkpt><trkpt lat="39.1744391" lon="8.5871977"><ele>217.0</ele><time>2026-03-28T15:44:17.877Z</time></trkpt><trkpt lat="39.1745141" lon="8.5871889"><ele>217.0</ele><time>2026-03-28T15:44:18.885Z</time></trkpt><trkpt lat="39.1746004" lon="8.5871963"><ele>217.0</ele><time>2026-03-28T15:44:19.85Z</time></trkpt><trkpt lat="39.174672" lon="8.5872089"><ele>216.99999999999997</ele><time>2026-03-28T15:44:20.874Z</time></trkpt><trkpt lat="39.1747715" lon="8.5873186"><ele>217.0</ele><time>2026-03-28T15:44:22.864Z</time></trkpt><trkpt lat="39.1748306" lon="8.5873802"><ele>216.16666666666666</ele><time>2026-03-28T15:44:23.867Z</time></trkpt><trkpt lat="39.1748826" lon="8.5874445"><ele>215.33333333333331</ele><time>2026-03-28T15:44:24.88Z</time></trkpt><trkpt lat="39.1749454" lon="8.5875127"><ele>214.5</ele><time>2026-03-28T15:44:25.868Z</time></trkpt><trkpt lat="39.1750111" lon="8.5875931"><ele>213.66666666666669</ele><time>2026-03-28T15:44:26.877Z</time></trkpt><trkpt lat="39.1750788" lon="8.5876662"><ele>212.83333333333334</ele><time>2026-03-28T15:44:27.885Z</time></trkpt><trkpt lat="39.1751432" lon="8.5877373"><ele>212.0</ele><time>2026-03-28T15:44:28.865Z</time></trkpt><trkpt lat="39.1752152" lon="8.5878084"><ele>216.6</ele><time>2026-03-28T15:44:29.88Z</time></trkpt><trkpt lat="39.1752819" lon="8.5878855"><ele>221.2</ele><time>2026-03-28T15:44:30.866Z</time></trkpt><trkpt lat="39.1753387" lon="8.5879665"><ele>225.8</ele><time>2026-03-28T15:44:31.882Z</time></trkpt><trkpt lat="39.1753939" lon="8.588036"><ele>230.4</ele><time>2026-03-28T15:44:32.864Z</time></trkpt><trkpt lat="39.1754623" lon="8.5881278"><ele>235.0</ele><time>2026-03-28T15:44:33.873Z</time></trkpt><trkpt lat="39.1755275" lon="8.5882319"><ele>235.0</ele><time>2026-03-28T15:44:34.883Z</time></trkpt><trkpt lat="39.1755827" lon="8.5883403"><ele>235.0</ele><time>2026-03-28T15:44:35.872Z</time></trkpt><trkpt lat="39.1756348" lon="8.5884504"><ele>235.0</ele><time>2026-03-28T15:44:36.884Z</time></trkpt><trkpt lat="39.1756807" lon="8.5885624"><ele>235.0</ele><time>2026-03-28T15:44:37.858Z</time></trkpt><trkpt lat="39.1757268" lon="8.5886799"><ele>235.0</ele><time>2026-03-28T15:44:38.873Z</time></trkpt><trkpt lat="39.1757731" lon="8.5888022"><ele>231.2</ele><time>2026-03-28T15:44:39.879Z</time></trkpt><trkpt lat="39.1758218" lon="8.5889156"><ele>227.4</ele><time>2026-03-28T15:44:40.881Z</time></trkpt><trkpt lat="39.1758596" lon="8.5890264"><ele>223.60000000000002</ele><time>2026-03-28T15:44:41.881Z</time></trkpt><trkpt lat="39.1758962" lon="8.5891238"><ele>219.8</ele><time>2026-03-28T15:44:42.875Z</time></trkpt><trkpt lat="39.1759365" lon="8.5892326"><ele>216.0</ele><time>2026-03-28T15:44:43.87Z</time></trkpt><trkpt lat="39.1759676" lon="8.5893292"><ele>216.0</ele><time>2026-03-28T15:44:44.881Z</time></trkpt><trkpt lat="39.175993" lon="8.5894121"><ele>216.0</ele><time>2026-03-28T15:44:45.873Z</time></trkpt><trkpt lat="39.1760009" lon="8.5895073"><ele>216.0</ele><time>2026-03-28T15:44:46.884Z</time></trkpt><trkpt lat="39.1759943" lon="8.5896079"><ele>216.0</ele><time>2026-03-28T15:44:47.869Z</time></trkpt><trkpt lat="39.1759979" lon="8.58969"><ele>216.0</ele><time>2026-03-28T15:44:48.884Z</time></trkpt><trkpt lat="39.1760137" lon="8.5898169"><ele>216.0</ele><time>2026-03-28T15:44:50.873Z</time></trkpt><trkpt lat="39.1760156" lon="8.5899526"><ele>216.8</ele><time>2026-03-28T15:44:52.872Z</time></trkpt><trkpt lat="39.17602" lon="8.5900933"><ele>217.60000000000002</ele><time>2026-03-28T15:44:54.882Z</time></trkpt><trkpt lat="39.1760425" lon="8.5902334"><ele>218.4</ele><time>2026-03-28T15:44:56.89Z</time></trkpt><trkpt lat="39.1760611" lon="8.5903598"><ele>219.2</ele><time>2026-03-28T15:44:58.858Z</time></trkpt><trkpt lat="39.1760705" lon="8.5904844"><ele>220.0</ele><time>2026-03-28T15:45:00.901Z</time></trkpt><trkpt lat="39.176088" lon="8.5905745"><ele>218.66666666666666</ele><time>2026-03-28T15:45:03.838Z</time></trkpt><trkpt lat="39.1761096" lon="8.5906582"><ele>217.33333333333331</ele><time>2026-03-28T15:45:05.863Z</time></trkpt><trkpt lat="39.1760948" lon="8.5907682"><ele>216.0</ele><time>2026-03-28T15:45:07.874Z</time></trkpt><trkpt lat="39.1761489" lon="8.5908708"><ele>214.66666666666669</ele><time>2026-03-28T15:45:09.855Z</time></trkpt><trkpt lat="39.1762049" lon="8.590915"><ele>213.33333333333334</ele><time>2026-03-28T15:45:10.822Z</time></trkpt><trkpt lat="39.1762679" lon="8.5909426"><ele>212.0</ele><time>2026-03-28T15:45:11.868Z</time></trkpt><trkpt lat="39.1763845" lon="8.5909991"><ele>212.00000000000003</ele><time>2026-03-28T15:45:13.869Z</time></trkpt><trkpt lat="39.1764454" lon="8.5910487"><ele>212.0</ele><time>2026-03-28T15:45:14.856Z</time></trkpt><trkpt lat="39.1765132" lon="8.5911076"><ele>212.0</ele><time>2026-03-28T15:45:15.878Z</time></trkpt><trkpt lat="39.1765897" lon="8.5911627"><ele>212.0</ele><time>2026-03-28T15:45:16.876Z</time></trkpt><trkpt lat="39.1766679" lon="8.5912047"><ele>212.00000000000003</ele><time>2026-03-28T15:45:17.865Z</time></trkpt><trkpt lat="39.1767281" lon="8.5912552"><ele>212.0</ele><time>2026-03-28T15:45:18.881Z</time></trkpt><trkpt lat="39.1767686" lon="8.5913252"><ele>210.66666666666669</ele><time>2026-03-28T15:45:19.862Z</time></trkpt><trkpt lat="39.176801" lon="8.591415"><ele>209.33333333333334</ele><time>2026-03-28T15:45:20.854Z</time></trkpt><trkpt lat="39.1768353" lon="8.5915221"><ele>208.0</ele><time>2026-03-28T15:45:21.866Z</time></trkpt><trkpt lat="39.1768679" lon="8.5916352"><ele>206.66666666666669</ele><time>2026-03-28T15:45:22.888Z</time></trkpt><trkpt lat="39.176903" lon="8.5917239"><ele>205.33333333333334</ele><time>2026-03-28T15:45:23.854Z</time></trkpt><trkpt lat="39.1769973" lon="8.5917954"><ele>204.0</ele><time>2026-03-28T15:45:25.863Z</time></trkpt><trkpt lat="39.1770736" lon="8.5918014"><ele>204.0</ele><time>2026-03-28T15:45:26.865Z</time></trkpt><trkpt lat="39.1771624" lon="8.5918217"><ele>204.0</ele><time>2026-03-28T15:45:27.871Z</time></trkpt><trkpt lat="39.1772466" lon="8.5918465"><ele>204.0</ele><time>2026-03-28T15:45:28.864Z</time></trkpt><trkpt lat="39.1773326" lon="8.5918702"><ele>204.0</ele><time>2026-03-28T15:45:29.869Z</time></trkpt><trkpt lat="39.1774042" lon="8.5918965"><ele>204.0</ele><time>2026-03-28T15:45:30.86Z</time></trkpt><trkpt lat="39.1774881" lon="8.5920058"><ele>204.66666666666666</ele><time>2026-03-28T15:45:32.865Z</time></trkpt><trkpt lat="39.1775162" lon="8.5920906"><ele>205.33333333333331</ele><time>2026-03-28T15:45:33.867Z</time></trkpt><trkpt lat="39.1775426" lon="8.5921886"><ele>206.0</ele><time>2026-03-28T15:45:34.881Z</time></trkpt><trkpt lat="39.1775693" lon="8.5922883"><ele>206.66666666666666</ele><time>2026-03-28T15:45:35.864Z</time></trkpt><trkpt lat="39.1775844" lon="8.5923973"><ele>207.33333333333331</ele><time>2026-03-28T15:45:36.868Z</time></trkpt><trkpt lat="39.1775931" lon="8.5925106"><ele>208.0</ele><time>2026-03-28T15:45:37.864Z</time></trkpt><trkpt lat="39.1775933" lon="8.5926178"><ele>207.99999999999997</ele><time>2026-03-28T15:45:38.883Z</time></trkpt><trkpt lat="39.1775929" lon="8.5927059"><ele>208.0</ele><time>2026-03-28T15:45:39.871Z</time></trkpt><trkpt lat="39.1776772" lon="8.5928116"><ele>208.0</ele><time>2026-03-28T15:45:42.872Z</time></trkpt><trkpt lat="39.1777313" lon="8.5928831"><ele>208.0</ele><time>2026-03-28T15:45:43.871Z</time></trkpt><trkpt lat="39.1777959" lon="8.592961"><ele>207.99999999999997</ele><time>2026-03-28T15:45:44.872Z</time></trkpt><trkpt lat="39.1778457" lon="8.5930219"><ele>208.0</ele><time>2026-03-28T15:45:45.878Z</time></trkpt><trkpt lat="39.1778972" lon="8.5930761"><ele>211.60000000000002</ele><time>2026-03-28T15:45:46.887Z</time></trkpt><trkpt lat="39.1779763" lon="8.5931733"><ele>215.20000000000002</ele><time>2026-03-28T15:45:48.883Z</time></trkpt><trkpt lat="39.1780071" lon="8.5932762"><ele>218.8</ele><time>2026-03-28T15:45:50.867Z</time></trkpt><trkpt lat="39.1780483" lon="8.5933457"><ele>222.4</ele><time>2026-03-28T15:45:52.886Z</time></trkpt><trkpt lat="39.178099" lon="8.5934553"><ele>226.0</ele><time>2026-03-28T15:45:54.879Z</time></trkpt><trkpt lat="39.1781359" lon="8.5935908"><ele>226.0</ele><time>2026-03-28T15:45:56.857Z</time></trkpt><trkpt lat="39.1781736" lon="8.5936646"><ele>226.00000000000003</ele><time>2026-03-28T15:45:58.859Z</time></trkpt><trkpt lat="39.1782567" lon="8.5937002"><ele>226.00000000000003</ele><time>2026-03-28T15:46:00.879Z</time></trkpt><trkpt lat="39.178348" lon="8.5937523"><ele>226.0</ele><time>2026-03-28T15:46:02.896Z</time></trkpt><trkpt lat="39.1784341" lon="8.59384"><ele>226.0</ele><time>2026-03-28T15:46:04.878Z</time></trkpt><trkpt lat="39.1785219" lon="8.5939608"><ele>222.66666666666666</ele><time>2026-03-28T15:46:06.89Z</time></trkpt><trkpt lat="39.1785749" lon="8.5940127"><ele>219.33333333333331</ele><time>2026-03-28T15:46:07.913Z</time></trkpt><trkpt lat="39.1786237" lon="8.5940786"><ele>216.0</ele><time>2026-03-28T15:46:08.88Z</time></trkpt><trkpt lat="39.1786677" lon="8.5941992"><ele>212.66666666666669</ele><time>2026-03-28T15:46:10.874Z</time></trkpt><trkpt lat="39.1786167" lon="8.59433"><ele>209.33333333333334</ele><time>2026-03-28T15:46:12.878Z</time></trkpt><trkpt lat="39.1785634" lon="8.5944006"><ele>206.0</ele><time>2026-03-28T15:46:13.885Z</time></trkpt><trkpt lat="39.1785087" lon="8.5944843"><ele>207.60000000000002</ele><time>2026-03-28T15:46:14.872Z</time></trkpt><trkpt lat="39.1784551" lon="8.5945971"><ele>209.2</ele><time>2026-03-28T15:46:16.875Z</time></trkpt><trkpt lat="39.1783914" lon="8.5947443"><ele>210.79999999999998</ele><time>2026-03-28T15:46:18.886Z</time></trkpt><trkpt lat="39.1783465" lon="8.5948442"><ele>212.39999999999998</ele><time>2026-03-28T15:46:19.881Z</time></trkpt><trkpt lat="39.1783011" lon="8.5949411"><ele>214.0</ele><time>2026-03-28T15:46:20.879Z</time></trkpt><trkpt lat="39.1782516" lon="8.5950302"><ele>214.0</ele><time>2026-03-28T15:46:21.878Z</time></trkpt><trkpt lat="39.1782001" lon="8.5951115"><ele>213.99999999999997</ele><time>2026-03-28T15:46:22.884Z</time></trkpt><trkpt lat="39.1781587" lon="8.5951893"><ele>213.99999999999997</ele><time>2026-03-28T15:46:23.863Z</time></trkpt><trkpt lat="39.1781254" lon="8.595338"><ele>214.0</ele><time>2026-03-28T15:46:25.885Z</time></trkpt><trkpt lat="39.1781105" lon="8.5955135"><ele>214.0</ele><time>2026-03-28T15:46:27.87Z</time></trkpt><trkpt lat="39.1781027" lon="8.595609"><ele>213.0</ele><time>2026-03-28T15:46:28.841Z</time></trkpt><trkpt lat="39.178053" lon="8.5957347"><ele>211.99999999999997</ele><time>2026-03-28T15:46:30.88Z</time></trkpt><trkpt lat="39.17801" lon="8.5958382"><ele>211.0</ele><time>2026-03-28T15:46:32.886Z</time></trkpt><trkpt lat="39.1780412" lon="8.5959449"><ele>210.0</ele><time>2026-03-28T15:46:33.885Z</time></trkpt><trkpt lat="39.1780797" lon="8.5960571"><ele>209.0</ele><time>2026-03-28T15:46:34.876Z</time></trkpt><trkpt lat="39.1781081" lon="8.596147"><ele>208.85714285714286</ele><time>2026-03-28T15:46:35.865Z</time></trkpt><trkpt lat="39.1781335" lon="8.5962346"><ele>208.71428571428572</ele><time>2026-03-28T15:46:36.891Z</time></trkpt><trkpt lat="39.1781672" lon="8.5963246"><ele>208.57142857142856</ele><time>2026-03-28T15:46:37.851Z</time></trkpt><trkpt lat="39.1782057" lon="8.596414"><ele>208.42857142857144</ele><time>2026-03-28T15:46:38.877Z</time></trkpt><trkpt lat="39.1782476" lon="8.5964968"><ele>208.2857142857143</ele><time>2026-03-28T15:46:39.866Z</time></trkpt><trkpt lat="39.178283" lon="8.5965805"><ele>208.14285714285714</ele><time>2026-03-28T15:46:40.854Z</time></trkpt><trkpt lat="39.1783062" lon="8.5966578"><ele>208.0</ele><time>2026-03-28T15:46:41.865Z</time></trkpt><trkpt lat="39.1783189" lon="8.5967419"><ele>207.99999999999997</ele><time>2026-03-28T15:46:42.866Z</time></trkpt><trkpt lat="39.178319" lon="8.5968368"><ele>208.0</ele><time>2026-03-28T15:46:43.873Z</time></trkpt><trkpt lat="39.1783222" lon="8.5969361"><ele>208.0</ele><time>2026-03-28T15:46:44.868Z</time></trkpt><trkpt lat="39.1783334" lon="8.5970287"><ele>208.0</ele><time>2026-03-28T15:46:45.88Z</time></trkpt><trkpt lat="39.178349" lon="8.5971303"><ele>207.99999999999997</ele><time>2026-03-28T15:46:46.881Z</time></trkpt><trkpt lat="39.1783766" lon="8.5972229"><ele>208.0</ele><time>2026-03-28T15:46:47.867Z</time></trkpt><trkpt lat="39.1784114" lon="8.5973114"><ele>205.85714285714286</ele><time>2026-03-28T15:46:48.877Z</time></trkpt><trkpt lat="39.1784435" lon="8.5973994"><ele>203.71428571428572</ele><time>2026-03-28T15:46:49.87Z</time></trkpt><trkpt lat="39.1784728" lon="8.5974877"><ele>201.57142857142858</ele><time>2026-03-28T15:46:50.879Z</time></trkpt><trkpt lat="39.1785004" lon="8.5975741"><ele>199.42857142857144</ele><time>2026-03-28T15:46:51.86Z</time></trkpt><trkpt lat="39.1785173" lon="8.5976601"><ele>197.28571428571428</ele><time>2026-03-28T15:46:52.878Z</time></trkpt><trkpt lat="39.1785324" lon="8.5977414"><ele>195.14285714285717</ele><time>2026-03-28T15:46:53.877Z</time></trkpt><trkpt lat="39.1785589" lon="8.5978156"><ele>193.0</ele><time>2026-03-28T15:46:54.856Z</time></trkpt><trkpt lat="39.178594" lon="8.5978844"><ele>191.4</ele><time>2026-03-28T15:46:55.866Z</time></trkpt><trkpt lat="39.1786542" lon="8.5980153"><ele>189.8</ele><time>2026-03-28T15:46:57.871Z</time></trkpt><trkpt lat="39.1786291" lon="8.5981469"><ele>188.2</ele><time>2026-03-28T15:46:59.85Z</time></trkpt><trkpt lat="39.1785557" lon="8.5981435"><ele>186.6</ele><time>2026-03-28T15:47:01.861Z</time></trkpt><trkpt lat="39.1785141" lon="8.5980439"><ele>185.0</ele><time>2026-03-28T15:47:03.873Z</time></trkpt><trkpt lat="39.1784543" lon="8.5979546"><ele>185.0</ele><time>2026-03-28T15:47:05.877Z</time></trkpt><trkpt lat="39.1783885" lon="8.5978845"><ele>185.0</ele><time>2026-03-28T15:47:07.869Z</time></trkpt><trkpt lat="39.1783326" lon="8.5978221"><ele>185.0</ele><time>2026-03-28T15:47:09.854Z</time></trkpt><trkpt lat="39.1782922" lon="8.5977205"><ele>185.0</ele><time>2026-03-28T15:47:11.858Z</time></trkpt><trkpt lat="39.1782453" lon="8.5975847"><ele>185.0</ele><time>2026-03-28T15:47:13.868Z</time></trkpt><trkpt lat="39.1781695" lon="8.5974631"><ele>185.0</ele><time>2026-03-28T15:47:15.875Z</time></trkpt><trkpt lat="39.17813" lon="8.597397"><ele>185.0</ele><time>2026-03-28T15:47:16.885Z</time></trkpt><trkpt lat="39.1780965" lon="8.597322"><ele>185.0</ele><time>2026-03-28T15:47:17.841Z</time></trkpt><trkpt lat="39.1780722" lon="8.5972338"><ele>185.0</ele><time>2026-03-28T15:47:18.885Z</time></trkpt><trkpt lat="39.1780432" lon="8.597148"><ele>185.0</ele><time>2026-03-28T15:47:19.898Z</time></trkpt><trkpt lat="39.1779948" lon="8.5970219"><ele>185.0</ele><time>2026-03-28T15:47:21.86Z</time></trkpt><trkpt lat="39.1779583" lon="8.5969043"><ele>185.0</ele><time>2026-03-28T15:47:23.876Z</time></trkpt><trkpt lat="39.177911" lon="8.5968011"><ele>185.0</ele><time>2026-03-28T15:47:25.867Z</time></trkpt><trkpt lat="39.1778153" lon="8.5967023"><ele>185.0</ele><time>2026-03-28T15:47:27.872Z</time></trkpt><trkpt lat="39.1777222" lon="8.5966264"><ele>185.0</ele><time>2026-03-28T15:47:29.861Z</time></trkpt><trkpt lat="39.177648" lon="8.5965994"><ele>185.0</ele><time>2026-03-28T15:47:31.862Z</time></trkpt><trkpt lat="39.1775894" lon="8.5967061"><ele>185.0</ele><time>2026-03-28T15:47:33.857Z</time></trkpt><trkpt lat="39.1776106" lon="8.5968068"><ele>185.0</ele><time>2026-03-28T15:47:35.873Z</time></trkpt><trkpt lat="39.1776948" lon="8.5968663"><ele>185.0</ele><time>2026-03-28T15:47:37.873Z</time></trkpt><trkpt lat="39.1776589" lon="8.5969731"><ele>185.0</ele><time>2026-03-28T15:47:40.854Z</time></trkpt><trkpt lat="39.1775852" lon="8.5969735"><ele>185.0</ele><time>2026-03-28T15:47:42.859Z</time></trkpt><trkpt lat="39.1775722" lon="8.597082"><ele>185.0</ele><time>2026-03-28T15:47:44.884Z</time></trkpt><trkpt lat="39.1775831" lon="8.5971842"><ele>180.6</ele><time>2026-03-28T15:47:46.87Z</time></trkpt><trkpt lat="39.1776355" lon="8.5972619"><ele>176.2</ele><time>2026-03-28T15:47:48.867Z</time></trkpt><trkpt lat="39.1776705" lon="8.5973457"><ele>171.8</ele><time>2026-03-28T15:47:50.885Z</time></trkpt><trkpt lat="39.1776595" lon="8.5974776"><ele>167.4</ele><time>2026-03-28T15:47:52.862Z</time></trkpt><trkpt lat="39.1776346" lon="8.597624"><ele>163.0</ele><time>2026-03-28T15:47:54.867Z</time></trkpt><trkpt lat="39.1776721" lon="8.5977528"><ele>163.0</ele><time>2026-03-28T15:47:56.876Z</time></trkpt><trkpt lat="39.1776412" lon="8.5978265"><ele>163.0</ele><time>2026-03-28T15:47:58.863Z</time></trkpt><trkpt lat="39.1775765" lon="8.5978321"><ele>163.0</ele><time>2026-03-28T15:48:00.876Z</time></trkpt><trkpt lat="39.1774963" lon="8.5977508"><ele>163.0</ele><time>2026-03-28T15:48:02.852Z</time></trkpt><trkpt lat="39.1773968" lon="8.5977375"><ele>163.0</ele><time>2026-03-28T15:48:04.872Z</time></trkpt><trkpt lat="39.1772883" lon="8.5978138"><ele>162.20000000000002</ele><time>2026-03-28T15:48:06.862Z</time></trkpt><trkpt lat="39.1772201" lon="8.5979096"><ele>161.4</ele><time>2026-03-28T15:48:08.875Z</time></trkpt><trkpt lat="39.1772137" lon="8.5979913"><ele>160.60000000000002</ele><time>2026-03-28T15:48:15.877Z</time></trkpt><trkpt lat="39.1772123" lon="8.5981129"><ele>159.8</ele><time>2026-03-28T15:48:23.881Z</time></trkpt><trkpt lat="39.1771097" lon="8.5982392"><ele>159.0</ele><time>2026-03-28T15:48:25.854Z</time></trkpt><trkpt lat="39.1770551" lon="8.598309"><ele>159.0</ele><time>2026-03-28T15:48:26.875Z</time></trkpt><trkpt lat="39.1770145" lon="8.5983763"><ele>159.0</ele><time>2026-03-28T15:48:27.862Z</time></trkpt><trkpt lat="39.1769744" lon="8.5984491"><ele>159.0</ele><time>2026-03-28T15:48:28.881Z</time></trkpt><trkpt lat="39.1769456" lon="8.5985413"><ele>159.0</ele><time>2026-03-28T15:48:29.886Z</time></trkpt><trkpt lat="39.1769187" lon="8.5986327"><ele>159.0</ele><time>2026-03-28T15:48:30.875Z</time></trkpt><trkpt lat="39.1768889" lon="8.5987252"><ele>159.0</ele><time>2026-03-28T15:48:31.86Z</time></trkpt><trkpt lat="39.1768655" lon="8.5988227"><ele>159.0</ele><time>2026-03-28T15:48:32.869Z</time></trkpt><trkpt lat="39.1768428" lon="8.5989155"><ele>157.28571428571428</ele><time>2026-03-28T15:48:33.868Z</time></trkpt><trkpt lat="39.1768104" lon="8.599013"><ele>155.57142857142858</ele><time>2026-03-28T15:48:34.877Z</time></trkpt><trkpt lat="39.1767705" lon="8.5991066"><ele>153.85714285714286</ele><time>2026-03-28T15:48:35.87Z</time></trkpt><trkpt lat="39.1767347" lon="8.5991786"><ele>152.14285714285714</ele><time>2026-03-28T15:48:36.847Z</time></trkpt><trkpt lat="39.176705" lon="8.5992515"><ele>150.42857142857144</ele><time>2026-03-28T15:48:37.868Z</time></trkpt><trkpt lat="39.1766845" lon="8.5993397"><ele>148.71428571428572</ele><time>2026-03-28T15:48:38.868Z</time></trkpt><trkpt lat="39.17667" lon="8.5994394"><ele>147.0</ele><time>2026-03-28T15:48:39.866Z</time></trkpt><trkpt lat="39.176652" lon="8.5995374"><ele>145.5</ele><time>2026-03-28T15:48:40.875Z</time></trkpt><trkpt lat="39.1766191" lon="8.5996307"><ele>144.0</ele><time>2026-03-28T15:48:41.875Z</time></trkpt><trkpt lat="39.1765802" lon="8.5997205"><ele>142.5</ele><time>2026-03-28T15:48:42.883Z</time></trkpt><trkpt lat="39.1765425" lon="8.5998037"><ele>141.0</ele><time>2026-03-28T15:48:43.863Z</time></trkpt><trkpt lat="39.1765116" lon="8.599884"><ele>139.5</ele><time>2026-03-28T15:48:44.884Z</time></trkpt><trkpt lat="39.1764803" lon="8.5999668"><ele>138.0</ele><time>2026-03-28T15:48:45.88Z</time></trkpt><trkpt lat="39.1764541" lon="8.6000836"><ele>138.0</ele><time>2026-03-28T15:48:47.87Z</time></trkpt><trkpt lat="39.1765275" lon="8.6002505"><ele>138.0</ele><time>2026-03-28T15:48:49.869Z</time></trkpt><trkpt lat="39.1765694" lon="8.60032"><ele>138.0</ele><time>2026-03-28T15:48:50.873Z</time></trkpt><trkpt lat="39.1766089" lon="8.6004063"><ele>138.0</ele><time>2026-03-28T15:48:52.9Z</time></trkpt><trkpt lat="39.1766411" lon="8.6005029"><ele>138.0</ele><time>2026-03-28T15:48:54.851Z</time></trkpt><trkpt lat="39.1766585" lon="8.60059"><ele>138.0</ele><time>2026-03-28T15:48:56.874Z</time></trkpt><trkpt lat="39.1766845" lon="8.6006655"><ele>137.83333333333334</ele><time>2026-03-28T15:50:33.879Z</time></trkpt><trkpt lat="39.1767416" lon="8.6007749"><ele>137.66666666666666</ele><time>2026-03-28T15:50:35.883Z</time></trkpt><trkpt lat="39.1767677" lon="8.6008594"><ele>137.5</ele><time>2026-03-28T15:50:36.857Z</time></trkpt><trkpt lat="39.1767853" lon="8.6009433"><ele>137.33333333333331</ele><time>2026-03-28T15:50:37.866Z</time></trkpt><trkpt lat="39.1768078" lon="8.6010848"><ele>137.16666666666666</ele><time>2026-03-28T15:50:39.881Z</time></trkpt><trkpt lat="39.1768297" lon="8.6011697"><ele>137.0</ele><time>2026-03-28T15:50:40.88Z</time></trkpt><trkpt lat="39.1768727" lon="8.6012641"><ele>137.0</ele><time>2026-03-28T15:50:41.847Z</time></trkpt><trkpt lat="39.1769185" lon="8.6013603"><ele>137.0</ele><time>2026-03-28T15:50:42.873Z</time></trkpt><trkpt lat="39.176959" lon="8.6014437"><ele>137.0</ele><time>2026-03-28T15:50:43.866Z</time></trkpt><trkpt lat="39.1769961" lon="8.6015613"><ele>137.0</ele><time>2026-03-28T15:50:45.871Z</time></trkpt><trkpt lat="39.1769933" lon="8.6016676"><ele>137.0</ele><time>2026-03-28T15:50:48.869Z</time></trkpt><trkpt lat="39.1770647" lon="8.60178"><ele>137.0</ele><time>2026-03-28T15:50:50.88Z</time></trkpt><trkpt lat="39.1771176" lon="8.601845"><ele>137.0</ele><time>2026-03-28T15:50:51.887Z</time></trkpt><trkpt lat="39.1772073" lon="8.6018697"><ele>137.0</ele><time>2026-03-28T15:50:53.877Z</time></trkpt><trkpt lat="39.1773027" lon="8.601781"><ele>137.0</ele><time>2026-03-28T15:50:55.875Z</time></trkpt><trkpt lat="39.1773837" lon="8.6017003"><ele>137.0</ele><time>2026-03-28T15:50:57.875Z</time></trkpt><trkpt lat="39.1774621" lon="8.60163"><ele>136.5</ele><time>2026-03-28T15:50:59.868Z</time></trkpt><trkpt lat="39.177507" lon="8.6015128"><ele>136.0</ele><time>2026-03-28T15:51:01.864Z</time></trkpt><trkpt lat="39.1775437" lon="8.601438"><ele>135.5</ele><time>2026-03-28T15:51:03.874Z</time></trkpt><trkpt lat="39.1775898" lon="8.6013675"><ele>135.0</ele><time>2026-03-28T15:51:06.84Z</time></trkpt><trkpt lat="39.1776643" lon="8.6013571"><ele>134.5</ele><time>2026-03-28T15:53:07.885Z</time></trkpt><trkpt lat="39.1777516" lon="8.6013648"><ele>134.0</ele><time>2026-03-28T15:53:12.869Z</time></trkpt><trkpt lat="39.177837" lon="8.6013722"><ele>134.0</ele><time>2026-03-28T15:53:18.888Z</time></trkpt><trkpt lat="39.1779368" lon="8.6013899"><ele>134.0</ele><time>2026-03-28T15:53:21.858Z</time></trkpt><trkpt lat="39.1780368" lon="8.6013987"><ele>134.0</ele><time>2026-03-28T15:53:23.878Z</time></trkpt><trkpt lat="39.1781418" lon="8.6013982"><ele>134.0</ele><time>2026-03-28T15:53:25.884Z</time></trkpt><trkpt lat="39.1782164" lon="8.6013914"><ele>134.0</ele><time>2026-03-28T15:53:27.862Z</time></trkpt><trkpt lat="39.178292" lon="8.6013906"><ele>135.83333333333331</ele><time>2026-03-28T15:53:31.878Z</time></trkpt><trkpt lat="39.1783551" lon="8.6013898"><ele>137.66666666666666</ele><time>2026-03-28T15:53:33.873Z</time></trkpt><trkpt lat="39.1784213" lon="8.601411"><ele>139.5</ele><time>2026-03-28T15:53:36.876Z</time></trkpt><trkpt lat="39.178487" lon="8.6014416"><ele>141.33333333333334</ele><time>2026-03-28T15:53:41.863Z</time></trkpt><trkpt lat="39.1785671" lon="8.6015115"><ele>143.16666666666669</ele><time>2026-03-28T15:53:44.871Z</time></trkpt><trkpt lat="39.1786302" lon="8.6015839"><ele>145.0</ele><time>2026-03-28T15:53:46.868Z</time></trkpt><trkpt lat="39.1786993" lon="8.6017104"><ele>145.0</ele><time>2026-03-28T15:53:48.861Z</time></trkpt><trkpt lat="39.1787567" lon="8.6018327"><ele>145.0</ele><time>2026-03-28T15:53:50.87Z</time></trkpt><trkpt lat="39.1788196" lon="8.6019228"><ele>145.0</ele><time>2026-03-28T15:53:52.876Z</time></trkpt><trkpt lat="39.1788714" lon="8.6019845"><ele>145.0</ele><time>2026-03-28T15:53:54.863Z</time></trkpt><trkpt lat="39.1788271" lon="8.6020792"><ele>145.0</ele><time>2026-03-28T15:54:01.872Z</time></trkpt><trkpt lat="39.1787993" lon="8.6021767"><ele>145.0</ele><time>2026-03-28T15:54:03.849Z</time></trkpt><trkpt lat="39.1787541" lon="8.6022678"><ele>150.2</ele><time>2026-03-28T15:54:05.874Z</time></trkpt><trkpt lat="39.1786805" lon="8.602286"><ele>155.4</ele><time>2026-03-28T15:54:07.864Z</time></trkpt><trkpt lat="39.1785702" lon="8.6022709"><ele>160.60000000000002</ele><time>2026-03-28T15:54:09.857Z</time></trkpt><trkpt lat="39.1784716" lon="8.6022522"><ele>165.8</ele><time>2026-03-28T15:54:11.858Z</time></trkpt><trkpt lat="39.1783927" lon="8.6021613"><ele>171.0</ele><time>2026-03-28T15:54:13.86Z</time></trkpt><trkpt lat="39.1783073" lon="8.6021263"><ele>171.0</ele><time>2026-03-28T15:54:15.871Z</time></trkpt><trkpt lat="39.1782314" lon="8.6021426"><ele>171.0</ele><time>2026-03-28T15:54:18.873Z</time></trkpt><trkpt lat="39.1781922" lon="8.6022141"><ele>171.0</ele><time>2026-03-28T15:54:21.872Z</time></trkpt><trkpt lat="39.1782693" lon="8.6023048"><ele>171.0</ele><time>2026-03-28T15:54:25.877Z</time></trkpt><trkpt lat="39.1783432" lon="8.6023817"><ele>171.0</ele><time>2026-03-28T15:54:27.878Z</time></trkpt><trkpt lat="39.1783988" lon="8.6024499"><ele>171.0</ele><time>2026-03-28T15:54:29.886Z</time></trkpt><trkpt lat="39.1784359" lon="8.6025205"><ele>171.0</ele><time>2026-03-28T15:54:32.854Z</time></trkpt><trkpt lat="39.178511" lon="8.6025958"><ele>171.0</ele><time>2026-03-28T15:54:35.892Z</time></trkpt><trkpt lat="39.1785609" lon="8.6026935"><ele>171.0</ele><time>2026-03-28T15:54:37.844Z</time></trkpt><trkpt lat="39.1786144" lon="8.602783"><ele>171.0</ele><time>2026-03-28T15:54:39.882Z</time></trkpt><trkpt lat="39.1786887" lon="8.6028565"><ele>171.0</ele><time>2026-03-28T15:54:41.87Z</time></trkpt><trkpt lat="39.1787477" lon="8.6029053"><ele>171.0</ele><time>2026-03-28T15:54:43.875Z</time></trkpt><trkpt lat="39.1788301" lon="8.6029726"><ele>175.66666666666666</ele><time>2026-03-28T15:54:46.851Z</time></trkpt><trkpt lat="39.1789069" lon="8.602988"><ele>180.33333333333331</ele><time>2026-03-28T15:54:49.867Z</time></trkpt><trkpt lat="39.1789798" lon="8.6029935"><ele>185.0</ele><time>2026-03-28T15:54:56.865Z</time></trkpt><trkpt lat="39.1790546" lon="8.6029915"><ele>189.66666666666666</ele><time>2026-03-28T15:54:59.867Z</time></trkpt><trkpt lat="39.1791189" lon="8.6029474"><ele>194.33333333333331</ele><time>2026-03-28T15:55:11.863Z</time></trkpt><trkpt lat="39.1791941" lon="8.6029034"><ele>199.0</ele><time>2026-03-28T15:55:16.87Z</time></trkpt><trkpt lat="39.1792652" lon="8.6028802"><ele>198.99999999999997</ele><time>2026-03-28T15:55:19.872Z</time></trkpt><trkpt lat="39.1793229" lon="8.6028216"><ele>199.0</ele><time>2026-03-28T15:55:28.872Z</time></trkpt><trkpt lat="39.1793975" lon="8.602774"><ele>199.0</ele><time>2026-03-28T15:55:31.866Z</time></trkpt><trkpt lat="39.179492" lon="8.6027275"><ele>199.0</ele><time>2026-03-28T15:55:33.898Z</time></trkpt><trkpt lat="39.1795654" lon="8.6027436"><ele>198.99999999999997</ele><time>2026-03-28T15:55:35.876Z</time></trkpt><trkpt lat="39.1796167" lon="8.6028045"><ele>199.0</ele><time>2026-03-28T15:55:38.864Z</time></trkpt><trkpt lat="39.1796728" lon="8.6028746"><ele>198.99999999999997</ele><time>2026-03-28T15:55:42.856Z</time></trkpt><trkpt lat="39.1797512" lon="8.6029366"><ele>199.0</ele><time>2026-03-28T15:55:45.835Z</time></trkpt><trkpt lat="39.1798376" lon="8.6030003"><ele>199.0</ele><time>2026-03-28T15:55:48.856Z</time></trkpt><trkpt lat="39.179892" lon="8.6030442"><ele>199.0</ele><time>2026-03-28T15:55:50.864Z</time></trkpt><trkpt lat="39.1799843" lon="8.6030589"><ele>198.99999999999997</ele><time>2026-03-28T15:55:53.883Z</time></trkpt><trkpt lat="39.1800461" lon="8.6030996"><ele>199.0</ele><time>2026-03-28T15:55:58.881Z</time></trkpt><trkpt lat="39.18" lon="8.6031628"><ele>198.99999999999997</ele><time>2026-03-28T15:56:01.864Z</time></trkpt><trkpt lat="39.179927" lon="8.6032267"><ele>199.0</ele><time>2026-03-28T15:56:04.867Z</time></trkpt><trkpt lat="39.1798542" lon="8.603266"><ele>199.0</ele><time>2026-03-28T15:56:06.856Z</time></trkpt><trkpt lat="39.1797747" lon="8.603322"><ele>199.0</ele><time>2026-03-28T15:56:08.869Z</time></trkpt><trkpt lat="39.1796999" lon="8.6033731"><ele>198.99999999999997</ele><time>2026-03-28T15:56:10.873Z</time></trkpt><trkpt lat="39.1796194" lon="8.6034418"><ele>199.0</ele><time>2026-03-28T15:56:12.877Z</time></trkpt><trkpt lat="39.179537" lon="8.6035363"><ele>199.0</ele><time>2026-03-28T15:56:14.865Z</time></trkpt><trkpt lat="39.1794624" lon="8.6036439"><ele>199.0</ele><time>2026-03-28T15:56:16.864Z</time></trkpt><trkpt lat="39.1794098" lon="8.603722"><ele>199.0</ele><time>2026-03-28T15:56:18.869Z</time></trkpt><trkpt lat="39.1793169" lon="8.6038172"><ele>199.0</ele><time>2026-03-28T15:56:20.87Z</time></trkpt><trkpt lat="39.1792304" lon="8.6038761"><ele>199.0</ele><time>2026-03-28T15:56:22.879Z</time></trkpt><trkpt lat="39.1791335" lon="8.6039137"><ele>205.0</ele><time>2026-03-28T15:56:24.841Z</time></trkpt><trkpt lat="39.1790635" lon="8.6039459"><ele>211.0</ele><time>2026-03-28T15:56:26.866Z</time></trkpt><trkpt lat="39.1789706" lon="8.6039805"><ele>216.99999999999997</ele><time>2026-03-28T15:56:29.873Z</time></trkpt><trkpt lat="39.1788766" lon="8.6040099"><ele>223.0</ele><time>2026-03-28T15:56:31.88Z</time></trkpt><trkpt lat="39.1787822" lon="8.6040436"><ele>229.0</ele><time>2026-03-28T15:56:33.862Z</time></trkpt><trkpt lat="39.1786931" lon="8.6041101"><ele>228.99999999999997</ele><time>2026-03-28T15:56:35.884Z</time></trkpt><trkpt lat="39.1786053" lon="8.6042108"><ele>229.0</ele><time>2026-03-28T15:56:37.852Z</time></trkpt><trkpt lat="39.1785612" lon="8.6042702"><ele>229.0</ele><time>2026-03-28T15:56:38.861Z</time></trkpt><trkpt lat="39.1785141" lon="8.6043243"><ele>229.0</ele><time>2026-03-28T15:56:39.866Z</time></trkpt><trkpt lat="39.1784674" lon="8.6043838"><ele>228.99999999999997</ele><time>2026-03-28T15:56:40.866Z</time></trkpt><trkpt lat="39.1783942" lon="8.6044313"><ele>229.0</ele><time>2026-03-28T15:57:38.874Z</time></trkpt><trkpt lat="39.1783237" lon="8.604524"><ele>230.6</ele><time>2026-03-28T15:57:41.92Z</time></trkpt><trkpt lat="39.1782691" lon="8.6046132"><ele>232.2</ele><time>2026-03-28T15:57:42.877Z</time></trkpt><trkpt lat="39.1782609" lon="8.6047484"><ele>233.79999999999998</ele><time>2026-03-28T15:57:44.871Z</time></trkpt><trkpt lat="39.1783168" lon="8.604825"><ele>235.39999999999998</ele><time>2026-03-28T15:57:46.872Z</time></trkpt><trkpt lat="39.1783785" lon="8.6048014"><ele>237.0</ele><time>2026-03-28T15:57:48.828Z</time></trkpt><trkpt lat="39.1784738" lon="8.6047189"><ele>237.0</ele><time>2026-03-28T15:57:51.75Z</time></trkpt><trkpt lat="39.1785216" lon="8.6046417"><ele>237.0</ele><time>2026-03-28T15:57:53.881Z</time></trkpt><trkpt lat="39.1785556" lon="8.6047371"><ele>237.0</ele><time>2026-03-28T15:57:54.846Z</time></trkpt><trkpt lat="39.1786157" lon="8.6047803"><ele>237.0</ele><time>2026-03-28T16:02:33.828Z</time></trkpt><trkpt lat="39.1786917" lon="8.6048352"><ele>237.0</ele><time>2026-03-28T16:02:35.818Z</time></trkpt><trkpt lat="39.1787753" lon="8.6049302"><ele>237.0</ele><time>2026-03-28T16:02:37.818Z</time></trkpt><trkpt lat="39.1788066" lon="8.6050018"><ele>237.0</ele><time>2026-03-28T16:02:40.833Z</time></trkpt><trkpt lat="39.1788337" lon="8.6050929"><ele>237.0</ele><time>2026-03-28T16:02:48.87Z</time></trkpt><trkpt lat="39.1788495" lon="8.605221"><ele>237.0</ele><time>2026-03-28T16:02:50.853Z</time></trkpt><trkpt lat="39.178883" lon="8.6053561"><ele>237.0</ele><time>2026-03-28T16:02:52.872Z</time></trkpt><trkpt lat="39.1789331" lon="8.6054533"><ele>237.0</ele><time>2026-03-28T16:02:54.875Z</time></trkpt><trkpt lat="39.1789323" lon="8.6055642"><ele>236.1428571428571</ele><time>2026-03-28T16:02:56.867Z</time></trkpt><trkpt lat="39.1789113" lon="8.6056831"><ele>235.28571428571428</ele><time>2026-03-28T16:02:58.872Z</time></trkpt><trkpt lat="39.1788916" lon="8.6057608"><ele>234.42857142857142</ele><time>2026-03-28T16:03:00.882Z</time></trkpt><trkpt lat="39.1788742" lon="8.6058431"><ele>233.57142857142856</ele><time>2026-03-28T16:03:04.862Z</time></trkpt><trkpt lat="39.1789036" lon="8.6059151"><ele>232.71428571428572</ele><time>2026-03-28T16:04:28.877Z</time></trkpt><trkpt lat="39.178954" lon="8.6059768"><ele>231.85714285714286</ele><time>2026-03-28T16:05:05.846Z</time></trkpt><trkpt lat="39.1790095" lon="8.6060162"><ele>231.0</ele><time>2026-03-28T16:05:06.873Z</time></trkpt><trkpt lat="39.1790875" lon="8.606063"><ele>235.66666666666666</ele><time>2026-03-28T16:05:07.87Z</time></trkpt><trkpt lat="39.179165" lon="8.6061042"><ele>240.33333333333331</ele><time>2026-03-28T16:05:08.892Z</time></trkpt><trkpt lat="39.1792453" lon="8.6061322"><ele>245.0</ele><time>2026-03-28T16:05:09.889Z</time></trkpt><trkpt lat="39.1793207" lon="8.6061408"><ele>249.66666666666666</ele><time>2026-03-28T16:05:10.897Z</time></trkpt><trkpt lat="39.1793981" lon="8.6061506"><ele>254.33333333333331</ele><time>2026-03-28T16:05:11.887Z</time></trkpt><trkpt lat="39.1794819" lon="8.6061426"><ele>259.0</ele><time>2026-03-28T16:05:12.909Z</time></trkpt><trkpt lat="39.1795771" lon="8.6061343"><ele>259.0</ele><time>2026-03-28T16:05:13.883Z</time></trkpt><trkpt lat="39.1796666" lon="8.6061346"><ele>259.0</ele><time>2026-03-28T16:05:14.883Z</time></trkpt><trkpt lat="39.1797449" lon="8.6061324"><ele>259.0</ele><time>2026-03-28T16:05:15.874Z</time></trkpt><trkpt lat="39.179819" lon="8.6061316"><ele>259.0</ele><time>2026-03-28T16:05:16.888Z</time></trkpt><trkpt lat="39.1799099" lon="8.6061372"><ele>259.0</ele><time>2026-03-28T16:05:18.894Z</time></trkpt><trkpt lat="39.1799861" lon="8.6061218"><ele>259.0</ele><time>2026-03-28T16:05:32.887Z</time></trkpt><trkpt lat="39.180039" lon="8.6061765"><ele>255.2</ele><time>2026-03-28T16:05:37.888Z</time></trkpt><trkpt lat="39.1799422" lon="8.606235"><ele>251.39999999999998</ele><time>2026-03-28T16:05:41.894Z</time></trkpt><trkpt lat="39.179818" lon="8.6062402"><ele>247.6</ele><time>2026-03-28T16:05:43.86Z</time></trkpt><trkpt lat="39.1797419" lon="8.6062265"><ele>243.8</ele><time>2026-03-28T16:05:44.862Z</time></trkpt><trkpt lat="39.1796609" lon="8.6062121"><ele>240.0</ele><time>2026-03-28T16:05:45.845Z</time></trkpt><trkpt lat="39.1795821" lon="8.6062012"><ele>239.5</ele><time>2026-03-28T16:05:46.87Z</time></trkpt><trkpt lat="39.1794674" lon="8.6062574"><ele>239.0</ele><time>2026-03-28T16:05:48.863Z</time></trkpt><trkpt lat="39.1794014" lon="8.606295"><ele>238.5</ele><time>2026-03-28T16:05:49.892Z</time></trkpt><trkpt lat="39.1793235" lon="8.6063264"><ele>238.0</ele><time>2026-03-28T16:05:50.884Z</time></trkpt><trkpt lat="39.1792413" lon="8.6063338"><ele>237.5</ele><time>2026-03-28T16:05:51.876Z</time></trkpt><trkpt lat="39.1791556" lon="8.606332"><ele>237.0</ele><time>2026-03-28T16:05:52.876Z</time></trkpt><trkpt lat="39.1790725" lon="8.6063232"><ele>235.5</ele><time>2026-03-28T16:05:53.841Z</time></trkpt><trkpt lat="39.1789954" lon="8.6063028"><ele>234.0</ele><time>2026-03-28T16:05:54.883Z</time></trkpt><trkpt lat="39.1789161" lon="8.6062616"><ele>232.5</ele><time>2026-03-28T16:05:55.87Z</time></trkpt><trkpt lat="39.1788329" lon="8.6062182"><ele>231.0</ele><time>2026-03-28T16:05:56.869Z</time></trkpt><trkpt lat="39.1787545" lon="8.6062051"><ele>229.5</ele><time>2026-03-28T16:05:57.882Z</time></trkpt><trkpt lat="39.1786823" lon="8.6062231"><ele>228.0</ele><time>2026-03-28T16:05:58.852Z</time></trkpt><trkpt lat="39.1786229" lon="8.6062647"><ele>228.0</ele><time>2026-03-28T16:05:59.868Z</time></trkpt><trkpt lat="39.1785198" lon="8.6063069"><ele>228.0</ele><time>2026-03-28T16:06:01.878Z</time></trkpt><trkpt lat="39.1785239" lon="8.6064145"><ele>228.0</ele><time>2026-03-28T16:06:04.864Z</time></trkpt><trkpt lat="39.1786035" lon="8.6064163"><ele>228.0</ele><time>2026-03-28T16:06:06.905Z</time></trkpt><trkpt lat="39.1786709" lon="8.6064056"><ele>228.0</ele><time>2026-03-28T16:06:07.833Z</time></trkpt><trkpt lat="39.1787432" lon="8.60641"><ele>228.0</ele><time>2026-03-28T16:06:08.901Z</time></trkpt><trkpt lat="39.1788352" lon="8.6064391"><ele>228.0</ele><time>2026-03-28T16:06:10.88Z</time></trkpt><trkpt lat="39.1789" lon="8.6065413"><ele>228.0</ele><time>2026-03-28T16:06:12.87Z</time></trkpt><trkpt lat="39.178941" lon="8.6066196"><ele>228.0</ele><time>2026-03-28T16:06:13.85Z</time></trkpt><trkpt lat="39.1789879" lon="8.6066753"><ele>228.0</ele><time>2026-03-28T16:06:14.874Z</time></trkpt><trkpt lat="39.1790845" lon="8.6067437"><ele>228.0</ele><time>2026-03-28T16:06:16.853Z</time></trkpt><trkpt lat="39.1791858" lon="8.6067965"><ele>229.8</ele><time>2026-03-28T16:06:18.88Z</time></trkpt><trkpt lat="39.1793152" lon="8.6068449"><ele>231.60000000000002</ele><time>2026-03-28T16:06:20.858Z</time></trkpt><trkpt lat="39.1793857" lon="8.6068586"><ele>233.39999999999998</ele><time>2026-03-28T16:06:21.864Z</time></trkpt><trkpt lat="39.1794872" lon="8.606931"><ele>235.2</ele><time>2026-03-28T16:06:23.868Z</time></trkpt><trkpt lat="39.1795673" lon="8.6070511"><ele>237.0</ele><time>2026-03-28T16:06:25.863Z</time></trkpt><trkpt lat="39.1796257" lon="8.6070834"><ele>233.33333333333334</ele><time>2026-03-28T16:06:26.881Z</time></trkpt><trkpt lat="39.1796909" lon="8.6070949"><ele>229.66666666666669</ele><time>2026-03-28T16:06:27.83Z</time></trkpt><trkpt lat="39.1797634" lon="8.6070991"><ele>226.0</ele><time>2026-03-28T16:06:28.876Z</time></trkpt><trkpt lat="39.1798423" lon="8.6070907"><ele>222.33333333333334</ele><time>2026-03-28T16:06:29.858Z</time></trkpt><trkpt lat="39.1799296" lon="8.6070742"><ele>218.66666666666669</ele><time>2026-03-28T16:06:30.869Z</time></trkpt><trkpt lat="39.1800079" lon="8.6070675"><ele>215.0</ele><time>2026-03-28T16:06:31.887Z</time></trkpt><trkpt lat="39.1800773" lon="8.6070704"><ele>215.00000000000003</ele><time>2026-03-28T16:06:32.877Z</time></trkpt><trkpt lat="39.1801434" lon="8.6070697"><ele>215.0</ele><time>2026-03-28T16:06:33.875Z</time></trkpt><trkpt lat="39.1802055" lon="8.607085"><ele>215.0</ele><time>2026-03-28T16:06:34.858Z</time></trkpt><trkpt lat="39.1801508" lon="8.6071443"><ele>215.0</ele><time>2026-03-28T16:06:39.877Z</time></trkpt><trkpt lat="39.1800768" lon="8.6071452"><ele>215.00000000000003</ele><time>2026-03-28T16:06:40.876Z</time></trkpt><trkpt lat="39.1799899" lon="8.6071862"><ele>215.0</ele><time>2026-03-28T16:06:41.874Z</time></trkpt><trkpt lat="39.179909" lon="8.607239"><ele>214.4</ele><time>2026-03-28T16:06:42.833Z</time></trkpt><trkpt lat="39.1798291" lon="8.6073155"><ele>213.8</ele><time>2026-03-28T16:06:43.875Z</time></trkpt><trkpt lat="39.1797396" lon="8.6074094"><ele>213.2</ele><time>2026-03-28T16:06:44.869Z</time></trkpt><trkpt lat="39.1796463" lon="8.6074959"><ele>212.6</ele><time>2026-03-28T16:06:45.854Z</time></trkpt><trkpt lat="39.1795529" lon="8.6075642"><ele>212.0</ele><time>2026-03-28T16:06:46.853Z</time></trkpt><trkpt lat="39.1794639" lon="8.6076321"><ele>212.0</ele><time>2026-03-28T16:06:47.861Z</time></trkpt><trkpt lat="39.1793733" lon="8.6077038"><ele>212.0</ele><time>2026-03-28T16:06:48.876Z</time></trkpt><trkpt lat="39.1792983" lon="8.6077806"><ele>212.0</ele><time>2026-03-28T16:06:49.893Z</time></trkpt><trkpt lat="39.1792304" lon="8.6078358"><ele>212.0</ele><time>2026-03-28T16:06:50.863Z</time></trkpt><trkpt lat="39.1791269" lon="8.6078941"><ele>212.0</ele><time>2026-03-28T16:06:52.846Z</time></trkpt><trkpt lat="39.1791093" lon="8.6079825"><ele>208.33333333333334</ele><time>2026-03-28T16:06:55.863Z</time></trkpt><trkpt lat="39.1791743" lon="8.6080085"><ele>204.66666666666669</ele><time>2026-03-28T16:06:58.874Z</time></trkpt><trkpt lat="39.1792547" lon="8.608012"><ele>201.0</ele><time>2026-03-28T16:07:00.881Z</time></trkpt><trkpt lat="39.179324" lon="8.6080164"><ele>197.33333333333334</ele><time>2026-03-28T16:07:01.858Z</time></trkpt><trkpt lat="39.1794005" lon="8.608017"><ele>193.66666666666669</ele><time>2026-03-28T16:07:02.849Z</time></trkpt><trkpt lat="39.1794833" lon="8.608014"><ele>190.0</ele><time>2026-03-28T16:07:03.849Z</time></trkpt><trkpt lat="39.1795653" lon="8.6079939"><ele>190.0</ele><time>2026-03-28T16:07:04.874Z</time></trkpt><trkpt lat="39.1796432" lon="8.6079604"><ele>190.0</ele><time>2026-03-28T16:07:05.896Z</time></trkpt><trkpt lat="39.1797101" lon="8.6079214"><ele>190.0</ele><time>2026-03-28T16:07:06.841Z</time></trkpt><trkpt lat="39.1798067" lon="8.6078893"><ele>190.0</ele><time>2026-03-28T16:07:08.883Z</time></trkpt><trkpt lat="39.1798787" lon="8.6079103"><ele>190.0</ele><time>2026-03-28T16:07:10.872Z</time></trkpt><trkpt lat="39.1799363" lon="8.607958"><ele>190.0</ele><time>2026-03-28T16:07:13.875Z</time></trkpt><trkpt lat="39.1798633" lon="8.6080032"><ele>190.0</ele><time>2026-03-28T16:07:18.882Z</time></trkpt><trkpt lat="39.1797761" lon="8.6080673"><ele>190.0</ele><time>2026-03-28T16:07:20.878Z</time></trkpt><trkpt lat="39.1797245" lon="8.608154"><ele>190.0</ele><time>2026-03-28T16:07:22.869Z</time></trkpt><trkpt lat="39.1797204" lon="8.608242"><ele>190.0</ele><time>2026-03-28T16:07:23.848Z</time></trkpt><trkpt lat="39.1797045" lon="8.6083405"><ele>190.0</ele><time>2026-03-28T16:07:24.847Z</time></trkpt><trkpt lat="39.1796852" lon="8.6084197"><ele>190.0</ele><time>2026-03-28T16:07:25.862Z</time></trkpt><trkpt lat="39.1796417" lon="8.6084995"><ele>190.0</ele><time>2026-03-28T16:07:26.875Z</time></trkpt><trkpt lat="39.1795849" lon="8.6085741"><ele>190.0</ele><time>2026-03-28T16:07:27.858Z</time></trkpt><trkpt lat="39.1795134" lon="8.608625"><ele>190.0</ele><time>2026-03-28T16:07:28.843Z</time></trkpt><trkpt lat="39.1794386" lon="8.6086766"><ele>190.0</ele><time>2026-03-28T16:07:29.879Z</time></trkpt><trkpt lat="39.179345" lon="8.6086921"><ele>190.0</ele><time>2026-03-28T16:07:31.875Z</time></trkpt><trkpt lat="39.1792867" lon="8.608727"><ele>190.0</ele><time>2026-03-28T16:07:33.859Z</time></trkpt><trkpt lat="39.1792258" lon="8.6088049"><ele>187.83333333333334</ele><time>2026-03-28T16:07:35.87Z</time></trkpt><trkpt lat="39.1791525" lon="8.6088808"><ele>185.66666666666669</ele><time>2026-03-28T16:07:37.854Z</time></trkpt><trkpt lat="39.1790817" lon="8.6089235"><ele>183.5</ele><time>2026-03-28T16:07:52.868Z</time></trkpt><trkpt lat="39.1790026" lon="8.6089672"><ele>181.33333333333334</ele><time>2026-03-28T16:07:55.852Z</time></trkpt><trkpt lat="39.1789306" lon="8.6089832"><ele>179.16666666666666</ele><time>2026-03-28T16:07:58.856Z</time></trkpt><trkpt lat="39.1788545" lon="8.6090065"><ele>177.0</ele><time>2026-03-28T16:08:01.859Z</time></trkpt><trkpt lat="39.1787116" lon="8.6090571"><ele>174.66666666666666</ele><time>2026-03-28T16:08:03.875Z</time></trkpt><trkpt lat="39.178627" lon="8.6090988"><ele>172.33333333333334</ele><time>2026-03-28T16:08:04.864Z</time></trkpt><trkpt lat="39.1785486" lon="8.6091389"><ele>170.0</ele><time>2026-03-28T16:08:05.855Z</time></trkpt><trkpt lat="39.1784771" lon="8.6091716"><ele>167.66666666666669</ele><time>2026-03-28T16:08:06.831Z</time></trkpt><trkpt lat="39.1784142" lon="8.6092234"><ele>165.33333333333334</ele><time>2026-03-28T16:08:07.845Z</time></trkpt><trkpt lat="39.1783455" lon="8.6092905"><ele>163.0</ele><time>2026-03-28T16:08:08.883Z</time></trkpt><trkpt lat="39.1782769" lon="8.6093632"><ele>163.0</ele><time>2026-03-28T16:08:09.855Z</time></trkpt><trkpt lat="39.1782145" lon="8.6094309"><ele>163.0</ele><time>2026-03-28T16:08:10.853Z</time></trkpt><trkpt lat="39.1781605" lon="8.6094969"><ele>163.0</ele><time>2026-03-28T16:08:11.868Z</time></trkpt><trkpt lat="39.1780827" lon="8.6095739"><ele>163.0</ele><time>2026-03-28T16:08:13.866Z</time></trkpt><trkpt lat="39.1780263" lon="8.6096181"><ele>163.0</ele><time>2026-03-28T16:08:15.816Z</time></trkpt><trkpt lat="39.1779206" lon="8.6096134"><ele>163.0</ele><time>2026-03-28T16:08:18.866Z</time></trkpt><trkpt lat="39.1778266" lon="8.6095559"><ele>161.33333333333334</ele><time>2026-03-28T16:08:20.819Z</time></trkpt><trkpt lat="39.1777334" lon="8.6095547"><ele>159.66666666666669</ele><time>2026-03-28T16:08:22.863Z</time></trkpt><trkpt lat="39.1776528" lon="8.6095683"><ele>158.0</ele><time>2026-03-28T16:08:24.875Z</time></trkpt><trkpt lat="39.1775887" lon="8.6096135"><ele>156.33333333333334</ele><time>2026-03-28T16:08:26.868Z</time></trkpt><trkpt lat="39.1775126" lon="8.6096378"><ele>154.66666666666666</ele><time>2026-03-28T16:08:28.862Z</time></trkpt><trkpt lat="39.1774257" lon="8.609689"><ele>153.0</ele><time>2026-03-28T16:08:30.853Z</time></trkpt><trkpt lat="39.1773437" lon="8.6097493"><ele>153.0</ele><time>2026-03-28T16:08:32.87Z</time></trkpt><trkpt lat="39.1772704" lon="8.6097962"><ele>153.0</ele><time>2026-03-28T16:08:34.858Z</time></trkpt><trkpt lat="39.1772007" lon="8.6098443"><ele>153.0</ele><time>2026-03-28T16:08:37.853Z</time></trkpt><trkpt lat="39.1771366" lon="8.6098955"><ele>153.0</ele><time>2026-03-28T16:08:41.871Z</time></trkpt><trkpt lat="39.177083" lon="8.6099629"><ele>153.0</ele><time>2026-03-28T16:09:00.866Z</time></trkpt><trkpt lat="39.1770316" lon="8.610013"><ele>153.0</ele><time>2026-03-28T16:09:03.844Z</time></trkpt><trkpt lat="39.1768708" lon="8.6100883"><ele>153.0</ele><time>2026-03-28T16:09:05.879Z</time></trkpt><trkpt lat="39.1767483" lon="8.6101504"><ele>153.0</ele><time>2026-03-28T16:09:06.857Z</time></trkpt><trkpt lat="39.1766443" lon="8.6101967"><ele>153.0</ele><time>2026-03-28T16:09:07.84Z</time></trkpt><trkpt lat="39.1765563" lon="8.6102354"><ele>153.0</ele><time>2026-03-28T16:09:08.886Z</time></trkpt><trkpt lat="39.1764758" lon="8.6102905"><ele>153.0</ele><time>2026-03-28T16:09:09.88Z</time></trkpt><trkpt lat="39.1763938" lon="8.6103346"><ele>151.0</ele><time>2026-03-28T16:09:10.861Z</time></trkpt><trkpt lat="39.1763252" lon="8.6103793"><ele>149.0</ele><time>2026-03-28T16:09:11.851Z</time></trkpt><trkpt lat="39.1762437" lon="8.6104144"><ele>147.0</ele><time>2026-03-28T16:09:12.85Z</time></trkpt><trkpt lat="39.1761648" lon="8.6104458"><ele>145.0</ele><time>2026-03-28T16:09:13.846Z</time></trkpt><trkpt lat="39.1760792" lon="8.6104858"><ele>143.0</ele><time>2026-03-28T16:09:14.823Z</time></trkpt><trkpt lat="39.1759967" lon="8.6105229"><ele>141.0</ele><time>2026-03-28T16:09:15.858Z</time></trkpt><trkpt lat="39.1759218" lon="8.6105671"><ele>141.0</ele><time>2026-03-28T16:09:16.848Z</time></trkpt><trkpt lat="39.1758467" lon="8.6106116"><ele>141.0</ele><time>2026-03-28T16:09:17.82Z</time></trkpt><trkpt lat="39.1757829" lon="8.6106533"><ele>141.0</ele><time>2026-03-28T16:09:18.846Z</time></trkpt><trkpt lat="39.1757216" lon="8.6106888"><ele>141.0</ele><time>2026-03-28T16:09:19.855Z</time></trkpt><trkpt lat="39.1755947" lon="8.6107182"><ele>141.0</ele><time>2026-03-28T16:09:21.856Z</time></trkpt><trkpt lat="39.1755302" lon="8.6107493"><ele>141.0</ele><time>2026-03-28T16:09:22.859Z</time></trkpt><trkpt lat="39.1754644" lon="8.6107814"><ele>140.33333333333334</ele><time>2026-03-28T16:09:23.828Z</time></trkpt><trkpt lat="39.175391" lon="8.6108184"><ele>139.66666666666666</ele><time>2026-03-28T16:09:24.866Z</time></trkpt><trkpt lat="39.1753144" lon="8.6108625"><ele>139.0</ele><time>2026-03-28T16:09:25.865Z</time></trkpt><trkpt lat="39.1752381" lon="8.6109208"><ele>138.33333333333331</ele><time>2026-03-28T16:09:26.85Z</time></trkpt><trkpt lat="39.1751526" lon="8.6109655"><ele>137.66666666666666</ele><time>2026-03-28T16:09:27.845Z</time></trkpt><trkpt lat="39.1750729" lon="8.6110067"><ele>137.0</ele><time>2026-03-28T16:09:28.856Z</time></trkpt><trkpt lat="39.174994" lon="8.6110433"><ele>137.0</ele><time>2026-03-28T16:09:29.858Z</time></trkpt><trkpt lat="39.1749142" lon="8.6110769"><ele>137.0</ele><time>2026-03-28T16:09:30.853Z</time></trkpt><trkpt lat="39.174831" lon="8.6111117"><ele>137.0</ele><time>2026-03-28T16:09:31.853Z</time></trkpt><trkpt lat="39.1747579" lon="8.6111415"><ele>137.0</ele><time>2026-03-28T16:09:32.869Z</time></trkpt><trkpt lat="39.1746838" lon="8.6111653"><ele>137.0</ele><time>2026-03-28T16:09:33.857Z</time></trkpt><trkpt lat="39.1746229" lon="8.6111893"><ele>137.0</ele><time>2026-03-28T16:09:34.857Z</time></trkpt><trkpt lat="39.1745328" lon="8.611242"><ele>133.2</ele><time>2026-03-28T16:09:36.875Z</time></trkpt><trkpt lat="39.1744571" lon="8.6112663"><ele>129.39999999999998</ele><time>2026-03-28T16:09:38.862Z</time></trkpt><trkpt lat="39.1743657" lon="8.61125"><ele>125.60000000000001</ele><time>2026-03-28T16:09:41.867Z</time></trkpt><trkpt lat="39.1742924" lon="8.6113213"><ele>121.80000000000001</ele><time>2026-03-28T16:09:43.867Z</time></trkpt><trkpt lat="39.174227" lon="8.6114343"><ele>118.0</ele><time>2026-03-28T16:09:45.857Z</time></trkpt><trkpt lat="39.1741503" lon="8.6115221"><ele>118.0</ele><time>2026-03-28T16:09:47.862Z</time></trkpt><trkpt lat="39.1740821" lon="8.6116119"><ele>118.00000000000001</ele><time>2026-03-28T16:09:49.902Z</time></trkpt><trkpt lat="39.1740123" lon="8.6116739"><ele>118.00000000000001</ele><time>2026-03-28T16:09:52.867Z</time></trkpt><trkpt lat="39.1739558" lon="8.6117604"><ele>118.0</ele><time>2026-03-28T16:09:55.869Z</time></trkpt><trkpt lat="39.1738955" lon="8.611849"><ele>118.0</ele><time>2026-03-28T16:09:58.863Z</time></trkpt><trkpt lat="39.1738373" lon="8.6119484"><ele>119.80000000000001</ele><time>2026-03-28T16:10:00.873Z</time></trkpt><trkpt lat="39.1737974" lon="8.6120225"><ele>121.60000000000001</ele><time>2026-03-28T16:10:01.879Z</time></trkpt><trkpt lat="39.1737595" lon="8.6121171"><ele>123.39999999999999</ele><time>2026-03-28T16:10:02.881Z</time></trkpt><trkpt lat="39.1737415" lon="8.6122072"><ele>125.19999999999999</ele><time>2026-03-28T16:10:03.885Z</time></trkpt><trkpt lat="39.1737225" lon="8.6123489"><ele>127.0</ele><time>2026-03-28T16:10:05.878Z</time></trkpt><trkpt lat="39.173634" lon="8.6124705"><ele>127.0</ele><time>2026-03-28T16:10:07.876Z</time></trkpt><trkpt lat="39.173562" lon="8.6125176"><ele>126.99999999999999</ele><time>2026-03-28T16:10:08.88Z</time></trkpt><trkpt lat="39.1734734" lon="8.6125633"><ele>126.99999999999999</ele><time>2026-03-28T16:10:09.876Z</time></trkpt><trkpt lat="39.1733784" lon="8.6126079"><ele>127.0</ele><time>2026-03-28T16:10:10.889Z</time></trkpt><trkpt lat="39.173289" lon="8.6126431"><ele>127.0</ele><time>2026-03-28T16:10:11.892Z</time></trkpt><trkpt lat="39.1731978" lon="8.6126848"><ele>127.83333333333334</ele><time>2026-03-28T16:10:12.895Z</time></trkpt><trkpt lat="39.1731117" lon="8.61271"><ele>128.66666666666669</ele><time>2026-03-28T16:10:13.88Z</time></trkpt><trkpt lat="39.1730459" lon="8.6127373"><ele>129.5</ele><time>2026-03-28T16:10:14.895Z</time></trkpt><trkpt lat="39.1729717" lon="8.6127684"><ele>130.33333333333334</ele><time>2026-03-28T16:10:15.839Z</time></trkpt><trkpt lat="39.1728909" lon="8.6127957"><ele>131.16666666666666</ele><time>2026-03-28T16:10:16.896Z</time></trkpt><trkpt lat="39.1728176" lon="8.6128186"><ele>132.0</ele><time>2026-03-28T16:10:17.886Z</time></trkpt><trkpt lat="39.1727484" lon="8.6128291"><ele>132.0</ele><time>2026-03-28T16:10:18.894Z</time></trkpt><trkpt lat="39.1726269" lon="8.6128043"><ele>132.0</ele><time>2026-03-28T16:10:20.89Z</time></trkpt><trkpt lat="39.1725671" lon="8.6128422"><ele>132.0</ele><time>2026-03-28T16:10:22.907Z</time></trkpt><trkpt lat="39.1725468" lon="8.6129718"><ele>132.0</ele><time>2026-03-28T16:10:24.828Z</time></trkpt><trkpt lat="39.172551" lon="8.6130756"><ele>132.0</ele><time>2026-03-28T16:10:25.875Z</time></trkpt><trkpt lat="39.1725559" lon="8.6131859"><ele>132.0</ele><time>2026-03-28T16:10:27.864Z</time></trkpt><trkpt lat="39.1725738" lon="8.6132693"><ele>132.0</ele><time>2026-03-28T16:10:32.885Z</time></trkpt><trkpt lat="39.1726868" lon="8.613325"><ele>132.0</ele><time>2026-03-28T16:10:34.885Z</time></trkpt><trkpt lat="39.1727722" lon="8.6133833"><ele>132.0</ele><time>2026-03-28T16:10:35.864Z</time></trkpt><trkpt lat="39.172829" lon="8.6134603"><ele>132.0</ele><time>2026-03-28T16:10:36.869Z</time></trkpt><trkpt lat="39.1728807" lon="8.6135208"><ele>132.0</ele><time>2026-03-28T16:10:37.894Z</time></trkpt><trkpt lat="39.172936" lon="8.6135837"><ele>132.0</ele><time>2026-03-28T16:10:38.871Z</time></trkpt><trkpt lat="39.1729887" lon="8.6136482"><ele>132.0</ele><time>2026-03-28T16:10:39.883Z</time></trkpt><trkpt lat="39.1730408" lon="8.6137185"><ele>132.0</ele><time>2026-03-28T16:10:40.859Z</time></trkpt><trkpt lat="39.1730837" lon="8.6138052"><ele>132.0</ele><time>2026-03-28T16:10:41.878Z</time></trkpt><trkpt lat="39.1731233" lon="8.6139019"><ele>132.0</ele><time>2026-03-28T16:10:42.882Z</time></trkpt><trkpt lat="39.1731556" lon="8.6140054"><ele>132.0</ele><time>2026-03-28T16:10:43.874Z</time></trkpt><trkpt lat="39.1731951" lon="8.6140985"><ele>132.14285714285714</ele><time>2026-03-28T16:10:44.879Z</time></trkpt><trkpt lat="39.1732328" lon="8.6141831"><ele>132.28571428571428</ele><time>2026-03-28T16:10:45.869Z</time></trkpt><trkpt lat="39.1732777" lon="8.6142603"><ele>132.42857142857144</ele><time>2026-03-28T16:10:46.892Z</time></trkpt><trkpt lat="39.1733288" lon="8.6143287"><ele>132.57142857142856</ele><time>2026-03-28T16:10:47.88Z</time></trkpt><trkpt lat="39.1733859" lon="8.6143962"><ele>132.71428571428572</ele><time>2026-03-28T16:10:48.881Z</time></trkpt><trkpt lat="39.17344" lon="8.6144613"><ele>132.85714285714286</ele><time>2026-03-28T16:10:49.9Z</time></trkpt><trkpt lat="39.1734905" lon="8.614523"><ele>133.0</ele><time>2026-03-28T16:10:50.868Z</time></trkpt><trkpt lat="39.1735369" lon="8.6145892"><ele>133.0</ele><time>2026-03-28T16:10:51.845Z</time></trkpt><trkpt lat="39.1735832" lon="8.6146526"><ele>133.0</ele><time>2026-03-28T16:10:52.879Z</time></trkpt><trkpt lat="39.1736333" lon="8.614711"><ele>133.0</ele><time>2026-03-28T16:10:53.891Z</time></trkpt><trkpt lat="39.1736814" lon="8.6147643"><ele>133.0</ele><time>2026-03-28T16:10:54.889Z</time></trkpt><trkpt lat="39.1737415" lon="8.6148423"><ele>133.0</ele><time>2026-03-28T16:10:55.888Z</time></trkpt><trkpt lat="39.1738299" lon="8.61495"><ele>133.0</ele><time>2026-03-28T16:10:56.864Z</time></trkpt><trkpt lat="39.1739278" lon="8.6150833"><ele>135.33333333333334</ele><time>2026-03-28T16:10:57.873Z</time></trkpt><trkpt lat="39.1740312" lon="8.6152256"><ele>137.66666666666666</ele><time>2026-03-28T16:10:58.869Z</time></trkpt><trkpt lat="39.174138" lon="8.6153652"><ele>140.0</ele><time>2026-03-28T16:10:59.885Z</time></trkpt><trkpt lat="39.1742465" lon="8.6154927"><ele>140.5</ele><time>2026-03-28T16:11:00.861Z</time></trkpt><trkpt lat="39.1743545" lon="8.6156246"><ele>141.0</ele><time>2026-03-28T16:11:01.872Z</time></trkpt><trkpt lat="39.1744555" lon="8.6157462"><ele>141.5</ele><time>2026-03-28T16:11:02.874Z</time></trkpt><trkpt lat="39.1745449" lon="8.6158609"><ele>142.0</ele><time>2026-03-28T16:11:03.865Z</time></trkpt><trkpt lat="39.1746355" lon="8.6159794"><ele>142.0</ele><time>2026-03-28T16:11:04.888Z</time></trkpt><trkpt lat="39.1747199" lon="8.6160892"><ele>142.0</ele><time>2026-03-28T16:11:05.887Z</time></trkpt><trkpt lat="39.1747862" lon="8.6162024"><ele>142.0</ele><time>2026-03-28T16:11:06.875Z</time></trkpt><trkpt lat="39.1748268" lon="8.6163222"><ele>142.0</ele><time>2026-03-28T16:11:07.872Z</time></trkpt><trkpt lat="39.1748347" lon="8.6164462"><ele>142.0</ele><time>2026-03-28T16:11:08.889Z</time></trkpt><trkpt lat="39.1748081" lon="8.6165812"><ele>142.5</ele><time>2026-03-28T16:11:09.861Z</time></trkpt><trkpt lat="39.1747611" lon="8.6167159"><ele>143.0</ele><time>2026-03-28T16:11:10.843Z</time></trkpt><trkpt lat="39.1747026" lon="8.6168576"><ele>143.5</ele><time>2026-03-28T16:11:11.886Z</time></trkpt><trkpt lat="39.1746412" lon="8.6169932"><ele>144.0</ele><time>2026-03-28T16:11:12.889Z</time></trkpt><trkpt lat="39.174583" lon="8.6171325"><ele>145.0</ele><time>2026-03-28T16:11:13.89Z</time></trkpt><trkpt lat="39.1745301" lon="8.6172658"><ele>146.0</ele><time>2026-03-28T16:11:14.881Z</time></trkpt><trkpt lat="39.1744793" lon="8.6173948"><ele>147.0</ele><time>2026-03-28T16:11:15.868Z</time></trkpt><trkpt lat="39.1744352" lon="8.6175151"><ele>148.0</ele><time>2026-03-28T16:11:16.886Z</time></trkpt><trkpt lat="39.1744043" lon="8.6176237"><ele>149.0</ele><time>2026-03-28T16:11:17.858Z</time></trkpt><trkpt lat="39.1743826" lon="8.6177142"><ele>149.33333333333331</ele><time>2026-03-28T16:11:18.892Z</time></trkpt><trkpt lat="39.1743576" lon="8.617822"><ele>149.66666666666666</ele><time>2026-03-28T16:11:20.897Z</time></trkpt><trkpt lat="39.1743403" lon="8.6179095"><ele>150.0</ele><time>2026-03-28T16:11:22.874Z</time></trkpt><trkpt lat="39.1743099" lon="8.6179843"><ele>150.33333333333334</ele><time>2026-03-28T16:11:24.891Z</time></trkpt><trkpt lat="39.1742388" lon="8.6180148"><ele>150.66666666666669</ele><time>2026-03-28T16:11:27.88Z</time></trkpt><trkpt lat="39.1741605" lon="8.6180375"><ele>151.0</ele><time>2026-03-28T16:11:40.868Z</time></trkpt><trkpt lat="39.1741702" lon="8.6181452"><ele>151.0</ele><time>2026-03-28T16:11:42.894Z</time></trkpt><trkpt lat="39.1741879" lon="8.618224"><ele>151.0</ele><time>2026-03-28T16:11:43.876Z</time></trkpt><trkpt lat="39.174206" lon="8.6183217"><ele>151.0</ele><time>2026-03-28T16:11:44.877Z</time></trkpt><trkpt lat="39.1742211" lon="8.6184299"><ele>151.0</ele><time>2026-03-28T16:11:45.882Z</time></trkpt><trkpt lat="39.1742055" lon="8.6185271"><ele>151.0</ele><time>2026-03-28T16:11:46.881Z</time></trkpt><trkpt lat="39.1741718" lon="8.6186432"><ele>151.0</ele><time>2026-03-28T16:11:47.886Z</time></trkpt><trkpt lat="39.1741358" lon="8.618768"><ele>150.6</ele><time>2026-03-28T16:11:48.895Z</time></trkpt><trkpt lat="39.174102" lon="8.6188887"><ele>150.2</ele><time>2026-03-28T16:11:49.89Z</time></trkpt><trkpt lat="39.1740707" lon="8.6190212"><ele>149.8</ele><time>2026-03-28T16:11:50.861Z</time></trkpt><trkpt lat="39.1740313" lon="8.6191553"><ele>149.4</ele><time>2026-03-28T16:11:51.885Z</time></trkpt><trkpt lat="39.1739954" lon="8.6192814"><ele>149.0</ele><time>2026-03-28T16:11:52.879Z</time></trkpt><trkpt lat="39.1739647" lon="8.6194021"><ele>148.4</ele><time>2026-03-28T16:11:53.877Z</time></trkpt><trkpt lat="39.1739362" lon="8.6195153"><ele>147.8</ele><time>2026-03-28T16:11:54.867Z</time></trkpt><trkpt lat="39.1739052" lon="8.6196283"><ele>147.2</ele><time>2026-03-28T16:11:55.898Z</time></trkpt><trkpt lat="39.173872" lon="8.6197405"><ele>146.6</ele><time>2026-03-28T16:11:56.895Z</time></trkpt><trkpt lat="39.173835" lon="8.6198571"><ele>146.0</ele><time>2026-03-28T16:11:57.879Z</time></trkpt><trkpt lat="39.1737964" lon="8.6199862"><ele>146.0</ele><time>2026-03-28T16:11:58.893Z</time></trkpt><trkpt lat="39.1737617" lon="8.6201197"><ele>146.0</ele><time>2026-03-28T16:11:59.894Z</time></trkpt><trkpt lat="39.1737239" lon="8.6202574"><ele>146.0</ele><time>2026-03-28T16:12:00.891Z</time></trkpt><trkpt lat="39.1736888" lon="8.6203908"><ele>146.0</ele><time>2026-03-28T16:12:01.882Z</time></trkpt><trkpt lat="39.1736539" lon="8.6205258"><ele>146.0</ele><time>2026-03-28T16:12:02.868Z</time></trkpt><trkpt lat="39.1736173" lon="8.6206584"><ele>145.5</ele><time>2026-03-28T16:12:03.853Z</time></trkpt><trkpt lat="39.1735801" lon="8.6207951"><ele>145.0</ele><time>2026-03-28T16:12:04.891Z</time></trkpt><trkpt lat="39.173523" lon="8.620921"><ele>144.5</ele><time>2026-03-28T16:12:05.875Z</time></trkpt><trkpt lat="39.1734465" lon="8.6210517"><ele>144.0</ele><time>2026-03-28T16:12:06.874Z</time></trkpt><trkpt lat="39.1733593" lon="8.6211791"><ele>144.0</ele><time>2026-03-28T16:12:07.869Z</time></trkpt><trkpt lat="39.173264" lon="8.6213327"><ele>144.0</ele><time>2026-03-28T16:12:08.872Z</time></trkpt><trkpt lat="39.1731681" lon="8.6214998"><ele>144.0</ele><time>2026-03-28T16:12:09.87Z</time></trkpt><trkpt lat="39.1730734" lon="8.6216552"><ele>142.75</ele><time>2026-03-28T16:12:10.883Z</time></trkpt><trkpt lat="39.172981" lon="8.6218054"><ele>141.5</ele><time>2026-03-28T16:12:11.881Z</time></trkpt><trkpt lat="39.1728964" lon="8.6219563"><ele>140.25</ele><time>2026-03-28T16:12:12.901Z</time></trkpt><trkpt lat="39.1728107" lon="8.6220996"><ele>139.0</ele><time>2026-03-28T16:12:13.876Z</time></trkpt><trkpt lat="39.1727291" lon="8.6222433"><ele>139.0</ele><time>2026-03-28T16:12:14.886Z</time></trkpt><trkpt lat="39.1726429" lon="8.6223827"><ele>139.0</ele><time>2026-03-28T16:12:15.916Z</time></trkpt><trkpt lat="39.1725553" lon="8.6225305"><ele>139.0</ele><time>2026-03-28T16:12:16.857Z</time></trkpt><trkpt lat="39.1724665" lon="8.6226759"><ele>139.0</ele><time>2026-03-28T16:12:17.883Z</time></trkpt><trkpt lat="39.172375" lon="8.6228152"><ele>138.0</ele><time>2026-03-28T16:12:18.904Z</time></trkpt><trkpt lat="39.1722874" lon="8.6229448"><ele>137.0</ele><time>2026-03-28T16:12:19.916Z</time></trkpt><trkpt lat="39.1722053" lon="8.6230663"><ele>136.0</ele><time>2026-03-28T16:12:20.892Z</time></trkpt><trkpt lat="39.1721278" lon="8.6231946"><ele>135.0</ele><time>2026-03-28T16:12:21.869Z</time></trkpt><trkpt lat="39.1720483" lon="8.6233205"><ele>135.0</ele><time>2026-03-28T16:12:22.906Z</time></trkpt><trkpt lat="39.1719674" lon="8.6234505"><ele>135.0</ele><time>2026-03-28T16:12:23.884Z</time></trkpt><trkpt lat="39.1718808" lon="8.6235886"><ele>135.0</ele><time>2026-03-28T16:12:24.894Z</time></trkpt><trkpt lat="39.1718024" lon="8.6237308"><ele>135.0</ele><time>2026-03-28T16:12:25.891Z</time></trkpt><trkpt lat="39.1717228" lon="8.6238616"><ele>135.5</ele><time>2026-03-28T16:12:26.893Z</time></trkpt><trkpt lat="39.1716521" lon="8.6239799"><ele>136.0</ele><time>2026-03-28T16:12:27.875Z</time></trkpt><trkpt lat="39.1715809" lon="8.624101"><ele>136.5</ele><time>2026-03-28T16:12:28.891Z</time></trkpt><trkpt lat="39.1715092" lon="8.6242201"><ele>137.0</ele><time>2026-03-28T16:12:29.893Z</time></trkpt><trkpt lat="39.1714317" lon="8.6243442"><ele>137.0</ele><time>2026-03-28T16:12:30.873Z</time></trkpt><trkpt lat="39.1713651" lon="8.6244565"><ele>137.0</ele><time>2026-03-28T16:12:31.905Z</time></trkpt><trkpt lat="39.1713011" lon="8.6245723"><ele>137.0</ele><time>2026-03-28T16:12:32.899Z</time></trkpt><trkpt lat="39.1712313" lon="8.6246845"><ele>137.0</ele><time>2026-03-28T16:12:33.867Z</time></trkpt><trkpt lat="39.171167" lon="8.6247861"><ele>137.0</ele><time>2026-03-28T16:12:34.904Z</time></trkpt><trkpt lat="39.1711123" lon="8.6248847"><ele>137.4</ele><time>2026-03-28T16:12:35.877Z</time></trkpt><trkpt lat="39.1710608" lon="8.6249673"><ele>137.79999999999998</ele><time>2026-03-28T16:12:36.916Z</time></trkpt><trkpt lat="39.1710102" lon="8.6250525"><ele>138.2</ele><time>2026-03-28T16:12:37.877Z</time></trkpt><trkpt lat="39.1709505" lon="8.6251614"><ele>138.6</ele><time>2026-03-28T16:12:38.871Z</time></trkpt><trkpt lat="39.1708805" lon="8.6253012"><ele>139.0</ele><time>2026-03-28T16:12:39.883Z</time></trkpt><trkpt lat="39.1708011" lon="8.6254463"><ele>139.4</ele><time>2026-03-28T16:12:40.882Z</time></trkpt><trkpt lat="39.1707264" lon="8.6255954"><ele>139.8</ele><time>2026-03-28T16:12:41.898Z</time></trkpt><trkpt lat="39.1706615" lon="8.6257143"><ele>140.2</ele><time>2026-03-28T16:12:42.888Z</time></trkpt><trkpt lat="39.1705958" lon="8.6258111"><ele>140.6</ele><time>2026-03-28T16:12:43.877Z</time></trkpt><trkpt lat="39.1705266" lon="8.6258969"><ele>141.0</ele><time>2026-03-28T16:12:44.865Z</time></trkpt><trkpt lat="39.1704629" lon="8.6259826"><ele>140.0</ele><time>2026-03-28T16:12:45.871Z</time></trkpt><trkpt lat="39.1704051" lon="8.6260678"><ele>139.0</ele><time>2026-03-28T16:12:46.889Z</time></trkpt><trkpt lat="39.1703475" lon="8.6261425"><ele>138.0</ele><time>2026-03-28T16:12:47.884Z</time></trkpt><trkpt lat="39.1702983" lon="8.6262105"><ele>137.0</ele><time>2026-03-28T16:12:48.9Z</time></trkpt><trkpt lat="39.1702523" lon="8.6262785"><ele>136.0</ele><time>2026-03-28T16:12:49.889Z</time></trkpt><trkpt lat="39.1702105" lon="8.626346"><ele>135.0</ele><time>2026-03-28T16:12:50.9Z</time></trkpt><trkpt lat="39.170168" lon="8.626412"><ele>134.0</ele><time>2026-03-28T16:12:51.888Z</time></trkpt><trkpt lat="39.1701228" lon="8.6264837"><ele>133.83333333333331</ele><time>2026-03-28T16:12:52.843Z</time></trkpt><trkpt lat="39.1700715" lon="8.626552"><ele>133.66666666666666</ele><time>2026-03-28T16:12:53.874Z</time></trkpt><trkpt lat="39.1700196" lon="8.6266231"><ele>133.5</ele><time>2026-03-28T16:12:54.89Z</time></trkpt><trkpt lat="39.169971" lon="8.6266976"><ele>133.33333333333334</ele><time>2026-03-28T16:12:55.906Z</time></trkpt><trkpt lat="39.169921" lon="8.6267753"><ele>133.16666666666669</ele><time>2026-03-28T16:12:56.898Z</time></trkpt><trkpt lat="39.169877" lon="8.6268606"><ele>133.0</ele><time>2026-03-28T16:12:57.902Z</time></trkpt><trkpt lat="39.1698253" lon="8.6269381"><ele>131.16666666666669</ele><time>2026-03-28T16:12:58.888Z</time></trkpt><trkpt lat="39.1697722" lon="8.6270173"><ele>129.33333333333334</ele><time>2026-03-28T16:12:59.871Z</time></trkpt><trkpt lat="39.1697193" lon="8.6270935"><ele>127.5</ele><time>2026-03-28T16:13:00.9Z</time></trkpt><trkpt lat="39.1696692" lon="8.6271614"><ele>125.66666666666666</ele><time>2026-03-28T16:13:01.892Z</time></trkpt><trkpt lat="39.1696234" lon="8.627232"><ele>123.83333333333333</ele><time>2026-03-28T16:13:02.89Z</time></trkpt><trkpt lat="39.1695676" lon="8.6273122"><ele>122.0</ele><time>2026-03-28T16:13:03.866Z</time></trkpt><trkpt lat="39.1694964" lon="8.6274089"><ele>122.0</ele><time>2026-03-28T16:13:04.884Z</time></trkpt><trkpt lat="39.1694051" lon="8.6275355"><ele>122.0</ele><time>2026-03-28T16:13:05.882Z</time></trkpt><trkpt lat="39.1693042" lon="8.6276824"><ele>122.0</ele><time>2026-03-28T16:13:06.891Z</time></trkpt><trkpt lat="39.1691982" lon="8.6278458"><ele>122.66666666666666</ele><time>2026-03-28T16:13:07.871Z</time></trkpt><trkpt lat="39.169101" lon="8.6280031"><ele>123.33333333333334</ele><time>2026-03-28T16:13:08.877Z</time></trkpt><trkpt lat="39.1689978" lon="8.6281573"><ele>124.0</ele><time>2026-03-28T16:13:09.862Z</time></trkpt><trkpt lat="39.1688975" lon="8.6282996"><ele>123.25</ele><time>2026-03-28T16:13:10.891Z</time></trkpt><trkpt lat="39.168802" lon="8.6284379"><ele>122.5</ele><time>2026-03-28T16:13:11.911Z</time></trkpt><trkpt lat="39.1687008" lon="8.6285816"><ele>121.75</ele><time>2026-03-28T16:13:12.896Z</time></trkpt><trkpt lat="39.1686038" lon="8.6287325"><ele>121.0</ele><time>2026-03-28T16:13:13.874Z</time></trkpt><trkpt lat="39.1685043" lon="8.628878"><ele>121.0</ele><time>2026-03-28T16:13:14.875Z</time></trkpt><trkpt lat="39.1684096" lon="8.6290277"><ele>121.0</ele><time>2026-03-28T16:13:15.886Z</time></trkpt><trkpt lat="39.1683073" lon="8.629181"><ele>121.0</ele><time>2026-03-28T16:13:16.895Z</time></trkpt><trkpt lat="39.168205" lon="8.6293284"><ele>120.5</ele><time>2026-03-28T16:13:17.85Z</time></trkpt><trkpt lat="39.1681165" lon="8.6294701"><ele>120.0</ele><time>2026-03-28T16:13:18.9Z</time></trkpt><trkpt lat="39.1680274" lon="8.6296014"><ele>119.5</ele><time>2026-03-28T16:13:19.863Z</time></trkpt><trkpt lat="39.1679471" lon="8.629727"><ele>119.0</ele><time>2026-03-28T16:13:20.899Z</time></trkpt><trkpt lat="39.1678631" lon="8.62986"><ele>119.0</ele><time>2026-03-28T16:13:21.9Z</time></trkpt><trkpt lat="39.1677684" lon="8.62999"><ele>119.0</ele><time>2026-03-28T16:13:22.875Z</time></trkpt><trkpt lat="39.1676741" lon="8.6301244"><ele>119.0</ele><time>2026-03-28T16:13:23.889Z</time></trkpt><trkpt lat="39.1675707" lon="8.6302623"><ele>119.0</ele><time>2026-03-28T16:13:24.89Z</time></trkpt><trkpt lat="39.1674768" lon="8.6304047"><ele>119.0</ele><time>2026-03-28T16:13:25.905Z</time></trkpt><trkpt lat="39.1673861" lon="8.6305398"><ele>119.0</ele><time>2026-03-28T16:13:26.891Z</time></trkpt><trkpt lat="39.167288" lon="8.6306755"><ele>119.0</ele><time>2026-03-28T16:13:27.907Z</time></trkpt><trkpt lat="39.1671867" lon="8.6308208"><ele>119.0</ele><time>2026-03-28T16:13:28.89Z</time></trkpt><trkpt lat="39.1670851" lon="8.6309708"><ele>118.5</ele><time>2026-03-28T16:13:29.907Z</time></trkpt><trkpt lat="39.166986" lon="8.6311172"><ele>118.0</ele><time>2026-03-28T16:13:30.893Z</time></trkpt><trkpt lat="39.1668957" lon="8.6312597"><ele>117.5</ele><time>2026-03-28T16:13:31.897Z</time></trkpt><trkpt lat="39.1668103" lon="8.6313901"><ele>117.0</ele><time>2026-03-28T16:13:32.89Z</time></trkpt><trkpt lat="39.1667208" lon="8.6315161"><ele>116.75</ele><time>2026-03-28T16:13:33.881Z</time></trkpt><trkpt lat="39.1666316" lon="8.6316478"><ele>116.5</ele><time>2026-03-28T16:13:34.888Z</time></trkpt><trkpt lat="39.1665326" lon="8.6317911"><ele>116.25</ele><time>2026-03-28T16:13:35.893Z</time></trkpt><trkpt lat="39.1664296" lon="8.6319436"><ele>116.0</ele><time>2026-03-28T16:13:36.876Z</time></trkpt><trkpt lat="39.1663177" lon="8.6320973"><ele>115.0</ele><time>2026-03-28T16:13:37.877Z</time></trkpt><trkpt lat="39.1662122" lon="8.6322549"><ele>114.0</ele><time>2026-03-28T16:13:38.89Z</time></trkpt><trkpt lat="39.166114" lon="8.6324047"><ele>113.0</ele><time>2026-03-28T16:13:39.883Z</time></trkpt><trkpt lat="39.1660115" lon="8.6325562"><ele>113.0</ele><time>2026-03-28T16:13:40.875Z</time></trkpt><trkpt lat="39.1659122" lon="8.6327048"><ele>113.0</ele><time>2026-03-28T16:13:41.888Z</time></trkpt><trkpt lat="39.165819" lon="8.6328482"><ele>113.0</ele><time>2026-03-28T16:13:42.874Z</time></trkpt><trkpt lat="39.1657248" lon="8.6329896"><ele>113.0</ele><time>2026-03-28T16:13:43.883Z</time></trkpt><trkpt lat="39.165635" lon="8.6331236"><ele>112.25</ele><time>2026-03-28T16:13:44.873Z</time></trkpt><trkpt lat="39.1655524" lon="8.6332496"><ele>111.5</ele><time>2026-03-28T16:13:45.833Z</time></trkpt><trkpt lat="39.1654712" lon="8.6333715"><ele>110.75</ele><time>2026-03-28T16:13:46.857Z</time></trkpt><trkpt lat="39.1653841" lon="8.6334983"><ele>110.0</ele><time>2026-03-28T16:13:47.864Z</time></trkpt><trkpt lat="39.165293" lon="8.6336364"><ele>110.5</ele><time>2026-03-28T16:13:48.854Z</time></trkpt><trkpt lat="39.1651977" lon="8.6337655"><ele>111.0</ele><time>2026-03-28T16:13:49.875Z</time></trkpt><trkpt lat="39.1651114" lon="8.6338866"><ele>111.5</ele><time>2026-03-28T16:13:50.903Z</time></trkpt><trkpt lat="39.1650392" lon="8.6339967"><ele>112.0</ele><time>2026-03-28T16:13:51.892Z</time></trkpt><trkpt lat="39.1649796" lon="8.6340948"><ele>112.0</ele><time>2026-03-28T16:13:52.894Z</time></trkpt><trkpt lat="39.1649234" lon="8.6341771"><ele>111.99999999999999</ele><time>2026-03-28T16:13:53.883Z</time></trkpt><trkpt lat="39.1648806" lon="8.634243"><ele>111.99999999999999</ele><time>2026-03-28T16:13:54.901Z</time></trkpt><trkpt lat="39.1648021" lon="8.6342933"><ele>112.0</ele><time>2026-03-28T16:13:56.879Z</time></trkpt><trkpt lat="39.1646771" lon="8.6342007"><ele>112.0</ele><time>2026-03-28T16:13:58.839Z</time></trkpt><trkpt lat="39.1645965" lon="8.6340765"><ele>111.25</ele><time>2026-03-28T16:13:59.884Z</time></trkpt><trkpt lat="39.1645064" lon="8.633948"><ele>110.5</ele><time>2026-03-28T16:14:00.896Z</time></trkpt><trkpt lat="39.1644157" lon="8.6338184"><ele>109.75</ele><time>2026-03-28T16:14:01.886Z</time></trkpt><trkpt lat="39.1643167" lon="8.6337062"><ele>109.0</ele><time>2026-03-28T16:14:02.88Z</time></trkpt><trkpt lat="39.1642295" lon="8.6336113"><ele>108.6</ele><time>2026-03-28T16:14:03.891Z</time></trkpt><trkpt lat="39.1641613" lon="8.6335205"><ele>108.2</ele><time>2026-03-28T16:14:04.901Z</time></trkpt><trkpt lat="39.1640937" lon="8.6334198"><ele>107.79999999999998</ele><time>2026-03-28T16:14:05.896Z</time></trkpt><trkpt lat="39.1640199" lon="8.6333229"><ele>107.39999999999999</ele><time>2026-03-28T16:14:06.896Z</time></trkpt><trkpt lat="39.1639372" lon="8.6332265"><ele>107.0</ele><time>2026-03-28T16:14:07.899Z</time></trkpt><trkpt lat="39.1638617" lon="8.6331216"><ele>106.19999999999999</ele><time>2026-03-28T16:14:08.892Z</time></trkpt><trkpt lat="39.1637837" lon="8.6330218"><ele>105.39999999999999</ele><time>2026-03-28T16:14:09.878Z</time></trkpt><trkpt lat="39.1637085" lon="8.6329314"><ele>104.6</ele><time>2026-03-28T16:14:10.903Z</time></trkpt><trkpt lat="39.1636371" lon="8.6328339"><ele>103.80000000000001</ele><time>2026-03-28T16:14:11.882Z</time></trkpt><trkpt lat="39.1635626" lon="8.6327355"><ele>103.0</ele><time>2026-03-28T16:14:12.905Z</time></trkpt><trkpt lat="39.1634851" lon="8.6326305"><ele>103.0</ele><time>2026-03-28T16:14:13.869Z</time></trkpt><trkpt lat="39.1634023" lon="8.6325233"><ele>103.0</ele><time>2026-03-28T16:14:14.886Z</time></trkpt><trkpt lat="39.1633167" lon="8.6324037"><ele>103.0</ele><time>2026-03-28T16:14:15.894Z</time></trkpt><trkpt lat="39.1632268" lon="8.6322855"><ele>103.0</ele><time>2026-03-28T16:14:16.89Z</time></trkpt><trkpt lat="39.1631352" lon="8.6321624"><ele>103.0</ele><time>2026-03-28T16:14:17.887Z</time></trkpt><trkpt lat="39.1630453" lon="8.6320424"><ele>103.0</ele><time>2026-03-28T16:14:18.91Z</time></trkpt><trkpt lat="39.1629524" lon="8.6319272"><ele>103.0</ele><time>2026-03-28T16:14:19.897Z</time></trkpt><trkpt lat="39.1628624" lon="8.6318072"><ele>103.0</ele><time>2026-03-28T16:14:20.89Z</time></trkpt><trkpt lat="39.1627705" lon="8.6316895"><ele>103.0</ele><time>2026-03-28T16:14:21.891Z</time></trkpt><trkpt lat="39.162677" lon="8.6315681"><ele>103.0</ele><time>2026-03-28T16:14:22.897Z</time></trkpt><trkpt lat="39.1625835" lon="8.6314484"><ele>103.0</ele><time>2026-03-28T16:14:23.896Z</time></trkpt><trkpt lat="39.1624947" lon="8.6313365"><ele>103.0</ele><time>2026-03-28T16:14:24.893Z</time></trkpt><trkpt lat="39.1624183" lon="8.6312312"><ele>102.0</ele><time>2026-03-28T16:14:25.893Z</time></trkpt><trkpt lat="39.1623405" lon="8.6311267"><ele>101.0</ele><time>2026-03-28T16:14:26.891Z</time></trkpt><trkpt lat="39.1622636" lon="8.6310222"><ele>100.0</ele><time>2026-03-28T16:14:27.889Z</time></trkpt><trkpt lat="39.1621759" lon="8.6309092"><ele>99.0</ele><time>2026-03-28T16:14:28.9Z</time></trkpt><trkpt lat="39.1620813" lon="8.6307904"><ele>99.0</ele><time>2026-03-28T16:14:29.898Z</time></trkpt><trkpt lat="39.1619858" lon="8.6306708"><ele>99.0</ele><time>2026-03-28T16:14:30.903Z</time></trkpt><trkpt lat="39.1618914" lon="8.6305434"><ele>99.0</ele><time>2026-03-28T16:14:31.9Z</time></trkpt><trkpt lat="39.1618011" lon="8.630416"><ele>99.0</ele><time>2026-03-28T16:14:32.901Z</time></trkpt><trkpt lat="39.1617094" lon="8.6302968"><ele>99.0</ele><time>2026-03-28T16:14:33.911Z</time></trkpt><trkpt lat="39.1616177" lon="8.6301779"><ele>99.0</ele><time>2026-03-28T16:14:34.892Z</time></trkpt><trkpt lat="39.1615273" lon="8.6300573"><ele>99.0</ele><time>2026-03-28T16:14:35.892Z</time></trkpt><trkpt lat="39.1614417" lon="8.6299425"><ele>99.0</ele><time>2026-03-28T16:14:36.886Z</time></trkpt><trkpt lat="39.161365" lon="8.6298275"><ele>99.0</ele><time>2026-03-28T16:14:37.888Z</time></trkpt><trkpt lat="39.161293" lon="8.6297193"><ele>99.0</ele><time>2026-03-28T16:14:38.872Z</time></trkpt><trkpt lat="39.1612238" lon="8.629625"><ele>99.0</ele><time>2026-03-28T16:14:39.879Z</time></trkpt><trkpt lat="39.1611636" lon="8.6295335"><ele>99.0</ele><time>2026-03-28T16:14:40.855Z</time></trkpt><trkpt lat="39.1611121" lon="8.6294498"><ele>99.0</ele><time>2026-03-28T16:14:41.869Z</time></trkpt><trkpt lat="39.1610636" lon="8.6293769"><ele>99.0</ele><time>2026-03-28T16:14:42.866Z</time></trkpt><trkpt lat="39.1610091" lon="8.629286"><ele>99.0</ele><time>2026-03-28T16:14:44.885Z</time></trkpt><trkpt lat="39.1609555" lon="8.629223"><ele>99.0</ele><time>2026-03-28T16:14:47.874Z</time></trkpt><trkpt lat="39.160884" lon="8.6292695"><ele>99.0</ele><time>2026-03-28T16:14:51.879Z</time></trkpt><trkpt lat="39.1608147" lon="8.629464"><ele>99.0</ele><time>2026-03-28T16:14:53.887Z</time></trkpt><trkpt lat="39.1607745" lon="8.6296049"><ele>99.0</ele><time>2026-03-28T16:14:54.9Z</time></trkpt><trkpt lat="39.1607367" lon="8.6297612"><ele>99.0</ele><time>2026-03-28T16:14:55.893Z</time></trkpt><trkpt lat="39.1606974" lon="8.6299403"><ele>99.0</ele><time>2026-03-28T16:14:56.882Z</time></trkpt><trkpt lat="39.1606571" lon="8.6301196"><ele>99.0</ele><time>2026-03-28T16:14:57.866Z</time></trkpt><trkpt lat="39.1606158" lon="8.6302891"><ele>98.5</ele><time>2026-03-28T16:14:58.876Z</time></trkpt><trkpt lat="39.1605694" lon="8.6304608"><ele>98.0</ele><time>2026-03-28T16:14:59.875Z</time></trkpt><trkpt lat="39.1605311" lon="8.6306222"><ele>97.5</ele><time>2026-03-28T16:15:00.887Z</time></trkpt><trkpt lat="39.1604972" lon="8.6307812"><ele>97.0</ele><time>2026-03-28T16:15:01.886Z</time></trkpt><trkpt lat="39.1604657" lon="8.6309397"><ele>97.0</ele><time>2026-03-28T16:15:02.882Z</time></trkpt><trkpt lat="39.1604235" lon="8.6311049"><ele>97.0</ele><time>2026-03-28T16:15:03.856Z</time></trkpt><trkpt lat="39.1603798" lon="8.6312859"><ele>97.0</ele><time>2026-03-28T16:15:04.873Z</time></trkpt><trkpt lat="39.1603325" lon="8.6314714"><ele>97.0</ele><time>2026-03-28T16:15:05.875Z</time></trkpt><trkpt lat="39.1602883" lon="8.6316531"><ele>97.0</ele><time>2026-03-28T16:15:06.878Z</time></trkpt><trkpt lat="39.1602493" lon="8.6318076"><ele>97.0</ele><time>2026-03-28T16:15:07.887Z</time></trkpt><trkpt lat="39.1602165" lon="8.6319253"><ele>97.0</ele><time>2026-03-28T16:15:08.88Z</time></trkpt><trkpt lat="39.1601941" lon="8.6320258"><ele>97.0</ele><time>2026-03-28T16:15:09.885Z</time></trkpt><trkpt lat="39.1601714" lon="8.6321061"><ele>97.0</ele><time>2026-03-28T16:15:10.886Z</time></trkpt><trkpt lat="39.1601379" lon="8.6322242"><ele>97.0</ele><time>2026-03-28T16:15:12.882Z</time></trkpt><trkpt lat="39.1600745" lon="8.6322374"><ele>97.0</ele><time>2026-03-28T16:15:14.882Z</time></trkpt><trkpt lat="39.1599841" lon="8.6320886"><ele>97.0</ele><time>2026-03-28T16:15:16.878Z</time></trkpt><trkpt lat="39.1599342" lon="8.6319605"><ele>97.0</ele><time>2026-03-28T16:15:17.879Z</time></trkpt><trkpt lat="39.1598661" lon="8.6318123"><ele>95.66666666666667</ele><time>2026-03-28T16:15:18.898Z</time></trkpt><trkpt lat="39.1597779" lon="8.6316551"><ele>94.33333333333334</ele><time>2026-03-28T16:15:19.889Z</time></trkpt><trkpt lat="39.1596677" lon="8.6314716"><ele>93.0</ele><time>2026-03-28T16:15:20.88Z</time></trkpt><trkpt lat="39.1595545" lon="8.6312662"><ele>93.66666666666667</ele><time>2026-03-28T16:15:21.888Z</time></trkpt><trkpt lat="39.1594501" lon="8.6310625"><ele>94.33333333333334</ele><time>2026-03-28T16:15:22.883Z</time></trkpt><trkpt lat="39.1593499" lon="8.6308739"><ele>95.0</ele><time>2026-03-28T16:15:23.878Z</time></trkpt><trkpt lat="39.1592493" lon="8.6307044"><ele>95.0</ele><time>2026-03-28T16:15:24.859Z</time></trkpt><trkpt lat="39.1591528" lon="8.630545"><ele>95.0</ele><time>2026-03-28T16:15:25.88Z</time></trkpt><trkpt lat="39.1590631" lon="8.6303839"><ele>95.0</ele><time>2026-03-28T16:15:26.877Z</time></trkpt><trkpt lat="39.1589669" lon="8.6302226"><ele>94.0</ele><time>2026-03-28T16:15:27.89Z</time></trkpt><trkpt lat="39.1588665" lon="8.6300651"><ele>93.0</ele><time>2026-03-28T16:15:28.882Z</time></trkpt><trkpt lat="39.1587756" lon="8.6299125"><ele>92.0</ele><time>2026-03-28T16:15:29.879Z</time></trkpt><trkpt lat="39.1586869" lon="8.6297626"><ele>92.0</ele><time>2026-03-28T16:15:30.87Z</time></trkpt><trkpt lat="39.1586019" lon="8.6296136"><ele>92.0</ele><time>2026-03-28T16:15:31.88Z</time></trkpt><trkpt lat="39.1585162" lon="8.6294702"><ele>92.0</ele><time>2026-03-28T16:15:32.89Z</time></trkpt><trkpt lat="39.1584406" lon="8.6293274"><ele>92.0</ele><time>2026-03-28T16:15:33.887Z</time></trkpt><trkpt lat="39.1583588" lon="8.6291746"><ele>92.0</ele><time>2026-03-28T16:15:34.882Z</time></trkpt><trkpt lat="39.1582763" lon="8.6290256"><ele>92.0</ele><time>2026-03-28T16:15:35.888Z</time></trkpt><trkpt lat="39.1581913" lon="8.6288808"><ele>92.0</ele><time>2026-03-28T16:15:36.889Z</time></trkpt><trkpt lat="39.1581058" lon="8.6287337"><ele>92.0</ele><time>2026-03-28T16:15:37.881Z</time></trkpt><trkpt lat="39.1580206" lon="8.6285876"><ele>91.5</ele><time>2026-03-28T16:15:38.903Z</time></trkpt><trkpt lat="39.1579295" lon="8.6284341"><ele>91.0</ele><time>2026-03-28T16:15:39.893Z</time></trkpt><trkpt lat="39.1578424" lon="8.6282828"><ele>90.5</ele><time>2026-03-28T16:15:40.867Z</time></trkpt><trkpt lat="39.1577564" lon="8.6281258"><ele>90.0</ele><time>2026-03-28T16:15:41.877Z</time></trkpt><trkpt lat="39.1576643" lon="8.6279792"><ele>90.0</ele><time>2026-03-28T16:15:42.872Z</time></trkpt><trkpt lat="39.1575829" lon="8.6278489"><ele>90.0</ele><time>2026-03-28T16:15:43.874Z</time></trkpt><trkpt lat="39.1575019" lon="8.6277109"><ele>90.0</ele><time>2026-03-28T16:15:44.895Z</time></trkpt><trkpt lat="39.1574166" lon="8.6275675"><ele>90.0</ele><time>2026-03-28T16:15:45.883Z</time></trkpt><trkpt lat="39.1573316" lon="8.6274284"><ele>90.0</ele><time>2026-03-28T16:15:46.876Z</time></trkpt><trkpt lat="39.1572649" lon="8.6273042"><ele>90.0</ele><time>2026-03-28T16:15:47.889Z</time></trkpt><trkpt lat="39.1572021" lon="8.6271966"><ele>90.0</ele><time>2026-03-28T16:15:48.873Z</time></trkpt><trkpt lat="39.1571453" lon="8.6270983"><ele>90.0</ele><time>2026-03-28T16:15:49.879Z</time></trkpt><trkpt lat="39.1570894" lon="8.6270028"><ele>90.0</ele><time>2026-03-28T16:15:50.899Z</time></trkpt><trkpt lat="39.1570425" lon="8.6269238"><ele>90.0</ele><time>2026-03-28T16:15:51.851Z</time></trkpt><trkpt lat="39.1570056" lon="8.6268531"><ele>90.0</ele><time>2026-03-28T16:15:52.882Z</time></trkpt><trkpt lat="39.1569457" lon="8.6267809"><ele>90.0</ele><time>2026-03-28T16:15:54.896Z</time></trkpt><trkpt lat="39.1568802" lon="8.6267884"><ele>90.0</ele><time>2026-03-28T16:15:56.882Z</time></trkpt><trkpt lat="39.1568541" lon="8.6268671"><ele>90.0</ele><time>2026-03-28T16:15:58.885Z</time></trkpt><trkpt lat="39.1568813" lon="8.6269638"><ele>90.0</ele><time>2026-03-28T16:16:00.883Z</time></trkpt><trkpt lat="39.1569441" lon="8.6270467"><ele>90.0</ele><time>2026-03-28T16:16:02.89Z</time></trkpt><trkpt lat="39.1569395" lon="8.6271427"><ele>90.0</ele><time>2026-03-28T16:16:04.898Z</time></trkpt><trkpt lat="39.1569463" lon="8.627239"><ele>90.0</ele><time>2026-03-28T16:16:07.874Z</time></trkpt><trkpt lat="39.1570134" lon="8.6272564"><ele>90.0</ele><time>2026-03-28T16:16:41.883Z</time></trkpt></trkseg><trkseg><trkpt lat="39.1569481" lon="8.6272171"><ele>90.0</ele><time>2026-03-28T16:44:18.896Z</time></trkpt><trkpt lat="39.1569467" lon="8.62711"><ele>90.0</ele><time>2026-03-28T16:46:22.886Z</time></trkpt><trkpt lat="39.1569237" lon="8.6270178"><ele>90.0</ele><time>2026-03-28T16:46:24.919Z</time></trkpt><trkpt lat="39.1568684" lon="8.6269499"><ele>90.0</ele><time>2026-03-28T16:46:26.894Z</time></trkpt><trkpt lat="39.1568772" lon="8.6268365"><ele>90.0</ele><time>2026-03-28T16:46:29.866Z</time></trkpt><trkpt lat="39.1569199" lon="8.6267731"><ele>90.0</ele><time>2026-03-28T16:46:31.908Z</time></trkpt><trkpt lat="39.1569041" lon="8.6266554"><ele>89.8</ele><time>2026-03-28T16:46:35.887Z</time></trkpt><trkpt lat="39.1568373" lon="8.6265154"><ele>89.6</ele><time>2026-03-28T16:46:37.884Z</time></trkpt><trkpt lat="39.1567876" lon="8.6264209"><ele>89.4</ele><time>2026-03-28T16:46:38.834Z</time></trkpt><trkpt lat="39.1567371" lon="8.6263318"><ele>89.2</ele><time>2026-03-28T16:46:39.821Z</time></trkpt><trkpt lat="39.1566835" lon="8.6262419"><ele>89.0</ele><time>2026-03-28T16:46:40.822Z</time></trkpt><trkpt lat="39.1566358" lon="8.6261528"><ele>88.6</ele><time>2026-03-28T16:46:41.856Z</time></trkpt><trkpt lat="39.156593" lon="8.6260744"><ele>88.2</ele><time>2026-03-28T16:46:42.864Z</time></trkpt><trkpt lat="39.1565384" lon="8.6259815"><ele>87.8</ele><time>2026-03-28T16:46:43.889Z</time></trkpt><trkpt lat="39.1564781" lon="8.6258862"><ele>87.39999999999999</ele><time>2026-03-28T16:46:44.872Z</time></trkpt><trkpt lat="39.1564198" lon="8.625793"><ele>87.0</ele><time>2026-03-28T16:46:45.89Z</time></trkpt><trkpt lat="39.1563615" lon="8.6256902"><ele>86.6</ele><time>2026-03-28T16:46:46.891Z</time></trkpt><trkpt lat="39.1563042" lon="8.6255786"><ele>86.19999999999999</ele><time>2026-03-28T16:46:47.862Z</time></trkpt><trkpt lat="39.1562493" lon="8.6254783"><ele>85.8</ele><time>2026-03-28T16:46:48.888Z</time></trkpt><trkpt lat="39.1561811" lon="8.6253642"><ele>85.4</ele><time>2026-03-28T16:46:49.882Z</time></trkpt><trkpt lat="39.1561066" lon="8.6252361"><ele>85.0</ele><time>2026-03-28T16:46:50.893Z</time></trkpt><trkpt lat="39.1560278" lon="8.6251032"><ele>85.0</ele><time>2026-03-28T16:46:51.883Z</time></trkpt><trkpt lat="39.1559461" lon="8.6249686"><ele>85.0</ele><time>2026-03-28T16:46:52.831Z</time></trkpt><trkpt lat="39.1558526" lon="8.624816"><ele>85.0</ele><time>2026-03-28T16:46:53.817Z</time></trkpt><trkpt lat="39.155744" lon="8.6246249"><ele>84.5</ele><time>2026-03-28T16:46:54.817Z</time></trkpt><trkpt lat="39.1556371" lon="8.6244491"><ele>84.0</ele><time>2026-03-28T16:46:55.817Z</time></trkpt><trkpt lat="39.1555462" lon="8.6242967"><ele>83.5</ele><time>2026-03-28T16:46:56.846Z</time></trkpt><trkpt lat="39.1554694" lon="8.6241667"><ele>83.0</ele><time>2026-03-28T16:46:57.844Z</time></trkpt><trkpt lat="39.1553982" lon="8.624046"><ele>83.0</ele><time>2026-03-28T16:46:58.87Z</time></trkpt><trkpt lat="39.1553373" lon="8.6239357"><ele>83.0</ele><time>2026-03-28T16:46:59.846Z</time></trkpt><trkpt lat="39.155283" lon="8.6238355"><ele>83.0</ele><time>2026-03-28T16:47:00.832Z</time></trkpt><trkpt lat="39.1552255" lon="8.6237513"><ele>83.0</ele><time>2026-03-28T16:47:01.873Z</time></trkpt><trkpt lat="39.1551585" lon="8.6236874"><ele>83.0</ele><time>2026-03-28T16:47:02.873Z</time></trkpt><trkpt lat="39.1550725" lon="8.6236442"><ele>82.66666666666667</ele><time>2026-03-28T16:47:03.856Z</time></trkpt><trkpt lat="39.1549777" lon="8.6236358"><ele>82.33333333333334</ele><time>2026-03-28T16:47:04.86Z</time></trkpt><trkpt lat="39.1548867" lon="8.62364"><ele>82.0</ele><time>2026-03-28T16:47:05.868Z</time></trkpt><trkpt lat="39.1548002" lon="8.6236523"><ele>81.66666666666667</ele><time>2026-03-28T16:47:06.884Z</time></trkpt><trkpt lat="39.1547155" lon="8.6236617"><ele>81.33333333333333</ele><time>2026-03-28T16:47:07.877Z</time></trkpt><trkpt lat="39.1546286" lon="8.623672"><ele>81.0</ele><time>2026-03-28T16:47:08.886Z</time></trkpt><trkpt lat="39.1545356" lon="8.6236859"><ele>80.83333333333333</ele><time>2026-03-28T16:47:09.883Z</time></trkpt><trkpt lat="39.1544404" lon="8.6236989"><ele>80.66666666666667</ele><time>2026-03-28T16:47:10.898Z</time></trkpt><trkpt lat="39.1543526" lon="8.6237107"><ele>80.5</ele><time>2026-03-28T16:47:11.882Z</time></trkpt><trkpt lat="39.1542699" lon="8.6237217"><ele>80.33333333333334</ele><time>2026-03-28T16:47:12.897Z</time></trkpt><trkpt lat="39.1541922" lon="8.6237291"><ele>80.16666666666667</ele><time>2026-03-28T16:47:13.88Z</time></trkpt><trkpt lat="39.1541123" lon="8.6237338"><ele>80.0</ele><time>2026-03-28T16:47:14.89Z</time></trkpt><trkpt lat="39.1540335" lon="8.6237419"><ele>80.0</ele><time>2026-03-28T16:47:15.893Z</time></trkpt><trkpt lat="39.1539535" lon="8.6237482"><ele>80.0</ele><time>2026-03-28T16:47:16.886Z</time></trkpt><trkpt lat="39.1538807" lon="8.6237514"><ele>80.0</ele><time>2026-03-28T16:47:17.879Z</time></trkpt><trkpt lat="39.1538113" lon="8.6237552"><ele>80.0</ele><time>2026-03-28T16:47:18.877Z</time></trkpt><trkpt lat="39.1537401" lon="8.6237608"><ele>80.0</ele><time>2026-03-28T16:47:19.901Z</time></trkpt><trkpt lat="39.1536614" lon="8.6237694"><ele>80.0</ele><time>2026-03-28T16:47:20.895Z</time></trkpt><trkpt lat="39.15357" lon="8.6237754"><ele>80.0</ele><time>2026-03-28T16:47:21.885Z</time></trkpt><trkpt lat="39.1534774" lon="8.623781"><ele>80.0</ele><time>2026-03-28T16:47:22.889Z</time></trkpt><trkpt lat="39.1533976" lon="8.623785"><ele>80.0</ele><time>2026-03-28T16:47:23.896Z</time></trkpt><trkpt lat="39.153319" lon="8.6237925"><ele>80.0</ele><time>2026-03-28T16:47:24.875Z</time></trkpt><trkpt lat="39.1532519" lon="8.6238011"><ele>80.0</ele><time>2026-03-28T16:47:25.891Z</time></trkpt><trkpt lat="39.1531499" lon="8.6238103"><ele>80.0</ele><time>2026-03-28T16:47:27.891Z</time></trkpt><trkpt lat="39.1530722" lon="8.6237969"><ele>79.4</ele><time>2026-03-28T16:47:29.906Z</time></trkpt><trkpt lat="39.1530459" lon="8.6237217"><ele>78.8</ele><time>2026-03-28T16:47:31.89Z</time></trkpt><trkpt lat="39.1530644" lon="8.6235896"><ele>78.2</ele><time>2026-03-28T16:47:33.869Z</time></trkpt><trkpt lat="39.1531102" lon="8.6234391"><ele>77.6</ele><time>2026-03-28T16:47:35.903Z</time></trkpt><trkpt lat="39.1531523" lon="8.6233508"><ele>77.0</ele><time>2026-03-28T16:47:36.923Z</time></trkpt><trkpt lat="39.1532044" lon="8.6232607"><ele>77.2</ele><time>2026-03-28T16:47:37.911Z</time></trkpt><trkpt lat="39.1532593" lon="8.6231794"><ele>77.4</ele><time>2026-03-28T16:47:38.857Z</time></trkpt><trkpt lat="39.1533184" lon="8.6230898"><ele>77.6</ele><time>2026-03-28T16:47:39.883Z</time></trkpt><trkpt lat="39.1533894" lon="8.6230008"><ele>77.8</ele><time>2026-03-28T16:47:40.902Z</time></trkpt><trkpt lat="39.1534766" lon="8.6229256"><ele>78.0</ele><time>2026-03-28T16:47:41.901Z</time></trkpt><trkpt lat="39.153594" lon="8.6228495"><ele>78.0</ele><time>2026-03-28T16:47:42.905Z</time></trkpt><trkpt lat="39.1537258" lon="8.6227951"><ele>78.0</ele><time>2026-03-28T16:47:43.898Z</time></trkpt><trkpt lat="39.1538461" lon="8.6227362"><ele>78.0</ele><time>2026-03-28T16:47:44.904Z</time></trkpt><trkpt lat="39.15395" lon="8.6226754"><ele>78.0</ele><time>2026-03-28T16:47:45.905Z</time></trkpt><trkpt lat="39.154052" lon="8.6226186"><ele>78.0</ele><time>2026-03-28T16:47:46.911Z</time></trkpt><trkpt lat="39.1541579" lon="8.622567"><ele>78.0</ele><time>2026-03-28T16:47:47.894Z</time></trkpt><trkpt lat="39.1542685" lon="8.6225247"><ele>78.0</ele><time>2026-03-28T16:47:48.888Z</time></trkpt><trkpt lat="39.1543809" lon="8.6225032"><ele>78.0</ele><time>2026-03-28T16:47:49.912Z</time></trkpt><trkpt lat="39.1544992" lon="8.6224878"><ele>78.0</ele><time>2026-03-28T16:47:50.874Z</time></trkpt><trkpt lat="39.1546187" lon="8.6224734"><ele>78.0</ele><time>2026-03-28T16:47:51.896Z</time></trkpt><trkpt lat="39.1547299" lon="8.622464"><ele>78.0</ele><time>2026-03-28T16:47:52.904Z</time></trkpt><trkpt lat="39.154841" lon="8.6224578"><ele>78.0</ele><time>2026-03-28T16:47:53.844Z</time></trkpt><trkpt lat="39.1549544" lon="8.6224567"><ele>78.4</ele><time>2026-03-28T16:47:54.863Z</time></trkpt><trkpt lat="39.1550647" lon="8.62244"><ele>78.8</ele><time>2026-03-28T16:47:55.854Z</time></trkpt><trkpt lat="39.1551629" lon="8.6224022"><ele>79.2</ele><time>2026-03-28T16:47:56.889Z</time></trkpt><trkpt lat="39.1552507" lon="8.6223301"><ele>79.6</ele><time>2026-03-28T16:47:57.885Z</time></trkpt><trkpt lat="39.1553156" lon="8.622229"><ele>80.0</ele><time>2026-03-28T16:47:58.888Z</time></trkpt><trkpt lat="39.1553617" lon="8.622131"><ele>80.0</ele><time>2026-03-28T16:47:59.891Z</time></trkpt><trkpt lat="39.1553912" lon="8.622039"><ele>80.0</ele><time>2026-03-28T16:48:00.894Z</time></trkpt><trkpt lat="39.1554121" lon="8.6219498"><ele>80.0</ele><time>2026-03-28T16:48:01.896Z</time></trkpt><trkpt lat="39.1554238" lon="8.6218501"><ele>80.0</ele><time>2026-03-28T16:48:02.88Z</time></trkpt><trkpt lat="39.155414" lon="8.6217538"><ele>80.0</ele><time>2026-03-28T16:48:03.901Z</time></trkpt><trkpt lat="39.1554115" lon="8.6216671"><ele>80.0</ele><time>2026-03-28T16:48:04.895Z</time></trkpt><trkpt lat="39.1554757" lon="8.6215181"><ele>80.0</ele><time>2026-03-28T16:48:06.886Z</time></trkpt><trkpt lat="39.1555437" lon="8.6214486"><ele>80.0</ele><time>2026-03-28T16:48:07.842Z</time></trkpt><trkpt lat="39.1556185" lon="8.6213787"><ele>80.0</ele><time>2026-03-28T16:48:08.834Z</time></trkpt><trkpt lat="39.1557004" lon="8.6213065"><ele>80.0</ele><time>2026-03-28T16:48:09.885Z</time></trkpt><trkpt lat="39.1557989" lon="8.6212384"><ele>80.0</ele><time>2026-03-28T16:48:10.873Z</time></trkpt><trkpt lat="39.1559041" lon="8.621183"><ele>80.0</ele><time>2026-03-28T16:48:11.864Z</time></trkpt><trkpt lat="39.1560216" lon="8.6211275"><ele>80.0</ele><time>2026-03-28T16:48:12.846Z</time></trkpt><trkpt lat="39.1561422" lon="8.6210681"><ele>80.0</ele><time>2026-03-28T16:48:13.88Z</time></trkpt><trkpt lat="39.1562581" lon="8.6210146"><ele>80.0</ele><time>2026-03-28T16:48:14.864Z</time></trkpt><trkpt lat="39.156377" lon="8.6209558"><ele>80.0</ele><time>2026-03-28T16:48:15.896Z</time></trkpt><trkpt lat="39.1564927" lon="8.6209019"><ele>80.0</ele><time>2026-03-28T16:48:16.869Z</time></trkpt><trkpt lat="39.1565988" lon="8.6208449"><ele>80.0</ele><time>2026-03-28T16:48:17.888Z</time></trkpt><trkpt lat="39.1566931" lon="8.6207909"><ele>80.0</ele><time>2026-03-28T16:48:18.909Z</time></trkpt><trkpt lat="39.1567731" lon="8.6207212"><ele>80.0</ele><time>2026-03-28T16:48:19.896Z</time></trkpt><trkpt lat="39.1568269" lon="8.6206335"><ele>80.0</ele><time>2026-03-28T16:48:20.886Z</time></trkpt><trkpt lat="39.1568617" lon="8.6205236"><ele>80.0</ele><time>2026-03-28T16:48:21.891Z</time></trkpt><trkpt lat="39.1568714" lon="8.6203965"><ele>80.0</ele><time>2026-03-28T16:48:22.888Z</time></trkpt><trkpt lat="39.1568645" lon="8.6202801"><ele>80.0</ele><time>2026-03-28T16:48:23.887Z</time></trkpt><trkpt lat="39.1568398" lon="8.6201668"><ele>80.0</ele><time>2026-03-28T16:48:24.867Z</time></trkpt><trkpt lat="39.1568036" lon="8.620047"><ele>80.0</ele><time>2026-03-28T16:48:25.873Z</time></trkpt><trkpt lat="39.1567703" lon="8.6199261"><ele>80.0</ele><time>2026-03-28T16:48:26.892Z</time></trkpt><trkpt lat="39.1567482" lon="8.6197923"><ele>80.0</ele><time>2026-03-28T16:48:27.894Z</time></trkpt><trkpt lat="39.1567285" lon="8.619646"><ele>80.0</ele><time>2026-03-28T16:48:28.88Z</time></trkpt><trkpt lat="39.1567088" lon="8.6194906"><ele>80.0</ele><time>2026-03-28T16:48:29.885Z</time></trkpt><trkpt lat="39.1566974" lon="8.6193414"><ele>80.25</ele><time>2026-03-28T16:48:30.906Z</time></trkpt><trkpt lat="39.1567053" lon="8.6191969"><ele>80.5</ele><time>2026-03-28T16:48:31.9Z</time></trkpt><trkpt lat="39.1567363" lon="8.6190509"><ele>80.75</ele><time>2026-03-28T16:48:32.878Z</time></trkpt><trkpt lat="39.1567786" lon="8.6189125"><ele>81.0</ele><time>2026-03-28T16:48:33.897Z</time></trkpt><trkpt lat="39.1568343" lon="8.6187673"><ele>80.8</ele><time>2026-03-28T16:48:34.884Z</time></trkpt><trkpt lat="39.1568804" lon="8.6186235"><ele>80.6</ele><time>2026-03-28T16:48:35.898Z</time></trkpt><trkpt lat="39.1569078" lon="8.6184909"><ele>80.4</ele><time>2026-03-28T16:48:36.913Z</time></trkpt><trkpt lat="39.1569184" lon="8.6183676"><ele>80.2</ele><time>2026-03-28T16:48:37.912Z</time></trkpt><trkpt lat="39.1569054" lon="8.618251"><ele>80.0</ele><time>2026-03-28T16:48:38.894Z</time></trkpt><trkpt lat="39.1568852" lon="8.6181495"><ele>80.0</ele><time>2026-03-28T16:48:39.894Z</time></trkpt><trkpt lat="39.156858" lon="8.6180491"><ele>80.0</ele><time>2026-03-28T16:48:40.896Z</time></trkpt><trkpt lat="39.1568324" lon="8.6179399"><ele>80.0</ele><time>2026-03-28T16:48:41.893Z</time></trkpt><trkpt lat="39.156814" lon="8.6178146"><ele>80.0</ele><time>2026-03-28T16:48:42.886Z</time></trkpt><trkpt lat="39.1568016" lon="8.6176792"><ele>80.0</ele><time>2026-03-28T16:48:43.887Z</time></trkpt><trkpt lat="39.1568063" lon="8.6175367"><ele>80.6</ele><time>2026-03-28T16:48:44.889Z</time></trkpt><trkpt lat="39.1568217" lon="8.6174009"><ele>81.2</ele><time>2026-03-28T16:48:45.88Z</time></trkpt><trkpt lat="39.1568483" lon="8.6172891"><ele>81.80000000000001</ele><time>2026-03-28T16:48:46.894Z</time></trkpt><trkpt lat="39.1568898" lon="8.6172154"><ele>82.4</ele><time>2026-03-28T16:48:47.904Z</time></trkpt><trkpt lat="39.1569657" lon="8.6171688"><ele>83.0</ele><time>2026-03-28T16:48:48.899Z</time></trkpt><trkpt lat="39.1570621" lon="8.617141"><ele>83.0</ele><time>2026-03-28T16:48:49.904Z</time></trkpt><trkpt lat="39.1571671" lon="8.6170979"><ele>83.0</ele><time>2026-03-28T16:48:50.898Z</time></trkpt><trkpt lat="39.1572582" lon="8.6169973"><ele>83.0</ele><time>2026-03-28T16:48:51.9Z</time></trkpt><trkpt lat="39.157337" lon="8.6168649"><ele>83.0</ele><time>2026-03-28T16:48:52.884Z</time></trkpt><trkpt lat="39.1574166" lon="8.6167246"><ele>83.25</ele><time>2026-03-28T16:48:53.864Z</time></trkpt><trkpt lat="39.157512" lon="8.6165892"><ele>83.5</ele><time>2026-03-28T16:48:54.848Z</time></trkpt><trkpt lat="39.1576127" lon="8.616464"><ele>83.75</ele><time>2026-03-28T16:48:55.887Z</time></trkpt><trkpt lat="39.1577093" lon="8.6163479"><ele>84.0</ele><time>2026-03-28T16:48:56.885Z</time></trkpt><trkpt lat="39.1578024" lon="8.6162299"><ele>84.5</ele><time>2026-03-28T16:48:57.889Z</time></trkpt><trkpt lat="39.1578875" lon="8.6161013"><ele>85.0</ele><time>2026-03-28T16:48:58.887Z</time></trkpt><trkpt lat="39.1579483" lon="8.6159706"><ele>85.5</ele><time>2026-03-28T16:48:59.85Z</time></trkpt><trkpt lat="39.1579805" lon="8.6158228"><ele>86.0</ele><time>2026-03-28T16:49:00.884Z</time></trkpt><trkpt lat="39.1580136" lon="8.6156692"><ele>86.0</ele><time>2026-03-28T16:49:01.897Z</time></trkpt><trkpt lat="39.1580525" lon="8.6155123"><ele>86.0</ele><time>2026-03-28T16:49:02.886Z</time></trkpt><trkpt lat="39.1581017" lon="8.6153653"><ele>86.0</ele><time>2026-03-28T16:49:03.873Z</time></trkpt><trkpt lat="39.1581672" lon="8.6152279"><ele>86.0</ele><time>2026-03-28T16:49:04.839Z</time></trkpt><trkpt lat="39.1582403" lon="8.6150867"><ele>86.5</ele><time>2026-03-28T16:49:05.855Z</time></trkpt><trkpt lat="39.1583138" lon="8.6149461"><ele>87.0</ele><time>2026-03-28T16:49:06.881Z</time></trkpt><trkpt lat="39.1583768" lon="8.6147985"><ele>87.5</ele><time>2026-03-28T16:49:07.868Z</time></trkpt><trkpt lat="39.1584339" lon="8.6146491"><ele>88.0</ele><time>2026-03-28T16:49:08.859Z</time></trkpt><trkpt lat="39.1584911" lon="8.6145007"><ele>88.5</ele><time>2026-03-28T16:49:09.883Z</time></trkpt><trkpt lat="39.1585442" lon="8.6143569"><ele>89.0</ele><time>2026-03-28T16:49:10.891Z</time></trkpt><trkpt lat="39.158598" lon="8.6142164"><ele>89.5</ele><time>2026-03-28T16:49:11.838Z</time></trkpt><trkpt lat="39.1586566" lon="8.6140737"><ele>90.0</ele><time>2026-03-28T16:49:12.886Z</time></trkpt><trkpt lat="39.158723" lon="8.6139368"><ele>90.0</ele><time>2026-03-28T16:49:13.897Z</time></trkpt><trkpt lat="39.1588001" lon="8.6138127"><ele>90.0</ele><time>2026-03-28T16:49:14.89Z</time></trkpt><trkpt lat="39.1588821" lon="8.6136995"><ele>90.0</ele><time>2026-03-28T16:49:15.909Z</time></trkpt><trkpt lat="39.1589604" lon="8.6135987"><ele>90.0</ele><time>2026-03-28T16:49:16.889Z</time></trkpt><trkpt lat="39.1590261" lon="8.613519"><ele>90.0</ele><time>2026-03-28T16:49:17.897Z</time></trkpt><trkpt lat="39.1590838" lon="8.6134474"><ele>90.4</ele><time>2026-03-28T16:49:18.915Z</time></trkpt><trkpt lat="39.1591721" lon="8.6133397"><ele>90.8</ele><time>2026-03-28T16:49:20.888Z</time></trkpt><trkpt lat="39.1592289" lon="8.6132465"><ele>91.19999999999999</ele><time>2026-03-28T16:49:22.885Z</time></trkpt><trkpt lat="39.1593523" lon="8.6131858"><ele>91.6</ele><time>2026-03-28T16:49:24.901Z</time></trkpt><trkpt lat="39.1594266" lon="8.6131681"><ele>92.0</ele><time>2026-03-28T16:49:25.889Z</time></trkpt><trkpt lat="39.1595021" lon="8.6131408"><ele>92.0</ele><time>2026-03-28T16:49:26.898Z</time></trkpt><trkpt lat="39.159569" lon="8.6130718"><ele>92.0</ele><time>2026-03-28T16:49:27.9Z</time></trkpt><trkpt lat="39.159634" lon="8.6129887"><ele>92.0</ele><time>2026-03-28T16:49:28.892Z</time></trkpt><trkpt lat="39.1596939" lon="8.6128932"><ele>92.0</ele><time>2026-03-28T16:49:29.878Z</time></trkpt><trkpt lat="39.1597614" lon="8.612809"><ele>92.0</ele><time>2026-03-28T16:49:30.886Z</time></trkpt><trkpt lat="39.159828" lon="8.6127193"><ele>92.6</ele><time>2026-03-28T16:49:31.883Z</time></trkpt><trkpt lat="39.1599014" lon="8.6126369"><ele>93.19999999999999</ele><time>2026-03-28T16:49:32.898Z</time></trkpt><trkpt lat="39.1599754" lon="8.6125654"><ele>93.8</ele><time>2026-03-28T16:49:33.887Z</time></trkpt><trkpt lat="39.1600532" lon="8.6125008"><ele>94.4</ele><time>2026-03-28T16:49:34.867Z</time></trkpt><trkpt lat="39.1601398" lon="8.6124334"><ele>95.0</ele><time>2026-03-28T16:49:35.88Z</time></trkpt><trkpt lat="39.1602318" lon="8.6123509"><ele>95.0</ele><time>2026-03-28T16:49:36.902Z</time></trkpt><trkpt lat="39.1603249" lon="8.6122718"><ele>95.0</ele><time>2026-03-28T16:49:37.87Z</time></trkpt><trkpt lat="39.1604182" lon="8.6121841"><ele>95.0</ele><time>2026-03-28T16:49:38.903Z</time></trkpt><trkpt lat="39.1605053" lon="8.6121033"><ele>95.0</ele><time>2026-03-28T16:49:39.89Z</time></trkpt><trkpt lat="39.1605861" lon="8.6120333"><ele>95.0</ele><time>2026-03-28T16:49:40.895Z</time></trkpt><trkpt lat="39.1606617" lon="8.6119734"><ele>95.66666666666667</ele><time>2026-03-28T16:49:41.855Z</time></trkpt><trkpt lat="39.160725" lon="8.6119173"><ele>96.33333333333334</ele><time>2026-03-28T16:49:42.89Z</time></trkpt><trkpt lat="39.1607805" lon="8.6118738"><ele>97.0</ele><time>2026-03-28T16:49:43.905Z</time></trkpt><trkpt lat="39.1608596" lon="8.6118114"><ele>97.66666666666667</ele><time>2026-03-28T16:49:45.912Z</time></trkpt><trkpt lat="39.1609055" lon="8.6117501"><ele>98.33333333333333</ele><time>2026-03-28T16:49:47.898Z</time></trkpt><trkpt lat="39.1609062" lon="8.6116423"><ele>99.0</ele><time>2026-03-28T16:49:49.906Z</time></trkpt><trkpt lat="39.1608552" lon="8.6114871"><ele>99.0</ele><time>2026-03-28T16:49:51.886Z</time></trkpt><trkpt lat="39.1608289" lon="8.6113963"><ele>99.0</ele><time>2026-03-28T16:49:52.906Z</time></trkpt><trkpt lat="39.1608058" lon="8.6113084"><ele>99.0</ele><time>2026-03-28T16:49:53.864Z</time></trkpt><trkpt lat="39.1607771" lon="8.6112025"><ele>99.0</ele><time>2026-03-28T16:49:54.881Z</time></trkpt><trkpt lat="39.1607498" lon="8.6110908"><ele>99.0</ele><time>2026-03-28T16:49:55.876Z</time></trkpt><trkpt lat="39.160712" lon="8.6109637"><ele>99.0</ele><time>2026-03-28T16:49:56.858Z</time></trkpt><trkpt lat="39.1606645" lon="8.6108268"><ele>98.5</ele><time>2026-03-28T16:49:57.887Z</time></trkpt><trkpt lat="39.1606202" lon="8.6106726"><ele>98.0</ele><time>2026-03-28T16:49:58.866Z</time></trkpt><trkpt lat="39.1605822" lon="8.6105208"><ele>97.5</ele><time>2026-03-28T16:49:59.873Z</time></trkpt><trkpt lat="39.1605498" lon="8.6103767"><ele>97.0</ele><time>2026-03-28T16:50:00.863Z</time></trkpt><trkpt lat="39.1605192" lon="8.6102317"><ele>97.0</ele><time>2026-03-28T16:50:01.858Z</time></trkpt><trkpt lat="39.1604875" lon="8.6100913"><ele>97.0</ele><time>2026-03-28T16:50:02.882Z</time></trkpt><trkpt lat="39.1604561" lon="8.6099554"><ele>97.0</ele><time>2026-03-28T16:50:03.881Z</time></trkpt><trkpt lat="39.1604275" lon="8.6098214"><ele>97.0</ele><time>2026-03-28T16:50:04.894Z</time></trkpt><trkpt lat="39.1604071" lon="8.6096882"><ele>97.0</ele><time>2026-03-28T16:50:05.907Z</time></trkpt><trkpt lat="39.1603921" lon="8.6095553"><ele>97.19999999999999</ele><time>2026-03-28T16:50:06.89Z</time></trkpt><trkpt lat="39.160383" lon="8.6094166"><ele>97.4</ele><time>2026-03-28T16:50:07.9Z</time></trkpt><trkpt lat="39.1603876" lon="8.6092734"><ele>97.6</ele><time>2026-03-28T16:50:08.894Z</time></trkpt><trkpt lat="39.1604062" lon="8.6091293"><ele>97.80000000000001</ele><time>2026-03-28T16:50:09.892Z</time></trkpt><trkpt lat="39.1604356" lon="8.6089865"><ele>98.0</ele><time>2026-03-28T16:50:10.883Z</time></trkpt><trkpt lat="39.1604724" lon="8.6088327"><ele>98.0</ele><time>2026-03-28T16:50:11.889Z</time></trkpt><trkpt lat="39.1605093" lon="8.6086755"><ele>98.0</ele><time>2026-03-28T16:50:12.884Z</time></trkpt><trkpt lat="39.1605387" lon="8.6085178"><ele>98.0</ele><time>2026-03-28T16:50:13.891Z</time></trkpt><trkpt lat="39.1605594" lon="8.6083492"><ele>98.0</ele><time>2026-03-28T16:50:14.879Z</time></trkpt><trkpt lat="39.1605722" lon="8.6081678"><ele>98.25</ele><time>2026-03-28T16:50:15.886Z</time></trkpt><trkpt lat="39.1605809" lon="8.6080065"><ele>98.5</ele><time>2026-03-28T16:50:16.887Z</time></trkpt><trkpt lat="39.1605923" lon="8.6078587"><ele>98.75</ele><time>2026-03-28T16:50:17.888Z</time></trkpt><trkpt lat="39.1605938" lon="8.6076985"><ele>99.0</ele><time>2026-03-28T16:50:18.926Z</time></trkpt><trkpt lat="39.160596" lon="8.6075322"><ele>99.0</ele><time>2026-03-28T16:50:19.896Z</time></trkpt><trkpt lat="39.1605873" lon="8.6073718"><ele>99.0</ele><time>2026-03-28T16:50:20.899Z</time></trkpt><trkpt lat="39.1605725" lon="8.6072273"><ele>99.0</ele><time>2026-03-28T16:50:21.907Z</time></trkpt><trkpt lat="39.16055" lon="8.6070823"><ele>99.0</ele><time>2026-03-28T16:50:22.906Z</time></trkpt><trkpt lat="39.1605273" lon="8.6069224"><ele>99.5</ele><time>2026-03-28T16:50:23.878Z</time></trkpt><trkpt lat="39.1605081" lon="8.6067658"><ele>100.0</ele><time>2026-03-28T16:50:24.877Z</time></trkpt><trkpt lat="39.1604859" lon="8.6066166"><ele>100.5</ele><time>2026-03-28T16:50:25.88Z</time></trkpt><trkpt lat="39.1604602" lon="8.6064658"><ele>101.0</ele><time>2026-03-28T16:50:26.852Z</time></trkpt><trkpt lat="39.1604366" lon="8.6063174"><ele>101.0</ele><time>2026-03-28T16:50:27.887Z</time></trkpt><trkpt lat="39.160412" lon="8.6061645"><ele>101.0</ele><time>2026-03-28T16:50:28.885Z</time></trkpt><trkpt lat="39.1603919" lon="8.6060174"><ele>101.0</ele><time>2026-03-28T16:50:29.878Z</time></trkpt><trkpt lat="39.1603768" lon="8.6058722"><ele>101.0</ele><time>2026-03-28T16:50:30.887Z</time></trkpt><trkpt lat="39.1603703" lon="8.6057183"><ele>102.0</ele><time>2026-03-28T16:50:31.872Z</time></trkpt><trkpt lat="39.160377" lon="8.6055503"><ele>103.0</ele><time>2026-03-28T16:50:32.88Z</time></trkpt><trkpt lat="39.1603902" lon="8.6053802"><ele>104.0</ele><time>2026-03-28T16:50:33.857Z</time></trkpt><trkpt lat="39.1604165" lon="8.6052172"><ele>105.0</ele><time>2026-03-28T16:50:34.877Z</time></trkpt><trkpt lat="39.1604463" lon="8.6050646"><ele>105.25</ele><time>2026-03-28T16:50:35.865Z</time></trkpt><trkpt lat="39.1604757" lon="8.6049087"><ele>105.5</ele><time>2026-03-28T16:50:36.825Z</time></trkpt><trkpt lat="39.1605006" lon="8.6047477"><ele>105.75</ele><time>2026-03-28T16:50:37.825Z</time></trkpt><trkpt lat="39.1605154" lon="8.6045823"><ele>106.0</ele><time>2026-03-28T16:50:38.823Z</time></trkpt><trkpt lat="39.1605272" lon="8.6044096"><ele>106.5</ele><time>2026-03-28T16:50:39.822Z</time></trkpt><trkpt lat="39.1605339" lon="8.604242"><ele>107.0</ele><time>2026-03-28T16:50:40.824Z</time></trkpt><trkpt lat="39.1605416" lon="8.6040857"><ele>107.5</ele><time>2026-03-28T16:50:41.828Z</time></trkpt><trkpt lat="39.1605493" lon="8.6039409"><ele>108.0</ele><time>2026-03-28T16:50:42.872Z</time></trkpt><trkpt lat="39.1605541" lon="8.6038104"><ele>108.0</ele><time>2026-03-28T16:50:43.885Z</time></trkpt><trkpt lat="39.1605566" lon="8.6036918"><ele>108.00000000000001</ele><time>2026-03-28T16:50:44.832Z</time></trkpt><trkpt lat="39.1605414" lon="8.6035665"><ele>108.00000000000001</ele><time>2026-03-28T16:50:45.871Z</time></trkpt><trkpt lat="39.1605042" lon="8.6034348"><ele>108.0</ele><time>2026-03-28T16:50:46.859Z</time></trkpt><trkpt lat="39.1604498" lon="8.6033173"><ele>108.0</ele><time>2026-03-28T16:50:47.867Z</time></trkpt><trkpt lat="39.1603961" lon="8.6032248"><ele>108.2</ele><time>2026-03-28T16:50:48.86Z</time></trkpt><trkpt lat="39.1603513" lon="8.6031583"><ele>108.4</ele><time>2026-03-28T16:50:49.875Z</time></trkpt><trkpt lat="39.1602895" lon="8.6030578"><ele>108.60000000000001</ele><time>2026-03-28T16:50:51.884Z</time></trkpt><trkpt lat="39.1602158" lon="8.6029305"><ele>108.80000000000001</ele><time>2026-03-28T16:50:53.897Z</time></trkpt><trkpt lat="39.1601645" lon="8.6028361"><ele>109.0</ele><time>2026-03-28T16:50:54.846Z</time></trkpt><trkpt lat="39.160116" lon="8.6027221"><ele>109.75</ele><time>2026-03-28T16:50:55.887Z</time></trkpt><trkpt lat="39.1600798" lon="8.6025812"><ele>110.5</ele><time>2026-03-28T16:50:56.892Z</time></trkpt><trkpt lat="39.1600588" lon="8.6024202"><ele>111.25</ele><time>2026-03-28T16:50:57.887Z</time></trkpt><trkpt lat="39.1600438" lon="8.6022654"><ele>112.0</ele><time>2026-03-28T16:50:58.882Z</time></trkpt><trkpt lat="39.1600297" lon="8.6021155"><ele>112.19999999999999</ele><time>2026-03-28T16:50:59.864Z</time></trkpt><trkpt lat="39.1600136" lon="8.60197"><ele>112.39999999999999</ele><time>2026-03-28T16:51:00.887Z</time></trkpt><trkpt lat="39.1599959" lon="8.6018182"><ele>112.60000000000001</ele><time>2026-03-28T16:51:01.888Z</time></trkpt><trkpt lat="39.1599749" lon="8.6016732"><ele>112.80000000000001</ele><time>2026-03-28T16:51:02.888Z</time></trkpt><trkpt lat="39.159956" lon="8.6015438"><ele>113.0</ele><time>2026-03-28T16:51:03.891Z</time></trkpt><trkpt lat="39.1599341" lon="8.6014468"><ele>112.99999999999999</ele><time>2026-03-28T16:51:04.889Z</time></trkpt><trkpt lat="39.1599164" lon="8.6013668"><ele>113.0</ele><time>2026-03-28T16:51:05.882Z</time></trkpt><trkpt lat="39.1599064" lon="8.6012838"><ele>113.0</ele><time>2026-03-28T16:51:07.893Z</time></trkpt><trkpt lat="39.1598752" lon="8.6011995"><ele>113.0</ele><time>2026-03-28T16:51:12.885Z</time></trkpt><trkpt lat="39.1597933" lon="8.6011456"><ele>112.99999999999999</ele><time>2026-03-28T16:51:14.873Z</time></trkpt><trkpt lat="39.1597324" lon="8.6010984"><ele>113.0</ele><time>2026-03-28T16:51:15.864Z</time></trkpt><trkpt lat="39.1596566" lon="8.6010263"><ele>112.83333333333333</ele><time>2026-03-28T16:51:16.876Z</time></trkpt><trkpt lat="39.1595796" lon="8.6009622"><ele>112.66666666666666</ele><time>2026-03-28T16:51:17.855Z</time></trkpt><trkpt lat="39.1595097" lon="8.6009118"><ele>112.5</ele><time>2026-03-28T16:51:18.836Z</time></trkpt><trkpt lat="39.1594501" lon="8.6008571"><ele>112.33333333333334</ele><time>2026-03-28T16:51:19.878Z</time></trkpt><trkpt lat="39.1593914" lon="8.6008164"><ele>112.16666666666667</ele><time>2026-03-28T16:51:20.861Z</time></trkpt><trkpt lat="39.1593343" lon="8.6007714"><ele>112.0</ele><time>2026-03-28T16:51:21.894Z</time></trkpt><trkpt lat="39.1592767" lon="8.6007133"><ele>112.00000000000001</ele><time>2026-03-28T16:51:22.875Z</time></trkpt><trkpt lat="39.1592172" lon="8.6006263"><ele>112.0</ele><time>2026-03-28T16:51:23.88Z</time></trkpt><trkpt lat="39.1591674" lon="8.6005343"><ele>112.0</ele><time>2026-03-28T16:51:24.883Z</time></trkpt><trkpt lat="39.1591341" lon="8.6004387"><ele>112.0</ele><time>2026-03-28T16:51:25.871Z</time></trkpt><trkpt lat="39.1591218" lon="8.6003319"><ele>112.00000000000001</ele><time>2026-03-28T16:51:26.882Z</time></trkpt><trkpt lat="39.1591225" lon="8.6002089"><ele>112.0</ele><time>2026-03-28T16:51:27.882Z</time></trkpt><trkpt lat="39.1591351" lon="8.600073"><ele>112.39999999999999</ele><time>2026-03-28T16:51:28.894Z</time></trkpt><trkpt lat="39.1591597" lon="8.5999289"><ele>112.79999999999998</ele><time>2026-03-28T16:51:29.865Z</time></trkpt><trkpt lat="39.1591855" lon="8.5997949"><ele>113.2</ele><time>2026-03-28T16:51:30.891Z</time></trkpt><trkpt lat="39.1592061" lon="8.5996752"><ele>113.6</ele><time>2026-03-28T16:51:31.884Z</time></trkpt><trkpt lat="39.1592223" lon="8.5995633"><ele>114.0</ele><time>2026-03-28T16:51:32.891Z</time></trkpt><trkpt lat="39.1592426" lon="8.5994496"><ele>114.80000000000001</ele><time>2026-03-28T16:51:33.861Z</time></trkpt><trkpt lat="39.1592588" lon="8.5993373"><ele>115.60000000000001</ele><time>2026-03-28T16:51:34.873Z</time></trkpt><trkpt lat="39.1592688" lon="8.5992267"><ele>116.4</ele><time>2026-03-28T16:51:35.897Z</time></trkpt><trkpt lat="39.1592693" lon="8.599113"><ele>117.2</ele><time>2026-03-28T16:51:36.895Z</time></trkpt><trkpt lat="39.1592604" lon="8.5989925"><ele>118.0</ele><time>2026-03-28T16:51:37.888Z</time></trkpt><trkpt lat="39.1592464" lon="8.5988718"><ele>118.0</ele><time>2026-03-28T16:51:38.865Z</time></trkpt><trkpt lat="39.1592349" lon="8.5987554"><ele>118.00000000000001</ele><time>2026-03-28T16:51:39.848Z</time></trkpt><trkpt lat="39.1592358" lon="8.5986399"><ele>118.00000000000001</ele><time>2026-03-28T16:51:40.868Z</time></trkpt><trkpt lat="39.1592317" lon="8.5985151"><ele>118.0</ele><time>2026-03-28T16:51:41.853Z</time></trkpt><trkpt lat="39.1592065" lon="8.5983671"><ele>118.0</ele><time>2026-03-28T16:51:42.862Z</time></trkpt><trkpt lat="39.159172" lon="8.5981988"><ele>118.5</ele><time>2026-03-28T16:51:43.892Z</time></trkpt><trkpt lat="39.1591366" lon="8.5980005"><ele>119.0</ele><time>2026-03-28T16:51:44.871Z</time></trkpt><trkpt lat="39.1591072" lon="8.597812"><ele>119.5</ele><time>2026-03-28T16:51:45.888Z</time></trkpt><trkpt lat="39.1590755" lon="8.5976408"><ele>120.0</ele><time>2026-03-28T16:51:46.882Z</time></trkpt><trkpt lat="39.1590414" lon="8.5974693"><ele>120.5</ele><time>2026-03-28T16:51:47.879Z</time></trkpt><trkpt lat="39.1590205" lon="8.5972908"><ele>121.0</ele><time>2026-03-28T16:51:48.885Z</time></trkpt><trkpt lat="39.1590084" lon="8.5971143"><ele>121.5</ele><time>2026-03-28T16:51:49.879Z</time></trkpt><trkpt lat="39.1589955" lon="8.5969502"><ele>122.0</ele><time>2026-03-28T16:51:50.876Z</time></trkpt><trkpt lat="39.1589878" lon="8.596807"><ele>122.8</ele><time>2026-03-28T16:51:51.843Z</time></trkpt><trkpt lat="39.1589903" lon="8.596678"><ele>123.6</ele><time>2026-03-28T16:51:52.83Z</time></trkpt><trkpt lat="39.1590102" lon="8.5965662"><ele>124.39999999999999</ele><time>2026-03-28T16:51:53.852Z</time></trkpt><trkpt lat="39.1590499" lon="8.5964732"><ele>125.19999999999999</ele><time>2026-03-28T16:51:54.828Z</time></trkpt><trkpt lat="39.1591064" lon="8.5963836"><ele>126.0</ele><time>2026-03-28T16:51:55.846Z</time></trkpt><trkpt lat="39.1591579" lon="8.5962686"><ele>129.0</ele><time>2026-03-28T16:51:56.883Z</time></trkpt><trkpt lat="39.1592079" lon="8.5961523"><ele>132.0</ele><time>2026-03-28T16:51:57.87Z</time></trkpt><trkpt lat="39.1592484" lon="8.5960297"><ele>135.0</ele><time>2026-03-28T16:51:58.878Z</time></trkpt><trkpt lat="39.1592717" lon="8.595895"><ele>138.0</ele><time>2026-03-28T16:51:59.9Z</time></trkpt><trkpt lat="39.1592813" lon="8.5957493"><ele>141.0</ele><time>2026-03-28T16:52:00.894Z</time></trkpt><trkpt lat="39.1592916" lon="8.595599"><ele>141.0</ele><time>2026-03-28T16:52:01.888Z</time></trkpt><trkpt lat="39.1592811" lon="8.5954641"><ele>141.0</ele><time>2026-03-28T16:52:02.889Z</time></trkpt><trkpt lat="39.1592524" lon="8.5953333"><ele>141.0</ele><time>2026-03-28T16:52:03.879Z</time></trkpt><trkpt lat="39.1592079" lon="8.5952136"><ele>141.0</ele><time>2026-03-28T16:52:04.907Z</time></trkpt><trkpt lat="39.1591504" lon="8.5951281"><ele>141.0</ele><time>2026-03-28T16:52:05.887Z</time></trkpt><trkpt lat="39.1590782" lon="8.5950313"><ele>140.75</ele><time>2026-03-28T16:52:06.885Z</time></trkpt><trkpt lat="39.1589902" lon="8.5949309"><ele>140.5</ele><time>2026-03-28T16:52:07.85Z</time></trkpt><trkpt lat="39.1589082" lon="8.5948282"><ele>140.25</ele><time>2026-03-28T16:52:08.885Z</time></trkpt><trkpt lat="39.158843" lon="8.5947064"><ele>140.0</ele><time>2026-03-28T16:52:09.883Z</time></trkpt><trkpt lat="39.1587951" lon="8.594576"><ele>141.83333333333331</ele><time>2026-03-28T16:52:10.882Z</time></trkpt><trkpt lat="39.1587612" lon="8.5944507"><ele>143.66666666666666</ele><time>2026-03-28T16:52:11.881Z</time></trkpt><trkpt lat="39.1587311" lon="8.594339"><ele>145.5</ele><time>2026-03-28T16:52:12.895Z</time></trkpt><trkpt lat="39.1587044" lon="8.5942532"><ele>147.33333333333334</ele><time>2026-03-28T16:52:13.9Z</time></trkpt><trkpt lat="39.1586739" lon="8.5941764"><ele>149.16666666666669</ele><time>2026-03-28T16:52:14.918Z</time></trkpt><trkpt lat="39.158641" lon="8.5940854"><ele>151.0</ele><time>2026-03-28T16:52:15.855Z</time></trkpt><trkpt lat="39.1585985" lon="8.5939839"><ele>151.0</ele><time>2026-03-28T16:52:16.876Z</time></trkpt><trkpt lat="39.1585528" lon="8.5938879"><ele>151.0</ele><time>2026-03-28T16:52:17.896Z</time></trkpt><trkpt lat="39.1585135" lon="8.593803"><ele>151.0</ele><time>2026-03-28T16:52:18.884Z</time></trkpt><trkpt lat="39.1584788" lon="8.5937254"><ele>151.0</ele><time>2026-03-28T16:52:19.868Z</time></trkpt><trkpt lat="39.1584331" lon="8.5935961"><ele>151.0</ele><time>2026-03-28T16:52:21.881Z</time></trkpt><trkpt lat="39.1584007" lon="8.5934933"><ele>151.0</ele><time>2026-03-28T16:52:23.884Z</time></trkpt><trkpt lat="39.1583744" lon="8.5934094"><ele>151.2</ele><time>2026-03-28T16:52:25.896Z</time></trkpt><trkpt lat="39.1583631" lon="8.5933181"><ele>151.39999999999998</ele><time>2026-03-28T16:52:28.888Z</time></trkpt><trkpt lat="39.1583859" lon="8.5932182"><ele>151.6</ele><time>2026-03-28T16:52:30.873Z</time></trkpt><trkpt lat="39.1583928" lon="8.5930603"><ele>151.79999999999998</ele><time>2026-03-28T16:52:32.88Z</time></trkpt><trkpt lat="39.1584001" lon="8.5929554"><ele>152.0</ele><time>2026-03-28T16:52:33.895Z</time></trkpt><trkpt lat="39.1584069" lon="8.5928318"><ele>152.0</ele><time>2026-03-28T16:52:34.9Z</time></trkpt><trkpt lat="39.1584161" lon="8.5926863"><ele>152.0</ele><time>2026-03-28T16:52:35.838Z</time></trkpt><trkpt lat="39.1584233" lon="8.5925345"><ele>152.0</ele><time>2026-03-28T16:52:36.874Z</time></trkpt><trkpt lat="39.1584267" lon="8.5923908"><ele>152.0</ele><time>2026-03-28T16:52:37.884Z</time></trkpt><trkpt lat="39.1584375" lon="8.5922576"><ele>152.0</ele><time>2026-03-28T16:52:38.879Z</time></trkpt><trkpt lat="39.1584467" lon="8.5921392"><ele>152.0</ele><time>2026-03-28T16:52:39.882Z</time></trkpt><trkpt lat="39.158454" lon="8.5920286"><ele>152.0</ele><time>2026-03-28T16:52:40.878Z</time></trkpt><trkpt lat="39.15845" lon="8.5919166"><ele>152.0</ele><time>2026-03-28T16:52:41.898Z</time></trkpt><trkpt lat="39.1584407" lon="8.5918124"><ele>152.0</ele><time>2026-03-28T16:52:42.886Z</time></trkpt><trkpt lat="39.1584364" lon="8.5917177"><ele>152.0</ele><time>2026-03-28T16:52:43.878Z</time></trkpt><trkpt lat="39.1584219" lon="8.5915958"><ele>152.0</ele><time>2026-03-28T16:52:45.884Z</time></trkpt><trkpt lat="39.1584066" lon="8.5914886"><ele>152.0</ele><time>2026-03-28T16:52:48.86Z</time></trkpt><trkpt lat="39.158358" lon="8.5913347"><ele>152.0</ele><time>2026-03-28T16:52:50.864Z</time></trkpt><trkpt lat="39.158314" lon="8.591217"><ele>152.0</ele><time>2026-03-28T16:52:51.881Z</time></trkpt><trkpt lat="39.158268" lon="8.5910922"><ele>152.0</ele><time>2026-03-28T16:52:52.88Z</time></trkpt><trkpt lat="39.1582242" lon="8.5909936"><ele>152.0</ele><time>2026-03-28T16:52:53.885Z</time></trkpt><trkpt lat="39.1581688" lon="8.590903"><ele>154.2</ele><time>2026-03-28T16:52:54.854Z</time></trkpt><trkpt lat="39.1580938" lon="8.5908086"><ele>156.39999999999998</ele><time>2026-03-28T16:52:55.828Z</time></trkpt><trkpt lat="39.1580138" lon="8.5907169"><ele>158.60000000000002</ele><time>2026-03-28T16:52:56.882Z</time></trkpt><trkpt lat="39.1579415" lon="8.5906263"><ele>160.8</ele><time>2026-03-28T16:52:57.883Z</time></trkpt><trkpt lat="39.1578712" lon="8.5905209"><ele>163.0</ele><time>2026-03-28T16:52:58.88Z</time></trkpt><trkpt lat="39.1578046" lon="8.5904045"><ele>164.75</ele><time>2026-03-28T16:52:59.879Z</time></trkpt><trkpt lat="39.1577312" lon="8.590294"><ele>166.5</ele><time>2026-03-28T16:53:00.859Z</time></trkpt><trkpt lat="39.157637" lon="8.5901807"><ele>168.25</ele><time>2026-03-28T16:53:01.875Z</time></trkpt><trkpt lat="39.1575342" lon="8.5900607"><ele>170.0</ele><time>2026-03-28T16:53:02.857Z</time></trkpt><trkpt lat="39.1574466" lon="8.5899663"><ele>170.0</ele><time>2026-03-28T16:53:03.876Z</time></trkpt><trkpt lat="39.1573749" lon="8.5898848"><ele>170.0</ele><time>2026-03-28T16:53:04.885Z</time></trkpt><trkpt lat="39.1572908" lon="8.5898101"><ele>170.0</ele><time>2026-03-28T16:53:05.9Z</time></trkpt><trkpt lat="39.1571888" lon="8.5897321"><ele>170.0</ele><time>2026-03-28T16:53:06.883Z</time></trkpt><trkpt lat="39.1570728" lon="8.5896403"><ele>170.25</ele><time>2026-03-28T16:53:07.893Z</time></trkpt><trkpt lat="39.1569601" lon="8.5895371"><ele>170.5</ele><time>2026-03-28T16:53:08.874Z</time></trkpt><trkpt lat="39.1568622" lon="8.5894219"><ele>170.75</ele><time>2026-03-28T16:53:09.868Z</time></trkpt><trkpt lat="39.1567711" lon="8.5892958"><ele>171.0</ele><time>2026-03-28T16:53:10.894Z</time></trkpt><trkpt lat="39.1566821" lon="8.5891807"><ele>173.60000000000002</ele><time>2026-03-28T16:53:11.879Z</time></trkpt><trkpt lat="39.1565907" lon="8.5890701"><ele>176.2</ele><time>2026-03-28T16:53:12.909Z</time></trkpt><trkpt lat="39.1565101" lon="8.5889705"><ele>178.8</ele><time>2026-03-28T16:53:13.878Z</time></trkpt><trkpt lat="39.15645" lon="8.5888722"><ele>181.39999999999998</ele><time>2026-03-28T16:53:14.901Z</time></trkpt><trkpt lat="39.1564205" lon="8.5887706"><ele>184.0</ele><time>2026-03-28T16:53:15.876Z</time></trkpt><trkpt lat="39.1564131" lon="8.5886805"><ele>186.66666666666669</ele><time>2026-03-28T16:53:16.912Z</time></trkpt><trkpt lat="39.1564212" lon="8.5885893"><ele>189.33333333333334</ele><time>2026-03-28T16:53:17.88Z</time></trkpt><trkpt lat="39.1564266" lon="8.5884977"><ele>192.0</ele><time>2026-03-28T16:53:18.875Z</time></trkpt><trkpt lat="39.1564231" lon="8.5884047"><ele>194.66666666666669</ele><time>2026-03-28T16:53:19.897Z</time></trkpt><trkpt lat="39.1564057" lon="8.5882976"><ele>197.33333333333334</ele><time>2026-03-28T16:53:20.896Z</time></trkpt><trkpt lat="39.1563796" lon="8.588192"><ele>200.0</ele><time>2026-03-28T16:53:21.891Z</time></trkpt><trkpt lat="39.1563388" lon="8.5880964"><ele>200.0</ele><time>2026-03-28T16:53:22.887Z</time></trkpt><trkpt lat="39.1562861" lon="8.588001"><ele>200.0</ele><time>2026-03-28T16:53:23.891Z</time></trkpt><trkpt lat="39.1562309" lon="8.5879308"><ele>200.0</ele><time>2026-03-28T16:53:24.868Z</time></trkpt><trkpt lat="39.1561487" lon="8.5878365"><ele>200.0</ele><time>2026-03-28T16:53:26.882Z</time></trkpt><trkpt lat="39.1560921" lon="8.5877713"><ele>200.0</ele><time>2026-03-28T16:53:27.884Z</time></trkpt><trkpt lat="39.1560117" lon="8.5876791"><ele>198.5</ele><time>2026-03-28T16:53:28.85Z</time></trkpt><trkpt lat="39.155938" lon="8.5875823"><ele>197.0</ele><time>2026-03-28T16:53:29.899Z</time></trkpt><trkpt lat="39.1558704" lon="8.5874627"><ele>195.5</ele><time>2026-03-28T16:53:30.89Z</time></trkpt><trkpt lat="39.1557948" lon="8.5873177"><ele>194.0</ele><time>2026-03-28T16:53:31.88Z</time></trkpt><trkpt lat="39.1557275" lon="8.5871959"><ele>196.79999999999998</ele><time>2026-03-28T16:53:32.887Z</time></trkpt><trkpt lat="39.1556722" lon="8.587085"><ele>199.6</ele><time>2026-03-28T16:53:33.897Z</time></trkpt><trkpt lat="39.1556324" lon="8.5869606"><ele>202.4</ele><time>2026-03-28T16:53:34.885Z</time></trkpt><trkpt lat="39.1555984" lon="8.5868305"><ele>205.2</ele><time>2026-03-28T16:53:35.913Z</time></trkpt><trkpt lat="39.15556" lon="8.5866972"><ele>208.0</ele><time>2026-03-28T16:53:36.876Z</time></trkpt><trkpt lat="39.1555114" lon="8.5865533"><ele>208.0</ele><time>2026-03-28T16:53:37.879Z</time></trkpt><trkpt lat="39.1554645" lon="8.5864093"><ele>208.0</ele><time>2026-03-28T16:53:38.876Z</time></trkpt><trkpt lat="39.1554193" lon="8.5862757"><ele>208.0</ele><time>2026-03-28T16:53:39.865Z</time></trkpt><trkpt lat="39.1553817" lon="8.5861541"><ele>208.0</ele><time>2026-03-28T16:53:40.889Z</time></trkpt><trkpt lat="39.15534" lon="8.5860393"><ele>208.0</ele><time>2026-03-28T16:53:41.89Z</time></trkpt><trkpt lat="39.1552849" lon="8.5859215"><ele>207.0</ele><time>2026-03-28T16:53:42.874Z</time></trkpt><trkpt lat="39.1552186" lon="8.5858012"><ele>206.0</ele><time>2026-03-28T16:53:43.866Z</time></trkpt><trkpt lat="39.1551502" lon="8.5856672"><ele>205.0</ele><time>2026-03-28T16:53:44.88Z</time></trkpt><trkpt lat="39.1550877" lon="8.5855348"><ele>204.0</ele><time>2026-03-28T16:53:45.891Z</time></trkpt><trkpt lat="39.1550188" lon="8.5854241"><ele>205.25</ele><time>2026-03-28T16:53:46.858Z</time></trkpt><trkpt lat="39.1549254" lon="8.5853129"><ele>206.5</ele><time>2026-03-28T16:53:47.889Z</time></trkpt><trkpt lat="39.1548095" lon="8.585202"><ele>207.75</ele><time>2026-03-28T16:53:48.85Z</time></trkpt><trkpt lat="39.1546882" lon="8.5850903"><ele>209.0</ele><time>2026-03-28T16:53:49.852Z</time></trkpt><trkpt lat="39.1545808" lon="8.5849855"><ele>210.5</ele><time>2026-03-28T16:53:50.862Z</time></trkpt><trkpt lat="39.1544855" lon="8.5848798"><ele>212.0</ele><time>2026-03-28T16:53:51.87Z</time></trkpt><trkpt lat="39.1543848" lon="8.584758"><ele>213.5</ele><time>2026-03-28T16:53:52.871Z</time></trkpt><trkpt lat="39.1542862" lon="8.5846383"><ele>215.0</ele><time>2026-03-28T16:53:53.837Z</time></trkpt><trkpt lat="39.1542015" lon="8.5845243"><ele>215.4</ele><time>2026-03-28T16:53:54.836Z</time></trkpt><trkpt lat="39.1541349" lon="8.584421"><ele>215.8</ele><time>2026-03-28T16:53:55.88Z</time></trkpt><trkpt lat="39.1540903" lon="8.5843061"><ele>216.2</ele><time>2026-03-28T16:53:56.86Z</time></trkpt><trkpt lat="39.154062" lon="8.5841708"><ele>216.6</ele><time>2026-03-28T16:53:57.848Z</time></trkpt><trkpt lat="39.1540422" lon="8.5840196"><ele>217.0</ele><time>2026-03-28T16:53:58.864Z</time></trkpt><trkpt lat="39.1540246" lon="8.5838525"><ele>220.0</ele><time>2026-03-28T16:53:59.844Z</time></trkpt><trkpt lat="39.1540046" lon="8.5836847"><ele>223.0</ele><time>2026-03-28T16:54:00.861Z</time></trkpt><trkpt lat="39.1539778" lon="8.583526"><ele>226.0</ele><time>2026-03-28T16:54:01.881Z</time></trkpt><trkpt lat="39.1539531" lon="8.583386"><ele>229.0</ele><time>2026-03-28T16:54:02.861Z</time></trkpt><trkpt lat="39.1539269" lon="8.5832799"><ele>230.33333333333331</ele><time>2026-03-28T16:54:03.859Z</time></trkpt><trkpt lat="39.1539066" lon="8.5831881"><ele>231.66666666666666</ele><time>2026-03-28T16:54:04.852Z</time></trkpt><trkpt lat="39.1539168" lon="8.5830973"><ele>233.0</ele><time>2026-03-28T16:54:05.878Z</time></trkpt><trkpt lat="39.1539575" lon="8.5829979"><ele>234.33333333333331</ele><time>2026-03-28T16:54:06.852Z</time></trkpt><trkpt lat="39.1540058" lon="8.5829222"><ele>235.66666666666666</ele><time>2026-03-28T16:54:07.873Z</time></trkpt><trkpt lat="39.1540454" lon="8.5828342"><ele>237.0</ele><time>2026-03-28T16:54:09.842Z</time></trkpt><trkpt lat="39.1539844" lon="8.5827257"><ele>240.5</ele><time>2026-03-28T16:54:11.843Z</time></trkpt><trkpt lat="39.1538647" lon="8.5826357"><ele>244.0</ele><time>2026-03-28T16:54:13.853Z</time></trkpt><trkpt lat="39.1537805" lon="8.5825854"><ele>247.5</ele><time>2026-03-28T16:54:14.869Z</time></trkpt><trkpt lat="39.1536795" lon="8.5825281"><ele>251.0</ele><time>2026-03-28T16:54:15.87Z</time></trkpt><trkpt lat="39.153577" lon="8.5824749"><ele>251.00000000000003</ele><time>2026-03-28T16:54:16.865Z</time></trkpt><trkpt lat="39.1535093" lon="8.582441"><ele>251.0</ele><time>2026-03-28T16:54:17.875Z</time></trkpt><trkpt lat="39.1534945" lon="8.58231"><ele>251.0</ele><time>2026-03-28T16:54:19.869Z</time></trkpt><trkpt lat="39.1535246" lon="8.5822317"><ele>251.0</ele><time>2026-03-28T16:54:20.864Z</time></trkpt><trkpt lat="39.1535676" lon="8.5821447"><ele>251.00000000000003</ele><time>2026-03-28T16:54:21.864Z</time></trkpt><trkpt lat="39.1536191" lon="8.5820618"><ele>251.0</ele><time>2026-03-28T16:54:22.857Z</time></trkpt><trkpt lat="39.1536593" lon="8.5819886"><ele>253.8</ele><time>2026-03-28T16:54:23.871Z</time></trkpt><trkpt lat="39.1536576" lon="8.5818606"><ele>256.6</ele><time>2026-03-28T16:54:25.885Z</time></trkpt><trkpt lat="39.1535803" lon="8.5817365"><ele>259.4</ele><time>2026-03-28T16:54:27.892Z</time></trkpt><trkpt lat="39.1535239" lon="8.5816365"><ele>262.2</ele><time>2026-03-28T16:54:29.889Z</time></trkpt><trkpt lat="39.15352" lon="8.581543"><ele>265.0</ele><time>2026-03-28T16:54:31.875Z</time></trkpt><trkpt lat="39.1535405" lon="8.5814501"><ele>265.0</ele><time>2026-03-28T16:54:33.873Z</time></trkpt><trkpt lat="39.1535388" lon="8.5813264"><ele>265.0</ele><time>2026-03-28T16:54:35.857Z</time></trkpt><trkpt lat="39.1535204" lon="8.581195"><ele>265.0</ele><time>2026-03-28T16:54:37.903Z</time></trkpt><trkpt lat="39.1535095" lon="8.5811033"><ele>265.0</ele><time>2026-03-28T16:54:38.892Z</time></trkpt><trkpt lat="39.1534985" lon="8.5810144"><ele>265.0</ele><time>2026-03-28T16:54:39.885Z</time></trkpt><trkpt lat="39.153474" lon="8.5808762"><ele>265.3333333333333</ele><time>2026-03-28T16:54:41.867Z</time></trkpt><trkpt lat="39.1534195" lon="8.5807913"><ele>265.66666666666663</ele><time>2026-03-28T16:54:43.889Z</time></trkpt><trkpt lat="39.1534182" lon="8.5806867"><ele>266.0</ele><time>2026-03-28T16:54:45.879Z</time></trkpt><trkpt lat="39.1534532" lon="8.5805857"><ele>266.3333333333333</ele><time>2026-03-28T16:54:47.864Z</time></trkpt><trkpt lat="39.153506" lon="8.5804931"><ele>266.6666666666667</ele><time>2026-03-28T16:54:49.892Z</time></trkpt><trkpt lat="39.1535621" lon="8.5804352"><ele>267.0</ele><time>2026-03-28T16:54:52.87Z</time></trkpt><trkpt lat="39.1536216" lon="8.5803573"><ele>266.8333333333333</ele><time>2026-03-28T16:54:54.856Z</time></trkpt><trkpt lat="39.1536675" lon="8.5802913"><ele>266.6666666666667</ele><time>2026-03-28T16:54:56.887Z</time></trkpt><trkpt lat="39.1537131" lon="8.5801836"><ele>266.5</ele><time>2026-03-28T16:54:59.867Z</time></trkpt><trkpt lat="39.1537277" lon="8.5800663"><ele>266.33333333333337</ele><time>2026-03-28T16:55:01.858Z</time></trkpt><trkpt lat="39.1537427" lon="8.5799679"><ele>266.1666666666667</ele><time>2026-03-28T16:55:03.864Z</time></trkpt><trkpt lat="39.1537711" lon="8.5798611"><ele>266.0</ele><time>2026-03-28T16:55:05.882Z</time></trkpt><trkpt lat="39.1538004" lon="8.5797361"><ele>266.0</ele><time>2026-03-28T16:55:07.885Z</time></trkpt><trkpt lat="39.1538117" lon="8.5796478"><ele>266.0</ele><time>2026-03-28T16:55:08.876Z</time></trkpt><trkpt lat="39.1538175" lon="8.5795613"><ele>266.0</ele><time>2026-03-28T16:55:09.851Z</time></trkpt><trkpt lat="39.1538189" lon="8.5794154"><ele>266.0</ele><time>2026-03-28T16:55:11.834Z</time></trkpt><trkpt lat="39.1538115" lon="8.5792698"><ele>266.0</ele><time>2026-03-28T16:55:13.851Z</time></trkpt><trkpt lat="39.1537949" lon="8.5791907"><ele>266.0</ele><time>2026-03-28T16:55:14.858Z</time></trkpt><trkpt lat="39.1537668" lon="8.579104"><ele>265.33333333333337</ele><time>2026-03-28T16:55:15.862Z</time></trkpt><trkpt lat="39.1537341" lon="8.5790061"><ele>264.6666666666667</ele><time>2026-03-28T16:55:16.871Z</time></trkpt><trkpt lat="39.1537097" lon="8.5789068"><ele>264.0</ele><time>2026-03-28T16:55:17.877Z</time></trkpt><trkpt lat="39.1536958" lon="8.5788144"><ele>263.3333333333333</ele><time>2026-03-28T16:55:18.863Z</time></trkpt><trkpt lat="39.1536866" lon="8.5787284"><ele>262.66666666666663</ele><time>2026-03-28T16:55:19.865Z</time></trkpt><trkpt lat="39.1537103" lon="8.5786074"><ele>262.0</ele><time>2026-03-28T16:55:21.879Z</time></trkpt><trkpt lat="39.1537716" lon="8.5785014"><ele>261.16666666666663</ele><time>2026-03-28T16:55:23.863Z</time></trkpt><trkpt lat="39.1537887" lon="8.5783656"><ele>260.3333333333333</ele><time>2026-03-28T16:55:25.883Z</time></trkpt><trkpt lat="39.1537869" lon="8.5782794"><ele>259.5</ele><time>2026-03-28T16:55:26.871Z</time></trkpt><trkpt lat="39.1537765" lon="8.5781844"><ele>258.6666666666667</ele><time>2026-03-28T16:55:27.858Z</time></trkpt><trkpt lat="39.1537589" lon="8.578101"><ele>257.83333333333337</ele><time>2026-03-28T16:55:28.872Z</time></trkpt><trkpt lat="39.1537428" lon="8.5780187"><ele>257.0</ele><time>2026-03-28T16:55:29.871Z</time></trkpt><trkpt lat="39.153725" lon="8.5778646"><ele>256.2</ele><time>2026-03-28T16:55:31.864Z</time></trkpt><trkpt lat="39.1537419" lon="8.577725"><ele>255.39999999999998</ele><time>2026-03-28T16:55:33.878Z</time></trkpt><trkpt lat="39.1537644" lon="8.5776261"><ele>254.60000000000002</ele><time>2026-03-28T16:55:35.876Z</time></trkpt><trkpt lat="39.1538206" lon="8.5775291"><ele>253.8</ele><time>2026-03-28T16:55:38.874Z</time></trkpt><trkpt lat="39.153876" lon="8.5774533"><ele>253.0</ele><time>2026-03-28T16:55:40.872Z</time></trkpt><trkpt lat="39.1538801" lon="8.5773116"><ele>253.0</ele><time>2026-03-28T16:55:42.865Z</time></trkpt><trkpt lat="39.1538873" lon="8.5771488"><ele>253.0</ele><time>2026-03-28T16:55:44.87Z</time></trkpt><trkpt lat="39.1538973" lon="8.5770682"><ele>253.0</ele><time>2026-03-28T16:55:45.89Z</time></trkpt><trkpt lat="39.1538895" lon="8.5769291"><ele>253.0</ele><time>2026-03-28T16:55:47.852Z</time></trkpt><trkpt lat="39.1538891" lon="8.5767937"><ele>253.0</ele><time>2026-03-28T16:55:49.881Z</time></trkpt><trkpt lat="39.153879" lon="8.576709"><ele>252.33333333333331</ele><time>2026-03-28T16:55:50.859Z</time></trkpt><trkpt lat="39.15387" lon="8.5766179"><ele>251.66666666666666</ele><time>2026-03-28T16:55:51.875Z</time></trkpt><trkpt lat="39.1538677" lon="8.5765108"><ele>251.0</ele><time>2026-03-28T16:55:52.853Z</time></trkpt><trkpt lat="39.1538579" lon="8.5764085"><ele>250.33333333333331</ele><time>2026-03-28T16:55:53.861Z</time></trkpt><trkpt lat="39.1538491" lon="8.5763145"><ele>249.66666666666666</ele><time>2026-03-28T16:55:54.854Z</time></trkpt><trkpt lat="39.1538346" lon="8.5762271"><ele>249.0</ele><time>2026-03-28T16:55:55.88Z</time></trkpt><trkpt lat="39.1538312" lon="8.5760726"><ele>248.0</ele><time>2026-03-28T16:55:57.883Z</time></trkpt><trkpt lat="39.153845" lon="8.5759806"><ele>246.99999999999997</ele><time>2026-03-28T16:55:58.887Z</time></trkpt><trkpt lat="39.1538227" lon="8.5758545"><ele>245.99999999999997</ele><time>2026-03-28T16:56:00.88Z</time></trkpt><trkpt lat="39.1537883" lon="8.5757151"><ele>245.0</ele><time>2026-03-28T16:56:02.882Z</time></trkpt><trkpt lat="39.1537727" lon="8.5756113"><ele>244.0</ele><time>2026-03-28T16:56:04.893Z</time></trkpt><trkpt lat="39.1537994" lon="8.5754884"><ele>242.75</ele><time>2026-03-28T16:56:06.883Z</time></trkpt><trkpt lat="39.1538453" lon="8.5753393"><ele>241.5</ele><time>2026-03-28T16:56:08.887Z</time></trkpt><trkpt lat="39.1538763" lon="8.575198"><ele>240.25</ele><time>2026-03-28T16:56:10.878Z</time></trkpt><trkpt lat="39.1538876" lon="8.5750532"><ele>239.0</ele><time>2026-03-28T16:56:12.86Z</time></trkpt><trkpt lat="39.1538976" lon="8.5748921"><ele>239.0</ele><time>2026-03-28T16:56:14.889Z</time></trkpt><trkpt lat="39.1539122" lon="8.5747382"><ele>238.99999999999997</ele><time>2026-03-28T16:56:16.861Z</time></trkpt><trkpt lat="39.1539282" lon="8.5746057"><ele>238.99999999999997</ele><time>2026-03-28T16:56:18.882Z</time></trkpt><trkpt lat="39.1539407" lon="8.5744718"><ele>239.0</ele><time>2026-03-28T16:56:20.874Z</time></trkpt><trkpt lat="39.1539583" lon="8.5743662"><ele>239.0</ele><time>2026-03-28T16:56:22.848Z</time></trkpt><trkpt lat="39.1539743" lon="8.5742712"><ele>237.33333333333334</ele><time>2026-03-28T16:56:24.888Z</time></trkpt><trkpt lat="39.1539897" lon="8.5741903"><ele>235.66666666666669</ele><time>2026-03-28T16:56:26.871Z</time></trkpt><trkpt lat="39.1540174" lon="8.5740897"><ele>234.0</ele><time>2026-03-28T16:56:30.885Z</time></trkpt><trkpt lat="39.1540293" lon="8.5739995"><ele>232.33333333333331</ele><time>2026-03-28T16:56:33.89Z</time></trkpt><trkpt lat="39.1540035" lon="8.5739077"><ele>230.66666666666666</ele><time>2026-03-28T16:56:35.877Z</time></trkpt><trkpt lat="39.153976" lon="8.5738006"><ele>229.0</ele><time>2026-03-28T16:56:37.873Z</time></trkpt><trkpt lat="39.1539686" lon="8.573682"><ele>227.33333333333331</ele><time>2026-03-28T16:56:39.892Z</time></trkpt><trkpt lat="39.153966" lon="8.5735746"><ele>225.66666666666666</ele><time>2026-03-28T16:56:41.903Z</time></trkpt><trkpt lat="39.1539494" lon="8.5734846"><ele>224.0</ele><time>2026-03-28T16:56:43.877Z</time></trkpt><trkpt lat="39.1539703" lon="8.5733961"><ele>222.33333333333331</ele><time>2026-03-28T16:56:45.892Z</time></trkpt><trkpt lat="39.1540053" lon="8.5732964"><ele>220.66666666666666</ele><time>2026-03-28T16:56:47.892Z</time></trkpt><trkpt lat="39.1540262" lon="8.5731681"><ele>219.0</ele><time>2026-03-28T16:56:49.882Z</time></trkpt><trkpt lat="39.1540428" lon="8.5730232"><ele>217.0</ele><time>2026-03-28T16:56:51.873Z</time></trkpt><trkpt lat="39.154058" lon="8.5729002"><ele>214.99999999999997</ele><time>2026-03-28T16:56:53.895Z</time></trkpt><trkpt lat="39.1540702" lon="8.5727925"><ele>213.0</ele><time>2026-03-28T16:56:55.877Z</time></trkpt><trkpt lat="39.1541164" lon="8.5727016"><ele>211.0</ele><time>2026-03-28T16:56:57.881Z</time></trkpt><trkpt lat="39.154214" lon="8.5726615"><ele>209.0</ele><time>2026-03-28T16:56:59.885Z</time></trkpt><trkpt lat="39.1543183" lon="8.5726572"><ele>207.50000000000003</ele><time>2026-03-28T16:57:01.884Z</time></trkpt><trkpt lat="39.1544114" lon="8.5726608"><ele>206.0</ele><time>2026-03-28T16:57:03.881Z</time></trkpt><trkpt lat="39.154494" lon="8.572643"><ele>204.5</ele><time>2026-03-28T16:57:05.842Z</time></trkpt><trkpt lat="39.1545455" lon="8.5725522"><ele>203.0</ele><time>2026-03-28T16:57:07.882Z</time></trkpt><trkpt lat="39.1545363" lon="8.5724264"><ele>201.50000000000003</ele><time>2026-03-28T16:57:09.86Z</time></trkpt><trkpt lat="39.1545087" lon="8.572346"><ele>200.0</ele><time>2026-03-28T16:57:11.858Z</time></trkpt><trkpt lat="39.1544946" lon="8.5722092"><ele>200.00000000000003</ele><time>2026-03-28T16:57:13.873Z</time></trkpt><trkpt lat="39.1545316" lon="8.5720845"><ele>200.0</ele><time>2026-03-28T16:57:15.881Z</time></trkpt><trkpt lat="39.1545899" lon="8.5720301"><ele>200.0</ele><time>2026-03-28T16:57:17.879Z</time></trkpt><trkpt lat="39.1546554" lon="8.5719759"><ele>200.0</ele><time>2026-03-28T16:57:20.862Z</time></trkpt><trkpt lat="39.1547191" lon="8.5719062"><ele>200.00000000000003</ele><time>2026-03-28T16:57:22.874Z</time></trkpt><trkpt lat="39.154785" lon="8.5717958"><ele>200.0</ele><time>2026-03-28T16:57:24.889Z</time></trkpt><trkpt lat="39.1548478" lon="8.5716944"><ele>198.33333333333334</ele><time>2026-03-28T16:57:26.877Z</time></trkpt><trkpt lat="39.1548934" lon="8.571635"><ele>196.66666666666669</ele><time>2026-03-28T16:57:27.879Z</time></trkpt><trkpt lat="39.154995" lon="8.5715693"><ele>195.0</ele><time>2026-03-28T16:57:29.89Z</time></trkpt><trkpt lat="39.1550683" lon="8.5715119"><ele>193.33333333333334</ele><time>2026-03-28T16:57:31.873Z</time></trkpt><trkpt lat="39.1551202" lon="8.5714038"><ele>191.66666666666669</ele><time>2026-03-28T16:57:34.877Z</time></trkpt><trkpt lat="39.1551602" lon="8.5713403"><ele>190.0</ele><time>2026-03-28T16:58:17.898Z</time></trkpt><trkpt lat="39.1552204" lon="8.5712831"><ele>190.0</ele><time>2026-03-28T16:58:19.893Z</time></trkpt><trkpt lat="39.1553093" lon="8.5712174"><ele>190.0</ele><time>2026-03-28T16:58:21.876Z</time></trkpt><trkpt lat="39.1554125" lon="8.5711107"><ele>190.0</ele><time>2026-03-28T16:58:23.875Z</time></trkpt><trkpt lat="39.1554754" lon="8.5710174"><ele>190.0</ele><time>2026-03-28T16:58:24.846Z</time></trkpt><trkpt lat="39.1555373" lon="8.5709296"><ele>190.0</ele><time>2026-03-28T16:58:25.858Z</time></trkpt><trkpt lat="39.155587" lon="8.5708584"><ele>189.83333333333334</ele><time>2026-03-28T16:58:26.858Z</time></trkpt><trkpt lat="39.1556396" lon="8.5707942"><ele>189.66666666666669</ele><time>2026-03-28T16:58:27.885Z</time></trkpt><trkpt lat="39.1556901" lon="8.5707345"><ele>189.5</ele><time>2026-03-28T16:58:28.882Z</time></trkpt><trkpt lat="39.1557286" lon="8.5706636"><ele>189.33333333333334</ele><time>2026-03-28T16:58:29.872Z</time></trkpt><trkpt lat="39.1557425" lon="8.5705195"><ele>189.16666666666666</ele><time>2026-03-28T16:58:31.874Z</time></trkpt><trkpt lat="39.1557916" lon="8.5703791"><ele>189.0</ele><time>2026-03-28T16:58:33.87Z</time></trkpt><trkpt lat="39.1558731" lon="8.5702673"><ele>188.79999999999998</ele><time>2026-03-28T16:58:35.898Z</time></trkpt><trkpt lat="39.1558393" lon="8.5701055"><ele>188.6</ele><time>2026-03-28T16:58:37.873Z</time></trkpt><trkpt lat="39.1558151" lon="8.5699978"><ele>188.4</ele><time>2026-03-28T16:58:38.862Z</time></trkpt><trkpt lat="39.1557988" lon="8.5698652"><ele>188.2</ele><time>2026-03-28T16:58:39.881Z</time></trkpt><trkpt lat="39.1557871" lon="8.5697371"><ele>188.0</ele><time>2026-03-28T16:58:40.893Z</time></trkpt><trkpt lat="39.1557731" lon="8.5696307"><ele>188.0</ele><time>2026-03-28T16:58:41.891Z</time></trkpt><trkpt lat="39.155763" lon="8.5695388"><ele>188.0</ele><time>2026-03-28T16:58:42.882Z</time></trkpt><trkpt lat="39.1557473" lon="8.5694259"><ele>188.0</ele><time>2026-03-28T16:58:44.887Z</time></trkpt><trkpt lat="39.1557391" lon="8.5693333"><ele>188.0</ele><time>2026-03-28T16:58:46.886Z</time></trkpt><trkpt lat="39.1557029" lon="8.5691921"><ele>188.0</ele><time>2026-03-28T16:58:48.872Z</time></trkpt><trkpt lat="39.1556774" lon="8.569083"><ele>188.0</ele><time>2026-03-28T16:58:49.878Z</time></trkpt><trkpt lat="39.1556523" lon="8.5689432"><ele>187.60000000000002</ele><time>2026-03-28T16:58:50.871Z</time></trkpt><trkpt lat="39.1556348" lon="8.5687718"><ele>187.20000000000002</ele><time>2026-03-28T16:58:51.852Z</time></trkpt><trkpt lat="39.1556295" lon="8.5686062"><ele>186.8</ele><time>2026-03-28T16:58:52.87Z</time></trkpt><trkpt lat="39.1556199" lon="8.5684858"><ele>186.4</ele><time>2026-03-28T16:58:53.874Z</time></trkpt><trkpt lat="39.1556317" lon="8.5683767"><ele>186.0</ele><time>2026-03-28T16:58:54.829Z</time></trkpt><trkpt lat="39.1556577" lon="8.5682619"><ele>186.0</ele><time>2026-03-28T16:58:55.892Z</time></trkpt><trkpt lat="39.1556813" lon="8.5681482"><ele>186.0</ele><time>2026-03-28T16:58:56.833Z</time></trkpt><trkpt lat="39.1556902" lon="8.5680231"><ele>186.0</ele><time>2026-03-28T16:58:57.88Z</time></trkpt><trkpt lat="39.155685" lon="8.5678825"><ele>186.0</ele><time>2026-03-28T16:58:58.856Z</time></trkpt><trkpt lat="39.1556765" lon="8.5677616"><ele>186.0</ele><time>2026-03-28T16:58:59.887Z</time></trkpt><trkpt lat="39.1556597" lon="8.5676455"><ele>186.0</ele><time>2026-03-28T16:59:00.87Z</time></trkpt><trkpt lat="39.1556314" lon="8.5675287"><ele>186.0</ele><time>2026-03-28T16:59:01.868Z</time></trkpt><trkpt lat="39.1556044" lon="8.5673945"><ele>186.0</ele><time>2026-03-28T16:59:02.894Z</time></trkpt><trkpt lat="39.1555772" lon="8.5672573"><ele>186.0</ele><time>2026-03-28T16:59:03.876Z</time></trkpt><trkpt lat="39.1555671" lon="8.5671331"><ele>186.0</ele><time>2026-03-28T16:59:04.859Z</time></trkpt><trkpt lat="39.155565" lon="8.5670023"><ele>186.0</ele><time>2026-03-28T16:59:05.892Z</time></trkpt><trkpt lat="39.1555655" lon="8.5668686"><ele>186.0</ele><time>2026-03-28T16:59:06.881Z</time></trkpt><trkpt lat="39.1555448" lon="8.5667516"><ele>186.0</ele><time>2026-03-28T16:59:07.882Z</time></trkpt><trkpt lat="39.1555109" lon="8.5666467"><ele>186.0</ele><time>2026-03-28T16:59:08.879Z</time></trkpt><trkpt lat="39.155478" lon="8.5665447"><ele>186.0</ele><time>2026-03-28T16:59:09.873Z</time></trkpt><trkpt lat="39.155455" lon="8.5664403"><ele>186.0</ele><time>2026-03-28T16:59:10.884Z</time></trkpt><trkpt lat="39.1554544" lon="8.5663163"><ele>186.0</ele><time>2026-03-28T16:59:11.86Z</time></trkpt><trkpt lat="39.1554715" lon="8.5661727"><ele>186.0</ele><time>2026-03-28T16:59:12.875Z</time></trkpt><trkpt lat="39.1554866" lon="8.5660356"><ele>186.0</ele><time>2026-03-28T16:59:13.877Z</time></trkpt><trkpt lat="39.1554999" lon="8.5658988"><ele>186.0</ele><time>2026-03-28T16:59:14.881Z</time></trkpt><trkpt lat="39.1554957" lon="8.5657625"><ele>185.60000000000002</ele><time>2026-03-28T16:59:15.872Z</time></trkpt><trkpt lat="39.1554796" lon="8.5656428"><ele>185.2</ele><time>2026-03-28T16:59:16.892Z</time></trkpt><trkpt lat="39.1554462" lon="8.5655259"><ele>184.8</ele><time>2026-03-28T16:59:17.88Z</time></trkpt><trkpt lat="39.1554049" lon="8.5654185"><ele>184.39999999999998</ele><time>2026-03-28T16:59:18.878Z</time></trkpt><trkpt lat="39.1553444" lon="8.5653213"><ele>184.0</ele><time>2026-03-28T16:59:19.899Z</time></trkpt><trkpt lat="39.1552606" lon="8.5652236"><ele>185.2</ele><time>2026-03-28T16:59:20.874Z</time></trkpt><trkpt lat="39.1551637" lon="8.5651321"><ele>186.39999999999998</ele><time>2026-03-28T16:59:21.883Z</time></trkpt><trkpt lat="39.1550708" lon="8.5650517"><ele>187.6</ele><time>2026-03-28T16:59:22.882Z</time></trkpt><trkpt lat="39.154984" lon="8.564979"><ele>188.8</ele><time>2026-03-28T16:59:23.89Z</time></trkpt><trkpt lat="39.1549149" lon="8.5649083"><ele>190.0</ele><time>2026-03-28T16:59:24.852Z</time></trkpt><trkpt lat="39.1548651" lon="8.5648316"><ele>187.6</ele><time>2026-03-28T16:59:25.886Z</time></trkpt><trkpt lat="39.1548314" lon="8.5647468"><ele>185.2</ele><time>2026-03-28T16:59:26.88Z</time></trkpt><trkpt lat="39.1548123" lon="8.5646598"><ele>182.8</ele><time>2026-03-28T16:59:27.872Z</time></trkpt><trkpt lat="39.1548155" lon="8.5645515"><ele>180.4</ele><time>2026-03-28T16:59:28.883Z</time></trkpt><trkpt lat="39.1548266" lon="8.5644074"><ele>178.0</ele><time>2026-03-28T16:59:29.852Z</time></trkpt><trkpt lat="39.1548405" lon="8.5642589"><ele>178.0</ele><time>2026-03-28T16:59:30.862Z</time></trkpt><trkpt lat="39.1548494" lon="8.5641259"><ele>178.0</ele><time>2026-03-28T16:59:31.89Z</time></trkpt><trkpt lat="39.1548553" lon="8.5640079"><ele>178.0</ele><time>2026-03-28T16:59:32.867Z</time></trkpt><trkpt lat="39.1548538" lon="8.5638823"><ele>178.0</ele><time>2026-03-28T16:59:33.883Z</time></trkpt><trkpt lat="39.1548472" lon="8.5637555"><ele>178.0</ele><time>2026-03-28T16:59:34.877Z</time></trkpt><trkpt lat="39.1548485" lon="8.5636205"><ele>178.2</ele><time>2026-03-28T16:59:35.869Z</time></trkpt><trkpt lat="39.154862" lon="8.5634874"><ele>178.4</ele><time>2026-03-28T16:59:36.874Z</time></trkpt><trkpt lat="39.1548849" lon="8.5633651"><ele>178.6</ele><time>2026-03-28T16:59:37.873Z</time></trkpt><trkpt lat="39.1549265" lon="8.563267"><ele>178.79999999999998</ele><time>2026-03-28T16:59:38.857Z</time></trkpt><trkpt lat="39.1549733" lon="8.5631976"><ele>179.0</ele><time>2026-03-28T16:59:39.889Z</time></trkpt><trkpt lat="39.1550064" lon="8.5630524"><ele>179.71428571428572</ele><time>2026-03-28T16:59:41.873Z</time></trkpt><trkpt lat="39.1549838" lon="8.5629693"><ele>180.42857142857144</ele><time>2026-03-28T16:59:42.877Z</time></trkpt><trkpt lat="39.1549322" lon="8.5628821"><ele>181.14285714285717</ele><time>2026-03-28T16:59:43.879Z</time></trkpt><trkpt lat="39.1548769" lon="8.5627882"><ele>181.85714285714286</ele><time>2026-03-28T16:59:44.882Z</time></trkpt><trkpt lat="39.1548339" lon="8.5627131"><ele>182.57142857142856</ele><time>2026-03-28T16:59:45.895Z</time></trkpt><trkpt lat="39.1548052" lon="8.5626376"><ele>183.2857142857143</ele><time>2026-03-28T16:59:46.887Z</time></trkpt><trkpt lat="39.1548036" lon="8.5625548"><ele>184.0</ele><time>2026-03-28T16:59:47.876Z</time></trkpt><trkpt lat="39.1548155" lon="8.5624709"><ele>184.0</ele><time>2026-03-28T16:59:48.884Z</time></trkpt><trkpt lat="39.1548398" lon="8.5623848"><ele>184.0</ele><time>2026-03-28T16:59:49.871Z</time></trkpt><trkpt lat="39.1548728" lon="8.5622995"><ele>184.0</ele><time>2026-03-28T16:59:50.866Z</time></trkpt><trkpt lat="39.1549109" lon="8.5622029"><ele>184.0</ele><time>2026-03-28T16:59:51.886Z</time></trkpt><trkpt lat="39.1549422" lon="8.5620855"><ele>184.0</ele><time>2026-03-28T16:59:52.875Z</time></trkpt><trkpt lat="39.1549607" lon="8.5619604"><ele>184.0</ele><time>2026-03-28T16:59:53.88Z</time></trkpt><trkpt lat="39.1549666" lon="8.5618413"><ele>183.14285714285714</ele><time>2026-03-28T16:59:54.841Z</time></trkpt><trkpt lat="39.1549698" lon="8.5617366"><ele>182.28571428571428</ele><time>2026-03-28T16:59:55.877Z</time></trkpt><trkpt lat="39.1549846" lon="8.5616476"><ele>181.42857142857142</ele><time>2026-03-28T16:59:56.884Z</time></trkpt><trkpt lat="39.155011" lon="8.5615643"><ele>180.57142857142856</ele><time>2026-03-28T16:59:57.899Z</time></trkpt><trkpt lat="39.155043" lon="8.561484"><ele>179.71428571428572</ele><time>2026-03-28T16:59:58.871Z</time></trkpt><trkpt lat="39.1550732" lon="8.561407"><ele>178.85714285714283</ele><time>2026-03-28T16:59:59.875Z</time></trkpt><trkpt lat="39.1551027" lon="8.5613247"><ele>178.0</ele><time>2026-03-28T17:00:00.876Z</time></trkpt><trkpt lat="39.1551327" lon="8.5612459"><ele>178.16666666666669</ele><time>2026-03-28T17:00:01.89Z</time></trkpt><trkpt lat="39.1551614" lon="8.5611634"><ele>178.33333333333334</ele><time>2026-03-28T17:00:02.88Z</time></trkpt><trkpt lat="39.1551884" lon="8.5610755"><ele>178.5</ele><time>2026-03-28T17:00:03.885Z</time></trkpt><trkpt lat="39.1552141" lon="8.5609822"><ele>178.66666666666666</ele><time>2026-03-28T17:00:04.864Z</time></trkpt><trkpt lat="39.1552251" lon="8.5609004"><ele>178.83333333333331</ele><time>2026-03-28T17:00:05.883Z</time></trkpt><trkpt lat="39.15527" lon="8.5607531"><ele>179.0</ele><time>2026-03-28T17:00:07.89Z</time></trkpt><trkpt lat="39.1553117" lon="8.5606165"><ele>179.0</ele><time>2026-03-28T17:00:09.885Z</time></trkpt><trkpt lat="39.1553657" lon="8.5604809"><ele>179.0</ele><time>2026-03-28T17:00:11.869Z</time></trkpt><trkpt lat="39.1554359" lon="8.5603576"><ele>179.0</ele><time>2026-03-28T17:00:13.882Z</time></trkpt><trkpt lat="39.1554756" lon="8.5602864"><ele>179.0</ele><time>2026-03-28T17:00:14.907Z</time></trkpt><trkpt lat="39.1555161" lon="8.5602067"><ele>179.0</ele><time>2026-03-28T17:00:15.865Z</time></trkpt><trkpt lat="39.1555524" lon="8.5601288"><ele>179.0</ele><time>2026-03-28T17:00:16.865Z</time></trkpt><trkpt lat="39.155582" lon="8.5600495"><ele>179.16666666666666</ele><time>2026-03-28T17:00:17.899Z</time></trkpt><trkpt lat="39.1556082" lon="8.5599699"><ele>179.33333333333331</ele><time>2026-03-28T17:00:18.882Z</time></trkpt><trkpt lat="39.1556324" lon="8.5598905"><ele>179.5</ele><time>2026-03-28T17:00:19.877Z</time></trkpt><trkpt lat="39.1556852" lon="8.5597555"><ele>179.66666666666666</ele><time>2026-03-28T17:00:21.885Z</time></trkpt><trkpt lat="39.155716" lon="8.5596822"><ele>179.83333333333334</ele><time>2026-03-28T17:00:22.888Z</time></trkpt><trkpt lat="39.1557494" lon="8.5596052"><ele>180.0</ele><time>2026-03-28T17:00:23.881Z</time></trkpt><trkpt lat="39.1557804" lon="8.5595046"><ele>175.4</ele><time>2026-03-28T17:00:24.859Z</time></trkpt><trkpt lat="39.1558102" lon="8.5593834"><ele>170.8</ele><time>2026-03-28T17:00:25.863Z</time></trkpt><trkpt lat="39.1558428" lon="8.5592486"><ele>166.2</ele><time>2026-03-28T17:00:26.898Z</time></trkpt><trkpt lat="39.1558738" lon="8.5591081"><ele>161.6</ele><time>2026-03-28T17:00:27.863Z</time></trkpt><trkpt lat="39.1559021" lon="8.5589691"><ele>157.0</ele><time>2026-03-28T17:00:28.851Z</time></trkpt><trkpt lat="39.1559284" lon="8.5588344"><ele>157.0</ele><time>2026-03-28T17:00:29.869Z</time></trkpt><trkpt lat="39.1559492" lon="8.5587047"><ele>157.0</ele><time>2026-03-28T17:00:30.846Z</time></trkpt><trkpt lat="39.1559693" lon="8.5585839"><ele>157.0</ele><time>2026-03-28T17:00:31.877Z</time></trkpt><trkpt lat="39.1559949" lon="8.5584554"><ele>157.0</ele><time>2026-03-28T17:00:32.855Z</time></trkpt><trkpt lat="39.1560232" lon="8.5583141"><ele>157.0</ele><time>2026-03-28T17:00:33.863Z</time></trkpt><trkpt lat="39.156055" lon="8.5581699"><ele>155.79999999999998</ele><time>2026-03-28T17:00:34.897Z</time></trkpt><trkpt lat="39.1560922" lon="8.5580249"><ele>154.6</ele><time>2026-03-28T17:00:35.855Z</time></trkpt><trkpt lat="39.1561332" lon="8.5578854"><ele>153.39999999999998</ele><time>2026-03-28T17:00:36.888Z</time></trkpt><trkpt lat="39.1561788" lon="8.5577578"><ele>152.2</ele><time>2026-03-28T17:00:37.877Z</time></trkpt><trkpt lat="39.1562266" lon="8.5576379"><ele>151.0</ele><time>2026-03-28T17:00:38.895Z</time></trkpt><trkpt lat="39.1562755" lon="8.5575244"><ele>150.0</ele><time>2026-03-28T17:00:39.885Z</time></trkpt><trkpt lat="39.1563295" lon="8.5574193"><ele>149.0</ele><time>2026-03-28T17:00:40.887Z</time></trkpt><trkpt lat="39.1563986" lon="8.557312"><ele>148.0</ele><time>2026-03-28T17:00:41.887Z</time></trkpt><trkpt lat="39.1564734" lon="8.5572042"><ele>147.0</ele><time>2026-03-28T17:00:42.888Z</time></trkpt><trkpt lat="39.1565574" lon="8.5570911"><ele>146.0</ele><time>2026-03-28T17:00:43.867Z</time></trkpt><trkpt lat="39.1566306" lon="8.557002"><ele>144.0</ele><time>2026-03-28T17:00:44.887Z</time></trkpt><trkpt lat="39.1566819" lon="8.5569406"><ele>142.0</ele><time>2026-03-28T17:00:45.829Z</time></trkpt><trkpt lat="39.1567624" lon="8.5568539"><ele>140.0</ele><time>2026-03-28T17:00:47.877Z</time></trkpt><trkpt lat="39.1568163" lon="8.5567983"><ele>138.0</ele><time>2026-03-28T17:00:50.885Z</time></trkpt><trkpt lat="39.1569064" lon="8.5567171"><ele>136.0</ele><time>2026-03-28T17:01:29.877Z</time></trkpt><trkpt lat="39.156969" lon="8.5566621"><ele>134.0</ele><time>2026-03-28T17:01:30.862Z</time></trkpt><trkpt lat="39.1570441" lon="8.5565874"><ele>134.0</ele><time>2026-03-28T17:01:31.898Z</time></trkpt><trkpt lat="39.1571245" lon="8.5565224"><ele>134.0</ele><time>2026-03-28T17:01:32.889Z</time></trkpt><trkpt lat="39.1572031" lon="8.5564647"><ele>134.0</ele><time>2026-03-28T17:01:33.825Z</time></trkpt><trkpt lat="39.1572782" lon="8.5564058"><ele>134.0</ele><time>2026-03-28T17:01:34.88Z</time></trkpt><trkpt lat="39.1573468" lon="8.5563436"><ele>134.0</ele><time>2026-03-28T17:01:35.871Z</time></trkpt><trkpt lat="39.1574161" lon="8.5562882"><ele>134.0</ele><time>2026-03-28T17:01:36.863Z</time></trkpt><trkpt lat="39.1574876" lon="8.556236"><ele>133.0</ele><time>2026-03-28T17:01:37.896Z</time></trkpt><trkpt lat="39.1575771" lon="8.5561957"><ele>132.0</ele><time>2026-03-28T17:01:38.88Z</time></trkpt><trkpt lat="39.1576716" lon="8.5561593"><ele>131.0</ele><time>2026-03-28T17:01:39.874Z</time></trkpt><trkpt lat="39.1577512" lon="8.5561275"><ele>130.0</ele><time>2026-03-28T17:01:40.876Z</time></trkpt><trkpt lat="39.1578269" lon="8.5560748"><ele>129.0</ele><time>2026-03-28T17:01:41.886Z</time></trkpt><trkpt lat="39.157898" lon="8.5560194"><ele>128.0</ele><time>2026-03-28T17:01:42.879Z</time></trkpt><trkpt lat="39.1579631" lon="8.5559668"><ele>128.0</ele><time>2026-03-28T17:01:43.885Z</time></trkpt><trkpt lat="39.1580309" lon="8.5559265"><ele>128.0</ele><time>2026-03-28T17:01:44.871Z</time></trkpt><trkpt lat="39.1580929" lon="8.5558711"><ele>128.0</ele><time>2026-03-28T17:01:45.875Z</time></trkpt><trkpt lat="39.1581338" lon="8.555806"><ele>128.0</ele><time>2026-03-28T17:01:46.865Z</time></trkpt><trkpt lat="39.1581785" lon="8.5556485"><ele>128.0</ele><time>2026-03-28T17:01:48.868Z</time></trkpt><trkpt lat="39.1581951" lon="8.5555128"><ele>126.80000000000001</ele><time>2026-03-28T17:01:49.886Z</time></trkpt><trkpt lat="39.1582138" lon="8.5553749"><ele>125.60000000000001</ele><time>2026-03-28T17:01:50.859Z</time></trkpt><trkpt lat="39.1582263" lon="8.5552638"><ele>124.39999999999999</ele><time>2026-03-28T17:01:51.865Z</time></trkpt><trkpt lat="39.158248" lon="8.5551791"><ele>123.19999999999999</ele><time>2026-03-28T17:01:52.874Z</time></trkpt><trkpt lat="39.1582904" lon="8.5550321"><ele>122.0</ele><time>2026-03-28T17:01:54.856Z</time></trkpt><trkpt lat="39.1583019" lon="8.554888"><ele>121.66666666666666</ele><time>2026-03-28T17:01:56.876Z</time></trkpt><trkpt lat="39.1582908" lon="8.5548049"><ele>121.33333333333333</ele><time>2026-03-28T17:01:57.882Z</time></trkpt><trkpt lat="39.1583118" lon="8.5547177"><ele>121.0</ele><time>2026-03-28T17:01:59.871Z</time></trkpt><trkpt lat="39.1583747" lon="8.5546782"><ele>120.66666666666666</ele><time>2026-03-28T17:02:03.863Z</time></trkpt><trkpt lat="39.1584723" lon="8.5546787"><ele>120.33333333333333</ele><time>2026-03-28T17:02:05.828Z</time></trkpt><trkpt lat="39.1585482" lon="8.5547029"><ele>120.0</ele><time>2026-03-28T17:02:06.865Z</time></trkpt><trkpt lat="39.1586208" lon="8.5547202"><ele>120.0</ele><time>2026-03-28T17:02:07.873Z</time></trkpt><trkpt lat="39.1587323" lon="8.5547316"><ele>120.0</ele><time>2026-03-28T17:02:09.882Z</time></trkpt><trkpt lat="39.1588153" lon="8.5547461"><ele>120.0</ele><time>2026-03-28T17:02:11.855Z</time></trkpt><trkpt lat="39.1588991" lon="8.5548072"><ele>120.0</ele><time>2026-03-28T17:02:13.846Z</time></trkpt><trkpt lat="39.1589585" lon="8.5549331"><ele>120.0</ele><time>2026-03-28T17:02:15.88Z</time></trkpt><trkpt lat="39.1589706" lon="8.5550288"><ele>120.0</ele><time>2026-03-28T17:02:16.868Z</time></trkpt><trkpt lat="39.1589841" lon="8.5551208"><ele>120.0</ele><time>2026-03-28T17:02:17.877Z</time></trkpt><trkpt lat="39.1590298" lon="8.5552801"><ele>120.0</ele><time>2026-03-28T17:02:19.878Z</time></trkpt><trkpt lat="39.159087" lon="8.5553827"><ele>120.0</ele><time>2026-03-28T17:02:20.883Z</time></trkpt><trkpt lat="39.1591539" lon="8.555478"><ele>120.0</ele><time>2026-03-28T17:02:21.888Z</time></trkpt><trkpt lat="39.1592343" lon="8.555583"><ele>120.25</ele><time>2026-03-28T17:02:22.873Z</time></trkpt><trkpt lat="39.1593266" lon="8.5557011"><ele>120.5</ele><time>2026-03-28T17:02:23.847Z</time></trkpt><trkpt lat="39.1594208" lon="8.5558259"><ele>120.75</ele><time>2026-03-28T17:02:24.889Z</time></trkpt><trkpt lat="39.1594987" lon="8.5559278"><ele>121.0</ele><time>2026-03-28T17:02:25.887Z</time></trkpt><trkpt lat="39.1595575" lon="8.5560059"><ele>121.0</ele><time>2026-03-28T17:02:26.866Z</time></trkpt><trkpt lat="39.159628" lon="8.5560847"><ele>121.0</ele><time>2026-03-28T17:02:27.872Z</time></trkpt><trkpt lat="39.1597118" lon="8.5561667"><ele>121.0</ele><time>2026-03-28T17:02:28.865Z</time></trkpt><trkpt lat="39.1598013" lon="8.5562639"><ele>121.0</ele><time>2026-03-28T17:02:29.891Z</time></trkpt><trkpt lat="39.1598895" lon="8.5563774"><ele>121.0</ele><time>2026-03-28T17:02:30.882Z</time></trkpt><trkpt lat="39.1599727" lon="8.5564793"><ele>123.75</ele><time>2026-03-28T17:02:31.867Z</time></trkpt><trkpt lat="39.1600639" lon="8.5565571"><ele>126.5</ele><time>2026-03-28T17:02:32.861Z</time></trkpt><trkpt lat="39.1601652" lon="8.5566161"><ele>129.25</ele><time>2026-03-28T17:02:33.883Z</time></trkpt><trkpt lat="39.1602722" lon="8.5566606"><ele>132.0</ele><time>2026-03-28T17:02:34.868Z</time></trkpt><trkpt lat="39.1603913" lon="8.5567151"><ele>132.0</ele><time>2026-03-28T17:02:35.876Z</time></trkpt><trkpt lat="39.1604889" lon="8.5567819"><ele>132.0</ele><time>2026-03-28T17:02:36.885Z</time></trkpt><trkpt lat="39.1605812" lon="8.5568788"><ele>132.0</ele><time>2026-03-28T17:02:37.875Z</time></trkpt><trkpt lat="39.1606743" lon="8.5569948"><ele>132.0</ele><time>2026-03-28T17:02:38.871Z</time></trkpt><trkpt lat="39.1607862" lon="8.5571154"><ele>136.25</ele><time>2026-03-28T17:02:39.889Z</time></trkpt><trkpt lat="39.1608998" lon="8.5572289"><ele>140.5</ele><time>2026-03-28T17:02:40.877Z</time></trkpt><trkpt lat="39.1610046" lon="8.5573298"><ele>144.75</ele><time>2026-03-28T17:02:41.883Z</time></trkpt><trkpt lat="39.1610966" lon="8.5574274"><ele>149.0</ele><time>2026-03-28T17:02:42.865Z</time></trkpt><trkpt lat="39.1611983" lon="8.5575282"><ele>149.0</ele><time>2026-03-28T17:02:43.863Z</time></trkpt><trkpt lat="39.1613141" lon="8.5576286"><ele>149.0</ele><time>2026-03-28T17:02:44.852Z</time></trkpt><trkpt lat="39.1614301" lon="8.557721"><ele>149.0</ele><time>2026-03-28T17:02:45.88Z</time></trkpt><trkpt lat="39.1615341" lon="8.5577991"><ele>149.0</ele><time>2026-03-28T17:02:46.882Z</time></trkpt><trkpt lat="39.1616102" lon="8.5578631"><ele>152.6</ele><time>2026-03-28T17:02:47.864Z</time></trkpt><trkpt lat="39.1616607" lon="8.5579397"><ele>156.2</ele><time>2026-03-28T17:02:48.884Z</time></trkpt><trkpt lat="39.1616603" lon="8.5580791"><ele>159.79999999999998</ele><time>2026-03-28T17:02:50.878Z</time></trkpt><trkpt lat="39.1615539" lon="8.558166"><ele>163.4</ele><time>2026-03-28T17:02:52.877Z</time></trkpt><trkpt lat="39.1614689" lon="8.5581847"><ele>167.0</ele><time>2026-03-28T17:02:53.867Z</time></trkpt><trkpt lat="39.1613624" lon="8.5581823"><ele>167.0</ele><time>2026-03-28T17:02:54.866Z</time></trkpt><trkpt lat="39.1612587" lon="8.5582069"><ele>167.0</ele><time>2026-03-28T17:02:55.857Z</time></trkpt><trkpt lat="39.1611654" lon="8.558266"><ele>167.0</ele><time>2026-03-28T17:02:56.884Z</time></trkpt><trkpt lat="39.1610769" lon="8.5583587"><ele>167.0</ele><time>2026-03-28T17:02:57.879Z</time></trkpt><trkpt lat="39.1610073" lon="8.5584636"><ele>167.0</ele><time>2026-03-28T17:02:58.875Z</time></trkpt><trkpt lat="39.1609604" lon="8.5585631"><ele>167.0</ele><time>2026-03-28T17:02:59.875Z</time></trkpt><trkpt lat="39.1609432" lon="8.5586615"><ele>167.0</ele><time>2026-03-28T17:03:00.876Z</time></trkpt><trkpt lat="39.160959" lon="8.558762"><ele>167.0</ele><time>2026-03-28T17:03:01.886Z</time></trkpt><trkpt lat="39.1610093" lon="8.5588317"><ele>167.0</ele><time>2026-03-28T17:03:02.848Z</time></trkpt><trkpt lat="39.1610934" lon="8.5588761"><ele>167.0</ele><time>2026-03-28T17:03:03.903Z</time></trkpt><trkpt lat="39.1611861" lon="8.5589101"><ele>167.0</ele><time>2026-03-28T17:03:04.872Z</time></trkpt><trkpt lat="39.1612749" lon="8.5589642"><ele>169.75</ele><time>2026-03-28T17:03:05.915Z</time></trkpt><trkpt lat="39.1613614" lon="8.5590243"><ele>172.5</ele><time>2026-03-28T17:03:06.893Z</time></trkpt><trkpt lat="39.1614411" lon="8.5591207"><ele>175.25</ele><time>2026-03-28T17:03:07.877Z</time></trkpt><trkpt lat="39.1615229" lon="8.5592421"><ele>178.0</ele><time>2026-03-28T17:03:08.857Z</time></trkpt><trkpt lat="39.1616206" lon="8.5593552"><ele>179.5</ele><time>2026-03-28T17:03:09.891Z</time></trkpt><trkpt lat="39.1617333" lon="8.5594486"><ele>181.0</ele><time>2026-03-28T17:03:10.884Z</time></trkpt><trkpt lat="39.1618638" lon="8.5595255"><ele>182.5</ele><time>2026-03-28T17:03:11.89Z</time></trkpt><trkpt lat="39.1619977" lon="8.5595899"><ele>184.0</ele><time>2026-03-28T17:03:12.896Z</time></trkpt><trkpt lat="39.1621179" lon="8.5596396"><ele>184.39999999999998</ele><time>2026-03-28T17:03:13.907Z</time></trkpt><trkpt lat="39.1622172" lon="8.5596938"><ele>184.8</ele><time>2026-03-28T17:03:14.878Z</time></trkpt><trkpt lat="39.1623007" lon="8.5597716"><ele>185.2</ele><time>2026-03-28T17:03:15.903Z</time></trkpt><trkpt lat="39.1623797" lon="8.5598592"><ele>185.60000000000002</ele><time>2026-03-28T17:03:16.889Z</time></trkpt><trkpt lat="39.1624456" lon="8.5599293"><ele>186.0</ele><time>2026-03-28T17:03:17.894Z</time></trkpt><trkpt lat="39.1625187" lon="8.5599941"><ele>187.83333333333334</ele><time>2026-03-28T17:03:18.898Z</time></trkpt><trkpt lat="39.1625984" lon="8.5600472"><ele>189.66666666666669</ele><time>2026-03-28T17:03:19.878Z</time></trkpt><trkpt lat="39.1626617" lon="8.560072"><ele>191.5</ele><time>2026-03-28T17:03:20.853Z</time></trkpt><trkpt lat="39.162755" lon="8.5601125"><ele>193.33333333333334</ele><time>2026-03-28T17:03:22.886Z</time></trkpt><trkpt lat="39.1628135" lon="8.5601547"><ele>195.16666666666669</ele><time>2026-03-28T17:03:24.878Z</time></trkpt><trkpt lat="39.1628984" lon="8.5601006"><ele>197.0</ele><time>2026-03-28T17:03:27.868Z</time></trkpt><trkpt lat="39.1629292" lon="8.560026"><ele>197.00000000000003</ele><time>2026-03-28T17:03:28.893Z</time></trkpt><trkpt lat="39.1629528" lon="8.559938"><ele>197.0</ele><time>2026-03-28T17:03:29.875Z</time></trkpt><trkpt lat="39.1629604" lon="8.5598407"><ele>197.0</ele><time>2026-03-28T17:03:30.872Z</time></trkpt><trkpt lat="39.1629676" lon="8.5597449"><ele>197.0</ele><time>2026-03-28T17:03:31.896Z</time></trkpt><trkpt lat="39.1629804" lon="8.5596473"><ele>197.00000000000003</ele><time>2026-03-28T17:03:32.865Z</time></trkpt><trkpt lat="39.1629965" lon="8.5595429"><ele>197.0</ele><time>2026-03-28T17:03:33.884Z</time></trkpt><trkpt lat="39.1630176" lon="8.5594363"><ele>195.8</ele><time>2026-03-28T17:03:34.872Z</time></trkpt><trkpt lat="39.1630438" lon="8.5593228"><ele>194.6</ele><time>2026-03-28T17:03:35.891Z</time></trkpt><trkpt lat="39.163073" lon="8.5592072"><ele>193.4</ele><time>2026-03-28T17:03:36.89Z</time></trkpt><trkpt lat="39.1630985" lon="8.5590788"><ele>192.20000000000002</ele><time>2026-03-28T17:03:37.891Z</time></trkpt><trkpt lat="39.1631283" lon="8.5589477"><ele>191.0</ele><time>2026-03-28T17:03:38.876Z</time></trkpt><trkpt lat="39.1631576" lon="8.5588166"><ele>191.0</ele><time>2026-03-28T17:03:39.874Z</time></trkpt><trkpt lat="39.1631823" lon="8.5587049"><ele>191.0</ele><time>2026-03-28T17:03:40.867Z</time></trkpt><trkpt lat="39.1632108" lon="8.5586066"><ele>191.0</ele><time>2026-03-28T17:03:41.887Z</time></trkpt><trkpt lat="39.1632388" lon="8.5585083"><ele>191.0</ele><time>2026-03-28T17:03:42.891Z</time></trkpt><trkpt lat="39.1632554" lon="8.5583952"><ele>191.0</ele><time>2026-03-28T17:03:43.891Z</time></trkpt><trkpt lat="39.1632663" lon="8.5582822"><ele>191.0</ele><time>2026-03-28T17:03:44.859Z</time></trkpt><trkpt lat="39.1632776" lon="8.5581826"><ele>191.0</ele><time>2026-03-28T17:03:45.883Z</time></trkpt><trkpt lat="39.1632753" lon="8.5580883"><ele>191.0</ele><time>2026-03-28T17:03:46.886Z</time></trkpt><trkpt lat="39.163272" lon="8.5579288"><ele>191.0</ele><time>2026-03-28T17:03:48.884Z</time></trkpt><trkpt lat="39.1632892" lon="8.5578382"><ele>191.0</ele><time>2026-03-28T17:03:49.856Z</time></trkpt><trkpt lat="39.1633255" lon="8.5577324"><ele>191.0</ele><time>2026-03-28T17:03:50.874Z</time></trkpt><trkpt lat="39.1633686" lon="8.5576374"><ele>191.0</ele><time>2026-03-28T17:03:51.868Z</time></trkpt><trkpt lat="39.1634135" lon="8.557547"><ele>191.0</ele><time>2026-03-28T17:03:52.868Z</time></trkpt><trkpt lat="39.1634582" lon="8.5574594"><ele>191.0</ele><time>2026-03-28T17:03:53.872Z</time></trkpt><trkpt lat="39.1634952" lon="8.5573726"><ele>191.0</ele><time>2026-03-28T17:03:54.831Z</time></trkpt><trkpt lat="39.1635309" lon="8.5572784"><ele>191.0</ele><time>2026-03-28T17:03:55.874Z</time></trkpt><trkpt lat="39.1635548" lon="8.5571927"><ele>191.0</ele><time>2026-03-28T17:03:56.88Z</time></trkpt><trkpt lat="39.1635736" lon="8.5571057"><ele>191.0</ele><time>2026-03-28T17:03:57.868Z</time></trkpt><trkpt lat="39.1635871" lon="8.5570254"><ele>191.0</ele><time>2026-03-28T17:03:58.901Z</time></trkpt><trkpt lat="39.1635988" lon="8.5569445"><ele>189.4</ele><time>2026-03-28T17:03:59.871Z</time></trkpt><trkpt lat="39.1636342" lon="8.5568021"><ele>187.8</ele><time>2026-03-28T17:04:01.88Z</time></trkpt><trkpt lat="39.1637203" lon="8.556659"><ele>186.20000000000002</ele><time>2026-03-28T17:04:03.881Z</time></trkpt><trkpt lat="39.1637738" lon="8.5565799"><ele>184.60000000000002</ele><time>2026-03-28T17:04:04.912Z</time></trkpt><trkpt lat="39.1638276" lon="8.5565101"><ele>183.0</ele><time>2026-03-28T17:04:05.876Z</time></trkpt><trkpt lat="39.1638933" lon="8.5563898"><ele>183.0</ele><time>2026-03-28T17:04:07.88Z</time></trkpt><trkpt lat="39.1639265" lon="8.5563137"><ele>183.0</ele><time>2026-03-28T17:04:08.834Z</time></trkpt><trkpt lat="39.1639651" lon="8.5562318"><ele>183.0</ele><time>2026-03-28T17:04:09.875Z</time></trkpt><trkpt lat="39.1640131" lon="8.5561457"><ele>183.0</ele><time>2026-03-28T17:04:10.89Z</time></trkpt><trkpt lat="39.164064" lon="8.5560606"><ele>183.0</ele><time>2026-03-28T17:04:11.893Z</time></trkpt><trkpt lat="39.1641141" lon="8.5559722"><ele>183.0</ele><time>2026-03-28T17:04:12.883Z</time></trkpt><trkpt lat="39.1641596" lon="8.5558859"><ele>184.66666666666666</ele><time>2026-03-28T17:04:13.886Z</time></trkpt><trkpt lat="39.1642023" lon="8.5558149"><ele>186.33333333333331</ele><time>2026-03-28T17:04:14.861Z</time></trkpt><trkpt lat="39.164266" lon="8.5557171"><ele>188.0</ele><time>2026-03-28T17:04:16.885Z</time></trkpt><trkpt lat="39.1643465" lon="8.5556646"><ele>189.66666666666666</ele><time>2026-03-28T17:04:18.884Z</time></trkpt><trkpt lat="39.164419" lon="8.5557233"><ele>191.33333333333331</ele><time>2026-03-28T17:04:20.877Z</time></trkpt><trkpt lat="39.1644435" lon="8.5558543"><ele>193.0</ele><time>2026-03-28T17:04:22.872Z</time></trkpt><trkpt lat="39.1644662" lon="8.5559461"><ele>193.0</ele><time>2026-03-28T17:04:23.889Z</time></trkpt><trkpt lat="39.1644854" lon="8.5560396"><ele>193.0</ele><time>2026-03-28T17:04:24.862Z</time></trkpt><trkpt lat="39.1645304" lon="8.5561396"><ele>193.0</ele><time>2026-03-28T17:04:26.882Z</time></trkpt><trkpt lat="39.164632" lon="8.556078"><ele>193.0</ele><time>2026-03-28T17:04:29.865Z</time></trkpt><trkpt lat="39.1646696" lon="8.5560058"><ele>193.0</ele><time>2026-03-28T17:04:30.845Z</time></trkpt><trkpt lat="39.1647519" lon="8.5559069"><ele>192.99999999999997</ele><time>2026-03-28T17:04:32.842Z</time></trkpt><trkpt lat="39.1648475" lon="8.5558133"><ele>193.0</ele><time>2026-03-28T17:04:34.891Z</time></trkpt><trkpt lat="39.1649042" lon="8.5557699"><ele>193.0</ele><time>2026-03-28T17:04:35.843Z</time></trkpt><trkpt lat="39.1649634" lon="8.555719"><ele>193.0</ele><time>2026-03-28T17:04:36.879Z</time></trkpt><trkpt lat="39.1650176" lon="8.555664"><ele>192.99999999999997</ele><time>2026-03-28T17:04:37.833Z</time></trkpt><trkpt lat="39.1650761" lon="8.5556154"><ele>193.0</ele><time>2026-03-28T17:04:38.848Z</time></trkpt><trkpt lat="39.1651389" lon="8.5555773"><ele>192.8</ele><time>2026-03-28T17:04:39.879Z</time></trkpt><trkpt lat="39.1651931" lon="8.5555358"><ele>192.60000000000002</ele><time>2026-03-28T17:04:40.863Z</time></trkpt><trkpt lat="39.1652886" lon="8.5554361"><ele>192.39999999999998</ele><time>2026-03-28T17:04:42.874Z</time></trkpt><trkpt lat="39.1653823" lon="8.5553312"><ele>192.2</ele><time>2026-03-28T17:04:44.864Z</time></trkpt><trkpt lat="39.1654584" lon="8.5552312"><ele>192.0</ele><time>2026-03-28T17:04:46.893Z</time></trkpt><trkpt lat="39.1655241" lon="8.5551212"><ele>192.0</ele><time>2026-03-28T17:04:48.886Z</time></trkpt><trkpt lat="39.1655615" lon="8.5550447"><ele>192.0</ele><time>2026-03-28T17:04:49.882Z</time></trkpt><trkpt lat="39.1656149" lon="8.5549131"><ele>192.0</ele><time>2026-03-28T17:04:51.846Z</time></trkpt><trkpt lat="39.1656308" lon="8.5548264"><ele>192.0</ele><time>2026-03-28T17:04:52.879Z</time></trkpt><trkpt lat="39.1656419" lon="8.5547327"><ele>192.0</ele><time>2026-03-28T17:04:53.876Z</time></trkpt><trkpt lat="39.165647" lon="8.5546401"><ele>192.0</ele><time>2026-03-28T17:04:54.877Z</time></trkpt><trkpt lat="39.1656463" lon="8.554552"><ele>191.33333333333334</ele><time>2026-03-28T17:04:55.868Z</time></trkpt><trkpt lat="39.1656416" lon="8.5544673"><ele>190.66666666666666</ele><time>2026-03-28T17:04:56.879Z</time></trkpt><trkpt lat="39.1656503" lon="8.5543711"><ele>190.0</ele><time>2026-03-28T17:04:57.887Z</time></trkpt><trkpt lat="39.1656639" lon="8.5542673"><ele>189.33333333333331</ele><time>2026-03-28T17:04:58.865Z</time></trkpt><trkpt lat="39.1656782" lon="8.5541504"><ele>188.66666666666666</ele><time>2026-03-28T17:04:59.851Z</time></trkpt><trkpt lat="39.1656895" lon="8.5540266"><ele>188.0</ele><time>2026-03-28T17:05:00.866Z</time></trkpt><trkpt lat="39.1657014" lon="8.5539023"><ele>185.8</ele><time>2026-03-28T17:05:01.846Z</time></trkpt><trkpt lat="39.1657133" lon="8.5537809"><ele>183.60000000000002</ele><time>2026-03-28T17:05:02.86Z</time></trkpt><trkpt lat="39.1657219" lon="8.5536642"><ele>181.39999999999998</ele><time>2026-03-28T17:05:03.867Z</time></trkpt><trkpt lat="39.1657316" lon="8.5535485"><ele>179.2</ele><time>2026-03-28T17:05:04.851Z</time></trkpt><trkpt lat="39.1657387" lon="8.5534336"><ele>177.0</ele><time>2026-03-28T17:05:05.885Z</time></trkpt><trkpt lat="39.1657391" lon="8.5533195"><ele>176.66666666666666</ele><time>2026-03-28T17:05:06.869Z</time></trkpt><trkpt lat="39.1657288" lon="8.553215"><ele>176.33333333333334</ele><time>2026-03-28T17:05:07.865Z</time></trkpt><trkpt lat="39.1657185" lon="8.5531105"><ele>176.0</ele><time>2026-03-28T17:05:08.883Z</time></trkpt><trkpt lat="39.1657139" lon="8.5530175"><ele>175.66666666666669</ele><time>2026-03-28T17:05:09.881Z</time></trkpt><trkpt lat="39.1656926" lon="8.5529346"><ele>175.33333333333334</ele><time>2026-03-28T17:05:10.886Z</time></trkpt><trkpt lat="39.1656461" lon="8.5528512"><ele>175.0</ele><time>2026-03-28T17:05:11.853Z</time></trkpt><trkpt lat="39.1655784" lon="8.5527621"><ele>171.2</ele><time>2026-03-28T17:05:12.904Z</time></trkpt><trkpt lat="39.1655054" lon="8.5526757"><ele>167.4</ele><time>2026-03-28T17:05:13.884Z</time></trkpt><trkpt lat="39.1654424" lon="8.5525877"><ele>163.6</ele><time>2026-03-28T17:05:14.88Z</time></trkpt><trkpt lat="39.1653749" lon="8.5524855"><ele>159.8</ele><time>2026-03-28T17:05:15.867Z</time></trkpt><trkpt lat="39.1653207" lon="8.5523799"><ele>156.0</ele><time>2026-03-28T17:05:16.883Z</time></trkpt><trkpt lat="39.1652704" lon="8.5522913"><ele>156.0</ele><time>2026-03-28T17:05:17.875Z</time></trkpt><trkpt lat="39.1652303" lon="8.5522265"><ele>156.0</ele><time>2026-03-28T17:05:18.877Z</time></trkpt><trkpt lat="39.1651687" lon="8.5520934"><ele>156.0</ele><time>2026-03-28T17:05:20.872Z</time></trkpt><trkpt lat="39.1651261" lon="8.5520139"><ele>156.0</ele><time>2026-03-28T17:05:21.889Z</time></trkpt><trkpt lat="39.1650826" lon="8.5519281"><ele>156.0</ele><time>2026-03-28T17:05:22.868Z</time></trkpt><trkpt lat="39.1650474" lon="8.5518463"><ele>156.0</ele><time>2026-03-28T17:05:23.891Z</time></trkpt><trkpt lat="39.1650076" lon="8.5517303"><ele>155.75</ele><time>2026-03-28T17:05:25.822Z</time></trkpt><trkpt lat="39.1649485" lon="8.5515911"><ele>155.5</ele><time>2026-03-28T17:05:27.854Z</time></trkpt><trkpt lat="39.1648817" lon="8.5514911"><ele>155.25</ele><time>2026-03-28T17:05:29.866Z</time></trkpt><trkpt lat="39.1647965" lon="8.551376"><ele>155.0</ele><time>2026-03-28T17:05:31.882Z</time></trkpt><trkpt lat="39.1647167" lon="8.5512799"><ele>153.0</ele><time>2026-03-28T17:05:33.872Z</time></trkpt><trkpt lat="39.1646597" lon="8.5511988"><ele>151.0</ele><time>2026-03-28T17:05:35.892Z</time></trkpt><trkpt lat="39.1646033" lon="8.5510829"><ele>149.0</ele><time>2026-03-28T17:05:37.865Z</time></trkpt><trkpt lat="39.1645445" lon="8.550959"><ele>147.0</ele><time>2026-03-28T17:05:39.887Z</time></trkpt><trkpt lat="39.1644816" lon="8.5508294"><ele>145.0</ele><time>2026-03-28T17:05:41.878Z</time></trkpt><trkpt lat="39.1644132" lon="8.5507076"><ele>145.0</ele><time>2026-03-28T17:05:43.873Z</time></trkpt><trkpt lat="39.1643619" lon="8.5506061"><ele>145.0</ele><time>2026-03-28T17:05:45.891Z</time></trkpt><trkpt lat="39.1643088" lon="8.5504966"><ele>145.0</ele><time>2026-03-28T17:05:47.857Z</time></trkpt><trkpt lat="39.1642563" lon="8.5503803"><ele>145.0</ele><time>2026-03-28T17:05:49.884Z</time></trkpt><trkpt lat="39.164214" lon="8.5502857"><ele>145.0</ele><time>2026-03-28T17:05:51.873Z</time></trkpt><trkpt lat="39.1641865" lon="8.5501983"><ele>145.2</ele><time>2026-03-28T17:05:54.88Z</time></trkpt><trkpt lat="39.1641316" lon="8.5500669"><ele>145.4</ele><time>2026-03-28T17:05:56.889Z</time></trkpt><trkpt lat="39.1640837" lon="8.5499315"><ele>145.6</ele><time>2026-03-28T17:05:58.872Z</time></trkpt><trkpt lat="39.164056" lon="8.5498509"><ele>145.8</ele><time>2026-03-28T17:05:59.882Z</time></trkpt><trkpt lat="39.1640269" lon="8.5497789"><ele>146.0</ele><time>2026-03-28T17:06:00.877Z</time></trkpt><trkpt lat="39.1639758" lon="8.549658"><ele>144.4</ele><time>2026-03-28T17:06:02.876Z</time></trkpt><trkpt lat="39.1639128" lon="8.5495278"><ele>142.8</ele><time>2026-03-28T17:06:04.878Z</time></trkpt><trkpt lat="39.1638698" lon="8.5494496"><ele>141.20000000000002</ele><time>2026-03-28T17:06:05.874Z</time></trkpt><trkpt lat="39.1638027" lon="8.5493211"><ele>139.6</ele><time>2026-03-28T17:06:07.856Z</time></trkpt><trkpt lat="39.1637439" lon="8.5492335"><ele>138.0</ele><time>2026-03-28T17:06:08.87Z</time></trkpt><trkpt lat="39.1636854" lon="8.5491252"><ele>138.0</ele><time>2026-03-28T17:06:09.875Z</time></trkpt><trkpt lat="39.1636355" lon="8.5490112"><ele>138.0</ele><time>2026-03-28T17:06:10.874Z</time></trkpt><trkpt lat="39.1635846" lon="8.5489019"><ele>138.0</ele><time>2026-03-28T17:06:11.87Z</time></trkpt><trkpt lat="39.1635442" lon="8.5488139"><ele>138.0</ele><time>2026-03-28T17:06:12.874Z</time></trkpt><trkpt lat="39.1635103" lon="8.5487325"><ele>138.0</ele><time>2026-03-28T17:06:13.874Z</time></trkpt><trkpt lat="39.1634869" lon="8.5486538"><ele>138.0</ele><time>2026-03-28T17:06:14.875Z</time></trkpt><trkpt lat="39.1634683" lon="8.548559"><ele>138.0</ele><time>2026-03-28T17:06:15.88Z</time></trkpt><trkpt lat="39.1634443" lon="8.5484714"><ele>138.0</ele><time>2026-03-28T17:06:16.885Z</time></trkpt><trkpt lat="39.1634059" lon="8.5483119"><ele>138.0</ele><time>2026-03-28T17:06:18.881Z</time></trkpt><trkpt lat="39.1633943" lon="8.5482173"><ele>138.0</ele><time>2026-03-28T17:06:19.884Z</time></trkpt><trkpt lat="39.1633796" lon="8.5481336"><ele>138.0</ele><time>2026-03-28T17:06:20.862Z</time></trkpt><trkpt lat="39.1633377" lon="8.5479909"><ele>138.0</ele><time>2026-03-28T17:06:22.873Z</time></trkpt><trkpt lat="39.1633131" lon="8.547911"><ele>138.0</ele><time>2026-03-28T17:06:23.878Z</time></trkpt><trkpt lat="39.1632885" lon="8.5478265"><ele>138.0</ele><time>2026-03-28T17:06:24.881Z</time></trkpt><trkpt lat="39.1632764" lon="8.5477251"><ele>138.0</ele><time>2026-03-28T17:06:25.853Z</time></trkpt><trkpt lat="39.1632662" lon="8.5476162"><ele>138.0</ele><time>2026-03-28T17:06:26.885Z</time></trkpt><trkpt lat="39.1632411" lon="8.5475121"><ele>138.0</ele><time>2026-03-28T17:06:27.877Z</time></trkpt><trkpt lat="39.1632151" lon="8.5474316"><ele>136.4</ele><time>2026-03-28T17:06:28.88Z</time></trkpt><trkpt lat="39.1631973" lon="8.5473364"><ele>134.8</ele><time>2026-03-28T17:06:30.876Z</time></trkpt><trkpt lat="39.1631651" lon="8.5471935"><ele>133.2</ele><time>2026-03-28T17:06:33.89Z</time></trkpt><trkpt lat="39.1631334" lon="8.5470912"><ele>131.6</ele><time>2026-03-28T17:06:34.869Z</time></trkpt><trkpt lat="39.1630891" lon="8.5469688"><ele>130.0</ele><time>2026-03-28T17:06:35.887Z</time></trkpt><trkpt lat="39.1630414" lon="8.5468548"><ele>130.0</ele><time>2026-03-28T17:06:36.888Z</time></trkpt><trkpt lat="39.1629922" lon="8.5467445"><ele>130.0</ele><time>2026-03-28T17:06:37.859Z</time></trkpt><trkpt lat="39.162945" lon="8.5466496"><ele>130.0</ele><time>2026-03-28T17:06:38.884Z</time></trkpt><trkpt lat="39.1629015" lon="8.5465681"><ele>130.0</ele><time>2026-03-28T17:06:39.883Z</time></trkpt><trkpt lat="39.1628477" lon="8.5464814"><ele>130.0</ele><time>2026-03-28T17:06:40.885Z</time></trkpt><trkpt lat="39.1627958" lon="8.5463919"><ele>130.0</ele><time>2026-03-28T17:06:41.887Z</time></trkpt><trkpt lat="39.162747" lon="8.5462995"><ele>130.8</ele><time>2026-03-28T17:06:42.866Z</time></trkpt><trkpt lat="39.1627076" lon="8.5462011"><ele>131.6</ele><time>2026-03-28T17:06:43.879Z</time></trkpt><trkpt lat="39.1626664" lon="8.5461003"><ele>132.4</ele><time>2026-03-28T17:06:44.855Z</time></trkpt><trkpt lat="39.1626215" lon="8.5459907"><ele>133.2</ele><time>2026-03-28T17:06:45.888Z</time></trkpt><trkpt lat="39.1625727" lon="8.5458538"><ele>134.0</ele><time>2026-03-28T17:06:46.879Z</time></trkpt><trkpt lat="39.1625201" lon="8.5457237"><ele>134.0</ele><time>2026-03-28T17:06:47.864Z</time></trkpt><trkpt lat="39.162474" lon="8.5456099"><ele>134.0</ele><time>2026-03-28T17:06:48.9Z</time></trkpt><trkpt lat="39.1624349" lon="8.5455062"><ele>134.0</ele><time>2026-03-28T17:06:49.885Z</time></trkpt><trkpt lat="39.162395" lon="8.5454124"><ele>134.0</ele><time>2026-03-28T17:06:50.883Z</time></trkpt><trkpt lat="39.1623546" lon="8.5452983"><ele>134.0</ele><time>2026-03-28T17:06:52.89Z</time></trkpt><trkpt lat="39.1623313" lon="8.5452114"><ele>134.0</ele><time>2026-03-28T17:07:22.898Z</time></trkpt><trkpt lat="39.1622846" lon="8.5451554"><ele>133.16666666666666</ele><time>2026-03-28T17:07:26.855Z</time></trkpt><trkpt lat="39.1621975" lon="8.5451447"><ele>132.33333333333331</ele><time>2026-03-28T17:07:28.906Z</time></trkpt><trkpt lat="39.1621318" lon="8.5451377"><ele>131.5</ele><time>2026-03-28T17:07:29.856Z</time></trkpt><trkpt lat="39.162023" lon="8.5451117"><ele>130.66666666666666</ele><time>2026-03-28T17:07:31.888Z</time></trkpt><trkpt lat="39.1619229" lon="8.5450944"><ele>129.83333333333334</ele><time>2026-03-28T17:07:33.872Z</time></trkpt><trkpt lat="39.1618591" lon="8.5450652"><ele>129.0</ele><time>2026-03-28T17:07:38.868Z</time></trkpt><trkpt lat="39.1617893" lon="8.5450379"><ele>129.0</ele><time>2026-03-28T17:07:40.894Z</time></trkpt><trkpt lat="39.1617045" lon="8.5449786"><ele>129.0</ele><time>2026-03-28T17:07:42.906Z</time></trkpt><trkpt lat="39.1616503" lon="8.5449046"><ele>129.0</ele><time>2026-03-28T17:07:44.888Z</time></trkpt><trkpt lat="39.1616268" lon="8.5447335"><ele>129.0</ele><time>2026-03-28T17:07:46.873Z</time></trkpt><trkpt lat="39.1616291" lon="8.5446263"><ele>129.0</ele><time>2026-03-28T17:07:47.883Z</time></trkpt><trkpt lat="39.1616306" lon="8.544519"><ele>128.0</ele><time>2026-03-28T17:07:48.897Z</time></trkpt><trkpt lat="39.1616419" lon="8.5444143"><ele>127.0</ele><time>2026-03-28T17:07:49.87Z</time></trkpt><trkpt lat="39.1616494" lon="8.5443115"><ele>126.0</ele><time>2026-03-28T17:07:50.872Z</time></trkpt><trkpt lat="39.1616544" lon="8.5442124"><ele>125.0</ele><time>2026-03-28T17:07:51.888Z</time></trkpt><trkpt lat="39.1616557" lon="8.5441194"><ele>124.0</ele><time>2026-03-28T17:07:52.867Z</time></trkpt><trkpt lat="39.1616629" lon="8.5440295"><ele>123.0</ele><time>2026-03-28T17:07:53.876Z</time></trkpt><trkpt lat="39.1616743" lon="8.5439347"><ele>123.0</ele><time>2026-03-28T17:07:54.863Z</time></trkpt><trkpt lat="39.1616839" lon="8.5438377"><ele>123.0</ele><time>2026-03-28T17:07:55.891Z</time></trkpt><trkpt lat="39.1616925" lon="8.5437373"><ele>123.0</ele><time>2026-03-28T17:07:56.89Z</time></trkpt><trkpt lat="39.1617027" lon="8.5436381"><ele>123.0</ele><time>2026-03-28T17:07:57.85Z</time></trkpt><trkpt lat="39.1617099" lon="8.5435401"><ele>123.0</ele><time>2026-03-28T17:07:58.873Z</time></trkpt><trkpt lat="39.1617184" lon="8.5434469"><ele>123.0</ele><time>2026-03-28T17:07:59.88Z</time></trkpt><trkpt lat="39.1617242" lon="8.5433009"><ele>122.2</ele><time>2026-03-28T17:08:01.891Z</time></trkpt><trkpt lat="39.1616701" lon="8.5431853"><ele>121.4</ele><time>2026-03-28T17:08:03.883Z</time></trkpt><trkpt lat="39.1616071" lon="8.5431151"><ele>120.60000000000001</ele><time>2026-03-28T17:08:04.865Z</time></trkpt><trkpt lat="39.1615251" lon="8.5430288"><ele>119.80000000000001</ele><time>2026-03-28T17:08:05.886Z</time></trkpt><trkpt lat="39.1614367" lon="8.542932"><ele>119.0</ele><time>2026-03-28T17:08:06.886Z</time></trkpt><trkpt lat="39.1613563" lon="8.5428413"><ele>117.80000000000001</ele><time>2026-03-28T17:08:07.876Z</time></trkpt><trkpt lat="39.161276" lon="8.5427459"><ele>116.60000000000001</ele><time>2026-03-28T17:08:08.879Z</time></trkpt><trkpt lat="39.1612033" lon="8.542649"><ele>115.4</ele><time>2026-03-28T17:08:09.884Z</time></trkpt><trkpt lat="39.161133" lon="8.5425544"><ele>114.2</ele><time>2026-03-28T17:08:10.815Z</time></trkpt><trkpt lat="39.1610746" lon="8.5424643"><ele>113.0</ele><time>2026-03-28T17:08:11.853Z</time></trkpt><trkpt lat="39.1610256" lon="8.5423671"><ele>113.0</ele><time>2026-03-28T17:08:12.877Z</time></trkpt><trkpt lat="39.160982" lon="8.5422693"><ele>113.00000000000001</ele><time>2026-03-28T17:08:13.884Z</time></trkpt><trkpt lat="39.1609433" lon="8.5421576"><ele>113.00000000000001</ele><time>2026-03-28T17:08:14.894Z</time></trkpt><trkpt lat="39.1608966" lon="8.5420222"><ele>113.0</ele><time>2026-03-28T17:08:15.877Z</time></trkpt><trkpt lat="39.1608424" lon="8.5418834"><ele>113.0</ele><time>2026-03-28T17:08:16.906Z</time></trkpt><trkpt lat="39.1607921" lon="8.5417512"><ele>111.80000000000001</ele><time>2026-03-28T17:08:17.895Z</time></trkpt><trkpt lat="39.1607463" lon="8.5416283"><ele>110.60000000000001</ele><time>2026-03-28T17:08:18.898Z</time></trkpt><trkpt lat="39.1607007" lon="8.5415118"><ele>109.39999999999999</ele><time>2026-03-28T17:08:19.895Z</time></trkpt><trkpt lat="39.1606547" lon="8.5413931"><ele>108.19999999999999</ele><time>2026-03-28T17:08:20.895Z</time></trkpt><trkpt lat="39.1606081" lon="8.541266"><ele>107.0</ele><time>2026-03-28T17:08:21.894Z</time></trkpt><trkpt lat="39.1605567" lon="8.5411385"><ele>106.66666666666666</ele><time>2026-03-28T17:08:22.892Z</time></trkpt><trkpt lat="39.1605083" lon="8.5410128"><ele>106.33333333333333</ele><time>2026-03-28T17:08:23.884Z</time></trkpt><trkpt lat="39.1604623" lon="8.5409014"><ele>106.0</ele><time>2026-03-28T17:08:24.91Z</time></trkpt><trkpt lat="39.1604205" lon="8.5408105"><ele>105.66666666666666</ele><time>2026-03-28T17:08:25.896Z</time></trkpt><trkpt lat="39.1603828" lon="8.5407305"><ele>105.33333333333333</ele><time>2026-03-28T17:08:26.879Z</time></trkpt><trkpt lat="39.1603363" lon="8.5406397"><ele>105.0</ele><time>2026-03-28T17:08:28.901Z</time></trkpt><trkpt lat="39.1603134" lon="8.5405073"><ele>105.0</ele><time>2026-03-28T17:09:16.889Z</time></trkpt><trkpt lat="39.1603066" lon="8.5404028"><ele>105.0</ele><time>2026-03-28T17:09:17.889Z</time></trkpt><trkpt lat="39.1602914" lon="8.5402504"><ele>105.0</ele><time>2026-03-28T17:09:18.876Z</time></trkpt><trkpt lat="39.1602656" lon="8.5400951"><ele>105.0</ele><time>2026-03-28T17:09:19.893Z</time></trkpt><trkpt lat="39.1602297" lon="8.539959"><ele>105.0</ele><time>2026-03-28T17:09:20.91Z</time></trkpt><trkpt lat="39.160173" lon="8.5398338"><ele>104.5</ele><time>2026-03-28T17:09:21.872Z</time></trkpt><trkpt lat="39.1600979" lon="8.5397052"><ele>104.0</ele><time>2026-03-28T17:09:22.891Z</time></trkpt><trkpt lat="39.1600163" lon="8.5395709"><ele>103.5</ele><time>2026-03-28T17:09:23.9Z</time></trkpt><trkpt lat="39.1599331" lon="8.5394392"><ele>103.0</ele><time>2026-03-28T17:09:24.897Z</time></trkpt><trkpt lat="39.1598612" lon="8.5393247"><ele>102.4</ele><time>2026-03-28T17:09:25.883Z</time></trkpt><trkpt lat="39.1597998" lon="8.5392192"><ele>101.80000000000001</ele><time>2026-03-28T17:09:26.903Z</time></trkpt><trkpt lat="39.1597499" lon="8.539106"><ele>101.2</ele><time>2026-03-28T17:09:27.85Z</time></trkpt><trkpt lat="39.1597151" lon="8.5389722"><ele>100.6</ele><time>2026-03-28T17:09:28.903Z</time></trkpt><trkpt lat="39.1596854" lon="8.538838"><ele>100.0</ele><time>2026-03-28T17:09:29.897Z</time></trkpt><trkpt lat="39.1596548" lon="8.5387175"><ele>99.66666666666667</ele><time>2026-03-28T17:09:30.91Z</time></trkpt><trkpt lat="39.1596327" lon="8.5386037"><ele>99.33333333333334</ele><time>2026-03-28T17:09:31.876Z</time></trkpt><trkpt lat="39.159611" lon="8.5384961"><ele>99.0</ele><time>2026-03-28T17:09:32.872Z</time></trkpt><trkpt lat="39.1595901" lon="8.5383859"><ele>98.66666666666666</ele><time>2026-03-28T17:09:33.898Z</time></trkpt><trkpt lat="39.1595657" lon="8.5382796"><ele>98.33333333333333</ele><time>2026-03-28T17:09:34.892Z</time></trkpt><trkpt lat="39.1595415" lon="8.5381645"><ele>98.0</ele><time>2026-03-28T17:09:35.904Z</time></trkpt><trkpt lat="39.1595224" lon="8.5380507"><ele>97.99999999999999</ele><time>2026-03-28T17:09:36.904Z</time></trkpt><trkpt lat="39.1595047" lon="8.5379471"><ele>98.0</ele><time>2026-03-28T17:09:37.883Z</time></trkpt><trkpt lat="39.1594834" lon="8.5378399"><ele>98.0</ele><time>2026-03-28T17:09:38.89Z</time></trkpt><trkpt lat="39.1594611" lon="8.5377399"><ele>98.0</ele><time>2026-03-28T17:09:39.901Z</time></trkpt><trkpt lat="39.159434" lon="8.5376383"><ele>97.99999999999999</ele><time>2026-03-28T17:09:40.884Z</time></trkpt><trkpt lat="39.159396" lon="8.5375213"><ele>98.0</ele><time>2026-03-28T17:09:41.892Z</time></trkpt><trkpt lat="39.1593474" lon="8.5373923"><ele>97.4</ele><time>2026-03-28T17:09:42.887Z</time></trkpt><trkpt lat="39.1592875" lon="8.5372581"><ele>96.80000000000001</ele><time>2026-03-28T17:09:43.887Z</time></trkpt><trkpt lat="39.1592286" lon="8.5371349"><ele>96.2</ele><time>2026-03-28T17:09:44.88Z</time></trkpt><trkpt lat="39.1591762" lon="8.5370166"><ele>95.6</ele><time>2026-03-28T17:09:45.856Z</time></trkpt><trkpt lat="39.159127" lon="8.5369041"><ele>95.0</ele><time>2026-03-28T17:09:46.88Z</time></trkpt><trkpt lat="39.1590743" lon="8.536796"><ele>94.25</ele><time>2026-03-28T17:09:47.902Z</time></trkpt><trkpt lat="39.1589865" lon="8.5366626"><ele>93.5</ele><time>2026-03-28T17:09:48.921Z</time></trkpt><trkpt lat="39.1588865" lon="8.5365213"><ele>92.75</ele><time>2026-03-28T17:09:49.894Z</time></trkpt><trkpt lat="39.1587955" lon="8.536414"><ele>92.0</ele><time>2026-03-28T17:09:50.922Z</time></trkpt><trkpt lat="39.1587209" lon="8.5363301"><ele>92.0</ele><time>2026-03-28T17:09:51.905Z</time></trkpt><trkpt lat="39.1586583" lon="8.536259"><ele>92.0</ele><time>2026-03-28T17:09:52.896Z</time></trkpt><trkpt lat="39.158578" lon="8.5361554"><ele>92.0</ele><time>2026-03-28T17:09:54.877Z</time></trkpt><trkpt lat="39.158548" lon="8.5360443"><ele>92.0</ele><time>2026-03-28T17:09:56.887Z</time></trkpt><trkpt lat="39.1585471" lon="8.5359555"><ele>92.0</ele><time>2026-03-28T17:09:57.905Z</time></trkpt><trkpt lat="39.1585811" lon="8.5358196"><ele>91.33333333333334</ele><time>2026-03-28T17:09:58.893Z</time></trkpt><trkpt lat="39.1586531" lon="8.5356452"><ele>90.66666666666667</ele><time>2026-03-28T17:09:59.877Z</time></trkpt><trkpt lat="39.1587407" lon="8.5354627"><ele>90.0</ele><time>2026-03-28T17:10:00.838Z</time></trkpt><trkpt lat="39.1588254" lon="8.5352982"><ele>90.33333333333333</ele><time>2026-03-28T17:10:01.895Z</time></trkpt><trkpt lat="39.1589094" lon="8.535127"><ele>90.66666666666666</ele><time>2026-03-28T17:10:02.827Z</time></trkpt><trkpt lat="39.1590046" lon="8.5349478"><ele>91.0</ele><time>2026-03-28T17:10:03.837Z</time></trkpt><trkpt lat="39.1591023" lon="8.5347628"><ele>91.0</ele><time>2026-03-28T17:10:04.824Z</time></trkpt><trkpt lat="39.1592074" lon="8.5345573"><ele>91.0</ele><time>2026-03-28T17:10:05.857Z</time></trkpt><trkpt lat="39.1593014" lon="8.5343593"><ele>91.0</ele><time>2026-03-28T17:10:06.871Z</time></trkpt><trkpt lat="39.1593871" lon="8.534162"><ele>90.33333333333333</ele><time>2026-03-28T17:10:07.878Z</time></trkpt><trkpt lat="39.1594688" lon="8.5339827"><ele>89.66666666666667</ele><time>2026-03-28T17:10:08.838Z</time></trkpt><trkpt lat="39.1595483" lon="8.5337991"><ele>89.0</ele><time>2026-03-28T17:10:09.875Z</time></trkpt><trkpt lat="39.1596219" lon="8.5336212"><ele>88.33333333333334</ele><time>2026-03-28T17:10:10.826Z</time></trkpt><trkpt lat="39.1596946" lon="8.5334351"><ele>87.66666666666667</ele><time>2026-03-28T17:10:11.853Z</time></trkpt><trkpt lat="39.159773" lon="8.5332617"><ele>87.0</ele><time>2026-03-28T17:10:12.893Z</time></trkpt><trkpt lat="39.1598467" lon="8.5330725"><ele>87.0</ele><time>2026-03-28T17:10:13.844Z</time></trkpt><trkpt lat="39.1599202" lon="8.532896"><ele>87.0</ele><time>2026-03-28T17:10:14.89Z</time></trkpt><trkpt lat="39.1599879" lon="8.5327245"><ele>87.0</ele><time>2026-03-28T17:10:15.888Z</time></trkpt><trkpt lat="39.1600542" lon="8.5325564"><ele>87.0</ele><time>2026-03-28T17:10:16.888Z</time></trkpt><trkpt lat="39.1601198" lon="8.5323996"><ele>87.0</ele><time>2026-03-28T17:10:17.889Z</time></trkpt><trkpt lat="39.1601853" lon="8.5322401"><ele>87.0</ele><time>2026-03-28T17:10:18.883Z</time></trkpt><trkpt lat="39.1602501" lon="8.5320837"><ele>87.0</ele><time>2026-03-28T17:10:19.884Z</time></trkpt><trkpt lat="39.1603095" lon="8.5319188"><ele>86.75</ele><time>2026-03-28T17:10:20.901Z</time></trkpt><trkpt lat="39.1603535" lon="8.5317525"><ele>86.5</ele><time>2026-03-28T17:10:21.893Z</time></trkpt><trkpt lat="39.160379" lon="8.5315909"><ele>86.25</ele><time>2026-03-28T17:10:22.861Z</time></trkpt><trkpt lat="39.1603977" lon="8.5314414"><ele>86.0</ele><time>2026-03-28T17:10:23.899Z</time></trkpt><trkpt lat="39.1604131" lon="8.5312968"><ele>85.5</ele><time>2026-03-28T17:10:24.889Z</time></trkpt><trkpt lat="39.1604276" lon="8.5311494"><ele>85.0</ele><time>2026-03-28T17:10:25.881Z</time></trkpt><trkpt lat="39.1604448" lon="8.5309983"><ele>84.5</ele><time>2026-03-28T17:10:26.895Z</time></trkpt><trkpt lat="39.1604619" lon="8.5308388"><ele>84.0</ele><time>2026-03-28T17:10:27.874Z</time></trkpt><trkpt lat="39.1604814" lon="8.5306865"><ele>84.0</ele><time>2026-03-28T17:10:28.868Z</time></trkpt><trkpt lat="39.1605007" lon="8.5305574"><ele>84.0</ele><time>2026-03-28T17:10:29.902Z</time></trkpt><trkpt lat="39.1605143" lon="8.5304316"><ele>84.0</ele><time>2026-03-28T17:10:30.852Z</time></trkpt><trkpt lat="39.1605281" lon="8.5303186"><ele>84.0</ele><time>2026-03-28T17:10:31.884Z</time></trkpt><trkpt lat="39.1605394" lon="8.5302142"><ele>84.0</ele><time>2026-03-28T17:10:32.898Z</time></trkpt><trkpt lat="39.1605562" lon="8.5301229"><ele>84.0</ele><time>2026-03-28T17:10:33.877Z</time></trkpt><trkpt lat="39.1605726" lon="8.5300242"><ele>83.6</ele><time>2026-03-28T17:10:34.878Z</time></trkpt><trkpt lat="39.1605908" lon="8.5299117"><ele>83.2</ele><time>2026-03-28T17:10:35.889Z</time></trkpt><trkpt lat="39.1606016" lon="8.5297833"><ele>82.8</ele><time>2026-03-28T17:10:36.895Z</time></trkpt><trkpt lat="39.1605973" lon="8.5296415"><ele>82.39999999999999</ele><time>2026-03-28T17:10:37.91Z</time></trkpt><trkpt lat="39.1606123" lon="8.5294784"><ele>82.0</ele><time>2026-03-28T17:10:38.912Z</time></trkpt><trkpt lat="39.1606322" lon="8.5293108"><ele>81.83333333333333</ele><time>2026-03-28T17:10:39.892Z</time></trkpt><trkpt lat="39.1606439" lon="8.5291696"><ele>81.66666666666666</ele><time>2026-03-28T17:10:40.881Z</time></trkpt><trkpt lat="39.1606601" lon="8.5290741"><ele>81.5</ele><time>2026-03-28T17:10:41.894Z</time></trkpt><trkpt lat="39.1606724" lon="8.5289874"><ele>81.33333333333333</ele><time>2026-03-28T17:10:43.891Z</time></trkpt><trkpt lat="39.1606884" lon="8.5289075"><ele>81.16666666666667</ele><time>2026-03-28T17:10:45.899Z</time></trkpt><trkpt lat="39.1607042" lon="8.5288072"><ele>81.0</ele><time>2026-03-28T17:10:47.864Z</time></trkpt><trkpt lat="39.1607231" lon="8.5287043"><ele>81.5</ele><time>2026-03-28T17:10:49.906Z</time></trkpt><trkpt lat="39.1607544" lon="8.5285488"><ele>82.0</ele><time>2026-03-28T17:10:51.874Z</time></trkpt><trkpt lat="39.1607862" lon="8.5283963"><ele>82.5</ele><time>2026-03-28T17:10:52.886Z</time></trkpt><trkpt lat="39.1608184" lon="8.5281966"><ele>83.0</ele><time>2026-03-28T17:10:53.882Z</time></trkpt><trkpt lat="39.1608565" lon="8.5279831"><ele>83.66666666666667</ele><time>2026-03-28T17:10:54.844Z</time></trkpt><trkpt lat="39.1608869" lon="8.5277665"><ele>84.33333333333333</ele><time>2026-03-28T17:10:55.869Z</time></trkpt><trkpt lat="39.160915" lon="8.5275643"><ele>85.0</ele><time>2026-03-28T17:10:56.92Z</time></trkpt><trkpt lat="39.1609432" lon="8.5273786"><ele>85.0</ele><time>2026-03-28T17:10:57.882Z</time></trkpt><trkpt lat="39.1609759" lon="8.5271958"><ele>85.0</ele><time>2026-03-28T17:10:58.898Z</time></trkpt><trkpt lat="39.161001" lon="8.527026"><ele>85.0</ele><time>2026-03-28T17:10:59.895Z</time></trkpt><trkpt lat="39.1610213" lon="8.5268735"><ele>85.0</ele><time>2026-03-28T17:11:00.878Z</time></trkpt><trkpt lat="39.1610459" lon="8.526734"><ele>86.0</ele><time>2026-03-28T17:11:01.908Z</time></trkpt><trkpt lat="39.1610678" lon="8.5266015"><ele>87.0</ele><time>2026-03-28T17:11:02.871Z</time></trkpt><trkpt lat="39.1610955" lon="8.5264648"><ele>88.0</ele><time>2026-03-28T17:11:03.872Z</time></trkpt><trkpt lat="39.1611205" lon="8.5263151"><ele>89.0</ele><time>2026-03-28T17:11:04.886Z</time></trkpt><trkpt lat="39.1611453" lon="8.526156"><ele>89.4</ele><time>2026-03-28T17:11:05.878Z</time></trkpt><trkpt lat="39.1611737" lon="8.5260055"><ele>89.80000000000001</ele><time>2026-03-28T17:11:06.896Z</time></trkpt><trkpt lat="39.1611989" lon="8.5258628"><ele>90.19999999999999</ele><time>2026-03-28T17:11:07.891Z</time></trkpt><trkpt lat="39.1612181" lon="8.5257402"><ele>90.6</ele><time>2026-03-28T17:11:08.902Z</time></trkpt><trkpt lat="39.1612339" lon="8.5256407"><ele>91.0</ele><time>2026-03-28T17:11:09.891Z</time></trkpt><trkpt lat="39.1612548" lon="8.5255617"><ele>91.0</ele><time>2026-03-28T17:11:10.889Z</time></trkpt><trkpt lat="39.1612888" lon="8.5254924"><ele>91.0</ele><time>2026-03-28T17:11:11.868Z</time></trkpt><trkpt lat="39.1613224" lon="8.5254205"><ele>91.0</ele><time>2026-03-28T17:11:12.897Z</time></trkpt><trkpt lat="39.1613209" lon="8.525272"><ele>91.0</ele><time>2026-03-28T17:11:14.883Z</time></trkpt><trkpt lat="39.1613188" lon="8.5251869"><ele>91.0</ele><time>2026-03-28T17:11:15.889Z</time></trkpt><trkpt lat="39.161332" lon="8.5250872"><ele>91.0</ele><time>2026-03-28T17:11:16.881Z</time></trkpt><trkpt lat="39.1613552" lon="8.5249868"><ele>91.0</ele><time>2026-03-28T17:11:17.895Z</time></trkpt><trkpt lat="39.1613738" lon="8.524886"><ele>91.0</ele><time>2026-03-28T17:11:18.909Z</time></trkpt><trkpt lat="39.1613996" lon="8.5247903"><ele>91.0</ele><time>2026-03-28T17:11:19.877Z</time></trkpt><trkpt lat="39.1614198" lon="8.5246974"><ele>91.0</ele><time>2026-03-28T17:11:20.886Z</time></trkpt><trkpt lat="39.1614535" lon="8.5246114"><ele>91.0</ele><time>2026-03-28T17:11:21.902Z</time></trkpt><trkpt lat="39.1614935" lon="8.5245213"><ele>91.0</ele><time>2026-03-28T17:11:22.91Z</time></trkpt><trkpt lat="39.1615338" lon="8.5244267"><ele>91.0</ele><time>2026-03-28T17:11:23.898Z</time></trkpt><trkpt lat="39.16158" lon="8.5243384"><ele>91.0</ele><time>2026-03-28T17:11:24.899Z</time></trkpt><trkpt lat="39.1616243" lon="8.524248"><ele>91.0</ele><time>2026-03-28T17:11:25.84Z</time></trkpt><trkpt lat="39.1616703" lon="8.5241664"><ele>91.0</ele><time>2026-03-28T17:11:26.89Z</time></trkpt><trkpt lat="39.1617144" lon="8.524089"><ele>91.0</ele><time>2026-03-28T17:11:27.898Z</time></trkpt><trkpt lat="39.1617639" lon="8.5240188"><ele>91.0</ele><time>2026-03-28T17:11:28.872Z</time></trkpt><trkpt lat="39.1618233" lon="8.5239506"><ele>91.0</ele><time>2026-03-28T17:11:29.847Z</time></trkpt><trkpt lat="39.1618847" lon="8.52388"><ele>91.0</ele><time>2026-03-28T17:11:30.872Z</time></trkpt><trkpt lat="39.1619534" lon="8.5238134"><ele>91.0</ele><time>2026-03-28T17:11:31.891Z</time></trkpt><trkpt lat="39.1620262" lon="8.5237411"><ele>91.0</ele><time>2026-03-28T17:11:32.901Z</time></trkpt><trkpt lat="39.1621072" lon="8.5236658"><ele>91.0</ele><time>2026-03-28T17:11:33.856Z</time></trkpt><trkpt lat="39.1621992" lon="8.5235983"><ele>91.19999999999999</ele><time>2026-03-28T17:11:34.874Z</time></trkpt><trkpt lat="39.1622959" lon="8.5235401"><ele>91.39999999999999</ele><time>2026-03-28T17:11:35.826Z</time></trkpt><trkpt lat="39.1623895" lon="8.5234859"><ele>91.6</ele><time>2026-03-28T17:11:36.89Z</time></trkpt><trkpt lat="39.1624778" lon="8.5234492"><ele>91.8</ele><time>2026-03-28T17:11:37.892Z</time></trkpt><trkpt lat="39.1625719" lon="8.523416"><ele>92.0</ele><time>2026-03-28T17:11:38.88Z</time></trkpt><trkpt lat="39.1626659" lon="8.5233828"><ele>92.0</ele><time>2026-03-28T17:11:39.895Z</time></trkpt><trkpt lat="39.162756" lon="8.523353"><ele>92.0</ele><time>2026-03-28T17:11:40.879Z</time></trkpt><trkpt lat="39.1628376" lon="8.5233259"><ele>92.0</ele><time>2026-03-28T17:11:41.891Z</time></trkpt><trkpt lat="39.1629137" lon="8.5233108"><ele>92.0</ele><time>2026-03-28T17:11:42.911Z</time></trkpt><trkpt lat="39.1629876" lon="8.5233009"><ele>92.0</ele><time>2026-03-28T17:11:43.884Z</time></trkpt><trkpt lat="39.163107" lon="8.5232791"><ele>92.0</ele><time>2026-03-28T17:11:45.892Z</time></trkpt><trkpt lat="39.1631665" lon="8.5232522"><ele>92.39999999999999</ele><time>2026-03-28T17:11:46.885Z</time></trkpt><trkpt lat="39.1632205" lon="8.5231768"><ele>92.8</ele><time>2026-03-28T17:11:47.915Z</time></trkpt><trkpt lat="39.1632481" lon="8.5230693"><ele>93.2</ele><time>2026-03-28T17:11:48.87Z</time></trkpt><trkpt lat="39.1632612" lon="8.5229332"><ele>93.6</ele><time>2026-03-28T17:11:49.894Z</time></trkpt><trkpt lat="39.1632797" lon="8.5227807"><ele>94.0</ele><time>2026-03-28T17:11:50.889Z</time></trkpt><trkpt lat="39.1632996" lon="8.5226175"><ele>94.0</ele><time>2026-03-28T17:11:51.894Z</time></trkpt><trkpt lat="39.1633245" lon="8.52246"><ele>94.0</ele><time>2026-03-28T17:11:52.891Z</time></trkpt><trkpt lat="39.1633451" lon="8.5223316"><ele>94.0</ele><time>2026-03-28T17:11:53.903Z</time></trkpt><trkpt lat="39.1633626" lon="8.5222303"><ele>94.0</ele><time>2026-03-28T17:11:54.888Z</time></trkpt><trkpt lat="39.1633757" lon="8.5221449"><ele>94.0</ele><time>2026-03-28T17:11:55.906Z</time></trkpt><trkpt lat="39.1633892" lon="8.5220362"><ele>93.5</ele><time>2026-03-28T17:11:57.907Z</time></trkpt><trkpt lat="39.1634115" lon="8.5218603"><ele>93.0</ele><time>2026-03-28T17:11:59.918Z</time></trkpt><trkpt lat="39.1634297" lon="8.5217024"><ele>92.5</ele><time>2026-03-28T17:12:00.891Z</time></trkpt><trkpt lat="39.163462" lon="8.5215473"><ele>92.0</ele><time>2026-03-28T17:12:01.894Z</time></trkpt><trkpt lat="39.1634833" lon="8.5213894"><ele>92.0</ele><time>2026-03-28T17:12:02.908Z</time></trkpt><trkpt lat="39.1635014" lon="8.5212476"><ele>92.0</ele><time>2026-03-28T17:12:03.862Z</time></trkpt><trkpt lat="39.1635177" lon="8.5211192"><ele>92.0</ele><time>2026-03-28T17:12:04.922Z</time></trkpt><trkpt lat="39.1635404" lon="8.5210074"><ele>92.0</ele><time>2026-03-28T17:12:05.911Z</time></trkpt><trkpt lat="39.1635548" lon="8.5208957"><ele>92.0</ele><time>2026-03-28T17:12:06.893Z</time></trkpt><trkpt lat="39.1635745" lon="8.5207937"><ele>91.66666666666667</ele><time>2026-03-28T17:12:07.904Z</time></trkpt><trkpt lat="39.1636185" lon="8.5207078"><ele>91.33333333333334</ele><time>2026-03-28T17:12:08.882Z</time></trkpt><trkpt lat="39.1637003" lon="8.5206336"><ele>91.0</ele><time>2026-03-28T17:12:09.849Z</time></trkpt><trkpt lat="39.1637799" lon="8.5205784"><ele>90.66666666666667</ele><time>2026-03-28T17:12:10.89Z</time></trkpt><trkpt lat="39.1638577" lon="8.5205553"><ele>90.33333333333333</ele><time>2026-03-28T17:12:11.894Z</time></trkpt><trkpt lat="39.1639269" lon="8.5205521"><ele>90.0</ele><time>2026-03-28T17:12:12.88Z</time></trkpt><trkpt lat="39.1640174" lon="8.5205645"><ele>90.2</ele><time>2026-03-28T17:12:14.881Z</time></trkpt><trkpt lat="39.1640808" lon="8.5205663"><ele>90.4</ele><time>2026-03-28T17:12:19.916Z</time></trkpt><trkpt lat="39.1641216" lon="8.5204818"><ele>90.6</ele><time>2026-03-28T17:12:21.881Z</time></trkpt><trkpt lat="39.1641147" lon="8.5203332"><ele>90.8</ele><time>2026-03-28T17:12:22.887Z</time></trkpt><trkpt lat="39.1640943" lon="8.520156"><ele>91.0</ele><time>2026-03-28T17:12:23.892Z</time></trkpt><trkpt lat="39.1640662" lon="8.5199973"><ele>90.4</ele><time>2026-03-28T17:12:24.886Z</time></trkpt><trkpt lat="39.16405" lon="8.5198608"><ele>89.8</ele><time>2026-03-28T17:12:25.909Z</time></trkpt><trkpt lat="39.1640351" lon="8.5197278"><ele>89.2</ele><time>2026-03-28T17:12:26.884Z</time></trkpt><trkpt lat="39.1640178" lon="8.5196131"><ele>88.60000000000001</ele><time>2026-03-28T17:12:27.873Z</time></trkpt><trkpt lat="39.164008" lon="8.5195213"><ele>88.0</ele><time>2026-03-28T17:12:28.884Z</time></trkpt><trkpt lat="39.1640376" lon="8.5194091"><ele>87.25</ele><time>2026-03-28T17:12:30.89Z</time></trkpt><trkpt lat="39.1640981" lon="8.5193774"><ele>86.5</ele><time>2026-03-28T17:12:31.87Z</time></trkpt><trkpt lat="39.1641933" lon="8.5193616"><ele>85.75</ele><time>2026-03-28T17:12:32.887Z</time></trkpt><trkpt lat="39.1643269" lon="8.5193427"><ele>85.0</ele><time>2026-03-28T17:12:33.881Z</time></trkpt><trkpt lat="39.1644886" lon="8.5193095"><ele>85.0</ele><time>2026-03-28T17:12:34.891Z</time></trkpt><trkpt lat="39.1646663" lon="8.5192674"><ele>85.0</ele><time>2026-03-28T17:12:35.89Z</time></trkpt><trkpt lat="39.1648518" lon="8.5192162"><ele>85.0</ele><time>2026-03-28T17:12:36.892Z</time></trkpt><trkpt lat="39.1650509" lon="8.5191594"><ele>86.0</ele><time>2026-03-28T17:12:37.878Z</time></trkpt><trkpt lat="39.165273" lon="8.5190866"><ele>87.0</ele><time>2026-03-28T17:12:38.89Z</time></trkpt><trkpt lat="39.1655109" lon="8.5189931"><ele>87.0</ele><time>2026-03-28T17:12:39.881Z</time></trkpt><trkpt lat="39.1657319" lon="8.5188724"><ele>87.0</ele><time>2026-03-28T17:12:40.895Z</time></trkpt><trkpt lat="39.1659529" lon="8.5187234"><ele>87.0</ele><time>2026-03-28T17:12:41.901Z</time></trkpt><trkpt lat="39.1661586" lon="8.5185595"><ele>87.0</ele><time>2026-03-28T17:12:42.88Z</time></trkpt><trkpt lat="39.1663359" lon="8.5184154"><ele>87.0</ele><time>2026-03-28T17:12:43.874Z</time></trkpt><trkpt lat="39.1664738" lon="8.5182876"><ele>87.0</ele><time>2026-03-28T17:12:44.889Z</time></trkpt><trkpt lat="39.1665879" lon="8.5181704"><ele>87.0</ele><time>2026-03-28T17:12:45.89Z</time></trkpt><trkpt lat="39.1666897" lon="8.5180643"><ele>87.0</ele><time>2026-03-28T17:12:46.897Z</time></trkpt><trkpt lat="39.1667794" lon="8.5179758"><ele>88.0</ele><time>2026-03-28T17:12:47.891Z</time></trkpt><trkpt lat="39.1668533" lon="8.5179041"><ele>89.0</ele><time>2026-03-28T17:12:48.901Z</time></trkpt><trkpt lat="39.1669286" lon="8.5178467"><ele>90.0</ele><time>2026-03-28T17:12:49.9Z</time></trkpt><trkpt lat="39.1670098" lon="8.5178222"><ele>91.0</ele><time>2026-03-28T17:12:50.905Z</time></trkpt><trkpt lat="39.1670798" lon="8.5177945"><ele>92.0</ele><time>2026-03-28T17:12:51.902Z</time></trkpt><trkpt lat="39.1671673" lon="8.5176561"><ele>92.0</ele><time>2026-03-28T17:12:53.884Z</time></trkpt><trkpt lat="39.1672047" lon="8.5175345"><ele>92.0</ele><time>2026-03-28T17:12:54.896Z</time></trkpt><trkpt lat="39.1672754" lon="8.5174197"><ele>92.0</ele><time>2026-03-28T17:12:55.843Z</time></trkpt><trkpt lat="39.1673805" lon="8.5172904"><ele>92.0</ele><time>2026-03-28T17:12:56.894Z</time></trkpt><trkpt lat="39.1674861" lon="8.5171541"><ele>91.5</ele><time>2026-03-28T17:12:57.858Z</time></trkpt><trkpt lat="39.1675862" lon="8.5170104"><ele>91.0</ele><time>2026-03-28T17:12:58.889Z</time></trkpt><trkpt lat="39.1676789" lon="8.5168797"><ele>90.5</ele><time>2026-03-28T17:12:59.888Z</time></trkpt><trkpt lat="39.1677668" lon="8.5167651"><ele>90.0</ele><time>2026-03-28T17:13:00.882Z</time></trkpt><trkpt lat="39.1678498" lon="8.5166647"><ele>90.0</ele><time>2026-03-28T17:13:01.88Z</time></trkpt><trkpt lat="39.167932" lon="8.5165697"><ele>90.0</ele><time>2026-03-28T17:13:02.907Z</time></trkpt><trkpt lat="39.1680057" lon="8.5164893"><ele>90.0</ele><time>2026-03-28T17:13:03.921Z</time></trkpt><trkpt lat="39.1680667" lon="8.5164217"><ele>90.0</ele><time>2026-03-28T17:13:04.865Z</time></trkpt><trkpt lat="39.1681511" lon="8.5163398"><ele>90.0</ele><time>2026-03-28T17:13:06.888Z</time></trkpt><trkpt lat="39.1682454" lon="8.5163005"><ele>89.83333333333333</ele><time>2026-03-28T17:13:08.901Z</time></trkpt><trkpt lat="39.1683053" lon="8.5162654"><ele>89.66666666666667</ele><time>2026-03-28T17:13:09.901Z</time></trkpt><trkpt lat="39.1683185" lon="8.5161513"><ele>89.5</ele><time>2026-03-28T17:13:11.889Z</time></trkpt><trkpt lat="39.1682727" lon="8.5160915"><ele>89.33333333333334</ele><time>2026-03-28T17:13:12.904Z</time></trkpt><trkpt lat="39.1681857" lon="8.5160244"><ele>89.16666666666667</ele><time>2026-03-28T17:13:13.88Z</time></trkpt><trkpt lat="39.1680866" lon="8.5159453"><ele>89.0</ele><time>2026-03-28T17:13:14.883Z</time></trkpt><trkpt lat="39.1679771" lon="8.5158242"><ele>88.75</ele><time>2026-03-28T17:13:15.886Z</time></trkpt><trkpt lat="39.1678717" lon="8.5156921"><ele>88.5</ele><time>2026-03-28T17:13:16.894Z</time></trkpt><trkpt lat="39.1677675" lon="8.5155666"><ele>88.25</ele><time>2026-03-28T17:13:17.888Z</time></trkpt><trkpt lat="39.1676623" lon="8.5154387"><ele>88.0</ele><time>2026-03-28T17:13:18.892Z</time></trkpt><trkpt lat="39.1675412" lon="8.515282"><ele>87.0</ele><time>2026-03-28T17:13:19.865Z</time></trkpt><trkpt lat="39.1673982" lon="8.5151093"><ele>86.0</ele><time>2026-03-28T17:13:20.878Z</time></trkpt><trkpt lat="39.1672659" lon="8.514937"><ele>85.0</ele><time>2026-03-28T17:13:21.889Z</time></trkpt><trkpt lat="39.1671435" lon="8.5147893"><ele>85.0</ele><time>2026-03-28T17:13:22.901Z</time></trkpt><trkpt lat="39.1670369" lon="8.5146545"><ele>85.0</ele><time>2026-03-28T17:13:23.892Z</time></trkpt><trkpt lat="39.1669443" lon="8.5145356"><ele>85.0</ele><time>2026-03-28T17:13:24.872Z</time></trkpt><trkpt lat="39.1668721" lon="8.5144432"><ele>85.0</ele><time>2026-03-28T17:13:25.848Z</time></trkpt><trkpt lat="39.1668106" lon="8.5143586"><ele>84.66666666666666</ele><time>2026-03-28T17:13:26.89Z</time></trkpt><trkpt lat="39.166769" lon="8.5142873"><ele>84.33333333333333</ele><time>2026-03-28T17:13:27.905Z</time></trkpt><trkpt lat="39.1667185" lon="8.5141909"><ele>84.0</ele><time>2026-03-28T17:13:29.847Z</time></trkpt><trkpt lat="39.1666963" lon="8.5140764"><ele>83.66666666666667</ele><time>2026-03-28T17:13:31.899Z</time></trkpt><trkpt lat="39.1666557" lon="8.5139601"><ele>83.33333333333334</ele><time>2026-03-28T17:13:33.886Z</time></trkpt><trkpt lat="39.166597" lon="8.513926"><ele>83.0</ele><time>2026-03-28T17:13:34.887Z</time></trkpt><trkpt lat="39.1665024" lon="8.5139057"><ele>83.0</ele><time>2026-03-28T17:13:35.891Z</time></trkpt><trkpt lat="39.1664095" lon="8.5138435"><ele>83.0</ele><time>2026-03-28T17:13:36.905Z</time></trkpt><trkpt lat="39.1663206" lon="8.5137461"><ele>83.0</ele><time>2026-03-28T17:13:37.906Z</time></trkpt><trkpt lat="39.1662354" lon="8.5136415"><ele>83.0</ele><time>2026-03-28T17:13:38.892Z</time></trkpt><trkpt lat="39.1661641" lon="8.5135488"><ele>83.0</ele><time>2026-03-28T17:13:39.865Z</time></trkpt><trkpt lat="39.1661101" lon="8.5134789"><ele>81.0</ele><time>2026-03-28T17:13:40.869Z</time></trkpt><trkpt lat="39.1660543" lon="8.5133825"><ele>81.0</ele><time>2026-03-28T17:13:42.884Z</time></trkpt><trkpt lat="39.1660184" lon="8.5132814"><ele>81.0</ele><time>2026-03-28T17:13:45.881Z</time></trkpt><trkpt lat="39.1660026" lon="8.5131888"><ele>81.0</ele><time>2026-03-28T17:15:13.882Z</time></trkpt></trkseg></trk></gpx>